<?xml version='1.0' encoding='UTF-8'?><gpx version="1.1" creator="JPX - https://github.com/jenetics/jpx" xmlns="http://www.topografix.com/GPX/1/1"><trk><trkseg><trkpt lat="42.1084715" lon="11.9038769"><ele>220.0</ele><time>2026-04-18T11:12:29.911Z</time></trkpt><trkpt lat="42.1085237" lon="11.903978"><ele>220.0</ele><time>2026-04-18T11:12:32.912Z</time></trkpt><trkpt lat="42.1085903" lon="11.9040456"><ele>220.0</ele><time>2026-04-18T11:12:35.91Z</time></trkpt><trkpt lat="42.1086567" lon="11.9041283"><ele>220.0</ele><time>2026-04-18T11:12:37.91Z</time></trkpt><trkpt lat="42.1087307" lon="11.9042297"><ele>220.0</ele><time>2026-04-18T11:12:39.911Z</time></trkpt><trkpt lat="42.1087927" lon="11.9043402"><ele>222.4</ele><time>2026-04-18T11:12:41.91Z</time></trkpt><trkpt lat="42.1088626" lon="11.904471"><ele>224.8</ele><time>2026-04-18T11:12:43.911Z</time></trkpt><trkpt lat="42.1089203" lon="11.9045831"><ele>227.2</ele><time>2026-04-18T11:12:45.91Z</time></trkpt><trkpt lat="42.1090022" lon="11.9046832"><ele>229.6</ele><time>2026-04-18T11:12:47.911Z</time></trkpt><trkpt lat="42.1090857" lon="11.9047776"><ele>232.0</ele><time>2026-04-18T11:12:49.91Z</time></trkpt><trkpt lat="42.109181" lon="11.9048362"><ele>232.0</ele><time>2026-04-18T11:12:51.911Z</time></trkpt><trkpt lat="42.1092978" lon="11.9048859"><ele>232.0</ele><time>2026-04-18T11:12:53.911Z</time></trkpt><trkpt lat="42.1094063" lon="11.9049626"><ele>232.0</ele><time>2026-04-18T11:12:55.911Z</time></trkpt><trkpt lat="42.1095044" lon="11.9050699"><ele>232.0</ele><time>2026-04-18T11:12:57.911Z</time></trkpt><trkpt lat="42.1096017" lon="11.9051415"><ele>234.6</ele><time>2026-04-18T11:12:59.911Z</time></trkpt><trkpt lat="42.1097063" lon="11.9051721"><ele>237.2</ele><time>2026-04-18T11:13:01.91Z</time></trkpt><trkpt lat="42.1097849" lon="11.9052236"><ele>239.8</ele><time>2026-04-18T11:13:03.911Z</time></trkpt><trkpt lat="42.1098537" lon="11.9052834"><ele>242.4</ele><time>2026-04-18T11:13:05.91Z</time></trkpt><trkpt lat="42.1099125" lon="11.9053632"><ele>245.0</ele><time>2026-04-18T11:13:07.911Z</time></trkpt><trkpt lat="42.1099734" lon="11.9054608"><ele>245.00000000000003</ele><time>2026-04-18T11:13:09.911Z</time></trkpt><trkpt lat="42.1100626" lon="11.9055496"><ele>245.0</ele><time>2026-04-18T11:13:11.91Z</time></trkpt><trkpt lat="42.1101376" lon="11.9056112"><ele>245.0</ele><time>2026-04-18T11:13:13.911Z</time></trkpt><trkpt lat="42.110216" lon="11.9056356"><ele>245.0</ele><time>2026-04-18T11:13:15.91Z</time></trkpt><trkpt lat="42.1102931" lon="11.9055997"><ele>245.00000000000003</ele><time>2026-04-18T11:13:17.911Z</time></trkpt><trkpt lat="42.1103486" lon="11.9055511"><ele>245.0</ele><time>2026-04-18T11:13:18.912Z</time></trkpt><trkpt lat="42.1104169" lon="11.9054846"><ele>245.0</ele><time>2026-04-18T11:13:19.911Z</time></trkpt><trkpt lat="42.1104737" lon="11.9054192"><ele>245.0</ele><time>2026-04-18T11:13:20.911Z</time></trkpt><trkpt lat="42.1105851" lon="11.9052902"><ele>245.0</ele><time>2026-04-18T11:13:22.911Z</time></trkpt><trkpt lat="42.1106578" lon="11.9052027"><ele>245.0</ele><time>2026-04-18T11:13:23.912Z</time></trkpt><trkpt lat="42.1107107" lon="11.9051516"><ele>245.0</ele><time>2026-04-18T11:13:24.91Z</time></trkpt><trkpt lat="42.1107978" lon="11.9050899"><ele>246.50000000000003</ele><time>2026-04-18T11:13:26.911Z</time></trkpt><trkpt lat="42.1108638" lon="11.9051041"><ele>248.0</ele><time>2026-04-18T11:13:28.911Z</time></trkpt><trkpt lat="42.1109457" lon="11.9052066"><ele>249.5</ele><time>2026-04-18T11:13:30.91Z</time></trkpt><trkpt lat="42.1109782" lon="11.9052864"><ele>251.0</ele><time>2026-04-18T11:13:31.911Z</time></trkpt><trkpt lat="42.1110073" lon="11.9053653"><ele>252.50000000000003</ele><time>2026-04-18T11:13:32.911Z</time></trkpt><trkpt lat="42.1110434" lon="11.9055116"><ele>254.0</ele><time>2026-04-18T11:13:34.91Z</time></trkpt><trkpt lat="42.1110563" lon="11.9056203"><ele>254.00000000000003</ele><time>2026-04-18T11:13:35.911Z</time></trkpt><trkpt lat="42.1110615" lon="11.9057235"><ele>254.0</ele><time>2026-04-18T11:13:36.912Z</time></trkpt><trkpt lat="42.111064" lon="11.9058304"><ele>254.0</ele><time>2026-04-18T11:13:37.912Z</time></trkpt><trkpt lat="42.1110679" lon="11.9059189"><ele>254.0</ele><time>2026-04-18T11:13:38.91Z</time></trkpt><trkpt lat="42.1110708" lon="11.9060248"><ele>254.00000000000003</ele><time>2026-04-18T11:13:39.91Z</time></trkpt><trkpt lat="42.1110813" lon="11.906136"><ele>254.0</ele><time>2026-04-18T11:13:40.91Z</time></trkpt><trkpt lat="42.1110915" lon="11.9062396"><ele>255.79999999999998</ele><time>2026-04-18T11:13:41.91Z</time></trkpt><trkpt lat="42.1111045" lon="11.9063958"><ele>257.59999999999997</ele><time>2026-04-18T11:13:43.911Z</time></trkpt><trkpt lat="42.1111193" lon="11.9065483"><ele>259.4</ele><time>2026-04-18T11:13:45.911Z</time></trkpt><trkpt lat="42.1111181" lon="11.9066361"><ele>261.2</ele><time>2026-04-18T11:13:46.912Z</time></trkpt><trkpt lat="42.1110995" lon="11.9068012"><ele>263.0</ele><time>2026-04-18T11:13:48.911Z</time></trkpt><trkpt lat="42.1110785" lon="11.9069252"><ele>265.8</ele><time>2026-04-18T11:13:50.911Z</time></trkpt><trkpt lat="42.1110246" lon="11.9070547"><ele>268.6</ele><time>2026-04-18T11:13:52.911Z</time></trkpt><trkpt lat="42.1109565" lon="11.9071924"><ele>271.4</ele><time>2026-04-18T11:13:54.91Z</time></trkpt><trkpt lat="42.110935" lon="11.9072834"><ele>274.2</ele><time>2026-04-18T11:13:55.911Z</time></trkpt><trkpt lat="42.1109045" lon="11.9074419"><ele>277.0</ele><time>2026-04-18T11:13:57.911Z</time></trkpt><trkpt lat="42.1108756" lon="11.9075726"><ele>278.8333333333333</ele><time>2026-04-18T11:13:59.911Z</time></trkpt><trkpt lat="42.1108488" lon="11.9076534"><ele>280.66666666666663</ele><time>2026-04-18T11:14:00.911Z</time></trkpt><trkpt lat="42.1108218" lon="11.907753"><ele>282.5</ele><time>2026-04-18T11:14:01.912Z</time></trkpt><trkpt lat="42.1107658" lon="11.9079069"><ele>284.3333333333333</ele><time>2026-04-18T11:14:03.911Z</time></trkpt><trkpt lat="42.1107312" lon="11.9079813"><ele>286.1666666666667</ele><time>2026-04-18T11:14:04.91Z</time></trkpt><trkpt lat="42.1106983" lon="11.9080654"><ele>288.0</ele><time>2026-04-18T11:14:05.911Z</time></trkpt><trkpt lat="42.1106893" lon="11.9081931"><ele>288.6666666666667</ele><time>2026-04-18T11:14:07.91Z</time></trkpt><trkpt lat="42.1106729" lon="11.9082838"><ele>289.3333333333333</ele><time>2026-04-18T11:14:09.911Z</time></trkpt><trkpt lat="42.1106077" lon="11.9083999"><ele>290.0</ele><time>2026-04-18T11:14:11.911Z</time></trkpt><trkpt lat="42.1105542" lon="11.908459"><ele>290.66666666666663</ele><time>2026-04-18T11:14:12.91Z</time></trkpt><trkpt lat="42.11047" lon="11.9085332"><ele>291.3333333333333</ele><time>2026-04-18T11:14:14.91Z</time></trkpt><trkpt lat="42.1103822" lon="11.9085209"><ele>292.0</ele><time>2026-04-18T11:14:16.911Z</time></trkpt><trkpt lat="42.1102995" lon="11.9085689"><ele>294.8</ele><time>2026-04-18T11:14:18.91Z</time></trkpt><trkpt lat="42.110219" lon="11.9086824"><ele>297.6</ele><time>2026-04-18T11:14:20.911Z</time></trkpt><trkpt lat="42.110129" lon="11.9087938"><ele>300.40000000000003</ele><time>2026-04-18T11:14:22.91Z</time></trkpt><trkpt lat="42.1100945" lon="11.908869"><ele>303.2</ele><time>2026-04-18T11:14:23.911Z</time></trkpt><trkpt lat="42.1100367" lon="11.9089771"><ele>306.0</ele><time>2026-04-18T11:14:25.911Z</time></trkpt><trkpt lat="42.1099546" lon="11.9090084"><ele>305.8</ele><time>2026-04-18T11:14:27.911Z</time></trkpt><trkpt lat="42.1098143" lon="11.9090255"><ele>305.6</ele><time>2026-04-18T11:14:29.911Z</time></trkpt><trkpt lat="42.109742" lon="11.9090306"><ele>305.4</ele><time>2026-04-18T11:14:30.91Z</time></trkpt><trkpt lat="42.1096444" lon="11.909046"><ele>305.2</ele><time>2026-04-18T11:14:32.91Z</time></trkpt><trkpt lat="42.1095954" lon="11.9091206"><ele>305.0</ele><time>2026-04-18T11:14:40.91Z</time></trkpt><trkpt lat="42.1096354" lon="11.9092224"><ele>306.0</ele><time>2026-04-18T11:14:42.909Z</time></trkpt><trkpt lat="42.1096803" lon="11.9093618"><ele>307.0</ele><time>2026-04-18T11:14:44.91Z</time></trkpt><trkpt lat="42.1097431" lon="11.9094828"><ele>308.0</ele><time>2026-04-18T11:14:46.911Z</time></trkpt><trkpt lat="42.1097801" lon="11.9095544"><ele>309.0</ele><time>2026-04-18T11:14:47.91Z</time></trkpt><trkpt lat="42.1098193" lon="11.9096358"><ele>310.0</ele><time>2026-04-18T11:14:48.91Z</time></trkpt><trkpt lat="42.109876" lon="11.9097484"><ele>311.5</ele><time>2026-04-18T11:14:49.909Z</time></trkpt><trkpt lat="42.1099329" lon="11.9098472"><ele>313.0</ele><time>2026-04-18T11:14:50.91Z</time></trkpt><trkpt lat="42.1099803" lon="11.9099405"><ele>314.5</ele><time>2026-04-18T11:14:51.91Z</time></trkpt><trkpt lat="42.1100128" lon="11.9100146"><ele>316.0</ele><time>2026-04-18T11:14:52.909Z</time></trkpt><trkpt lat="42.1100744" lon="11.9101609"><ele>317.5</ele><time>2026-04-18T11:14:54.911Z</time></trkpt><trkpt lat="42.1101186" lon="11.9102428"><ele>319.0</ele><time>2026-04-18T11:14:55.91Z</time></trkpt><trkpt lat="42.1101604" lon="11.9103276"><ele>320.4</ele><time>2026-04-18T11:14:56.909Z</time></trkpt><trkpt lat="42.1102391" lon="11.9104546"><ele>321.79999999999995</ele><time>2026-04-18T11:14:58.909Z</time></trkpt><trkpt lat="42.1102876" lon="11.9105143"><ele>323.20000000000005</ele><time>2026-04-18T11:14:59.909Z</time></trkpt><trkpt lat="42.1103583" lon="11.9106305"><ele>324.6</ele><time>2026-04-18T11:15:01.911Z</time></trkpt><trkpt lat="42.1103999" lon="11.9107216"><ele>326.0</ele><time>2026-04-18T11:15:02.91Z</time></trkpt><trkpt lat="42.1104566" lon="11.9108354"><ele>326.5</ele><time>2026-04-18T11:15:03.91Z</time></trkpt><trkpt lat="42.1104967" lon="11.9109243"><ele>327.0</ele><time>2026-04-18T11:15:04.911Z</time></trkpt><trkpt lat="42.1105387" lon="11.9110031"><ele>327.5</ele><time>2026-04-18T11:15:05.91Z</time></trkpt><trkpt lat="42.1105816" lon="11.9110703"><ele>328.0</ele><time>2026-04-18T11:15:06.91Z</time></trkpt><trkpt lat="42.1106406" lon="11.9111571"><ele>328.5</ele><time>2026-04-18T11:15:08.91Z</time></trkpt><trkpt lat="42.1107317" lon="11.9112122"><ele>329.0</ele><time>2026-04-18T11:15:10.909Z</time></trkpt><trkpt lat="42.1108426" lon="11.9112206"><ele>332.2</ele><time>2026-04-18T11:15:12.909Z</time></trkpt><trkpt lat="42.1109299" lon="11.9111852"><ele>335.4</ele><time>2026-04-18T11:15:13.909Z</time></trkpt><trkpt lat="42.1110027" lon="11.9111463"><ele>338.6</ele><time>2026-04-18T11:15:14.909Z</time></trkpt><trkpt lat="42.1110974" lon="11.9110884"><ele>341.8</ele><time>2026-04-18T11:15:15.91Z</time></trkpt><trkpt lat="42.1111784" lon="11.9110458"><ele>345.0</ele><time>2026-04-18T11:15:16.909Z</time></trkpt><trkpt lat="42.111273" lon="11.91101"><ele>345.0</ele><time>2026-04-18T11:15:17.91Z</time></trkpt><trkpt lat="42.1113476" lon="11.9109813"><ele>345.0</ele><time>2026-04-18T11:15:18.909Z</time></trkpt><trkpt lat="42.1114255" lon="11.9109398"><ele>345.0</ele><time>2026-04-18T11:15:19.91Z</time></trkpt><trkpt lat="42.1114891" lon="11.9109033"><ele>345.0</ele><time>2026-04-18T11:15:20.911Z</time></trkpt><trkpt lat="42.1115779" lon="11.9108465"><ele>345.0</ele><time>2026-04-18T11:15:21.91Z</time></trkpt><trkpt lat="42.1116557" lon="11.9108045"><ele>345.0</ele><time>2026-04-18T11:15:22.909Z</time></trkpt><trkpt lat="42.1117282" lon="11.9107649"><ele>344.2</ele><time>2026-04-18T11:15:23.909Z</time></trkpt><trkpt lat="42.1117964" lon="11.9107429"><ele>343.4</ele><time>2026-04-18T11:15:24.91Z</time></trkpt><trkpt lat="42.1118713" lon="11.9107362"><ele>342.6</ele><time>2026-04-18T11:15:25.91Z</time></trkpt><trkpt lat="42.1119492" lon="11.910748"><ele>341.8</ele><time>2026-04-18T11:15:26.909Z</time></trkpt><trkpt lat="42.1120512" lon="11.9107712"><ele>341.0</ele><time>2026-04-18T11:15:27.91Z</time></trkpt><trkpt lat="42.1121822" lon="11.9107952"><ele>341.0</ele><time>2026-04-18T11:15:28.91Z</time></trkpt><trkpt lat="42.1123011" lon="11.9108134"><ele>341.0</ele><time>2026-04-18T11:15:29.91Z</time></trkpt><trkpt lat="42.1123937" lon="11.910839"><ele>341.0</ele><time>2026-04-18T11:15:30.91Z</time></trkpt><trkpt lat="42.112466" lon="11.9108498"><ele>341.0</ele><time>2026-04-18T11:15:31.911Z</time></trkpt><trkpt lat="42.1125791" lon="11.9108975"><ele>341.0</ele><time>2026-04-18T11:15:33.91Z</time></trkpt><trkpt lat="42.1126462" lon="11.9109988"><ele>343.8</ele><time>2026-04-18T11:15:35.909Z</time></trkpt><trkpt lat="42.1126893" lon="11.9111553"><ele>346.6</ele><time>2026-04-18T11:15:37.91Z</time></trkpt><trkpt lat="42.1127038" lon="11.9112426"><ele>349.4</ele><time>2026-04-18T11:15:38.911Z</time></trkpt><trkpt lat="42.1127388" lon="11.9113903"><ele>352.2</ele><time>2026-04-18T11:15:40.91Z</time></trkpt><trkpt lat="42.1128013" lon="11.9114913"><ele>355.0</ele><time>2026-04-18T11:15:42.91Z</time></trkpt><trkpt lat="42.1129193" lon="11.9115781"><ele>355.0</ele><time>2026-04-18T11:15:44.91Z</time></trkpt><trkpt lat="42.1130215" lon="11.9116368"><ele>355.0</ele><time>2026-04-18T11:15:45.91Z</time></trkpt><trkpt lat="42.1131042" lon="11.9116754"><ele>355.0</ele><time>2026-04-18T11:15:46.91Z</time></trkpt><trkpt lat="42.1131885" lon="11.9116995"><ele>355.0</ele><time>2026-04-18T11:15:47.91Z</time></trkpt><trkpt lat="42.1132632" lon="11.9117229"><ele>355.0</ele><time>2026-04-18T11:15:48.909Z</time></trkpt><trkpt lat="42.1133376" lon="11.9117375"><ele>355.0</ele><time>2026-04-18T11:15:49.91Z</time></trkpt><trkpt lat="42.1134109" lon="11.9117319"><ele>354.0</ele><time>2026-04-18T11:15:50.91Z</time></trkpt><trkpt lat="42.1135224" lon="11.9117114"><ele>353.0</ele><time>2026-04-18T11:15:52.909Z</time></trkpt><trkpt lat="42.1135916" lon="11.9116888"><ele>352.0</ele><time>2026-04-18T11:15:53.909Z</time></trkpt><trkpt lat="42.1136695" lon="11.9116576"><ele>351.0</ele><time>2026-04-18T11:15:54.91Z</time></trkpt><trkpt lat="42.1137299" lon="11.9116329"><ele>350.0</ele><time>2026-04-18T11:15:55.91Z</time></trkpt><trkpt lat="42.1138112" lon="11.9116061"><ele>349.0</ele><time>2026-04-18T11:15:57.91Z</time></trkpt><trkpt lat="42.1138833" lon="11.9115871"><ele>349.0</ele><time>2026-04-18T11:16:02.91Z</time></trkpt><trkpt lat="42.1139656" lon="11.9115884"><ele>349.0</ele><time>2026-04-18T11:16:06.911Z</time></trkpt><trkpt lat="42.114035" lon="11.9115947"><ele>349.0</ele><time>2026-04-18T11:16:08.911Z</time></trkpt><trkpt lat="42.1141246" lon="11.9115916"><ele>349.0</ele><time>2026-04-18T11:16:10.91Z</time></trkpt><trkpt lat="42.1142543" lon="11.911593"><ele>349.0</ele><time>2026-04-18T11:16:12.91Z</time></trkpt><trkpt lat="42.1143599" lon="11.9115661"><ele>349.2</ele><time>2026-04-18T11:16:14.91Z</time></trkpt><trkpt lat="42.1144423" lon="11.9115591"><ele>349.4</ele><time>2026-04-18T11:16:16.91Z</time></trkpt><trkpt lat="42.1145119" lon="11.9116089"><ele>349.6</ele><time>2026-04-18T11:16:18.91Z</time></trkpt><trkpt lat="42.1145861" lon="11.9117251"><ele>349.8</ele><time>2026-04-18T11:16:20.909Z</time></trkpt><trkpt lat="42.1146137" lon="11.911863"><ele>350.0</ele><time>2026-04-18T11:16:22.909Z</time></trkpt><trkpt lat="42.1146195" lon="11.9119735"><ele>351.5</ele><time>2026-04-18T11:16:23.91Z</time></trkpt><trkpt lat="42.1146198" lon="11.9120876"><ele>353.0</ele><time>2026-04-18T11:16:24.911Z</time></trkpt><trkpt lat="42.1146276" lon="11.9122121"><ele>354.5</ele><time>2026-04-18T11:16:25.911Z</time></trkpt><trkpt lat="42.1146452" lon="11.912336"><ele>356.0</ele><time>2026-04-18T11:16:26.909Z</time></trkpt><trkpt lat="42.114665" lon="11.9124605"><ele>357.5</ele><time>2026-04-18T11:16:27.909Z</time></trkpt><trkpt lat="42.1146927" lon="11.9125572"><ele>359.0</ele><time>2026-04-18T11:16:28.911Z</time></trkpt><trkpt lat="42.1147231" lon="11.9126517"><ele>360.1666666666667</ele><time>2026-04-18T11:16:29.909Z</time></trkpt><trkpt lat="42.1147498" lon="11.9127399"><ele>361.33333333333337</ele><time>2026-04-18T11:16:30.91Z</time></trkpt><trkpt lat="42.1147745" lon="11.9128346"><ele>362.5</ele><time>2026-04-18T11:16:31.91Z</time></trkpt><trkpt lat="42.1147882" lon="11.9129282"><ele>363.6666666666667</ele><time>2026-04-18T11:16:32.909Z</time></trkpt><trkpt lat="42.1147906" lon="11.9130284"><ele>364.8333333333333</ele><time>2026-04-18T11:16:33.909Z</time></trkpt><trkpt lat="42.114778" lon="11.9131337"><ele>366.0</ele><time>2026-04-18T11:16:34.909Z</time></trkpt><trkpt lat="42.1147595" lon="11.9132658"><ele>366.0</ele><time>2026-04-18T11:16:35.91Z</time></trkpt><trkpt lat="42.1147457" lon="11.9133964"><ele>366.0</ele><time>2026-04-18T11:16:36.909Z</time></trkpt><trkpt lat="42.1147376" lon="11.9135187"><ele>366.0</ele><time>2026-04-18T11:16:37.909Z</time></trkpt><trkpt lat="42.1147261" lon="11.9136213"><ele>366.0</ele><time>2026-04-18T11:16:38.91Z</time></trkpt><trkpt lat="42.1147102" lon="11.9137192"><ele>366.0</ele><time>2026-04-18T11:16:39.91Z</time></trkpt><trkpt lat="42.1146954" lon="11.9138515"><ele>366.0</ele><time>2026-04-18T11:16:40.909Z</time></trkpt><trkpt lat="42.1146804" lon="11.9139825"><ele>368.6</ele><time>2026-04-18T11:16:41.909Z</time></trkpt><trkpt lat="42.1146625" lon="11.9141111"><ele>371.20000000000005</ele><time>2026-04-18T11:16:42.909Z</time></trkpt><trkpt lat="42.1146405" lon="11.9142458"><ele>373.79999999999995</ele><time>2026-04-18T11:16:43.909Z</time></trkpt><trkpt lat="42.1146202" lon="11.9143798"><ele>376.4</ele><time>2026-04-18T11:16:44.91Z</time></trkpt><trkpt lat="42.1146074" lon="11.9145061"><ele>379.0</ele><time>2026-04-18T11:16:45.91Z</time></trkpt><trkpt lat="42.1145952" lon="11.9146305"><ele>381.8333333333333</ele><time>2026-04-18T11:16:46.909Z</time></trkpt><trkpt lat="42.1145875" lon="11.914731"><ele>384.66666666666663</ele><time>2026-04-18T11:16:47.909Z</time></trkpt><trkpt lat="42.1145753" lon="11.9148276"><ele>387.5</ele><time>2026-04-18T11:16:48.911Z</time></trkpt><trkpt lat="42.1145578" lon="11.9149126"><ele>390.3333333333333</ele><time>2026-04-18T11:16:49.909Z</time></trkpt><trkpt lat="42.1145225" lon="11.9150445"><ele>393.1666666666667</ele><time>2026-04-18T11:16:51.911Z</time></trkpt><trkpt lat="42.1145136" lon="11.9151954"><ele>396.0</ele><time>2026-04-18T11:16:53.91Z</time></trkpt><trkpt lat="42.1145548" lon="11.9153503"><ele>396.0</ele><time>2026-04-18T11:16:55.91Z</time></trkpt><trkpt lat="42.1145903" lon="11.9154511"><ele>396.0</ele><time>2026-04-18T11:16:56.91Z</time></trkpt><trkpt lat="42.1146415" lon="11.9155801"><ele>396.0</ele><time>2026-04-18T11:16:57.909Z</time></trkpt><trkpt lat="42.1146842" lon="11.9156964"><ele>396.0</ele><time>2026-04-18T11:16:58.909Z</time></trkpt><trkpt lat="42.1147269" lon="11.9158191"><ele>396.0</ele><time>2026-04-18T11:16:59.909Z</time></trkpt><trkpt lat="42.1147771" lon="11.9159542"><ele>396.0</ele><time>2026-04-18T11:17:00.91Z</time></trkpt><trkpt lat="42.1148303" lon="11.9160876"><ele>396.0</ele><time>2026-04-18T11:17:01.911Z</time></trkpt><trkpt lat="42.1148769" lon="11.9162104"><ele>396.0</ele><time>2026-04-18T11:17:02.911Z</time></trkpt><trkpt lat="42.1149212" lon="11.9163183"><ele>396.0</ele><time>2026-04-18T11:17:03.909Z</time></trkpt><trkpt lat="42.1149718" lon="11.9164264"><ele>396.0</ele><time>2026-04-18T11:17:04.91Z</time></trkpt><trkpt lat="42.1150253" lon="11.9165516"><ele>397.75</ele><time>2026-04-18T11:17:05.91Z</time></trkpt><trkpt lat="42.1150808" lon="11.9166917"><ele>399.5</ele><time>2026-04-18T11:17:06.91Z</time></trkpt><trkpt lat="42.1151395" lon="11.9168173"><ele>401.25</ele><time>2026-04-18T11:17:07.91Z</time></trkpt><trkpt lat="42.1152139" lon="11.9169402"><ele>403.0</ele><time>2026-04-18T11:17:08.909Z</time></trkpt><trkpt lat="42.1152911" lon="11.9170576"><ele>403.4</ele><time>2026-04-18T11:17:09.909Z</time></trkpt><trkpt lat="42.1153662" lon="11.9171666"><ele>403.79999999999995</ele><time>2026-04-18T11:17:10.91Z</time></trkpt><trkpt lat="42.1154439" lon="11.9172739"><ele>404.2</ele><time>2026-04-18T11:17:11.911Z</time></trkpt><trkpt lat="42.1155209" lon="11.9173811"><ele>404.6</ele><time>2026-04-18T11:17:12.911Z</time></trkpt><trkpt lat="42.1155915" lon="11.9174813"><ele>405.0</ele><time>2026-04-18T11:17:13.91Z</time></trkpt><trkpt lat="42.1156642" lon="11.9175843"><ele>409.0</ele><time>2026-04-18T11:17:14.909Z</time></trkpt><trkpt lat="42.1157423" lon="11.9176898"><ele>413.0</ele><time>2026-04-18T11:17:15.909Z</time></trkpt><trkpt lat="42.1158186" lon="11.9177962"><ele>417.0</ele><time>2026-04-18T11:17:16.91Z</time></trkpt><trkpt lat="42.1159045" lon="11.9179175"><ele>421.0</ele><time>2026-04-18T11:17:17.91Z</time></trkpt><trkpt lat="42.1159871" lon="11.9180432"><ele>421.0</ele><time>2026-04-18T11:17:18.909Z</time></trkpt><trkpt lat="42.1160633" lon="11.9181646"><ele>421.0</ele><time>2026-04-18T11:17:19.91Z</time></trkpt><trkpt lat="42.1161369" lon="11.9182763"><ele>421.0</ele><time>2026-04-18T11:17:20.91Z</time></trkpt><trkpt lat="42.1162102" lon="11.9183848"><ele>421.0</ele><time>2026-04-18T11:17:21.911Z</time></trkpt><trkpt lat="42.1162801" lon="11.9184924"><ele>421.0</ele><time>2026-04-18T11:17:22.909Z</time></trkpt><trkpt lat="42.1163482" lon="11.9185901"><ele>421.50000000000006</ele><time>2026-04-18T11:17:23.91Z</time></trkpt><trkpt lat="42.1164099" lon="11.9186752"><ele>422.0</ele><time>2026-04-18T11:17:24.91Z</time></trkpt><trkpt lat="42.1164631" lon="11.9187481"><ele>422.5</ele><time>2026-04-18T11:17:25.911Z</time></trkpt><trkpt lat="42.1165121" lon="11.9188132"><ele>423.0</ele><time>2026-04-18T11:17:26.911Z</time></trkpt><trkpt lat="42.1165716" lon="11.9188927"><ele>423.50000000000006</ele><time>2026-04-18T11:17:27.909Z</time></trkpt><trkpt lat="42.1166224" lon="11.918976"><ele>424.0</ele><time>2026-04-18T11:17:28.91Z</time></trkpt><trkpt lat="42.116654" lon="11.9190661"><ele>424.79999999999995</ele><time>2026-04-18T11:17:29.91Z</time></trkpt><trkpt lat="42.1166728" lon="11.919172"><ele>425.59999999999997</ele><time>2026-04-18T11:17:30.911Z</time></trkpt><trkpt lat="42.1166779" lon="11.9192853"><ele>426.4</ele><time>2026-04-18T11:17:31.91Z</time></trkpt><trkpt lat="42.1166762" lon="11.9194054"><ele>427.2</ele><time>2026-04-18T11:17:32.911Z</time></trkpt><trkpt lat="42.1166669" lon="11.9195387"><ele>428.0</ele><time>2026-04-18T11:17:33.909Z</time></trkpt><trkpt lat="42.1166451" lon="11.9196968"><ele>428.75</ele><time>2026-04-18T11:17:34.91Z</time></trkpt><trkpt lat="42.1166222" lon="11.9198756"><ele>429.5</ele><time>2026-04-18T11:17:35.91Z</time></trkpt><trkpt lat="42.116601" lon="11.9200927"><ele>430.25</ele><time>2026-04-18T11:17:36.91Z</time></trkpt><trkpt lat="42.1165819" lon="11.9202889"><ele>431.0</ele><time>2026-04-18T11:17:37.911Z</time></trkpt><trkpt lat="42.1165672" lon="11.9204669"><ele>431.20000000000005</ele><time>2026-04-18T11:17:38.91Z</time></trkpt><trkpt lat="42.1165534" lon="11.9206257"><ele>431.40000000000003</ele><time>2026-04-18T11:17:39.91Z</time></trkpt><trkpt lat="42.1165419" lon="11.9207642"><ele>431.6</ele><time>2026-04-18T11:17:40.911Z</time></trkpt><trkpt lat="42.1165323" lon="11.9208825"><ele>431.8</ele><time>2026-04-18T11:17:41.91Z</time></trkpt><trkpt lat="42.1165285" lon="11.9209844"><ele>432.0</ele><time>2026-04-18T11:17:42.91Z</time></trkpt><trkpt lat="42.1165374" lon="11.9210806"><ele>432.6</ele><time>2026-04-18T11:17:43.911Z</time></trkpt><trkpt lat="42.1165648" lon="11.9211897"><ele>433.20000000000005</ele><time>2026-04-18T11:17:44.91Z</time></trkpt><trkpt lat="42.1166081" lon="11.9213174"><ele>433.8</ele><time>2026-04-18T11:17:45.91Z</time></trkpt><trkpt lat="42.1166506" lon="11.921441"><ele>434.4</ele><time>2026-04-18T11:17:46.91Z</time></trkpt><trkpt lat="42.1166949" lon="11.9215584"><ele>435.0</ele><time>2026-04-18T11:17:47.909Z</time></trkpt><trkpt lat="42.1167466" lon="11.9216633"><ele>434.8</ele><time>2026-04-18T11:17:48.911Z</time></trkpt><trkpt lat="42.1167964" lon="11.9217544"><ele>434.6</ele><time>2026-04-18T11:17:49.909Z</time></trkpt><trkpt lat="42.1168375" lon="11.9218337"><ele>434.4</ele><time>2026-04-18T11:17:50.909Z</time></trkpt><trkpt lat="42.1168713" lon="11.92191"><ele>434.2</ele><time>2026-04-18T11:17:51.909Z</time></trkpt><trkpt lat="42.1168955" lon="11.9220553"><ele>434.0</ele><time>2026-04-18T11:17:53.91Z</time></trkpt><trkpt lat="42.1168753" lon="11.922224"><ele>433.99999999999994</ele><time>2026-04-18T11:17:55.911Z</time></trkpt><trkpt lat="42.1168472" lon="11.9223193"><ele>434.0</ele><time>2026-04-18T11:17:56.911Z</time></trkpt><trkpt lat="42.1168224" lon="11.9224149"><ele>434.0</ele><time>2026-04-18T11:17:57.91Z</time></trkpt><trkpt lat="42.1168003" lon="11.9225209"><ele>434.0</ele><time>2026-04-18T11:17:58.911Z</time></trkpt><trkpt lat="42.1167768" lon="11.9226264"><ele>433.99999999999994</ele><time>2026-04-18T11:17:59.91Z</time></trkpt><trkpt lat="42.1167487" lon="11.9227305"><ele>434.0</ele><time>2026-04-18T11:18:00.911Z</time></trkpt><trkpt lat="42.1167124" lon="11.9228297"><ele>431.99999999999994</ele><time>2026-04-18T11:18:01.91Z</time></trkpt><trkpt lat="42.1166723" lon="11.9229187"><ele>430.0</ele><time>2026-04-18T11:18:02.91Z</time></trkpt><trkpt lat="42.1166363" lon="11.9230029"><ele>428.0</ele><time>2026-04-18T11:18:03.91Z</time></trkpt><trkpt lat="42.1165953" lon="11.9230927"><ele>426.0</ele><time>2026-04-18T11:18:04.91Z</time></trkpt><trkpt lat="42.116556" lon="11.9231776"><ele>423.99999999999994</ele><time>2026-04-18T11:18:05.909Z</time></trkpt><trkpt lat="42.1165166" lon="11.9232676"><ele>422.0</ele><time>2026-04-18T11:18:06.91Z</time></trkpt><trkpt lat="42.116483" lon="11.9233692"><ele>421.16666666666663</ele><time>2026-04-18T11:18:07.91Z</time></trkpt><trkpt lat="42.1164447" lon="11.923477"><ele>420.3333333333333</ele><time>2026-04-18T11:18:08.91Z</time></trkpt><trkpt lat="42.11641" lon="11.923582"><ele>419.5</ele><time>2026-04-18T11:18:09.909Z</time></trkpt><trkpt lat="42.1163853" lon="11.9236786"><ele>418.66666666666663</ele><time>2026-04-18T11:18:10.911Z</time></trkpt><trkpt lat="42.1163652" lon="11.923788"><ele>417.8333333333333</ele><time>2026-04-18T11:18:11.909Z</time></trkpt><trkpt lat="42.1163632" lon="11.9239057"><ele>417.0</ele><time>2026-04-18T11:18:12.909Z</time></trkpt><trkpt lat="42.1163763" lon="11.9240308"><ele>417.0</ele><time>2026-04-18T11:18:13.91Z</time></trkpt><trkpt lat="42.1164046" lon="11.9241732"><ele>417.0</ele><time>2026-04-18T11:18:14.909Z</time></trkpt><trkpt lat="42.1164342" lon="11.9242957"><ele>417.0</ele><time>2026-04-18T11:18:15.91Z</time></trkpt><trkpt lat="42.1164692" lon="11.9243952"><ele>417.0</ele><time>2026-04-18T11:18:16.909Z</time></trkpt><trkpt lat="42.1165115" lon="11.9244815"><ele>417.0</ele><time>2026-04-18T11:18:17.909Z</time></trkpt><trkpt lat="42.1165608" lon="11.9245556"><ele>417.0</ele><time>2026-04-18T11:18:18.909Z</time></trkpt><trkpt lat="42.1166312" lon="11.9246449"><ele>417.8333333333333</ele><time>2026-04-18T11:18:19.91Z</time></trkpt><trkpt lat="42.1166978" lon="11.9247314"><ele>418.66666666666663</ele><time>2026-04-18T11:18:20.911Z</time></trkpt><trkpt lat="42.1167645" lon="11.9248304"><ele>419.5</ele><time>2026-04-18T11:18:21.911Z</time></trkpt><trkpt lat="42.1168239" lon="11.9249132"><ele>420.3333333333333</ele><time>2026-04-18T11:18:22.91Z</time></trkpt><trkpt lat="42.1168893" lon="11.9250021"><ele>421.16666666666663</ele><time>2026-04-18T11:18:23.909Z</time></trkpt><trkpt lat="42.1169444" lon="11.92507"><ele>422.0</ele><time>2026-04-18T11:18:24.91Z</time></trkpt><trkpt lat="42.1170009" lon="11.9251314"><ele>424.0</ele><time>2026-04-18T11:18:25.911Z</time></trkpt><trkpt lat="42.1171237" lon="11.9251472"><ele>426.0</ele><time>2026-04-18T11:18:27.909Z</time></trkpt><trkpt lat="42.1171966" lon="11.9251295"><ele>428.00000000000006</ele><time>2026-04-18T11:18:28.91Z</time></trkpt><trkpt lat="42.1172704" lon="11.9250979"><ele>430.0</ele><time>2026-04-18T11:18:29.911Z</time></trkpt><trkpt lat="42.1174046" lon="11.9250793"><ele>432.0</ele><time>2026-04-18T11:18:31.91Z</time></trkpt><trkpt lat="42.1174706" lon="11.9250783"><ele>432.20000000000005</ele><time>2026-04-18T11:18:32.909Z</time></trkpt><trkpt lat="42.1175806" lon="11.9251444"><ele>432.40000000000003</ele><time>2026-04-18T11:18:34.91Z</time></trkpt><trkpt lat="42.1176455" lon="11.9252184"><ele>432.59999999999997</ele><time>2026-04-18T11:18:35.91Z</time></trkpt><trkpt lat="42.1177119" lon="11.9253131"><ele>432.79999999999995</ele><time>2026-04-18T11:18:36.909Z</time></trkpt><trkpt lat="42.1177583" lon="11.925416"><ele>433.0</ele><time>2026-04-18T11:18:37.911Z</time></trkpt><trkpt lat="42.117793" lon="11.9255293"><ele>433.00000000000006</ele><time>2026-04-18T11:18:38.91Z</time></trkpt><trkpt lat="42.1178061" lon="11.9256168"><ele>433.0</ele><time>2026-04-18T11:18:39.909Z</time></trkpt><trkpt lat="42.1178147" lon="11.9257202"><ele>433.0</ele><time>2026-04-18T11:18:40.909Z</time></trkpt><trkpt lat="42.1178271" lon="11.9258226"><ele>433.0</ele><time>2026-04-18T11:18:41.909Z</time></trkpt><trkpt lat="42.117846" lon="11.9259183"><ele>433.00000000000006</ele><time>2026-04-18T11:18:42.909Z</time></trkpt><trkpt lat="42.1178709" lon="11.9260093"><ele>433.0</ele><time>2026-04-18T11:18:43.91Z</time></trkpt><trkpt lat="42.117898" lon="11.9261178"><ele>434.33333333333337</ele><time>2026-04-18T11:18:44.909Z</time></trkpt><trkpt lat="42.1179268" lon="11.9262292"><ele>435.6666666666667</ele><time>2026-04-18T11:18:45.91Z</time></trkpt><trkpt lat="42.1179598" lon="11.9263244"><ele>437.0</ele><time>2026-04-18T11:18:46.91Z</time></trkpt><trkpt lat="42.1180021" lon="11.9264182"><ele>438.33333333333337</ele><time>2026-04-18T11:18:47.909Z</time></trkpt><trkpt lat="42.1180555" lon="11.926508"><ele>439.6666666666667</ele><time>2026-04-18T11:18:48.91Z</time></trkpt><trkpt lat="42.1181325" lon="11.9266144"><ele>441.0</ele><time>2026-04-18T11:18:49.909Z</time></trkpt><trkpt lat="42.118217" lon="11.9267262"><ele>441.6666666666667</ele><time>2026-04-18T11:18:50.909Z</time></trkpt><trkpt lat="42.1182901" lon="11.926814"><ele>442.33333333333337</ele><time>2026-04-18T11:18:51.909Z</time></trkpt><trkpt lat="42.1183614" lon="11.926888"><ele>443.0</ele><time>2026-04-18T11:18:52.91Z</time></trkpt><trkpt lat="42.1184245" lon="11.9269441"><ele>443.6666666666667</ele><time>2026-04-18T11:18:53.91Z</time></trkpt><trkpt lat="42.1184803" lon="11.9269854"><ele>444.33333333333337</ele><time>2026-04-18T11:18:54.911Z</time></trkpt><trkpt lat="42.1185465" lon="11.9270512"><ele>445.0</ele><time>2026-04-18T11:18:56.909Z</time></trkpt><trkpt lat="42.1185348" lon="11.9271356"><ele>445.0</ele><time>2026-04-18T11:19:48.909Z</time></trkpt><trkpt lat="42.1184676" lon="11.9272053"><ele>445.0</ele><time>2026-04-18T11:19:50.908Z</time></trkpt><trkpt lat="42.1183801" lon="11.9272242"><ele>445.0</ele><time>2026-04-18T11:19:51.909Z</time></trkpt><trkpt lat="42.1182706" lon="11.9272253"><ele>445.0</ele><time>2026-04-18T11:19:52.909Z</time></trkpt><trkpt lat="42.1181366" lon="11.927224"><ele>445.0</ele><time>2026-04-18T11:19:53.909Z</time></trkpt><trkpt lat="42.1179975" lon="11.9272258"><ele>446.25</ele><time>2026-04-18T11:19:54.909Z</time></trkpt><trkpt lat="42.1178312" lon="11.9272238"><ele>447.5</ele><time>2026-04-18T11:19:55.909Z</time></trkpt><trkpt lat="42.1177" lon="11.9272208"><ele>448.75</ele><time>2026-04-18T11:19:56.909Z</time></trkpt><trkpt lat="42.1175788" lon="11.9272179"><ele>450.0</ele><time>2026-04-18T11:19:57.908Z</time></trkpt><trkpt lat="42.1174697" lon="11.9272239"><ele>450.0</ele><time>2026-04-18T11:19:58.909Z</time></trkpt><trkpt lat="42.1173785" lon="11.9272343"><ele>450.0</ele><time>2026-04-18T11:19:59.909Z</time></trkpt><trkpt lat="42.1172687" lon="11.9272527"><ele>450.0</ele><time>2026-04-18T11:20:00.909Z</time></trkpt><trkpt lat="42.117154" lon="11.9272807"><ele>450.0</ele><time>2026-04-18T11:20:01.908Z</time></trkpt><trkpt lat="42.1170412" lon="11.9273158"><ele>450.0</ele><time>2026-04-18T11:20:02.909Z</time></trkpt><trkpt lat="42.1169338" lon="11.9273563"><ele>450.0</ele><time>2026-04-18T11:20:03.909Z</time></trkpt><trkpt lat="42.1168288" lon="11.9274032"><ele>450.0</ele><time>2026-04-18T11:20:04.908Z</time></trkpt><trkpt lat="42.116725" lon="11.9274788"><ele>450.0</ele><time>2026-04-18T11:20:05.909Z</time></trkpt><trkpt lat="42.1166316" lon="11.927563"><ele>450.0</ele><time>2026-04-18T11:20:06.909Z</time></trkpt><trkpt lat="42.1165269" lon="11.9276632"><ele>451.0</ele><time>2026-04-18T11:20:07.909Z</time></trkpt><trkpt lat="42.1164087" lon="11.9277845"><ele>452.0</ele><time>2026-04-18T11:20:08.909Z</time></trkpt><trkpt lat="42.1162816" lon="11.9279153"><ele>453.0</ele><time>2026-04-18T11:20:09.908Z</time></trkpt><trkpt lat="42.1161551" lon="11.9280439"><ele>453.0</ele><time>2026-04-18T11:20:10.909Z</time></trkpt><trkpt lat="42.1160353" lon="11.9281652"><ele>453.0</ele><time>2026-04-18T11:20:11.909Z</time></trkpt><trkpt lat="42.1159121" lon="11.9282974"><ele>453.0</ele><time>2026-04-18T11:20:12.909Z</time></trkpt><trkpt lat="42.1157796" lon="11.9284512"><ele>453.0</ele><time>2026-04-18T11:20:13.908Z</time></trkpt><trkpt lat="42.115662" lon="11.92858"><ele>453.0</ele><time>2026-04-18T11:20:14.909Z</time></trkpt><trkpt lat="42.1155466" lon="11.9286952"><ele>453.0</ele><time>2026-04-18T11:20:15.909Z</time></trkpt><trkpt lat="42.1154385" lon="11.9287931"><ele>453.0</ele><time>2026-04-18T11:20:16.908Z</time></trkpt><trkpt lat="42.115335" lon="11.9288676"><ele>453.0</ele><time>2026-04-18T11:20:17.909Z</time></trkpt><trkpt lat="42.1152397" lon="11.9289305"><ele>453.0</ele><time>2026-04-18T11:20:18.908Z</time></trkpt><trkpt lat="42.1151585" lon="11.9290227"><ele>453.0</ele><time>2026-04-18T11:20:19.909Z</time></trkpt><trkpt lat="42.1150851" lon="11.9291507"><ele>453.0</ele><time>2026-04-18T11:20:20.909Z</time></trkpt><trkpt lat="42.1150107" lon="11.9293208"><ele>452.33333333333337</ele><time>2026-04-18T11:20:21.909Z</time></trkpt><trkpt lat="42.1149312" lon="11.9295183"><ele>451.6666666666667</ele><time>2026-04-18T11:20:22.909Z</time></trkpt><trkpt lat="42.1148422" lon="11.9296973"><ele>451.0</ele><time>2026-04-18T11:20:23.909Z</time></trkpt><trkpt lat="42.1147469" lon="11.9298499"><ele>451.0</ele><time>2026-04-18T11:20:24.909Z</time></trkpt><trkpt lat="42.1146415" lon="11.9300027"><ele>451.0</ele><time>2026-04-18T11:20:25.909Z</time></trkpt><trkpt lat="42.1145465" lon="11.9301576"><ele>451.0</ele><time>2026-04-18T11:20:26.909Z</time></trkpt><trkpt lat="42.1144572" lon="11.9303038"><ele>451.0</ele><time>2026-04-18T11:20:27.908Z</time></trkpt><trkpt lat="42.1143685" lon="11.9304457"><ele>450.0</ele><time>2026-04-18T11:20:28.908Z</time></trkpt><trkpt lat="42.1142817" lon="11.9305934"><ele>449.0</ele><time>2026-04-18T11:20:29.909Z</time></trkpt><trkpt lat="42.1142058" lon="11.9307367"><ele>448.0</ele><time>2026-04-18T11:20:30.909Z</time></trkpt><trkpt lat="42.1141268" lon="11.9308925"><ele>447.0</ele><time>2026-04-18T11:20:31.909Z</time></trkpt><trkpt lat="42.1140465" lon="11.9310451"><ele>447.0</ele><time>2026-04-18T11:20:32.908Z</time></trkpt><trkpt lat="42.1139686" lon="11.9311865"><ele>447.00000000000006</ele><time>2026-04-18T11:20:33.909Z</time></trkpt><trkpt lat="42.1139059" lon="11.9313093"><ele>447.00000000000006</ele><time>2026-04-18T11:20:34.908Z</time></trkpt><trkpt lat="42.1138534" lon="11.9314117"><ele>447.0</ele><time>2026-04-18T11:20:35.909Z</time></trkpt><trkpt lat="42.1138058" lon="11.9314861"><ele>447.0</ele><time>2026-04-18T11:20:36.908Z</time></trkpt><trkpt lat="42.1137062" lon="11.9315672"><ele>447.0</ele><time>2026-04-18T11:20:38.909Z</time></trkpt><trkpt lat="42.1136422" lon="11.9315797"><ele>447.0</ele><time>2026-04-18T11:20:39.908Z</time></trkpt><trkpt lat="42.1135483" lon="11.9315677"><ele>447.0</ele><time>2026-04-18T11:20:40.91Z</time></trkpt><trkpt lat="42.1134535" lon="11.9315358"><ele>447.0</ele><time>2026-04-18T11:20:41.91Z</time></trkpt><trkpt lat="42.1133713" lon="11.9315105"><ele>447.0</ele><time>2026-04-18T11:20:42.908Z</time></trkpt><trkpt lat="42.1133002" lon="11.9314953"><ele>447.0</ele><time>2026-04-18T11:20:43.91Z</time></trkpt><trkpt lat="42.1131923" lon="11.9315253"><ele>444.40000000000003</ele><time>2026-04-18T11:20:45.908Z</time></trkpt><trkpt lat="42.1131242" lon="11.9316685"><ele>441.80000000000007</ele><time>2026-04-18T11:20:47.908Z</time></trkpt><trkpt lat="42.1131125" lon="11.9317854"><ele>439.2</ele><time>2026-04-18T11:20:48.908Z</time></trkpt><trkpt lat="42.1131076" lon="11.9319053"><ele>436.6</ele><time>2026-04-18T11:20:49.909Z</time></trkpt><trkpt lat="42.1130999" lon="11.9320199"><ele>434.0</ele><time>2026-04-18T11:20:50.908Z</time></trkpt><trkpt lat="42.1130925" lon="11.9321265"><ele>433.0</ele><time>2026-04-18T11:20:51.909Z</time></trkpt><trkpt lat="42.1130838" lon="11.9322283"><ele>432.0</ele><time>2026-04-18T11:20:52.908Z</time></trkpt><trkpt lat="42.1130625" lon="11.932317"><ele>431.0</ele><time>2026-04-18T11:20:53.909Z</time></trkpt><trkpt lat="42.1130325" lon="11.9323937"><ele>430.0</ele><time>2026-04-18T11:20:54.909Z</time></trkpt><trkpt lat="42.1130054" lon="11.9324713"><ele>429.0</ele><time>2026-04-18T11:20:55.908Z</time></trkpt><trkpt lat="42.1129871" lon="11.9325632"><ele>428.0</ele><time>2026-04-18T11:20:56.908Z</time></trkpt><trkpt lat="42.1129724" lon="11.9326499"><ele>427.0</ele><time>2026-04-18T11:20:57.908Z</time></trkpt><trkpt lat="42.1129546" lon="11.9327385"><ele>426.20000000000005</ele><time>2026-04-18T11:20:58.909Z</time></trkpt><trkpt lat="42.1129349" lon="11.9328255"><ele>425.40000000000003</ele><time>2026-04-18T11:20:59.909Z</time></trkpt><trkpt lat="42.1129027" lon="11.9329875"><ele>424.6</ele><time>2026-04-18T11:21:01.908Z</time></trkpt><trkpt lat="42.1128845" lon="11.9330911"><ele>423.79999999999995</ele><time>2026-04-18T11:21:02.909Z</time></trkpt><trkpt lat="42.1128632" lon="11.9332088"><ele>423.0</ele><time>2026-04-18T11:21:03.908Z</time></trkpt><trkpt lat="42.1128387" lon="11.9333555"><ele>423.2</ele><time>2026-04-18T11:21:04.908Z</time></trkpt><trkpt lat="42.1128115" lon="11.9335048"><ele>423.4</ele><time>2026-04-18T11:21:05.909Z</time></trkpt><trkpt lat="42.1127825" lon="11.9336447"><ele>423.59999999999997</ele><time>2026-04-18T11:21:06.908Z</time></trkpt><trkpt lat="42.1127559" lon="11.9337831"><ele>423.79999999999995</ele><time>2026-04-18T11:21:07.909Z</time></trkpt><trkpt lat="42.1127352" lon="11.9339053"><ele>424.0</ele><time>2026-04-18T11:21:08.909Z</time></trkpt><trkpt lat="42.1127103" lon="11.9340161"><ele>424.0</ele><time>2026-04-18T11:21:09.908Z</time></trkpt><trkpt lat="42.1126814" lon="11.9341507"><ele>424.0</ele><time>2026-04-18T11:21:10.908Z</time></trkpt><trkpt lat="42.1126574" lon="11.9342685"><ele>424.0</ele><time>2026-04-18T11:21:11.91Z</time></trkpt><trkpt lat="42.1126314" lon="11.9343835"><ele>424.0</ele><time>2026-04-18T11:21:12.909Z</time></trkpt><trkpt lat="42.1126035" lon="11.9345046"><ele>424.0</ele><time>2026-04-18T11:21:13.908Z</time></trkpt><trkpt lat="42.1125839" lon="11.9346078"><ele>423.2857142857143</ele><time>2026-04-18T11:21:14.91Z</time></trkpt><trkpt lat="42.1125686" lon="11.9347049"><ele>422.57142857142856</ele><time>2026-04-18T11:21:15.908Z</time></trkpt><trkpt lat="42.112559" lon="11.9347965"><ele>421.85714285714283</ele><time>2026-04-18T11:21:16.908Z</time></trkpt><trkpt lat="42.1125464" lon="11.9348845"><ele>421.1428571428571</ele><time>2026-04-18T11:21:17.909Z</time></trkpt><trkpt lat="42.1125345" lon="11.9349689"><ele>420.42857142857144</ele><time>2026-04-18T11:21:18.908Z</time></trkpt><trkpt lat="42.1125201" lon="11.9350538"><ele>419.71428571428567</ele><time>2026-04-18T11:21:19.909Z</time></trkpt><trkpt lat="42.1125007" lon="11.9351412"><ele>419.0</ele><time>2026-04-18T11:21:20.909Z</time></trkpt><trkpt lat="42.1124801" lon="11.9352465"><ele>418.16666666666663</ele><time>2026-04-18T11:21:21.91Z</time></trkpt><trkpt lat="42.1124642" lon="11.9353438"><ele>417.3333333333333</ele><time>2026-04-18T11:21:22.909Z</time></trkpt><trkpt lat="42.1124463" lon="11.935458"><ele>416.5</ele><time>2026-04-18T11:21:23.908Z</time></trkpt><trkpt lat="42.1124268" lon="11.9355645"><ele>415.66666666666663</ele><time>2026-04-18T11:21:24.909Z</time></trkpt><trkpt lat="42.112409" lon="11.9356748"><ele>414.8333333333333</ele><time>2026-04-18T11:21:25.909Z</time></trkpt><trkpt lat="42.1123877" lon="11.9357877"><ele>414.0</ele><time>2026-04-18T11:21:26.908Z</time></trkpt><trkpt lat="42.1123646" lon="11.9359138"><ele>411.2</ele><time>2026-04-18T11:21:27.908Z</time></trkpt><trkpt lat="42.1123403" lon="11.9360564"><ele>408.4</ele><time>2026-04-18T11:21:28.91Z</time></trkpt><trkpt lat="42.1123175" lon="11.9361927"><ele>405.6</ele><time>2026-04-18T11:21:29.909Z</time></trkpt><trkpt lat="42.1122944" lon="11.9363284"><ele>402.8</ele><time>2026-04-18T11:21:30.91Z</time></trkpt><trkpt lat="42.112269" lon="11.9364688"><ele>400.0</ele><time>2026-04-18T11:21:31.909Z</time></trkpt><trkpt lat="42.1122455" lon="11.9366111"><ele>399.8</ele><time>2026-04-18T11:21:32.909Z</time></trkpt><trkpt lat="42.1122216" lon="11.936753"><ele>399.6</ele><time>2026-04-18T11:21:33.91Z</time></trkpt><trkpt lat="42.1121963" lon="11.9368904"><ele>399.4</ele><time>2026-04-18T11:21:34.91Z</time></trkpt><trkpt lat="42.1121741" lon="11.9370188"><ele>399.2</ele><time>2026-04-18T11:21:35.909Z</time></trkpt><trkpt lat="42.112161" lon="11.93715"><ele>399.0</ele><time>2026-04-18T11:21:36.909Z</time></trkpt><trkpt lat="42.1121577" lon="11.9372884"><ele>399.0</ele><time>2026-04-18T11:21:37.91Z</time></trkpt><trkpt lat="42.1121644" lon="11.9374241"><ele>399.0</ele><time>2026-04-18T11:21:38.91Z</time></trkpt><trkpt lat="42.112168" lon="11.937551"><ele>399.0</ele><time>2026-04-18T11:21:39.91Z</time></trkpt><trkpt lat="42.1121775" lon="11.9376887"><ele>399.0</ele><time>2026-04-18T11:21:40.909Z</time></trkpt><trkpt lat="42.1122008" lon="11.9378357"><ele>399.0</ele><time>2026-04-18T11:21:41.908Z</time></trkpt><trkpt lat="42.1122323" lon="11.9379898"><ele>398.6</ele><time>2026-04-18T11:21:42.91Z</time></trkpt><trkpt lat="42.1122554" lon="11.9381329"><ele>398.2</ele><time>2026-04-18T11:21:43.909Z</time></trkpt><trkpt lat="42.112278" lon="11.9382593"><ele>397.8</ele><time>2026-04-18T11:21:44.908Z</time></trkpt><trkpt lat="42.1123056" lon="11.9383729"><ele>397.40000000000003</ele><time>2026-04-18T11:21:45.909Z</time></trkpt><trkpt lat="42.1123412" lon="11.9384749"><ele>397.0</ele><time>2026-04-18T11:21:46.909Z</time></trkpt><trkpt lat="42.1123836" lon="11.9385796"><ele>397.6</ele><time>2026-04-18T11:21:47.908Z</time></trkpt><trkpt lat="42.1124404" lon="11.9386562"><ele>398.20000000000005</ele><time>2026-04-18T11:21:48.908Z</time></trkpt><trkpt lat="42.1125159" lon="11.9387335"><ele>398.8</ele><time>2026-04-18T11:21:49.908Z</time></trkpt><trkpt lat="42.1126033" lon="11.9388036"><ele>399.4</ele><time>2026-04-18T11:21:50.91Z</time></trkpt><trkpt lat="42.112715" lon="11.9388842"><ele>400.0</ele><time>2026-04-18T11:21:51.908Z</time></trkpt><trkpt lat="42.1128114" lon="11.9389483"><ele>400.0</ele><time>2026-04-18T11:21:52.908Z</time></trkpt><trkpt lat="42.1129086" lon="11.9390056"><ele>400.0</ele><time>2026-04-18T11:21:53.909Z</time></trkpt><trkpt lat="42.112997" lon="11.939069"><ele>400.0</ele><time>2026-04-18T11:21:54.909Z</time></trkpt><trkpt lat="42.1130809" lon="11.9391298"><ele>400.0</ele><time>2026-04-18T11:21:55.909Z</time></trkpt><trkpt lat="42.1131684" lon="11.9391949"><ele>400.0</ele><time>2026-04-18T11:21:56.908Z</time></trkpt><trkpt lat="42.1132497" lon="11.9392604"><ele>399.33333333333337</ele><time>2026-04-18T11:21:57.908Z</time></trkpt><trkpt lat="42.1133312" lon="11.9393198"><ele>398.6666666666667</ele><time>2026-04-18T11:21:58.908Z</time></trkpt><trkpt lat="42.1134087" lon="11.9393724"><ele>398.0</ele><time>2026-04-18T11:21:59.91Z</time></trkpt><trkpt lat="42.113481" lon="11.9394146"><ele>397.33333333333337</ele><time>2026-04-18T11:22:00.908Z</time></trkpt><trkpt lat="42.1135684" lon="11.9394421"><ele>396.6666666666667</ele><time>2026-04-18T11:22:01.909Z</time></trkpt><trkpt lat="42.113648" lon="11.9394448"><ele>396.0</ele><time>2026-04-18T11:22:02.91Z</time></trkpt><trkpt lat="42.1137242" lon="11.9394448"><ele>396.0</ele><time>2026-04-18T11:22:03.909Z</time></trkpt><trkpt lat="42.1138006" lon="11.9394557"><ele>396.0</ele><time>2026-04-18T11:22:04.908Z</time></trkpt><trkpt lat="42.1138658" lon="11.93949"><ele>396.0</ele><time>2026-04-18T11:22:05.909Z</time></trkpt><trkpt lat="42.1139136" lon="11.9395501"><ele>396.0</ele><time>2026-04-18T11:22:06.909Z</time></trkpt><trkpt lat="42.1139541" lon="11.9396483"><ele>396.0</ele><time>2026-04-18T11:22:07.908Z</time></trkpt><trkpt lat="42.1139884" lon="11.9397608"><ele>396.0</ele><time>2026-04-18T11:22:08.909Z</time></trkpt><trkpt lat="42.1140228" lon="11.9398737"><ele>396.0</ele><time>2026-04-18T11:22:09.91Z</time></trkpt><trkpt lat="42.1140511" lon="11.9399902"><ele>396.0</ele><time>2026-04-18T11:22:10.91Z</time></trkpt><trkpt lat="42.1140747" lon="11.9401277"><ele>396.0</ele><time>2026-04-18T11:22:11.908Z</time></trkpt><trkpt lat="42.1140859" lon="11.9402348"><ele>396.0</ele><time>2026-04-18T11:22:12.908Z</time></trkpt><trkpt lat="42.1141068" lon="11.940321"><ele>396.0</ele><time>2026-04-18T11:22:13.909Z</time></trkpt><trkpt lat="42.1141878" lon="11.9404654"><ele>397.6</ele><time>2026-04-18T11:22:15.909Z</time></trkpt><trkpt lat="42.1142199" lon="11.9405403"><ele>399.20000000000005</ele><time>2026-04-18T11:22:16.909Z</time></trkpt><trkpt lat="42.1142759" lon="11.9407046"><ele>400.79999999999995</ele><time>2026-04-18T11:22:18.908Z</time></trkpt><trkpt lat="42.1143196" lon="11.9408193"><ele>402.4</ele><time>2026-04-18T11:22:19.909Z</time></trkpt><trkpt lat="42.1143576" lon="11.9409444"><ele>404.0</ele><time>2026-04-18T11:22:20.909Z</time></trkpt><trkpt lat="42.1143778" lon="11.9410533"><ele>404.0</ele><time>2026-04-18T11:22:21.908Z</time></trkpt><trkpt lat="42.1143991" lon="11.9411849"><ele>404.0</ele><time>2026-04-18T11:22:22.908Z</time></trkpt><trkpt lat="42.1144097" lon="11.941311"><ele>404.0</ele><time>2026-04-18T11:22:23.91Z</time></trkpt><trkpt lat="42.1144144" lon="11.9414466"><ele>404.0</ele><time>2026-04-18T11:22:24.909Z</time></trkpt><trkpt lat="42.1144132" lon="11.9415899"><ele>404.0</ele><time>2026-04-18T11:22:25.909Z</time></trkpt><trkpt lat="42.1144044" lon="11.9417051"><ele>404.3333333333333</ele><time>2026-04-18T11:22:26.908Z</time></trkpt><trkpt lat="42.1143867" lon="11.9418097"><ele>404.66666666666663</ele><time>2026-04-18T11:22:27.909Z</time></trkpt><trkpt lat="42.1143565" lon="11.9419064"><ele>405.0</ele><time>2026-04-18T11:22:28.908Z</time></trkpt><trkpt lat="42.1143307" lon="11.9419964"><ele>405.33333333333337</ele><time>2026-04-18T11:22:29.908Z</time></trkpt><trkpt lat="42.1142857" lon="11.9421456"><ele>405.6666666666667</ele><time>2026-04-18T11:22:31.909Z</time></trkpt><trkpt lat="42.1142737" lon="11.9422683"><ele>406.0</ele><time>2026-04-18T11:22:33.908Z</time></trkpt><trkpt lat="42.114343" lon="11.9423926"><ele>406.0</ele><time>2026-04-18T11:22:35.908Z</time></trkpt><trkpt lat="42.1144324" lon="11.9424959"><ele>406.0</ele><time>2026-04-18T11:22:37.909Z</time></trkpt><trkpt lat="42.1145218" lon="11.942599"><ele>406.0</ele><time>2026-04-18T11:22:39.908Z</time></trkpt><trkpt lat="42.1146234" lon="11.942664"><ele>406.0</ele><time>2026-04-18T11:22:41.908Z</time></trkpt><trkpt lat="42.1146996" lon="11.942679"><ele>406.0</ele><time>2026-04-18T11:22:43.908Z</time></trkpt><trkpt lat="42.1147852" lon="11.9426955"><ele>404.83333333333337</ele><time>2026-04-18T11:22:46.909Z</time></trkpt><trkpt lat="42.1148372" lon="11.942747"><ele>403.6666666666667</ele><time>2026-04-18T11:22:50.91Z</time></trkpt><trkpt lat="42.1148498" lon="11.9428366"><ele>402.5</ele><time>2026-04-18T11:22:52.909Z</time></trkpt><trkpt lat="42.1148417" lon="11.9429208"><ele>401.33333333333337</ele><time>2026-04-18T11:22:54.91Z</time></trkpt><trkpt lat="42.1147957" lon="11.9430401"><ele>400.1666666666667</ele><time>2026-04-18T11:22:56.909Z</time></trkpt><trkpt lat="42.114773" lon="11.9431557"><ele>399.0</ele><time>2026-04-18T11:22:58.91Z</time></trkpt><trkpt lat="42.1147751" lon="11.9432855"><ele>397.0</ele><time>2026-04-18T11:23:01.909Z</time></trkpt><trkpt lat="42.1147645" lon="11.9433817"><ele>395.0</ele><time>2026-04-18T11:23:03.908Z</time></trkpt><trkpt lat="42.1147443" lon="11.9434847"><ele>393.0</ele><time>2026-04-18T11:23:05.91Z</time></trkpt><trkpt lat="42.1147152" lon="11.9435688"><ele>391.0</ele><time>2026-04-18T11:23:07.908Z</time></trkpt><trkpt lat="42.1146419" lon="11.9436693"><ele>389.0</ele><time>2026-04-18T11:23:10.908Z</time></trkpt><trkpt lat="42.1145905" lon="11.9437952"><ele>387.0</ele><time>2026-04-18T11:23:12.909Z</time></trkpt><trkpt lat="42.1145569" lon="11.9439167"><ele>387.0</ele><time>2026-04-18T11:23:14.909Z</time></trkpt><trkpt lat="42.1145539" lon="11.9440088"><ele>387.0</ele><time>2026-04-18T11:23:16.91Z</time></trkpt><trkpt lat="42.1145653" lon="11.944111"><ele>387.0</ele><time>2026-04-18T11:23:18.909Z</time></trkpt><trkpt lat="42.1145574" lon="11.9442506"><ele>387.0</ele><time>2026-04-18T11:23:20.909Z</time></trkpt><trkpt lat="42.1145601" lon="11.9443957"><ele>387.0</ele><time>2026-04-18T11:23:22.908Z</time></trkpt><trkpt lat="42.1145602" lon="11.9445358"><ele>384.40000000000003</ele><time>2026-04-18T11:23:24.909Z</time></trkpt><trkpt lat="42.1145408" lon="11.9447"><ele>381.8</ele><time>2026-04-18T11:23:26.908Z</time></trkpt><trkpt lat="42.1145256" lon="11.9447825"><ele>379.2</ele><time>2026-04-18T11:23:27.908Z</time></trkpt><trkpt lat="42.1145335" lon="11.9449047"><ele>376.6</ele><time>2026-04-18T11:23:29.909Z</time></trkpt><trkpt lat="42.1146339" lon="11.9449311"><ele>374.0</ele><time>2026-04-18T11:23:32.909Z</time></trkpt><trkpt lat="42.114696" lon="11.9448741"><ele>374.0</ele><time>2026-04-18T11:23:34.909Z</time></trkpt><trkpt lat="42.1147828" lon="11.9449115"><ele>374.0</ele><time>2026-04-18T11:23:39.91Z</time></trkpt><trkpt lat="42.1147885" lon="11.9450271"><ele>374.0</ele><time>2026-04-18T11:23:41.908Z</time></trkpt><trkpt lat="42.1147375" lon="11.9451622"><ele>374.0</ele><time>2026-04-18T11:23:43.909Z</time></trkpt><trkpt lat="42.1146954" lon="11.9453094"><ele>374.0</ele><time>2026-04-18T11:23:45.909Z</time></trkpt><trkpt lat="42.1147141" lon="11.9454292"><ele>372.1666666666667</ele><time>2026-04-18T11:23:46.909Z</time></trkpt><trkpt lat="42.1147163" lon="11.9455402"><ele>370.33333333333337</ele><time>2026-04-18T11:23:47.908Z</time></trkpt><trkpt lat="42.1147048" lon="11.9456563"><ele>368.5</ele><time>2026-04-18T11:23:48.908Z</time></trkpt><trkpt lat="42.1146795" lon="11.9457437"><ele>366.6666666666667</ele><time>2026-04-18T11:23:49.908Z</time></trkpt><trkpt lat="42.1146766" lon="11.9458315"><ele>364.8333333333333</ele><time>2026-04-18T11:23:50.908Z</time></trkpt><trkpt lat="42.1146646" lon="11.9459567"><ele>363.0</ele><time>2026-04-18T11:23:52.908Z</time></trkpt><trkpt lat="42.1146592" lon="11.9460421"><ele>362.2857142857143</ele><time>2026-04-18T11:23:53.908Z</time></trkpt><trkpt lat="42.1146634" lon="11.9461328"><ele>361.57142857142856</ele><time>2026-04-18T11:23:54.91Z</time></trkpt><trkpt lat="42.1146718" lon="11.9462237"><ele>360.8571428571429</ele><time>2026-04-18T11:23:55.908Z</time></trkpt><trkpt lat="42.1146893" lon="11.946311"><ele>360.1428571428571</ele><time>2026-04-18T11:23:56.908Z</time></trkpt><trkpt lat="42.1147088" lon="11.9463966"><ele>359.42857142857144</ele><time>2026-04-18T11:23:57.908Z</time></trkpt><trkpt lat="42.1147332" lon="11.9464936"><ele>358.7142857142857</ele><time>2026-04-18T11:23:58.91Z</time></trkpt><trkpt lat="42.1147618" lon="11.9465989"><ele>358.0</ele><time>2026-04-18T11:23:59.909Z</time></trkpt><trkpt lat="42.1148057" lon="11.9467067"><ele>358.0</ele><time>2026-04-18T11:24:00.909Z</time></trkpt><trkpt lat="42.1148546" lon="11.9467949"><ele>358.0</ele><time>2026-04-18T11:24:01.909Z</time></trkpt><trkpt lat="42.1149043" lon="11.9468893"><ele>358.0</ele><time>2026-04-18T11:24:02.909Z</time></trkpt><trkpt lat="42.1149566" lon="11.9469666"><ele>358.0</ele><time>2026-04-18T11:24:03.909Z</time></trkpt><trkpt lat="42.1149848" lon="11.9470545"><ele>358.0</ele><time>2026-04-18T11:24:04.909Z</time></trkpt><trkpt lat="42.1150034" lon="11.9471461"><ele>358.0</ele><time>2026-04-18T11:24:05.908Z</time></trkpt><trkpt lat="42.115012" lon="11.9472427"><ele>359.8333333333333</ele><time>2026-04-18T11:24:06.909Z</time></trkpt><trkpt lat="42.1150461" lon="11.9473418"><ele>361.66666666666663</ele><time>2026-04-18T11:24:07.909Z</time></trkpt><trkpt lat="42.1150886" lon="11.9474461"><ele>363.5</ele><time>2026-04-18T11:24:08.91Z</time></trkpt><trkpt lat="42.1151535" lon="11.9475431"><ele>365.3333333333333</ele><time>2026-04-18T11:24:09.908Z</time></trkpt><trkpt lat="42.1152" lon="11.947621"><ele>367.1666666666667</ele><time>2026-04-18T11:24:10.909Z</time></trkpt><trkpt lat="42.1152375" lon="11.9477213"><ele>369.0</ele><time>2026-04-18T11:24:11.909Z</time></trkpt><trkpt lat="42.1152833" lon="11.9478272"><ele>369.0</ele><time>2026-04-18T11:24:12.908Z</time></trkpt><trkpt lat="42.1153124" lon="11.9479552"><ele>369.0</ele><time>2026-04-18T11:24:13.91Z</time></trkpt><trkpt lat="42.1153421" lon="11.9480578"><ele>369.0</ele><time>2026-04-18T11:24:14.908Z</time></trkpt><trkpt lat="42.1153751" lon="11.9481414"><ele>369.0</ele><time>2026-04-18T11:24:15.908Z</time></trkpt><trkpt lat="42.1154167" lon="11.9482345"><ele>369.0</ele><time>2026-04-18T11:24:16.908Z</time></trkpt><trkpt lat="42.1154558" lon="11.9483103"><ele>369.0</ele><time>2026-04-18T11:24:17.91Z</time></trkpt><trkpt lat="42.1155166" lon="11.9484431"><ele>367.75</ele><time>2026-04-18T11:24:19.908Z</time></trkpt><trkpt lat="42.1155696" lon="11.9485667"><ele>366.5</ele><time>2026-04-18T11:24:21.909Z</time></trkpt><trkpt lat="42.1156086" lon="11.9486927"><ele>365.25</ele><time>2026-04-18T11:24:23.91Z</time></trkpt><trkpt lat="42.1156437" lon="11.9488312"><ele>364.0</ele><time>2026-04-18T11:24:25.909Z</time></trkpt><trkpt lat="42.1156668" lon="11.9490209"><ele>364.0</ele><time>2026-04-18T11:24:27.908Z</time></trkpt><trkpt lat="42.1156669" lon="11.9491302"><ele>364.0</ele><time>2026-04-18T11:24:28.908Z</time></trkpt><trkpt lat="42.1156678" lon="11.9492238"><ele>364.0</ele><time>2026-04-18T11:24:29.908Z</time></trkpt><trkpt lat="42.1156601" lon="11.9493236"><ele>364.0</ele><time>2026-04-18T11:24:30.909Z</time></trkpt><trkpt lat="42.1156463" lon="11.9494389"><ele>364.0</ele><time>2026-04-18T11:24:31.91Z</time></trkpt><trkpt lat="42.1156235" lon="11.9495514"><ele>364.0</ele><time>2026-04-18T11:24:32.909Z</time></trkpt><trkpt lat="42.1156072" lon="11.949707"><ele>362.3333333333333</ele><time>2026-04-18T11:24:33.908Z</time></trkpt><trkpt lat="42.1155915" lon="11.9498084"><ele>360.66666666666663</ele><time>2026-04-18T11:24:34.909Z</time></trkpt><trkpt lat="42.1155731" lon="11.9499218"><ele>359.0</ele><time>2026-04-18T11:24:35.909Z</time></trkpt><trkpt lat="42.1155449" lon="11.9500159"><ele>357.3333333333333</ele><time>2026-04-18T11:24:36.908Z</time></trkpt><trkpt lat="42.1155331" lon="11.9501104"><ele>355.6666666666667</ele><time>2026-04-18T11:24:37.909Z</time></trkpt><trkpt lat="42.1155661" lon="11.9502312"><ele>354.0</ele><time>2026-04-18T11:24:39.909Z</time></trkpt><trkpt lat="42.1157021" lon="11.9503157"><ele>354.8333333333333</ele><time>2026-04-18T11:24:41.908Z</time></trkpt><trkpt lat="42.1157786" lon="11.9503447"><ele>355.6666666666667</ele><time>2026-04-18T11:24:42.908Z</time></trkpt><trkpt lat="42.1158488" lon="11.950379"><ele>356.5</ele><time>2026-04-18T11:24:43.91Z</time></trkpt><trkpt lat="42.1159157" lon="11.9504086"><ele>357.33333333333337</ele><time>2026-04-18T11:24:44.908Z</time></trkpt><trkpt lat="42.1159798" lon="11.9504416"><ele>358.1666666666667</ele><time>2026-04-18T11:24:45.91Z</time></trkpt><trkpt lat="42.1160404" lon="11.9504683"><ele>359.0</ele><time>2026-04-18T11:24:46.909Z</time></trkpt><trkpt lat="42.1161629" lon="11.9504997"><ele>359.0</ele><time>2026-04-18T11:24:48.91Z</time></trkpt><trkpt lat="42.1162891" lon="11.9505031"><ele>359.0</ele><time>2026-04-18T11:24:50.909Z</time></trkpt><trkpt lat="42.1163638" lon="11.950498"><ele>359.0</ele><time>2026-04-18T11:24:51.907Z</time></trkpt><trkpt lat="42.1164272" lon="11.9504982"><ele>359.0</ele><time>2026-04-18T11:24:52.908Z</time></trkpt><trkpt lat="42.1165173" lon="11.9505062"><ele>359.0</ele><time>2026-04-18T11:24:53.909Z</time></trkpt><trkpt lat="42.1165961" lon="11.9505064"><ele>359.0</ele><time>2026-04-18T11:24:54.907Z</time></trkpt><trkpt lat="42.1166684" lon="11.9505226"><ele>359.1666666666667</ele><time>2026-04-18T11:24:55.908Z</time></trkpt><trkpt lat="42.1167448" lon="11.9505387"><ele>359.33333333333337</ele><time>2026-04-18T11:24:56.908Z</time></trkpt><trkpt lat="42.1168285" lon="11.9505694"><ele>359.5</ele><time>2026-04-18T11:24:57.909Z</time></trkpt><trkpt lat="42.1169154" lon="11.9506016"><ele>359.6666666666667</ele><time>2026-04-18T11:24:58.908Z</time></trkpt><trkpt lat="42.1169923" lon="11.9506203"><ele>359.8333333333333</ele><time>2026-04-18T11:24:59.907Z</time></trkpt><trkpt lat="42.1170786" lon="11.9506219"><ele>360.0</ele><time>2026-04-18T11:25:00.907Z</time></trkpt><trkpt lat="42.1171556" lon="11.9506327"><ele>360.0</ele><time>2026-04-18T11:25:01.908Z</time></trkpt><trkpt lat="42.1172176" lon="11.9506651"><ele>360.0</ele><time>2026-04-18T11:25:02.907Z</time></trkpt><trkpt lat="42.1173274" lon="11.9507103"><ele>360.0</ele><time>2026-04-18T11:25:04.908Z</time></trkpt><trkpt lat="42.1174361" lon="11.9507208"><ele>360.0</ele><time>2026-04-18T11:25:06.908Z</time></trkpt><trkpt lat="42.1175413" lon="11.9507523"><ele>360.0</ele><time>2026-04-18T11:25:08.907Z</time></trkpt><trkpt lat="42.1176067" lon="11.9508545"><ele>359.8</ele><time>2026-04-18T11:25:10.909Z</time></trkpt><trkpt lat="42.1175904" lon="11.9510098"><ele>359.6</ele><time>2026-04-18T11:25:12.908Z</time></trkpt><trkpt lat="42.1175731" lon="11.9511201"><ele>359.4</ele><time>2026-04-18T11:25:13.908Z</time></trkpt><trkpt lat="42.1175664" lon="11.9512247"><ele>359.2</ele><time>2026-04-18T11:25:14.909Z</time></trkpt><trkpt lat="42.1175668" lon="11.9513388"><ele>359.0</ele><time>2026-04-18T11:25:15.909Z</time></trkpt><trkpt lat="42.1176128" lon="11.9514838"><ele>359.0</ele><time>2026-04-18T11:25:17.907Z</time></trkpt><trkpt lat="42.1176967" lon="11.9515649"><ele>359.0</ele><time>2026-04-18T11:25:19.908Z</time></trkpt><trkpt lat="42.1177907" lon="11.9516135"><ele>359.0</ele><time>2026-04-18T11:25:20.909Z</time></trkpt><trkpt lat="42.1178956" lon="11.9516602"><ele>359.0</ele><time>2026-04-18T11:25:21.908Z</time></trkpt><trkpt lat="42.1180047" lon="11.9516929"><ele>359.0</ele><time>2026-04-18T11:25:22.907Z</time></trkpt><trkpt lat="42.1181084" lon="11.9517113"><ele>359.1666666666667</ele><time>2026-04-18T11:25:23.909Z</time></trkpt><trkpt lat="42.1182054" lon="11.9517307"><ele>359.33333333333337</ele><time>2026-04-18T11:25:24.908Z</time></trkpt><trkpt lat="42.1182815" lon="11.9517538"><ele>359.5</ele><time>2026-04-18T11:25:25.908Z</time></trkpt><trkpt lat="42.1183532" lon="11.9517755"><ele>359.6666666666667</ele><time>2026-04-18T11:25:26.908Z</time></trkpt><trkpt lat="42.118411" lon="11.9518118"><ele>359.8333333333333</ele><time>2026-04-18T11:25:27.908Z</time></trkpt><trkpt lat="42.1185184" lon="11.9518966"><ele>360.0</ele><time>2026-04-18T11:25:29.908Z</time></trkpt><trkpt lat="42.1186298" lon="11.9519646"><ele>360.0</ele><time>2026-04-18T11:25:31.907Z</time></trkpt><trkpt lat="42.1186895" lon="11.9520049"><ele>360.0</ele><time>2026-04-18T11:25:32.908Z</time></trkpt><trkpt lat="42.1187479" lon="11.9520598"><ele>360.0</ele><time>2026-04-18T11:25:33.907Z</time></trkpt><trkpt lat="42.1188076" lon="11.952123"><ele>360.0</ele><time>2026-04-18T11:25:34.908Z</time></trkpt><trkpt lat="42.118859" lon="11.9521905"><ele>360.0</ele><time>2026-04-18T11:25:35.907Z</time></trkpt><trkpt lat="42.1189213" lon="11.9522768"><ele>360.0</ele><time>2026-04-18T11:25:36.908Z</time></trkpt><trkpt lat="42.1189558" lon="11.9523557"><ele>360.0</ele><time>2026-04-18T11:25:37.908Z</time></trkpt><trkpt lat="42.1190093" lon="11.9524955"><ele>360.0</ele><time>2026-04-18T11:25:39.908Z</time></trkpt><trkpt lat="42.1190537" lon="11.9526059"><ele>360.0</ele><time>2026-04-18T11:25:41.908Z</time></trkpt><trkpt lat="42.119092" lon="11.952679"><ele>360.0</ele><time>2026-04-18T11:25:43.908Z</time></trkpt><trkpt lat="42.1191152" lon="11.9527685"><ele>360.0</ele><time>2026-04-18T11:25:45.908Z</time></trkpt><trkpt lat="42.1191331" lon="11.9528811"><ele>360.0</ele><time>2026-04-18T11:25:47.908Z</time></trkpt><trkpt lat="42.1191065" lon="11.9529863"><ele>360.0</ele><time>2026-04-18T11:25:49.908Z</time></trkpt><trkpt lat="42.1190169" lon="11.9530805"><ele>360.0</ele><time>2026-04-18T11:25:51.907Z</time></trkpt><trkpt lat="42.1189501" lon="11.9531334"><ele>360.0</ele><time>2026-04-18T11:25:53.907Z</time></trkpt><trkpt lat="42.1188658" lon="11.9531788"><ele>360.0</ele><time>2026-04-18T11:25:56.907Z</time></trkpt><trkpt lat="42.1187953" lon="11.9532138"><ele>360.0</ele><time>2026-04-18T11:25:58.908Z</time></trkpt><trkpt lat="42.1187065" lon="11.9532168"><ele>360.0</ele><time>2026-04-18T11:26:01.908Z</time></trkpt><trkpt lat="42.1185854" lon="11.9532531"><ele>360.0</ele><time>2026-04-18T11:26:03.907Z</time></trkpt><trkpt lat="42.1185069" lon="11.9532994"><ele>360.0</ele><time>2026-04-18T11:26:04.908Z</time></trkpt><trkpt lat="42.1184247" lon="11.9533602"><ele>360.0</ele><time>2026-04-18T11:26:05.907Z</time></trkpt><trkpt lat="42.1183547" lon="11.9534248"><ele>360.0</ele><time>2026-04-18T11:26:06.908Z</time></trkpt><trkpt lat="42.1182879" lon="11.9534944"><ele>360.0</ele><time>2026-04-18T11:26:07.908Z</time></trkpt><trkpt lat="42.1182354" lon="11.9535672"><ele>360.0</ele><time>2026-04-18T11:26:08.908Z</time></trkpt><trkpt lat="42.1181797" lon="11.9537168"><ele>360.5</ele><time>2026-04-18T11:26:10.907Z</time></trkpt><trkpt lat="42.1181859" lon="11.9538229"><ele>361.0</ele><time>2026-04-18T11:26:11.908Z</time></trkpt><trkpt lat="42.1181684" lon="11.9539416"><ele>361.5</ele><time>2026-04-18T11:26:12.908Z</time></trkpt><trkpt lat="42.1181547" lon="11.95405"><ele>362.0</ele><time>2026-04-18T11:26:13.908Z</time></trkpt><trkpt lat="42.1181472" lon="11.9541697"><ele>362.5</ele><time>2026-04-18T11:26:14.908Z</time></trkpt><trkpt lat="42.1181505" lon="11.954281"><ele>363.0</ele><time>2026-04-18T11:26:15.908Z</time></trkpt><trkpt lat="42.1181535" lon="11.9543993"><ele>363.3333333333333</ele><time>2026-04-18T11:26:16.909Z</time></trkpt><trkpt lat="42.1181553" lon="11.9545129"><ele>363.6666666666667</ele><time>2026-04-18T11:26:17.908Z</time></trkpt><trkpt lat="42.1181614" lon="11.9546137"><ele>364.0</ele><time>2026-04-18T11:26:18.908Z</time></trkpt><trkpt lat="42.1181785" lon="11.954708"><ele>364.33333333333337</ele><time>2026-04-18T11:26:19.909Z</time></trkpt><trkpt lat="42.1181933" lon="11.9547924"><ele>364.6666666666667</ele><time>2026-04-18T11:26:20.907Z</time></trkpt><trkpt lat="42.1182171" lon="11.954876"><ele>365.0</ele><time>2026-04-18T11:26:21.907Z</time></trkpt><trkpt lat="42.1182533" lon="11.9550228"><ele>364.0</ele><time>2026-04-18T11:26:23.909Z</time></trkpt><trkpt lat="42.1182898" lon="11.9551245"><ele>363.0</ele><time>2026-04-18T11:26:25.908Z</time></trkpt><trkpt lat="42.1183617" lon="11.9552189"><ele>362.0</ele><time>2026-04-18T11:26:27.908Z</time></trkpt><trkpt lat="42.1184246" lon="11.9552697"><ele>361.0</ele><time>2026-04-18T11:26:29.907Z</time></trkpt><trkpt lat="42.1184844" lon="11.9553178"><ele>360.0</ele><time>2026-04-18T11:26:31.909Z</time></trkpt><trkpt lat="42.118556" lon="11.9553712"><ele>359.0</ele><time>2026-04-18T11:26:34.908Z</time></trkpt><trkpt lat="42.1186075" lon="11.9554216"><ele>359.0</ele><time>2026-04-18T11:27:24.908Z</time></trkpt><trkpt lat="42.1186744" lon="11.9554515"><ele>359.0</ele><time>2026-04-18T11:27:28.908Z</time></trkpt><trkpt lat="42.1187322" lon="11.955492"><ele>359.0</ele><time>2026-04-18T11:28:30.909Z</time></trkpt><trkpt lat="42.1188034" lon="11.9555443"><ele>359.0</ele><time>2026-04-18T11:28:33.908Z</time></trkpt><trkpt lat="42.1188682" lon="11.9555858"><ele>359.0</ele><time>2026-04-18T11:28:36.907Z</time></trkpt><trkpt lat="42.1189336" lon="11.955645"><ele>359.0</ele><time>2026-04-18T11:28:40.907Z</time></trkpt><trkpt lat="42.1189984" lon="11.9557017"><ele>359.0</ele><time>2026-04-18T11:28:43.909Z</time></trkpt><trkpt lat="42.1190574" lon="11.9557492"><ele>357.5</ele><time>2026-04-18T11:28:45.908Z</time></trkpt><trkpt lat="42.1191081" lon="11.9558051"><ele>356.0</ele><time>2026-04-18T11:28:47.909Z</time></trkpt><trkpt lat="42.1191578" lon="11.9558703"><ele>354.5</ele><time>2026-04-18T11:28:49.909Z</time></trkpt><trkpt lat="42.1192395" lon="11.9559398"><ele>353.0</ele><time>2026-04-18T11:28:51.907Z</time></trkpt><trkpt lat="42.1193267" lon="11.9560046"><ele>351.5</ele><time>2026-04-18T11:28:53.908Z</time></trkpt><trkpt lat="42.1194153" lon="11.9560531"><ele>350.0</ele><time>2026-04-18T11:28:55.908Z</time></trkpt><trkpt lat="42.1194885" lon="11.9560802"><ele>350.0</ele><time>2026-04-18T11:28:57.909Z</time></trkpt><trkpt lat="42.1195682" lon="11.9561176"><ele>350.0</ele><time>2026-04-18T11:29:00.907Z</time></trkpt><trkpt lat="42.1196386" lon="11.9561773"><ele>350.0</ele><time>2026-04-18T11:29:05.907Z</time></trkpt><trkpt lat="42.1197157" lon="11.9562391"><ele>350.0</ele><time>2026-04-18T11:29:08.907Z</time></trkpt><trkpt lat="42.1197983" lon="11.9563064"><ele>350.0</ele><time>2026-04-18T11:29:10.908Z</time></trkpt><trkpt lat="42.1198754" lon="11.9563584"><ele>350.0</ele><time>2026-04-18T11:29:12.907Z</time></trkpt><trkpt lat="42.1199544" lon="11.9564189"><ele>347.6</ele><time>2026-04-18T11:29:14.908Z</time></trkpt><trkpt lat="42.1200473" lon="11.9564811"><ele>345.2</ele><time>2026-04-18T11:29:16.908Z</time></trkpt><trkpt lat="42.1201626" lon="11.9565441"><ele>342.79999999999995</ele><time>2026-04-18T11:29:18.907Z</time></trkpt><trkpt lat="42.1202681" lon="11.956596"><ele>340.4</ele><time>2026-04-18T11:29:20.907Z</time></trkpt><trkpt lat="42.1203562" lon="11.9566127"><ele>338.0</ele><time>2026-04-18T11:29:22.907Z</time></trkpt><trkpt lat="42.1204356" lon="11.9566183"><ele>338.0</ele><time>2026-04-18T11:29:24.907Z</time></trkpt><trkpt lat="42.1205171" lon="11.9566586"><ele>338.0</ele><time>2026-04-18T11:29:26.909Z</time></trkpt><trkpt lat="42.1205742" lon="11.9566944"><ele>338.0</ele><time>2026-04-18T11:29:29.908Z</time></trkpt><trkpt lat="42.1206178" lon="11.9567864"><ele>338.0</ele><time>2026-04-18T11:30:24.907Z</time></trkpt><trkpt lat="42.1206048" lon="11.9568923"><ele>338.0</ele><time>2026-04-18T11:30:26.906Z</time></trkpt><trkpt lat="42.1205618" lon="11.9569793"><ele>338.0</ele><time>2026-04-18T11:30:28.906Z</time></trkpt><trkpt lat="42.1205217" lon="11.9570867"><ele>337.4</ele><time>2026-04-18T11:30:30.907Z</time></trkpt><trkpt lat="42.1204952" lon="11.957201"><ele>336.79999999999995</ele><time>2026-04-18T11:30:32.906Z</time></trkpt><trkpt lat="42.120485" lon="11.9573637"><ele>336.2</ele><time>2026-04-18T11:30:34.906Z</time></trkpt><trkpt lat="42.1204763" lon="11.9574571"><ele>335.6</ele><time>2026-04-18T11:30:35.908Z</time></trkpt><trkpt lat="42.1204646" lon="11.9575693"><ele>335.0</ele><time>2026-04-18T11:30:36.908Z</time></trkpt><trkpt lat="42.1204533" lon="11.9577003"><ele>335.0</ele><time>2026-04-18T11:30:37.908Z</time></trkpt><trkpt lat="42.1204367" lon="11.957845"><ele>335.0</ele><time>2026-04-18T11:30:38.906Z</time></trkpt><trkpt lat="42.1204265" lon="11.9579814"><ele>335.0</ele><time>2026-04-18T11:30:39.907Z</time></trkpt><trkpt lat="42.1204131" lon="11.9581083"><ele>335.0</ele><time>2026-04-18T11:30:40.907Z</time></trkpt><trkpt lat="42.1204033" lon="11.9582431"><ele>335.0</ele><time>2026-04-18T11:30:41.906Z</time></trkpt><trkpt lat="42.1203986" lon="11.958386"><ele>336.5</ele><time>2026-04-18T11:30:42.907Z</time></trkpt><trkpt lat="42.1204095" lon="11.9585359"><ele>338.0</ele><time>2026-04-18T11:30:43.907Z</time></trkpt><trkpt lat="42.1204517" lon="11.9586815"><ele>339.5</ele><time>2026-04-18T11:30:44.907Z</time></trkpt><trkpt lat="42.1205142" lon="11.9588283"><ele>341.0</ele><time>2026-04-18T11:30:45.906Z</time></trkpt><trkpt lat="42.1205861" lon="11.9589555"><ele>341.0</ele><time>2026-04-18T11:30:46.907Z</time></trkpt><trkpt lat="42.1206438" lon="11.9590835"><ele>341.0</ele><time>2026-04-18T11:30:47.907Z</time></trkpt><trkpt lat="42.1206819" lon="11.9592169"><ele>341.0</ele><time>2026-04-18T11:30:48.906Z</time></trkpt><trkpt lat="42.120692" lon="11.9593606"><ele>341.0</ele><time>2026-04-18T11:30:49.907Z</time></trkpt><trkpt lat="42.1206708" lon="11.9595197"><ele>341.0</ele><time>2026-04-18T11:30:50.908Z</time></trkpt><trkpt lat="42.1206212" lon="11.9596924"><ele>341.5</ele><time>2026-04-18T11:30:51.908Z</time></trkpt><trkpt lat="42.1205503" lon="11.9598607"><ele>342.0</ele><time>2026-04-18T11:30:52.908Z</time></trkpt><trkpt lat="42.1204934" lon="11.9600214"><ele>342.5</ele><time>2026-04-18T11:30:53.907Z</time></trkpt><trkpt lat="42.1204819" lon="11.9601743"><ele>343.0</ele><time>2026-04-18T11:30:54.907Z</time></trkpt><trkpt lat="42.1205104" lon="11.9603263"><ele>340.75</ele><time>2026-04-18T11:30:55.907Z</time></trkpt><trkpt lat="42.1205686" lon="11.9604916"><ele>338.5</ele><time>2026-04-18T11:30:56.906Z</time></trkpt><trkpt lat="42.120606" lon="11.9606451"><ele>336.25</ele><time>2026-04-18T11:30:57.907Z</time></trkpt><trkpt lat="42.1206079" lon="11.9607897"><ele>334.0</ele><time>2026-04-18T11:30:58.907Z</time></trkpt><trkpt lat="42.1205754" lon="11.960919"><ele>332.25</ele><time>2026-04-18T11:30:59.907Z</time></trkpt><trkpt lat="42.12051" lon="11.9610241"><ele>330.5</ele><time>2026-04-18T11:31:00.906Z</time></trkpt><trkpt lat="42.1204057" lon="11.9610955"><ele>328.75</ele><time>2026-04-18T11:31:01.906Z</time></trkpt><trkpt lat="42.120278" lon="11.9611514"><ele>327.0</ele><time>2026-04-18T11:31:02.908Z</time></trkpt><trkpt lat="42.1201679" lon="11.9611943"><ele>327.0</ele><time>2026-04-18T11:31:03.907Z</time></trkpt><trkpt lat="42.1200751" lon="11.9612663"><ele>327.0</ele><time>2026-04-18T11:31:04.906Z</time></trkpt><trkpt lat="42.1200109" lon="11.9613593"><ele>327.0</ele><time>2026-04-18T11:31:05.906Z</time></trkpt><trkpt lat="42.1199791" lon="11.9614826"><ele>327.0</ele><time>2026-04-18T11:31:06.906Z</time></trkpt><trkpt lat="42.1199928" lon="11.9616338"><ele>327.0</ele><time>2026-04-18T11:31:07.906Z</time></trkpt><trkpt lat="42.1200388" lon="11.9618032"><ele>326.25</ele><time>2026-04-18T11:31:08.906Z</time></trkpt><trkpt lat="42.1200816" lon="11.9619568"><ele>325.5</ele><time>2026-04-18T11:31:09.907Z</time></trkpt><trkpt lat="42.120092" lon="11.9621061"><ele>324.75</ele><time>2026-04-18T11:31:10.907Z</time></trkpt><trkpt lat="42.120064" lon="11.9622497"><ele>324.0</ele><time>2026-04-18T11:31:11.907Z</time></trkpt><trkpt lat="42.1199979" lon="11.9623687"><ele>324.0</ele><time>2026-04-18T11:31:12.907Z</time></trkpt><trkpt lat="42.1199089" lon="11.962464"><ele>324.0</ele><time>2026-04-18T11:31:13.906Z</time></trkpt><trkpt lat="42.1198131" lon="11.9625342"><ele>324.0</ele><time>2026-04-18T11:31:14.907Z</time></trkpt><trkpt lat="42.1197331" lon="11.9626011"><ele>324.0</ele><time>2026-04-18T11:31:15.906Z</time></trkpt><trkpt lat="42.1196616" lon="11.9626917"><ele>324.0</ele><time>2026-04-18T11:31:16.907Z</time></trkpt><trkpt lat="42.1196072" lon="11.9627867"><ele>326.8333333333333</ele><time>2026-04-18T11:31:17.907Z</time></trkpt><trkpt lat="42.119566" lon="11.9628809"><ele>329.6666666666667</ele><time>2026-04-18T11:31:18.908Z</time></trkpt><trkpt lat="42.1195353" lon="11.9629932"><ele>332.5</ele><time>2026-04-18T11:31:19.907Z</time></trkpt><trkpt lat="42.1195143" lon="11.9631125"><ele>335.33333333333337</ele><time>2026-04-18T11:31:20.907Z</time></trkpt><trkpt lat="42.1195103" lon="11.9632241"><ele>338.1666666666667</ele><time>2026-04-18T11:31:21.906Z</time></trkpt><trkpt lat="42.1195173" lon="11.963339"><ele>341.0</ele><time>2026-04-18T11:31:22.907Z</time></trkpt><trkpt lat="42.1195325" lon="11.9634595"><ele>342.4</ele><time>2026-04-18T11:31:23.906Z</time></trkpt><trkpt lat="42.1195614" lon="11.9635914"><ele>343.8</ele><time>2026-04-18T11:31:24.907Z</time></trkpt><trkpt lat="42.1196004" lon="11.9637244"><ele>345.2</ele><time>2026-04-18T11:31:25.907Z</time></trkpt><trkpt lat="42.1196409" lon="11.9638621"><ele>346.59999999999997</ele><time>2026-04-18T11:31:26.907Z</time></trkpt><trkpt lat="42.1196843" lon="11.9640054"><ele>348.0</ele><time>2026-04-18T11:31:27.906Z</time></trkpt><trkpt lat="42.1197265" lon="11.9641488"><ele>347.0</ele><time>2026-04-18T11:31:28.907Z</time></trkpt><trkpt lat="42.1197673" lon="11.9642839"><ele>346.0</ele><time>2026-04-18T11:31:29.906Z</time></trkpt><trkpt lat="42.119809" lon="11.9643982"><ele>345.0</ele><time>2026-04-18T11:31:30.907Z</time></trkpt><trkpt lat="42.119858" lon="11.9645039"><ele>344.0</ele><time>2026-04-18T11:31:31.906Z</time></trkpt><trkpt lat="42.119912" lon="11.9646124"><ele>343.0</ele><time>2026-04-18T11:31:32.907Z</time></trkpt><trkpt lat="42.1199734" lon="11.9647172"><ele>343.0</ele><time>2026-04-18T11:31:33.907Z</time></trkpt><trkpt lat="42.120033" lon="11.9648245"><ele>343.0</ele><time>2026-04-18T11:31:34.906Z</time></trkpt><trkpt lat="42.1200945" lon="11.9649345"><ele>343.0</ele><time>2026-04-18T11:31:35.907Z</time></trkpt><trkpt lat="42.1201479" lon="11.965064"><ele>343.0</ele><time>2026-04-18T11:31:36.906Z</time></trkpt><trkpt lat="42.1201785" lon="11.9652073"><ele>343.0</ele><time>2026-04-18T11:31:37.906Z</time></trkpt><trkpt lat="42.1201879" lon="11.9653601"><ele>346.0</ele><time>2026-04-18T11:31:38.907Z</time></trkpt><trkpt lat="42.120174" lon="11.9655182"><ele>349.0</ele><time>2026-04-18T11:31:39.908Z</time></trkpt><trkpt lat="42.1201609" lon="11.9656743"><ele>352.0</ele><time>2026-04-18T11:31:40.907Z</time></trkpt><trkpt lat="42.120186" lon="11.9658116"><ele>355.0</ele><time>2026-04-18T11:31:41.907Z</time></trkpt><trkpt lat="42.1202391" lon="11.9659687"><ele>359.0</ele><time>2026-04-18T11:31:42.908Z</time></trkpt><trkpt lat="42.1203284" lon="11.9661393"><ele>363.0</ele><time>2026-04-18T11:31:43.908Z</time></trkpt><trkpt lat="42.1204483" lon="11.9663309"><ele>367.0</ele><time>2026-04-18T11:31:44.907Z</time></trkpt><trkpt lat="42.1205561" lon="11.9665191"><ele>369.0</ele><time>2026-04-18T11:31:45.906Z</time></trkpt><trkpt lat="42.1206451" lon="11.9667057"><ele>371.0</ele><time>2026-04-18T11:31:46.907Z</time></trkpt><trkpt lat="42.1207201" lon="11.9668739"><ele>373.0</ele><time>2026-04-18T11:31:47.906Z</time></trkpt><trkpt lat="42.1207767" lon="11.9670503"><ele>364.66666666666663</ele><time>2026-04-18T11:31:48.907Z</time></trkpt><trkpt lat="42.1208033" lon="11.9672285"><ele>356.3333333333333</ele><time>2026-04-18T11:31:49.906Z</time></trkpt><trkpt lat="42.1208107" lon="11.9674302"><ele>348.0</ele><time>2026-04-18T11:31:50.907Z</time></trkpt><trkpt lat="42.1208147" lon="11.9676698"><ele>347.5</ele><time>2026-04-18T11:31:51.906Z</time></trkpt><trkpt lat="42.120825" lon="11.9678658"><ele>347.0</ele><time>2026-04-18T11:31:52.907Z</time></trkpt><trkpt lat="42.1208292" lon="11.9680354"><ele>346.5</ele><time>2026-04-18T11:31:53.907Z</time></trkpt><trkpt lat="42.120825" lon="11.9681792"><ele>346.0</ele><time>2026-04-18T11:31:54.906Z</time></trkpt><trkpt lat="42.1208017" lon="11.9683247"><ele>347.0</ele><time>2026-04-18T11:31:55.906Z</time></trkpt><trkpt lat="42.1207438" lon="11.9684702"><ele>348.0</ele><time>2026-04-18T11:31:56.906Z</time></trkpt><trkpt lat="42.1206485" lon="11.968616"><ele>349.0</ele><time>2026-04-18T11:31:57.907Z</time></trkpt><trkpt lat="42.1205171" lon="11.9687793"><ele>350.0</ele><time>2026-04-18T11:31:58.906Z</time></trkpt><trkpt lat="42.1203795" lon="11.9689296"><ele>350.0</ele><time>2026-04-18T11:31:59.906Z</time></trkpt><trkpt lat="42.1202464" lon="11.9690605"><ele>350.0</ele><time>2026-04-18T11:32:00.907Z</time></trkpt><trkpt lat="42.1201143" lon="11.969181"><ele>350.0</ele><time>2026-04-18T11:32:01.907Z</time></trkpt><trkpt lat="42.1199822" lon="11.9693203"><ele>349.33333333333337</ele><time>2026-04-18T11:32:02.907Z</time></trkpt><trkpt lat="42.1198516" lon="11.9694725"><ele>348.6666666666667</ele><time>2026-04-18T11:32:03.908Z</time></trkpt><trkpt lat="42.1197207" lon="11.9696467"><ele>348.0</ele><time>2026-04-18T11:32:04.906Z</time></trkpt><trkpt lat="42.1196009" lon="11.9698467"><ele>345.3333333333333</ele><time>2026-04-18T11:32:05.907Z</time></trkpt><trkpt lat="42.1194921" lon="11.9700736"><ele>342.66666666666663</ele><time>2026-04-18T11:32:06.908Z</time></trkpt><trkpt lat="42.1194077" lon="11.9702939"><ele>340.0</ele><time>2026-04-18T11:32:07.906Z</time></trkpt><trkpt lat="42.1193253" lon="11.9705006"><ele>340.0</ele><time>2026-04-18T11:32:08.907Z</time></trkpt><trkpt lat="42.1192395" lon="11.9706874"><ele>340.0</ele><time>2026-04-18T11:32:09.906Z</time></trkpt><trkpt lat="42.1191454" lon="11.9708557"><ele>340.0</ele><time>2026-04-18T11:32:10.908Z</time></trkpt><trkpt lat="42.1190318" lon="11.9710025"><ele>339.66666666666663</ele><time>2026-04-18T11:32:11.907Z</time></trkpt><trkpt lat="42.1188956" lon="11.9711262"><ele>339.3333333333333</ele><time>2026-04-18T11:32:12.907Z</time></trkpt><trkpt lat="42.1187364" lon="11.9712256"><ele>339.0</ele><time>2026-04-18T11:32:13.907Z</time></trkpt><trkpt lat="42.1185566" lon="11.9712978"><ele>339.0</ele><time>2026-04-18T11:32:14.907Z</time></trkpt><trkpt lat="42.1183851" lon="11.9713385"><ele>339.0</ele><time>2026-04-18T11:32:15.906Z</time></trkpt><trkpt lat="42.1182253" lon="11.9713892"><ele>339.0</ele><time>2026-04-18T11:32:16.907Z</time></trkpt><trkpt lat="42.1180658" lon="11.9714827"><ele>339.3333333333333</ele><time>2026-04-18T11:32:17.906Z</time></trkpt><trkpt lat="42.1179034" lon="11.9716204"><ele>339.66666666666663</ele><time>2026-04-18T11:32:18.908Z</time></trkpt><trkpt lat="42.11774" lon="11.9717825"><ele>340.0</ele><time>2026-04-18T11:32:19.908Z</time></trkpt><trkpt lat="42.1175675" lon="11.9719442"><ele>343.66666666666663</ele><time>2026-04-18T11:32:20.906Z</time></trkpt><trkpt lat="42.1173761" lon="11.9721131"><ele>347.3333333333333</ele><time>2026-04-18T11:32:21.906Z</time></trkpt><trkpt lat="42.1171968" lon="11.9722707"><ele>351.0</ele><time>2026-04-18T11:32:22.907Z</time></trkpt><trkpt lat="42.1170273" lon="11.9724136"><ele>347.3333333333333</ele><time>2026-04-18T11:32:23.906Z</time></trkpt><trkpt lat="42.1168673" lon="11.9725445"><ele>343.66666666666663</ele><time>2026-04-18T11:32:24.907Z</time></trkpt><trkpt lat="42.1167187" lon="11.972671"><ele>340.0</ele><time>2026-04-18T11:32:25.906Z</time></trkpt><trkpt lat="42.1165769" lon="11.9728016"><ele>344.0</ele><time>2026-04-18T11:32:26.908Z</time></trkpt><trkpt lat="42.1164474" lon="11.9729535"><ele>348.0</ele><time>2026-04-18T11:32:27.907Z</time></trkpt><trkpt lat="42.1163446" lon="11.9731301"><ele>352.0</ele><time>2026-04-18T11:32:28.906Z</time></trkpt><trkpt lat="42.1162635" lon="11.9733222"><ele>350.75</ele><time>2026-04-18T11:32:29.906Z</time></trkpt><trkpt lat="42.1161943" lon="11.9734989"><ele>349.5</ele><time>2026-04-18T11:32:30.907Z</time></trkpt><trkpt lat="42.1161268" lon="11.9736601"><ele>348.25</ele><time>2026-04-18T11:32:31.907Z</time></trkpt><trkpt lat="42.1160672" lon="11.9737834"><ele>347.0</ele><time>2026-04-18T11:32:32.906Z</time></trkpt><trkpt lat="42.1160124" lon="11.9738768"><ele>347.0</ele><time>2026-04-18T11:32:33.908Z</time></trkpt><trkpt lat="42.1159652" lon="11.9739512"><ele>347.0</ele><time>2026-04-18T11:32:34.908Z</time></trkpt><trkpt lat="42.1159224" lon="11.97407"><ele>347.0</ele><time>2026-04-18T11:32:36.907Z</time></trkpt><trkpt lat="42.1159323" lon="11.97417"><ele>347.0</ele><time>2026-04-18T11:32:38.907Z</time></trkpt><trkpt lat="42.1159604" lon="11.9742501"><ele>347.0</ele><time>2026-04-18T11:32:40.907Z</time></trkpt><trkpt lat="42.1159222" lon="11.9743655"><ele>347.0</ele><time>2026-04-18T11:32:43.907Z</time></trkpt><trkpt lat="42.1158407" lon="11.9744694"><ele>346.20000000000005</ele><time>2026-04-18T11:32:45.906Z</time></trkpt><trkpt lat="42.1157831" lon="11.9745442"><ele>345.4</ele><time>2026-04-18T11:32:47.907Z</time></trkpt><trkpt lat="42.1157863" lon="11.9746321"><ele>344.6</ele><time>2026-04-18T11:32:49.906Z</time></trkpt><trkpt lat="42.1158434" lon="11.9745795"><ele>343.79999999999995</ele><time>2026-04-18T11:33:30.906Z</time></trkpt><trkpt lat="42.115852" lon="11.9744839"><ele>343.0</ele><time>2026-04-18T11:34:19.453Z</time></trkpt><trkpt lat="42.115957" lon="11.9742493"><ele>343.0</ele><time>2026-04-18T11:35:28.722Z</time></trkpt><trkpt lat="42.1159009" lon="11.9743202"><ele>343.0</ele><time>2026-04-18T11:35:30.907Z</time></trkpt><trkpt lat="42.1158571" lon="11.9743846"><ele>343.0</ele><time>2026-04-18T11:36:44.081Z</time></trkpt><trkpt lat="42.1159481" lon="11.9745443"><ele>343.0</ele><time>2026-04-18T11:41:20.595Z</time></trkpt><trkpt lat="42.115825" lon="11.9745096"><ele>343.0</ele><time>2026-04-18T11:59:52.298Z</time></trkpt><trkpt lat="42.1530342" lon="11.9392861"><ele>341.0</ele><time>2026-04-18T12:03:40.025Z</time></trkpt><trkpt lat="42.1161669" lon="11.975192"><ele>480.0</ele><time>2026-04-18T12:04:05.425Z</time></trkpt><trkpt lat="42.1528869" lon="11.9403343"><ele>341.0</ele><time>2026-04-18T12:10:26.036Z</time></trkpt><trkpt lat="42.116117" lon="11.9752744"><ele>341.0</ele><time>2026-04-18T12:11:37.901Z</time></trkpt><trkpt lat="42.1161412" lon="11.9751897"><ele>341.0</ele><time>2026-04-18T12:18:32.899Z</time></trkpt><trkpt lat="42.1162487" lon="11.9751152"><ele>341.0</ele><time>2026-04-18T12:18:34.901Z</time></trkpt><trkpt lat="42.1163025" lon="11.9750521"><ele>341.0</ele><time>2026-04-18T12:18:35.9Z</time></trkpt><trkpt lat="42.1163555" lon="11.974985"><ele>341.0</ele><time>2026-04-18T12:18:36.899Z</time></trkpt><trkpt lat="42.1164122" lon="11.9749251"><ele>341.0</ele><time>2026-04-18T12:18:37.899Z</time></trkpt><trkpt lat="42.1164687" lon="11.9748637"><ele>341.5</ele><time>2026-04-18T12:18:38.9Z</time></trkpt><trkpt lat="42.1165395" lon="11.9747524"><ele>342.0</ele><time>2026-04-18T12:18:40.899Z</time></trkpt><trkpt lat="42.1165525" lon="11.9746228"><ele>342.5</ele><time>2026-04-18T12:18:42.9Z</time></trkpt><trkpt lat="42.1164954" lon="11.9745136"><ele>343.0</ele><time>2026-04-18T12:18:44.899Z</time></trkpt><trkpt lat="42.1163657" lon="11.9744154"><ele>343.0</ele><time>2026-04-18T12:18:46.899Z</time></trkpt><trkpt lat="42.116301" lon="11.9743738"><ele>343.0</ele><time>2026-04-18T12:18:47.899Z</time></trkpt><trkpt lat="42.1162398" lon="11.9743389"><ele>343.0</ele><time>2026-04-18T12:18:48.9Z</time></trkpt><trkpt lat="42.116172" lon="11.974313"><ele>343.0</ele><time>2026-04-18T12:18:49.899Z</time></trkpt><trkpt lat="42.1160758" lon="11.9743081"><ele>343.0</ele><time>2026-04-18T12:18:51.9Z</time></trkpt><trkpt lat="42.1159898" lon="11.9743513"><ele>343.0</ele><time>2026-04-18T12:18:54.9Z</time></trkpt><trkpt lat="42.1158672" lon="11.9744457"><ele>343.0</ele><time>2026-04-18T12:18:56.899Z</time></trkpt><trkpt lat="42.1157957" lon="11.9745618"><ele>343.0</ele><time>2026-04-18T12:18:58.9Z</time></trkpt><trkpt lat="42.1157847" lon="11.9746674"><ele>343.0</ele><time>2026-04-18T12:19:29.899Z</time></trkpt><trkpt lat="42.1157284" lon="11.9745893"><ele>343.0</ele><time>2026-04-18T12:19:34.901Z</time></trkpt><trkpt lat="42.115792" lon="11.9745051"><ele>343.0</ele><time>2026-04-18T12:19:36.9Z</time></trkpt><trkpt lat="42.1158524" lon="11.9744409"><ele>343.0</ele><time>2026-04-18T12:19:38.899Z</time></trkpt><trkpt lat="42.1159085" lon="11.9744011"><ele>343.0</ele><time>2026-04-18T12:19:40.899Z</time></trkpt><trkpt lat="42.1159724" lon="11.9743116"><ele>343.0</ele><time>2026-04-18T12:19:42.901Z</time></trkpt><trkpt lat="42.1159797" lon="11.9742255"><ele>343.0</ele><time>2026-04-18T12:19:57.899Z</time></trkpt><trkpt lat="42.1159222" lon="11.9741554"><ele>343.0</ele><time>2026-04-18T12:20:00.899Z</time></trkpt><trkpt lat="42.1158588" lon="11.9740905"><ele>343.0</ele><time>2026-04-18T12:20:38.899Z</time></trkpt><trkpt lat="42.1157769" lon="11.9741731"><ele>343.0</ele><time>2026-04-18T12:20:40.899Z</time></trkpt><trkpt lat="42.115722" lon="11.9742597"><ele>344.2</ele><time>2026-04-18T12:20:41.9Z</time></trkpt><trkpt lat="42.1156609" lon="11.9743461"><ele>345.4</ele><time>2026-04-18T12:20:42.9Z</time></trkpt><trkpt lat="42.1155907" lon="11.9744479"><ele>346.59999999999997</ele><time>2026-04-18T12:20:43.899Z</time></trkpt><trkpt lat="42.1155131" lon="11.9745552"><ele>347.79999999999995</ele><time>2026-04-18T12:20:44.899Z</time></trkpt><trkpt lat="42.1154268" lon="11.9746676"><ele>349.0</ele><time>2026-04-18T12:20:45.901Z</time></trkpt><trkpt lat="42.1153352" lon="11.9747916"><ele>349.0</ele><time>2026-04-18T12:20:46.901Z</time></trkpt><trkpt lat="42.1152433" lon="11.9749158"><ele>349.0</ele><time>2026-04-18T12:20:47.9Z</time></trkpt><trkpt lat="42.1151597" lon="11.9750273"><ele>349.0</ele><time>2026-04-18T12:20:48.899Z</time></trkpt><trkpt lat="42.1150748" lon="11.9751394"><ele>349.0</ele><time>2026-04-18T12:20:49.9Z</time></trkpt><trkpt lat="42.1149965" lon="11.9752395"><ele>348.79999999999995</ele><time>2026-04-18T12:20:50.9Z</time></trkpt><trkpt lat="42.1149159" lon="11.9753418"><ele>348.59999999999997</ele><time>2026-04-18T12:20:51.899Z</time></trkpt><trkpt lat="42.1148434" lon="11.9754315"><ele>348.4</ele><time>2026-04-18T12:20:52.9Z</time></trkpt><trkpt lat="42.1147731" lon="11.9755173"><ele>348.2</ele><time>2026-04-18T12:20:53.899Z</time></trkpt><trkpt lat="42.1146993" lon="11.9755983"><ele>348.0</ele><time>2026-04-18T12:20:54.9Z</time></trkpt><trkpt lat="42.1146068" lon="11.9756744"><ele>348.0</ele><time>2026-04-18T12:20:55.9Z</time></trkpt><trkpt lat="42.11448" lon="11.9757411"><ele>348.0</ele><time>2026-04-18T12:20:56.901Z</time></trkpt><trkpt lat="42.1143139" lon="11.9758014"><ele>348.0</ele><time>2026-04-18T12:20:57.899Z</time></trkpt><trkpt lat="42.1141437" lon="11.9758531"><ele>346.5</ele><time>2026-04-18T12:20:58.9Z</time></trkpt><trkpt lat="42.1139879" lon="11.975904"><ele>345.0</ele><time>2026-04-18T12:20:59.901Z</time></trkpt><trkpt lat="42.1138428" lon="11.9759516"><ele>343.5</ele><time>2026-04-18T12:21:00.899Z</time></trkpt><trkpt lat="42.11371" lon="11.9759938"><ele>342.0</ele><time>2026-04-18T12:21:01.899Z</time></trkpt><trkpt lat="42.1135892" lon="11.9760333"><ele>342.0</ele><time>2026-04-18T12:21:02.9Z</time></trkpt><trkpt lat="42.1134728" lon="11.9760872"><ele>342.0</ele><time>2026-04-18T12:21:03.9Z</time></trkpt><trkpt lat="42.113371" lon="11.9761799"><ele>342.0</ele><time>2026-04-18T12:21:04.899Z</time></trkpt><trkpt lat="42.1132815" lon="11.9763197"><ele>342.0</ele><time>2026-04-18T12:21:05.899Z</time></trkpt><trkpt lat="42.1132027" lon="11.9765094"><ele>344.3333333333333</ele><time>2026-04-18T12:21:06.899Z</time></trkpt><trkpt lat="42.1131425" lon="11.9767373"><ele>346.66666666666663</ele><time>2026-04-18T12:21:07.9Z</time></trkpt><trkpt lat="42.1130922" lon="11.9769456"><ele>349.0</ele><time>2026-04-18T12:21:08.899Z</time></trkpt><trkpt lat="42.1130285" lon="11.9771366"><ele>349.0</ele><time>2026-04-18T12:21:09.9Z</time></trkpt><trkpt lat="42.1129562" lon="11.9773155"><ele>349.0</ele><time>2026-04-18T12:21:10.899Z</time></trkpt><trkpt lat="42.1128689" lon="11.9774934"><ele>349.0</ele><time>2026-04-18T12:21:11.9Z</time></trkpt><trkpt lat="42.1127632" lon="11.9776763"><ele>349.25</ele><time>2026-04-18T12:21:12.899Z</time></trkpt><trkpt lat="42.1126728" lon="11.9778416"><ele>349.5</ele><time>2026-04-18T12:21:13.9Z</time></trkpt><trkpt lat="42.1126005" lon="11.9779885"><ele>349.75</ele><time>2026-04-18T12:21:14.9Z</time></trkpt><trkpt lat="42.1125551" lon="11.9781229"><ele>350.0</ele><time>2026-04-18T12:21:15.899Z</time></trkpt><trkpt lat="42.1125385" lon="11.9782641"><ele>351.75</ele><time>2026-04-18T12:21:16.901Z</time></trkpt><trkpt lat="42.1125622" lon="11.9784063"><ele>353.5</ele><time>2026-04-18T12:21:17.9Z</time></trkpt><trkpt lat="42.1126247" lon="11.9785528"><ele>355.25</ele><time>2026-04-18T12:21:18.9Z</time></trkpt><trkpt lat="42.1127242" lon="11.9787236"><ele>357.0</ele><time>2026-04-18T12:21:19.899Z</time></trkpt><trkpt lat="42.1128121" lon="11.9788849"><ele>357.0</ele><time>2026-04-18T12:21:20.9Z</time></trkpt><trkpt lat="42.1128793" lon="11.9790465"><ele>357.0</ele><time>2026-04-18T12:21:21.901Z</time></trkpt><trkpt lat="42.1129262" lon="11.9792156"><ele>357.0</ele><time>2026-04-18T12:21:22.9Z</time></trkpt><trkpt lat="42.1129519" lon="11.9793956"><ele>357.0</ele><time>2026-04-18T12:21:23.9Z</time></trkpt><trkpt lat="42.1129632" lon="11.9795779"><ele>357.75</ele><time>2026-04-18T12:21:24.9Z</time></trkpt><trkpt lat="42.1129583" lon="11.9797606"><ele>358.5</ele><time>2026-04-18T12:21:25.901Z</time></trkpt><trkpt lat="42.1129364" lon="11.9799421"><ele>359.25</ele><time>2026-04-18T12:21:26.9Z</time></trkpt><trkpt lat="42.1128937" lon="11.9801179"><ele>360.0</ele><time>2026-04-18T12:21:27.901Z</time></trkpt><trkpt lat="42.1128346" lon="11.9802944"><ele>358.0</ele><time>2026-04-18T12:21:28.9Z</time></trkpt><trkpt lat="42.1127662" lon="11.980468"><ele>356.0</ele><time>2026-04-18T12:21:29.9Z</time></trkpt><trkpt lat="42.1126886" lon="11.9806422"><ele>354.0</ele><time>2026-04-18T12:21:30.9Z</time></trkpt><trkpt lat="42.1125795" lon="11.9808074"><ele>352.0</ele><time>2026-04-18T12:21:31.899Z</time></trkpt><trkpt lat="42.1124796" lon="11.9809267"><ele>350.0</ele><time>2026-04-18T12:21:32.9Z</time></trkpt><trkpt lat="42.1123831" lon="11.9810226"><ele>348.0</ele><time>2026-04-18T12:21:33.899Z</time></trkpt><trkpt lat="42.1122737" lon="11.9810889"><ele>346.0</ele><time>2026-04-18T12:21:34.899Z</time></trkpt><trkpt lat="42.1121652" lon="11.9811152"><ele>346.0</ele><time>2026-04-18T12:21:35.899Z</time></trkpt><trkpt lat="42.1120516" lon="11.9811085"><ele>346.0</ele><time>2026-04-18T12:21:36.9Z</time></trkpt><trkpt lat="42.1119378" lon="11.9810644"><ele>346.0</ele><time>2026-04-18T12:21:37.9Z</time></trkpt><trkpt lat="42.1118191" lon="11.9809718"><ele>346.0</ele><time>2026-04-18T12:21:38.9Z</time></trkpt><trkpt lat="42.1116813" lon="11.9808251"><ele>347.66666666666663</ele><time>2026-04-18T12:21:39.901Z</time></trkpt><trkpt lat="42.1115213" lon="11.9806622"><ele>349.3333333333333</ele><time>2026-04-18T12:21:40.901Z</time></trkpt><trkpt lat="42.1113712" lon="11.9805302"><ele>351.0</ele><time>2026-04-18T12:21:41.9Z</time></trkpt><trkpt lat="42.1112392" lon="11.9804185"><ele>351.0</ele><time>2026-04-18T12:21:42.899Z</time></trkpt><trkpt lat="42.1111182" lon="11.9803319"><ele>351.0</ele><time>2026-04-18T12:21:43.899Z</time></trkpt><trkpt lat="42.1110108" lon="11.9802797"><ele>351.0</ele><time>2026-04-18T12:21:44.899Z</time></trkpt><trkpt lat="42.1109246" lon="11.980263"><ele>351.0</ele><time>2026-04-18T12:21:45.899Z</time></trkpt><trkpt lat="42.1108475" lon="11.9802701"><ele>351.0</ele><time>2026-04-18T12:21:46.901Z</time></trkpt><trkpt lat="42.1107425" lon="11.9803135"><ele>351.0</ele><time>2026-04-18T12:21:48.9Z</time></trkpt><trkpt lat="42.110826" lon="11.9803239"><ele>351.0</ele><time>2026-04-18T12:21:57.899Z</time></trkpt><trkpt lat="42.1109184" lon="11.9803005"><ele>351.0</ele><time>2026-04-18T12:21:58.899Z</time></trkpt><trkpt lat="42.1110346" lon="11.9803326"><ele>351.0</ele><time>2026-04-18T12:21:59.899Z</time></trkpt><trkpt lat="42.1111695" lon="11.9804034"><ele>351.0</ele><time>2026-04-18T12:22:00.9Z</time></trkpt><trkpt lat="42.1113218" lon="11.9805123"><ele>351.0</ele><time>2026-04-18T12:22:01.898Z</time></trkpt><trkpt lat="42.1114752" lon="11.9806546"><ele>351.0</ele><time>2026-04-18T12:22:02.899Z</time></trkpt><trkpt lat="42.1116068" lon="11.9808047"><ele>351.0</ele><time>2026-04-18T12:22:03.899Z</time></trkpt><trkpt lat="42.1117241" lon="11.9809275"><ele>349.75</ele><time>2026-04-18T12:22:04.899Z</time></trkpt><trkpt lat="42.1118305" lon="11.9810304"><ele>348.5</ele><time>2026-04-18T12:22:05.898Z</time></trkpt><trkpt lat="42.111938" lon="11.9811018"><ele>347.25</ele><time>2026-04-18T12:22:06.9Z</time></trkpt><trkpt lat="42.1120533" lon="11.9811465"><ele>346.0</ele><time>2026-04-18T12:22:07.899Z</time></trkpt><trkpt lat="42.1121749" lon="11.9811503"><ele>346.0</ele><time>2026-04-18T12:22:08.898Z</time></trkpt><trkpt lat="42.1123008" lon="11.9811076"><ele>346.0</ele><time>2026-04-18T12:22:09.899Z</time></trkpt><trkpt lat="42.112427" lon="11.9810206"><ele>346.0</ele><time>2026-04-18T12:22:10.9Z</time></trkpt><trkpt lat="42.1125472" lon="11.980895"><ele>346.0</ele><time>2026-04-18T12:22:11.898Z</time></trkpt><trkpt lat="42.1126563" lon="11.9807438"><ele>348.66666666666663</ele><time>2026-04-18T12:22:12.898Z</time></trkpt><trkpt lat="42.1127553" lon="11.9805627"><ele>351.3333333333333</ele><time>2026-04-18T12:22:13.899Z</time></trkpt><trkpt lat="42.1128401" lon="11.9803641"><ele>354.0</ele><time>2026-04-18T12:22:14.899Z</time></trkpt><trkpt lat="42.1129092" lon="11.9801634"><ele>356.0</ele><time>2026-04-18T12:22:15.899Z</time></trkpt><trkpt lat="42.1129588" lon="11.979956"><ele>358.0</ele><time>2026-04-18T12:22:16.898Z</time></trkpt><trkpt lat="42.1129821" lon="11.979753"><ele>360.0</ele><time>2026-04-18T12:22:17.898Z</time></trkpt><trkpt lat="42.112985" lon="11.9795567"><ele>360.0</ele><time>2026-04-18T12:22:18.899Z</time></trkpt><trkpt lat="42.1129803" lon="11.9793688"><ele>360.0</ele><time>2026-04-18T12:22:19.899Z</time></trkpt><trkpt lat="42.1129569" lon="11.9791922"><ele>360.0</ele><time>2026-04-18T12:22:20.899Z</time></trkpt><trkpt lat="42.1129078" lon="11.9790175"><ele>360.0</ele><time>2026-04-18T12:22:21.899Z</time></trkpt><trkpt lat="42.1128166" lon="11.9788387"><ele>359.25</ele><time>2026-04-18T12:22:22.899Z</time></trkpt><trkpt lat="42.1127083" lon="11.9786693"><ele>358.5</ele><time>2026-04-18T12:22:23.899Z</time></trkpt><trkpt lat="42.1126328" lon="11.9785153"><ele>357.75</ele><time>2026-04-18T12:22:24.899Z</time></trkpt><trkpt lat="42.1125847" lon="11.9783626"><ele>357.0</ele><time>2026-04-18T12:22:25.898Z</time></trkpt><trkpt lat="42.112577" lon="11.978211"><ele>355.25</ele><time>2026-04-18T12:22:26.899Z</time></trkpt><trkpt lat="42.1126135" lon="11.9780531"><ele>353.5</ele><time>2026-04-18T12:22:27.898Z</time></trkpt><trkpt lat="42.1126866" lon="11.9778836"><ele>351.75</ele><time>2026-04-18T12:22:28.899Z</time></trkpt><trkpt lat="42.1127865" lon="11.9777085"><ele>350.0</ele><time>2026-04-18T12:22:29.898Z</time></trkpt><trkpt lat="42.1128845" lon="11.9775292"><ele>349.6666666666667</ele><time>2026-04-18T12:22:30.9Z</time></trkpt><trkpt lat="42.1129727" lon="11.9773335"><ele>349.3333333333333</ele><time>2026-04-18T12:22:31.899Z</time></trkpt><trkpt lat="42.1130493" lon="11.9771208"><ele>349.0</ele><time>2026-04-18T12:22:32.899Z</time></trkpt><trkpt lat="42.1131148" lon="11.9768951"><ele>350.66666666666663</ele><time>2026-04-18T12:22:33.899Z</time></trkpt><trkpt lat="42.113166" lon="11.9766852"><ele>352.3333333333333</ele><time>2026-04-18T12:22:34.899Z</time></trkpt><trkpt lat="42.1132256" lon="11.9764938"><ele>354.0</ele><time>2026-04-18T12:22:35.9Z</time></trkpt><trkpt lat="42.1133007" lon="11.9763312"><ele>351.0</ele><time>2026-04-18T12:22:36.898Z</time></trkpt><trkpt lat="42.1134" lon="11.9761981"><ele>348.0</ele><time>2026-04-18T12:22:37.899Z</time></trkpt><trkpt lat="42.1135227" lon="11.9761043"><ele>345.0</ele><time>2026-04-18T12:22:38.899Z</time></trkpt><trkpt lat="42.1136714" lon="11.9760404"><ele>342.0</ele><time>2026-04-18T12:22:39.898Z</time></trkpt><trkpt lat="42.1138526" lon="11.9759849"><ele>342.0</ele><time>2026-04-18T12:22:40.898Z</time></trkpt><trkpt lat="42.1140522" lon="11.9759174"><ele>342.0</ele><time>2026-04-18T12:22:41.898Z</time></trkpt><trkpt lat="42.1142303" lon="11.9758545"><ele>342.0</ele><time>2026-04-18T12:22:42.899Z</time></trkpt><trkpt lat="42.1143927" lon="11.975797"><ele>343.5</ele><time>2026-04-18T12:22:43.899Z</time></trkpt><trkpt lat="42.1145318" lon="11.9757419"><ele>345.0</ele><time>2026-04-18T12:22:44.898Z</time></trkpt><trkpt lat="42.1146504" lon="11.9756735"><ele>346.5</ele><time>2026-04-18T12:22:45.9Z</time></trkpt><trkpt lat="42.11475" lon="11.9755854"><ele>348.0</ele><time>2026-04-18T12:22:46.899Z</time></trkpt><trkpt lat="42.1148385" lon="11.9755023"><ele>347.5</ele><time>2026-04-18T12:22:47.898Z</time></trkpt><trkpt lat="42.1149448" lon="11.9754483"><ele>347.0</ele><time>2026-04-18T12:22:48.898Z</time></trkpt><trkpt lat="42.1150701" lon="11.9754092"><ele>346.5</ele><time>2026-04-18T12:22:49.899Z</time></trkpt><trkpt lat="42.1151899" lon="11.9753916"><ele>346.0</ele><time>2026-04-18T12:22:50.899Z</time></trkpt><trkpt lat="42.1152943" lon="11.9753845"><ele>346.0</ele><time>2026-04-18T12:22:51.898Z</time></trkpt><trkpt lat="42.1153856" lon="11.9754012"><ele>346.0</ele><time>2026-04-18T12:22:52.899Z</time></trkpt><trkpt lat="42.1154592" lon="11.9754577"><ele>346.0</ele><time>2026-04-18T12:22:53.898Z</time></trkpt><trkpt lat="42.1155195" lon="11.9755547"><ele>346.0</ele><time>2026-04-18T12:22:54.898Z</time></trkpt><trkpt lat="42.1155607" lon="11.9756859"><ele>346.0</ele><time>2026-04-18T12:22:55.9Z</time></trkpt><trkpt lat="42.1155758" lon="11.9758275"><ele>344.0</ele><time>2026-04-18T12:22:56.899Z</time></trkpt><trkpt lat="42.1155681" lon="11.9759672"><ele>342.0</ele><time>2026-04-18T12:22:57.899Z</time></trkpt><trkpt lat="42.1155451" lon="11.9761139"><ele>340.0</ele><time>2026-04-18T12:22:58.9Z</time></trkpt><trkpt lat="42.1154863" lon="11.9762889"><ele>338.0</ele><time>2026-04-18T12:22:59.899Z</time></trkpt><trkpt lat="42.1153972" lon="11.9764917"><ele>336.0</ele><time>2026-04-18T12:23:00.899Z</time></trkpt><trkpt lat="42.1152755" lon="11.9767199"><ele>334.0</ele><time>2026-04-18T12:23:01.899Z</time></trkpt><trkpt lat="42.115143" lon="11.9769535"><ele>332.0</ele><time>2026-04-18T12:23:02.899Z</time></trkpt><trkpt lat="42.1150198" lon="11.9771816"><ele>332.0</ele><time>2026-04-18T12:23:03.898Z</time></trkpt><trkpt lat="42.1149064" lon="11.9774026"><ele>332.0</ele><time>2026-04-18T12:23:04.898Z</time></trkpt><trkpt lat="42.1147949" lon="11.9776173"><ele>332.0</ele><time>2026-04-18T12:23:05.898Z</time></trkpt><trkpt lat="42.1146872" lon="11.9778224"><ele>331.0</ele><time>2026-04-18T12:23:06.899Z</time></trkpt><trkpt lat="42.1145826" lon="11.9780164"><ele>330.0</ele><time>2026-04-18T12:23:07.899Z</time></trkpt><trkpt lat="42.1144828" lon="11.9782054"><ele>329.0</ele><time>2026-04-18T12:23:08.898Z</time></trkpt><trkpt lat="42.1143864" lon="11.978387"><ele>327.75</ele><time>2026-04-18T12:23:09.899Z</time></trkpt><trkpt lat="42.114291" lon="11.9785573"><ele>326.5</ele><time>2026-04-18T12:23:10.899Z</time></trkpt><trkpt lat="42.1142025" lon="11.9787145"><ele>325.25</ele><time>2026-04-18T12:23:11.899Z</time></trkpt><trkpt lat="42.1141185" lon="11.9788714"><ele>324.0</ele><time>2026-04-18T12:23:12.899Z</time></trkpt><trkpt lat="42.1140405" lon="11.9790213"><ele>328.0</ele><time>2026-04-18T12:23:13.899Z</time></trkpt><trkpt lat="42.1139702" lon="11.9791736"><ele>332.0</ele><time>2026-04-18T12:23:14.899Z</time></trkpt><trkpt lat="42.1139228" lon="11.9793401"><ele>336.0</ele><time>2026-04-18T12:23:15.898Z</time></trkpt><trkpt lat="42.1139084" lon="11.9795178"><ele>340.0</ele><time>2026-04-18T12:23:16.899Z</time></trkpt><trkpt lat="42.113909" lon="11.9796888"><ele>340.0</ele><time>2026-04-18T12:23:17.898Z</time></trkpt><trkpt lat="42.1139258" lon="11.9798863"><ele>340.0</ele><time>2026-04-18T12:23:18.899Z</time></trkpt><trkpt lat="42.1139609" lon="11.9800931"><ele>340.0</ele><time>2026-04-18T12:23:19.898Z</time></trkpt><trkpt lat="42.1139997" lon="11.9802855"><ele>340.0</ele><time>2026-04-18T12:23:20.9Z</time></trkpt><trkpt lat="42.114032" lon="11.9804677"><ele>340.0</ele><time>2026-04-18T12:23:21.899Z</time></trkpt><trkpt lat="42.1140512" lon="11.9806279"><ele>340.0</ele><time>2026-04-18T12:23:22.899Z</time></trkpt><trkpt lat="42.1140576" lon="11.9807794"><ele>340.0</ele><time>2026-04-18T12:23:23.899Z</time></trkpt><trkpt lat="42.1140421" lon="11.9809259"><ele>339.0</ele><time>2026-04-18T12:23:24.898Z</time></trkpt><trkpt lat="42.1140069" lon="11.9810709"><ele>338.0</ele><time>2026-04-18T12:23:25.898Z</time></trkpt><trkpt lat="42.1139503" lon="11.9812134"><ele>337.0</ele><time>2026-04-18T12:23:26.899Z</time></trkpt><trkpt lat="42.1138943" lon="11.9813443"><ele>336.0</ele><time>2026-04-18T12:23:27.898Z</time></trkpt><trkpt lat="42.1138421" lon="11.9814641"><ele>335.0</ele><time>2026-04-18T12:23:28.899Z</time></trkpt><trkpt lat="42.1137928" lon="11.9815691"><ele>334.4</ele><time>2026-04-18T12:23:29.899Z</time></trkpt><trkpt lat="42.1137465" lon="11.9816837"><ele>333.8</ele><time>2026-04-18T12:23:30.899Z</time></trkpt><trkpt lat="42.1137126" lon="11.9818139"><ele>333.20000000000005</ele><time>2026-04-18T12:23:31.899Z</time></trkpt><trkpt lat="42.1136968" lon="11.9819596"><ele>332.6</ele><time>2026-04-18T12:23:32.898Z</time></trkpt><trkpt lat="42.1136986" lon="11.9821046"><ele>332.0</ele><time>2026-04-18T12:23:33.898Z</time></trkpt><trkpt lat="42.1137198" lon="11.982252"><ele>332.0</ele><time>2026-04-18T12:23:34.898Z</time></trkpt><trkpt lat="42.1137661" lon="11.9824088"><ele>332.0</ele><time>2026-04-18T12:23:35.9Z</time></trkpt><trkpt lat="42.1138325" lon="11.982569"><ele>332.0</ele><time>2026-04-18T12:23:36.898Z</time></trkpt><trkpt lat="42.1138856" lon="11.9827177"><ele>332.0</ele><time>2026-04-18T12:23:37.899Z</time></trkpt><trkpt lat="42.1139393" lon="11.9828839"><ele>333.25</ele><time>2026-04-18T12:23:38.898Z</time></trkpt><trkpt lat="42.1139842" lon="11.9830578"><ele>334.5</ele><time>2026-04-18T12:23:39.899Z</time></trkpt><trkpt lat="42.1140127" lon="11.9832406"><ele>335.75</ele><time>2026-04-18T12:23:40.899Z</time></trkpt><trkpt lat="42.1140222" lon="11.9834536"><ele>337.0</ele><time>2026-04-18T12:23:41.899Z</time></trkpt><trkpt lat="42.1140056" lon="11.9836747"><ele>339.3333333333333</ele><time>2026-04-18T12:23:42.9Z</time></trkpt><trkpt lat="42.1139698" lon="11.9839183"><ele>341.6666666666667</ele><time>2026-04-18T12:23:43.898Z</time></trkpt><trkpt lat="42.1139175" lon="11.9841793"><ele>344.0</ele><time>2026-04-18T12:23:44.899Z</time></trkpt><trkpt lat="42.1138671" lon="11.9844594"><ele>345.33333333333337</ele><time>2026-04-18T12:23:45.898Z</time></trkpt><trkpt lat="42.1138214" lon="11.9847127"><ele>346.6666666666667</ele><time>2026-04-18T12:23:46.898Z</time></trkpt><trkpt lat="42.113778" lon="11.9849545"><ele>348.0</ele><time>2026-04-18T12:23:47.898Z</time></trkpt><trkpt lat="42.1137387" lon="11.9851804"><ele>348.3333333333333</ele><time>2026-04-18T12:23:48.9Z</time></trkpt><trkpt lat="42.1137044" lon="11.9853969"><ele>348.66666666666663</ele><time>2026-04-18T12:23:49.899Z</time></trkpt><trkpt lat="42.1136738" lon="11.985595"><ele>349.0</ele><time>2026-04-18T12:23:50.899Z</time></trkpt><trkpt lat="42.1136413" lon="11.9857901"><ele>348.75</ele><time>2026-04-18T12:23:51.899Z</time></trkpt><trkpt lat="42.1136081" lon="11.9859888"><ele>348.5</ele><time>2026-04-18T12:23:52.899Z</time></trkpt><trkpt lat="42.1135712" lon="11.9861788"><ele>348.25</ele><time>2026-04-18T12:23:53.899Z</time></trkpt><trkpt lat="42.1135314" lon="11.9863457"><ele>348.0</ele><time>2026-04-18T12:23:54.9Z</time></trkpt><trkpt lat="42.1134944" lon="11.9864878"><ele>348.0</ele><time>2026-04-18T12:23:55.898Z</time></trkpt><trkpt lat="42.1134527" lon="11.9866132"><ele>348.0</ele><time>2026-04-18T12:23:56.898Z</time></trkpt><trkpt lat="42.1134222" lon="11.9867306"><ele>348.0</ele><time>2026-04-18T12:23:57.9Z</time></trkpt><trkpt lat="42.1134003" lon="11.9868538"><ele>348.0</ele><time>2026-04-18T12:23:58.9Z</time></trkpt><trkpt lat="42.1133776" lon="11.9870029"><ele>348.0</ele><time>2026-04-18T12:23:59.899Z</time></trkpt><trkpt lat="42.1133542" lon="11.9871743"><ele>347.0</ele><time>2026-04-18T12:24:00.899Z</time></trkpt><trkpt lat="42.1133304" lon="11.9873503"><ele>346.0</ele><time>2026-04-18T12:24:01.898Z</time></trkpt><trkpt lat="42.1133092" lon="11.9875296"><ele>345.0</ele><time>2026-04-18T12:24:02.899Z</time></trkpt><trkpt lat="42.1132929" lon="11.9877004"><ele>344.0</ele><time>2026-04-18T12:24:03.898Z</time></trkpt><trkpt lat="42.1132774" lon="11.987855"><ele>342.25</ele><time>2026-04-18T12:24:04.898Z</time></trkpt><trkpt lat="42.1132597" lon="11.9880211"><ele>340.5</ele><time>2026-04-18T12:24:05.898Z</time></trkpt><trkpt lat="42.1132348" lon="11.9882034"><ele>338.75</ele><time>2026-04-18T12:24:06.898Z</time></trkpt><trkpt lat="42.1132037" lon="11.9883737"><ele>337.0</ele><time>2026-04-18T12:24:07.898Z</time></trkpt><trkpt lat="42.1131713" lon="11.988553"><ele>338.25</ele><time>2026-04-18T12:24:08.898Z</time></trkpt><trkpt lat="42.1131397" lon="11.9887219"><ele>339.5</ele><time>2026-04-18T12:24:09.899Z</time></trkpt><trkpt lat="42.1131147" lon="11.9888821"><ele>340.75</ele><time>2026-04-18T12:24:10.899Z</time></trkpt><trkpt lat="42.11309" lon="11.9890421"><ele>342.0</ele><time>2026-04-18T12:24:11.898Z</time></trkpt><trkpt lat="42.1130637" lon="11.9891953"><ele>342.0</ele><time>2026-04-18T12:24:12.899Z</time></trkpt><trkpt lat="42.1130368" lon="11.9893454"><ele>342.0</ele><time>2026-04-18T12:24:13.899Z</time></trkpt><trkpt lat="42.1130085" lon="11.9894986"><ele>342.0</ele><time>2026-04-18T12:24:14.898Z</time></trkpt><trkpt lat="42.1129802" lon="11.9896588"><ele>342.0</ele><time>2026-04-18T12:24:15.899Z</time></trkpt><trkpt lat="42.1129485" lon="11.9898035"><ele>342.0</ele><time>2026-04-18T12:24:16.899Z</time></trkpt><trkpt lat="42.1129189" lon="11.9899376"><ele>342.0</ele><time>2026-04-18T12:24:17.899Z</time></trkpt><trkpt lat="42.1128948" lon="11.9900654"><ele>342.0</ele><time>2026-04-18T12:24:18.898Z</time></trkpt><trkpt lat="42.1128748" lon="11.9901626"><ele>342.0</ele><time>2026-04-18T12:24:19.898Z</time></trkpt><trkpt lat="42.1128571" lon="11.9902767"><ele>342.0</ele><time>2026-04-18T12:24:21.898Z</time></trkpt><trkpt lat="42.1129365" lon="11.9902201"><ele>342.0</ele><time>2026-04-18T12:24:38.898Z</time></trkpt><trkpt lat="42.112999" lon="11.9900797"><ele>342.0</ele><time>2026-04-18T12:24:40.898Z</time></trkpt><trkpt lat="42.1130225" lon="11.9899982"><ele>342.0</ele><time>2026-04-18T12:24:41.899Z</time></trkpt><trkpt lat="42.1130501" lon="11.9898974"><ele>342.0</ele><time>2026-04-18T12:24:42.898Z</time></trkpt><trkpt lat="42.1130812" lon="11.9898014"><ele>342.0</ele><time>2026-04-18T12:24:43.899Z</time></trkpt><trkpt lat="42.1130999" lon="11.9897036"><ele>342.0</ele><time>2026-04-18T12:24:44.899Z</time></trkpt><trkpt lat="42.1131049" lon="11.9896184"><ele>342.0</ele><time>2026-04-18T12:24:45.898Z</time></trkpt><trkpt lat="42.1131493" lon="11.9895257"><ele>342.0</ele><time>2026-04-18T12:24:47.899Z</time></trkpt><trkpt lat="42.1132451" lon="11.9895182"><ele>342.0</ele><time>2026-04-18T12:24:49.899Z</time></trkpt><trkpt lat="42.1133419" lon="11.9895397"><ele>342.0</ele><time>2026-04-18T12:24:50.898Z</time></trkpt><trkpt lat="42.1134411" lon="11.9895502"><ele>342.0</ele><time>2026-04-18T12:24:51.898Z</time></trkpt><trkpt lat="42.1135253" lon="11.9895495"><ele>341.57142857142856</ele><time>2026-04-18T12:24:52.899Z</time></trkpt><trkpt lat="42.1136088" lon="11.9895407"><ele>341.1428571428571</ele><time>2026-04-18T12:24:53.899Z</time></trkpt><trkpt lat="42.1136821" lon="11.989527"><ele>340.71428571428567</ele><time>2026-04-18T12:24:54.899Z</time></trkpt><trkpt lat="42.11376" lon="11.9895167"><ele>340.2857142857143</ele><time>2026-04-18T12:24:55.898Z</time></trkpt><trkpt lat="42.1138309" lon="11.9895117"><ele>339.8571428571429</ele><time>2026-04-18T12:24:56.899Z</time></trkpt><trkpt lat="42.113901" lon="11.9895129"><ele>339.4285714285714</ele><time>2026-04-18T12:24:57.899Z</time></trkpt><trkpt lat="42.1139682" lon="11.9895134"><ele>339.0</ele><time>2026-04-18T12:24:58.9Z</time></trkpt><trkpt lat="42.1140311" lon="11.9895176"><ele>339.0</ele><time>2026-04-18T12:24:59.899Z</time></trkpt><trkpt lat="42.1141" lon="11.9895306"><ele>339.0</ele><time>2026-04-18T12:25:00.899Z</time></trkpt><trkpt lat="42.1141655" lon="11.9895408"><ele>339.0</ele><time>2026-04-18T12:25:01.899Z</time></trkpt><trkpt lat="42.1142322" lon="11.989541"><ele>339.0</ele><time>2026-04-18T12:25:02.899Z</time></trkpt><trkpt lat="42.1143432" lon="11.9895141"><ele>339.0</ele><time>2026-04-18T12:25:04.898Z</time></trkpt><trkpt lat="42.114464" lon="11.989475"><ele>339.0</ele><time>2026-04-18T12:25:06.899Z</time></trkpt><trkpt lat="42.1145327" lon="11.9894526"><ele>339.0</ele><time>2026-04-18T12:25:07.898Z</time></trkpt><trkpt lat="42.1146037" lon="11.9894255"><ele>339.0</ele><time>2026-04-18T12:25:08.9Z</time></trkpt><trkpt lat="42.1146695" lon="11.989401"><ele>339.0</ele><time>2026-04-18T12:25:09.898Z</time></trkpt><trkpt lat="42.1147405" lon="11.98938"><ele>339.0</ele><time>2026-04-18T12:25:10.898Z</time></trkpt><trkpt lat="42.1148184" lon="11.9893538"><ele>339.0</ele><time>2026-04-18T12:25:11.899Z</time></trkpt><trkpt lat="42.1149025" lon="11.9893244"><ele>339.0</ele><time>2026-04-18T12:25:12.899Z</time></trkpt><trkpt lat="42.1149851" lon="11.9892991"><ele>339.3333333333333</ele><time>2026-04-18T12:25:13.899Z</time></trkpt><trkpt lat="42.1150716" lon="11.9892924"><ele>339.6666666666667</ele><time>2026-04-18T12:25:14.898Z</time></trkpt><trkpt lat="42.1151561" lon="11.9893045"><ele>340.0</ele><time>2026-04-18T12:25:15.899Z</time></trkpt><trkpt lat="42.1152334" lon="11.9893222"><ele>340.33333333333337</ele><time>2026-04-18T12:25:16.899Z</time></trkpt><trkpt lat="42.1152969" lon="11.9893356"><ele>340.6666666666667</ele><time>2026-04-18T12:25:17.899Z</time></trkpt><trkpt lat="42.1154016" lon="11.9893316"><ele>341.0</ele><time>2026-04-18T12:25:19.899Z</time></trkpt><trkpt lat="42.115482" lon="11.9892951"><ele>341.0</ele><time>2026-04-18T12:25:21.9Z</time></trkpt><trkpt lat="42.1155596" lon="11.9892055"><ele>341.0</ele><time>2026-04-18T12:25:23.898Z</time></trkpt><trkpt lat="42.1156206" lon="11.9891123"><ele>341.0</ele><time>2026-04-18T12:25:24.899Z</time></trkpt><trkpt lat="42.115682" lon="11.98902"><ele>341.0</ele><time>2026-04-18T12:25:25.899Z</time></trkpt><trkpt lat="42.1157454" lon="11.9889331"><ele>341.0</ele><time>2026-04-18T12:25:26.899Z</time></trkpt><trkpt lat="42.115798" lon="11.9888678"><ele>341.0</ele><time>2026-04-18T12:25:27.898Z</time></trkpt><trkpt lat="42.1158523" lon="11.9888114"><ele>339.33333333333337</ele><time>2026-04-18T12:25:28.898Z</time></trkpt><trkpt lat="42.115915" lon="11.9887564"><ele>337.6666666666667</ele><time>2026-04-18T12:25:29.899Z</time></trkpt><trkpt lat="42.1159789" lon="11.9887121"><ele>336.0</ele><time>2026-04-18T12:25:30.9Z</time></trkpt><trkpt lat="42.1160639" lon="11.9886623"><ele>334.3333333333333</ele><time>2026-04-18T12:25:31.9Z</time></trkpt><trkpt lat="42.1161345" lon="11.9886236"><ele>332.66666666666663</ele><time>2026-04-18T12:25:32.899Z</time></trkpt><trkpt lat="42.11624" lon="11.9885553"><ele>331.0</ele><time>2026-04-18T12:25:34.898Z</time></trkpt><trkpt lat="42.1162931" lon="11.9884952"><ele>331.0</ele><time>2026-04-18T12:25:35.898Z</time></trkpt><trkpt lat="42.1163474" lon="11.9884384"><ele>331.0</ele><time>2026-04-18T12:25:36.899Z</time></trkpt><trkpt lat="42.1164044" lon="11.9883974"><ele>331.0</ele><time>2026-04-18T12:25:37.9Z</time></trkpt><trkpt lat="42.1165128" lon="11.9883397"><ele>331.0</ele><time>2026-04-18T12:25:39.899Z</time></trkpt><trkpt lat="42.116596" lon="11.9883106"><ele>331.0</ele><time>2026-04-18T12:25:41.899Z</time></trkpt><trkpt lat="42.1167088" lon="11.9882776"><ele>329.4</ele><time>2026-04-18T12:25:43.899Z</time></trkpt><trkpt lat="42.1168241" lon="11.9882462"><ele>327.8</ele><time>2026-04-18T12:25:45.899Z</time></trkpt><trkpt lat="42.1169291" lon="11.988221"><ele>326.2</ele><time>2026-04-18T12:25:47.898Z</time></trkpt><trkpt lat="42.1170184" lon="11.9881728"><ele>324.59999999999997</ele><time>2026-04-18T12:25:50.899Z</time></trkpt><trkpt lat="42.1171295" lon="11.9881307"><ele>323.0</ele><time>2026-04-18T12:25:52.899Z</time></trkpt><trkpt lat="42.1171914" lon="11.9881065"><ele>323.00000000000006</ele><time>2026-04-18T12:25:53.899Z</time></trkpt><trkpt lat="42.1172566" lon="11.9880798"><ele>323.0</ele><time>2026-04-18T12:25:54.899Z</time></trkpt><trkpt lat="42.1173315" lon="11.9880582"><ele>323.0</ele><time>2026-04-18T12:25:55.9Z</time></trkpt><trkpt lat="42.1173967" lon="11.9880383"><ele>323.0</ele><time>2026-04-18T12:25:56.899Z</time></trkpt><trkpt lat="42.117464" lon="11.9880225"><ele>323.0</ele><time>2026-04-18T12:25:57.898Z</time></trkpt><trkpt lat="42.1175472" lon="11.9880061"><ele>323.00000000000006</ele><time>2026-04-18T12:25:58.899Z</time></trkpt><trkpt lat="42.1176146" lon="11.9880075"><ele>323.0</ele><time>2026-04-18T12:25:59.898Z</time></trkpt><trkpt lat="42.1176797" lon="11.9880203"><ele>322.6666666666667</ele><time>2026-04-18T12:26:00.9Z</time></trkpt><trkpt lat="42.1177452" lon="11.9880523"><ele>322.33333333333337</ele><time>2026-04-18T12:26:01.899Z</time></trkpt><trkpt lat="42.117832" lon="11.988092"><ele>322.0</ele><time>2026-04-18T12:26:02.899Z</time></trkpt><trkpt lat="42.1179077" lon="11.9881105"><ele>321.6666666666667</ele><time>2026-04-18T12:26:03.899Z</time></trkpt><trkpt lat="42.1179896" lon="11.9881277"><ele>321.3333333333333</ele><time>2026-04-18T12:26:04.9Z</time></trkpt><trkpt lat="42.1180599" lon="11.9881371"><ele>321.0</ele><time>2026-04-18T12:26:05.899Z</time></trkpt><trkpt lat="42.1181355" lon="11.9881446"><ele>321.0</ele><time>2026-04-18T12:26:06.899Z</time></trkpt><trkpt lat="42.1182056" lon="11.9881524"><ele>321.0</ele><time>2026-04-18T12:26:07.898Z</time></trkpt><trkpt lat="42.1183356" lon="11.988121"><ele>321.0</ele><time>2026-04-18T12:26:09.898Z</time></trkpt><trkpt lat="42.1184443" lon="11.9880571"><ele>321.0</ele><time>2026-04-18T12:26:11.899Z</time></trkpt><trkpt lat="42.1185195" lon="11.9879723"><ele>321.0</ele><time>2026-04-18T12:26:13.899Z</time></trkpt><trkpt lat="42.1185903" lon="11.9878795"><ele>320.8333333333333</ele><time>2026-04-18T12:26:15.898Z</time></trkpt><trkpt lat="42.1186583" lon="11.9877919"><ele>320.6666666666667</ele><time>2026-04-18T12:26:17.899Z</time></trkpt><trkpt lat="42.11873" lon="11.9876879"><ele>320.5</ele><time>2026-04-18T12:26:19.898Z</time></trkpt><trkpt lat="42.1187869" lon="11.9876"><ele>320.33333333333337</ele><time>2026-04-18T12:26:22.898Z</time></trkpt><trkpt lat="42.1188269" lon="11.9875332"><ele>320.1666666666667</ele><time>2026-04-18T12:26:24.899Z</time></trkpt><trkpt lat="42.1188746" lon="11.9874746"><ele>320.0</ele><time>2026-04-18T12:26:25.9Z</time></trkpt><trkpt lat="42.1189343" lon="11.9873902"><ele>319.1666666666667</ele><time>2026-04-18T12:26:26.898Z</time></trkpt><trkpt lat="42.1190012" lon="11.9873081"><ele>318.33333333333337</ele><time>2026-04-18T12:26:27.9Z</time></trkpt><trkpt lat="42.1190745" lon="11.987237"><ele>317.5</ele><time>2026-04-18T12:26:28.899Z</time></trkpt><trkpt lat="42.1191474" lon="11.9871691"><ele>316.6666666666667</ele><time>2026-04-18T12:26:29.899Z</time></trkpt><trkpt lat="42.1192126" lon="11.9871132"><ele>315.8333333333333</ele><time>2026-04-18T12:26:30.898Z</time></trkpt><trkpt lat="42.1192759" lon="11.9870593"><ele>315.0</ele><time>2026-04-18T12:26:31.898Z</time></trkpt><trkpt lat="42.1193361" lon="11.9870043"><ele>315.0</ele><time>2026-04-18T12:26:32.898Z</time></trkpt><trkpt lat="42.1193896" lon="11.9869545"><ele>315.0</ele><time>2026-04-18T12:26:33.898Z</time></trkpt><trkpt lat="42.1195018" lon="11.986875"><ele>315.0</ele><time>2026-04-18T12:26:35.899Z</time></trkpt><trkpt lat="42.1195642" lon="11.9868457"><ele>315.0</ele><time>2026-04-18T12:26:36.9Z</time></trkpt><trkpt lat="42.1196264" lon="11.9868197"><ele>315.0</ele><time>2026-04-18T12:26:37.899Z</time></trkpt><trkpt lat="42.1197465" lon="11.9867676"><ele>315.0</ele><time>2026-04-18T12:26:39.899Z</time></trkpt><trkpt lat="42.1198433" lon="11.9867051"><ele>313.5</ele><time>2026-04-18T12:26:41.898Z</time></trkpt><trkpt lat="42.119939" lon="11.9866441"><ele>312.0</ele><time>2026-04-18T12:26:43.897Z</time></trkpt><trkpt lat="42.1199985" lon="11.9865885"><ele>310.5</ele><time>2026-04-18T12:26:45.898Z</time></trkpt><trkpt lat="42.1200509" lon="11.9865356"><ele>309.0</ele><time>2026-04-18T12:26:47.898Z</time></trkpt><trkpt lat="42.1201231" lon="11.9864797"><ele>307.5</ele><time>2026-04-18T12:26:50.898Z</time></trkpt><trkpt lat="42.1201869" lon="11.9864453"><ele>306.0</ele><time>2026-04-18T12:26:54.897Z</time></trkpt><trkpt lat="42.1202765" lon="11.9863901"><ele>306.0</ele><time>2026-04-18T12:26:56.898Z</time></trkpt><trkpt lat="42.1203689" lon="11.986334"><ele>306.0</ele><time>2026-04-18T12:26:58.899Z</time></trkpt><trkpt lat="42.1204799" lon="11.9862723"><ele>306.0</ele><time>2026-04-18T12:27:00.898Z</time></trkpt><trkpt lat="42.120596" lon="11.9862111"><ele>306.0</ele><time>2026-04-18T12:27:02.897Z</time></trkpt><trkpt lat="42.1206559" lon="11.986177"><ele>306.0</ele><time>2026-04-18T12:27:03.899Z</time></trkpt><trkpt lat="42.1207165" lon="11.9861446"><ele>306.1666666666667</ele><time>2026-04-18T12:27:04.898Z</time></trkpt><trkpt lat="42.1207768" lon="11.9861193"><ele>306.3333333333333</ele><time>2026-04-18T12:27:05.897Z</time></trkpt><trkpt lat="42.1208393" lon="11.9861054"><ele>306.5</ele><time>2026-04-18T12:27:06.898Z</time></trkpt><trkpt lat="42.1209133" lon="11.9860965"><ele>306.66666666666663</ele><time>2026-04-18T12:27:07.897Z</time></trkpt><trkpt lat="42.1209792" lon="11.9861044"><ele>306.8333333333333</ele><time>2026-04-18T12:27:08.898Z</time></trkpt><trkpt lat="42.1210467" lon="11.9861096"><ele>307.0</ele><time>2026-04-18T12:27:09.898Z</time></trkpt><trkpt lat="42.1211644" lon="11.9861139"><ele>307.0</ele><time>2026-04-18T12:27:11.898Z</time></trkpt><trkpt lat="42.1212654" lon="11.9861097"><ele>307.0</ele><time>2026-04-18T12:27:13.898Z</time></trkpt><trkpt lat="42.1213306" lon="11.9861013"><ele>307.0</ele><time>2026-04-18T12:27:16.898Z</time></trkpt><trkpt lat="42.1214376" lon="11.9860679"><ele>307.0</ele><time>2026-04-18T12:27:18.897Z</time></trkpt><trkpt lat="42.1215238" lon="11.9860214"><ele>307.0</ele><time>2026-04-18T12:27:19.897Z</time></trkpt><trkpt lat="42.1215957" lon="11.9859917"><ele>307.0</ele><time>2026-04-18T12:27:20.897Z</time></trkpt><trkpt lat="42.121705" lon="11.9859613"><ele>304.8</ele><time>2026-04-18T12:27:22.899Z</time></trkpt><trkpt lat="42.1218137" lon="11.9859492"><ele>302.6</ele><time>2026-04-18T12:27:24.897Z</time></trkpt><trkpt lat="42.1219194" lon="11.9859006"><ele>300.40000000000003</ele><time>2026-04-18T12:27:26.898Z</time></trkpt><trkpt lat="42.1220127" lon="11.9858157"><ele>298.2</ele><time>2026-04-18T12:27:28.898Z</time></trkpt><trkpt lat="42.1220501" lon="11.9857458"><ele>296.0</ele><time>2026-04-18T12:27:29.898Z</time></trkpt><trkpt lat="42.1220939" lon="11.9856309"><ele>293.5</ele><time>2026-04-18T12:27:30.899Z</time></trkpt><trkpt lat="42.1221353" lon="11.9855339"><ele>291.0</ele><time>2026-04-18T12:27:31.898Z</time></trkpt><trkpt lat="42.1221727" lon="11.9854549"><ele>288.5</ele><time>2026-04-18T12:27:32.897Z</time></trkpt><trkpt lat="42.1222128" lon="11.985387"><ele>286.0</ele><time>2026-04-18T12:27:33.898Z</time></trkpt><trkpt lat="42.1223047" lon="11.9853097"><ele>283.5</ele><time>2026-04-18T12:27:35.897Z</time></trkpt><trkpt lat="42.1224169" lon="11.9853235"><ele>281.0</ele><time>2026-04-18T12:27:37.898Z</time></trkpt><trkpt lat="42.1225162" lon="11.9853824"><ele>279.6666666666667</ele><time>2026-04-18T12:27:39.898Z</time></trkpt><trkpt lat="42.1225955" lon="11.9854109"><ele>278.33333333333337</ele><time>2026-04-18T12:27:41.898Z</time></trkpt><trkpt lat="42.1227027" lon="11.9854071"><ele>277.0</ele><time>2026-04-18T12:27:43.899Z</time></trkpt><trkpt lat="42.1227657" lon="11.985403"><ele>275.6666666666667</ele><time>2026-04-18T12:27:44.897Z</time></trkpt><trkpt lat="42.1228525" lon="11.9854"><ele>274.3333333333333</ele><time>2026-04-18T12:27:46.898Z</time></trkpt><trkpt lat="42.1229301" lon="11.9853831"><ele>273.0</ele><time>2026-04-18T12:27:48.898Z</time></trkpt><trkpt lat="42.1230015" lon="11.985348"><ele>273.0</ele><time>2026-04-18T12:27:50.899Z</time></trkpt><trkpt lat="42.123114" lon="11.9853165"><ele>273.0</ele><time>2026-04-18T12:27:52.898Z</time></trkpt><trkpt lat="42.1232236" lon="11.9852561"><ele>273.0</ele><time>2026-04-18T12:27:54.898Z</time></trkpt><trkpt lat="42.1232806" lon="11.9851846"><ele>273.0</ele><time>2026-04-18T12:27:55.898Z</time></trkpt><trkpt lat="42.1233319" lon="11.9851032"><ele>273.0</ele><time>2026-04-18T12:27:56.897Z</time></trkpt><trkpt lat="42.12338" lon="11.9850274"><ele>272.6</ele><time>2026-04-18T12:27:57.897Z</time></trkpt><trkpt lat="42.1234495" lon="11.9849298"><ele>272.20000000000005</ele><time>2026-04-18T12:27:59.898Z</time></trkpt><trkpt lat="42.1235135" lon="11.9848411"><ele>271.8</ele><time>2026-04-18T12:28:01.898Z</time></trkpt><trkpt lat="42.1236119" lon="11.9847297"><ele>271.40000000000003</ele><time>2026-04-18T12:28:03.897Z</time></trkpt><trkpt lat="42.1236729" lon="11.9846714"><ele>271.0</ele><time>2026-04-18T12:28:04.898Z</time></trkpt><trkpt lat="42.1237315" lon="11.9846187"><ele>271.0</ele><time>2026-04-18T12:28:05.898Z</time></trkpt><trkpt lat="42.1237873" lon="11.9845749"><ele>271.0</ele><time>2026-04-18T12:28:06.897Z</time></trkpt><trkpt lat="42.123845" lon="11.9845335"><ele>271.0</ele><time>2026-04-18T12:28:07.898Z</time></trkpt><trkpt lat="42.1239666" lon="11.9844756"><ele>271.0</ele><time>2026-04-18T12:28:09.899Z</time></trkpt><trkpt lat="42.1240375" lon="11.9844314"><ele>271.0</ele><time>2026-04-18T12:28:10.897Z</time></trkpt><trkpt lat="42.1241268" lon="11.9843648"><ele>271.0</ele><time>2026-04-18T12:28:11.897Z</time></trkpt><trkpt lat="42.1241894" lon="11.9843285"><ele>270.85714285714283</ele><time>2026-04-18T12:28:12.898Z</time></trkpt><trkpt lat="42.1242491" lon="11.9842969"><ele>270.7142857142857</ele><time>2026-04-18T12:28:18.897Z</time></trkpt><trkpt lat="42.1243311" lon="11.9842607"><ele>270.57142857142856</ele><time>2026-04-18T12:28:21.897Z</time></trkpt><trkpt lat="42.1243974" lon="11.9841913"><ele>270.42857142857144</ele><time>2026-04-18T12:28:23.897Z</time></trkpt><trkpt lat="42.1244577" lon="11.9841398"><ele>270.2857142857143</ele><time>2026-04-18T12:28:25.898Z</time></trkpt><trkpt lat="42.1245238" lon="11.9841005"><ele>270.1428571428571</ele><time>2026-04-18T12:28:27.897Z</time></trkpt><trkpt lat="42.124582" lon="11.984064"><ele>270.0</ele><time>2026-04-18T12:28:30.897Z</time></trkpt><trkpt lat="42.1246634" lon="11.9840387"><ele>270.0</ele><time>2026-04-18T12:28:33.898Z</time></trkpt><trkpt lat="42.1247444" lon="11.9840345"><ele>270.0</ele><time>2026-04-18T12:28:35.898Z</time></trkpt><trkpt lat="42.1248469" lon="11.9840189"><ele>270.0</ele><time>2026-04-18T12:28:37.897Z</time></trkpt><trkpt lat="42.1249094" lon="11.9840027"><ele>270.0</ele><time>2026-04-18T12:28:38.898Z</time></trkpt><trkpt lat="42.1249751" lon="11.983984"><ele>270.0</ele><time>2026-04-18T12:28:39.899Z</time></trkpt><trkpt lat="42.1250412" lon="11.9839738"><ele>270.0</ele><time>2026-04-18T12:28:40.897Z</time></trkpt><trkpt lat="42.1251088" lon="11.9839563"><ele>270.0</ele><time>2026-04-18T12:28:41.897Z</time></trkpt><trkpt lat="42.1251756" lon="11.9839434"><ele>270.0</ele><time>2026-04-18T12:28:42.899Z</time></trkpt><trkpt lat="42.1252388" lon="11.9839285"><ele>270.0</ele><time>2026-04-18T12:28:43.898Z</time></trkpt><trkpt lat="42.1253029" lon="11.9839077"><ele>270.0</ele><time>2026-04-18T12:28:44.897Z</time></trkpt><trkpt lat="42.1254008" lon="11.9838915"><ele>270.0</ele><time>2026-04-18T12:28:46.897Z</time></trkpt><trkpt lat="42.125494" lon="11.9839218"><ele>270.0</ele><time>2026-04-18T12:28:50.898Z</time></trkpt><trkpt lat="42.1255631" lon="11.9839325"><ele>270.0</ele><time>2026-04-18T12:28:52.898Z</time></trkpt><trkpt lat="42.1256323" lon="11.9839314"><ele>270.0</ele><time>2026-04-18T12:28:54.899Z</time></trkpt><trkpt lat="42.1257178" lon="11.9839117"><ele>270.0</ele><time>2026-04-18T12:28:57.897Z</time></trkpt><trkpt lat="42.1257669" lon="11.9838481"><ele>270.0</ele><time>2026-04-18T12:29:00.898Z</time></trkpt><trkpt lat="42.1257566" lon="11.9837433"><ele>270.0</ele><time>2026-04-18T12:29:03.897Z</time></trkpt><trkpt lat="42.1257348" lon="11.9836602"><ele>270.0</ele><time>2026-04-18T12:29:05.899Z</time></trkpt><trkpt lat="42.125698" lon="11.9835189"><ele>270.0</ele><time>2026-04-18T12:29:07.898Z</time></trkpt><trkpt lat="42.1256747" lon="11.9834372"><ele>270.0</ele><time>2026-04-18T12:29:08.898Z</time></trkpt><trkpt lat="42.1256278" lon="11.9832642"><ele>270.0</ele><time>2026-04-18T12:29:10.897Z</time></trkpt><trkpt lat="42.1255891" lon="11.9831468"><ele>270.0</ele><time>2026-04-18T12:29:12.898Z</time></trkpt><trkpt lat="42.1255867" lon="11.9830394"><ele>270.0</ele><time>2026-04-18T12:29:14.898Z</time></trkpt><trkpt lat="42.1256449" lon="11.98297"><ele>268.0</ele><time>2026-04-18T12:29:16.898Z</time></trkpt><trkpt lat="42.125699" lon="11.9828992"><ele>266.0</ele><time>2026-04-18T12:29:18.897Z</time></trkpt><trkpt lat="42.1257476" lon="11.9828112"><ele>264.0</ele><time>2026-04-18T12:29:21.897Z</time></trkpt><trkpt lat="42.125785" lon="11.9826657"><ele>262.0</ele><time>2026-04-18T12:29:24.899Z</time></trkpt><trkpt lat="42.1258259" lon="11.9825426"><ele>260.0</ele><time>2026-04-18T12:29:26.898Z</time></trkpt><trkpt lat="42.1258762" lon="11.9823911"><ele>255.4</ele><time>2026-04-18T12:29:28.898Z</time></trkpt><trkpt lat="42.1259167" lon="11.9822672"><ele>250.8</ele><time>2026-04-18T12:29:30.897Z</time></trkpt><trkpt lat="42.1259607" lon="11.9821675"><ele>246.2</ele><time>2026-04-18T12:29:32.897Z</time></trkpt><trkpt lat="42.1260184" lon="11.9821094"><ele>241.6</ele><time>2026-04-18T12:29:34.898Z</time></trkpt><trkpt lat="42.1261078" lon="11.9820528"><ele>237.0</ele><time>2026-04-18T12:29:36.899Z</time></trkpt><trkpt lat="42.1262158" lon="11.9820295"><ele>237.0</ele><time>2026-04-18T12:29:38.897Z</time></trkpt><trkpt lat="42.1263323" lon="11.9820157"><ele>237.0</ele><time>2026-04-18T12:29:40.897Z</time></trkpt><trkpt lat="42.126438" lon="11.9819827"><ele>237.0</ele><time>2026-04-18T12:29:42.897Z</time></trkpt><trkpt lat="42.1265004" lon="11.9819316"><ele>237.0</ele><time>2026-04-18T12:29:47.897Z</time></trkpt><trkpt lat="42.1265575" lon="11.981868"><ele>237.0</ele><time>2026-04-18T12:30:03.897Z</time></trkpt><trkpt lat="42.1266001" lon="11.981802"><ele>237.0</ele><time>2026-04-18T12:30:07.897Z</time></trkpt><trkpt lat="42.1266766" lon="11.9817203"><ele>234.85714285714283</ele><time>2026-04-18T12:30:10.898Z</time></trkpt><trkpt lat="42.1267297" lon="11.9816132"><ele>232.71428571428572</ele><time>2026-04-18T12:30:12.899Z</time></trkpt><trkpt lat="42.1267775" lon="11.9815329"><ele>230.57142857142856</ele><time>2026-04-18T12:30:14.898Z</time></trkpt><trkpt lat="42.1268072" lon="11.9814565"><ele>228.42857142857142</ele><time>2026-04-18T12:30:17.897Z</time></trkpt><trkpt lat="42.1268497" lon="11.9813933"><ele>226.28571428571428</ele><time>2026-04-18T12:30:20.897Z</time></trkpt><trkpt lat="42.1268952" lon="11.9813083"><ele>224.14285714285714</ele><time>2026-04-18T12:32:49.897Z</time></trkpt><trkpt lat="42.1269607" lon="11.9812956"><ele>222.0</ele><time>2026-04-18T12:34:15.896Z</time></trkpt><trkpt lat="42.1270136" lon="11.981232"><ele>222.0</ele><time>2026-04-18T12:34:20.898Z</time></trkpt><trkpt lat="42.1270357" lon="11.9811278"><ele>222.0</ele><time>2026-04-18T12:34:53.897Z</time></trkpt><trkpt lat="42.1270719" lon="11.9810019"><ele>222.0</ele><time>2026-04-18T12:34:55.896Z</time></trkpt><trkpt lat="42.1270905" lon="11.9808821"><ele>222.0</ele><time>2026-04-18T12:34:57.898Z</time></trkpt><trkpt lat="42.1271007" lon="11.9807681"><ele>222.0</ele><time>2026-04-18T12:34:59.896Z</time></trkpt><trkpt lat="42.1271207" lon="11.9806424"><ele>220.2</ele><time>2026-04-18T12:35:01.896Z</time></trkpt><trkpt lat="42.1271617" lon="11.9804872"><ele>218.39999999999998</ele><time>2026-04-18T12:35:03.897Z</time></trkpt><trkpt lat="42.12721" lon="11.9803485"><ele>216.60000000000002</ele><time>2026-04-18T12:35:05.896Z</time></trkpt><trkpt lat="42.1272478" lon="11.9802176"><ele>214.8</ele><time>2026-04-18T12:35:07.897Z</time></trkpt><trkpt lat="42.1272616" lon="11.9801346"><ele>213.0</ele><time>2026-04-18T12:35:09.898Z</time></trkpt><trkpt lat="42.1272641" lon="11.9800321"><ele>211.33333333333334</ele><time>2026-04-18T12:35:11.898Z</time></trkpt><trkpt lat="42.127275" lon="11.9799218"><ele>209.66666666666669</ele><time>2026-04-18T12:35:13.897Z</time></trkpt><trkpt lat="42.127298" lon="11.9798145"><ele>208.0</ele><time>2026-04-18T12:35:15.897Z</time></trkpt><trkpt lat="42.1273475" lon="11.9797084"><ele>206.33333333333334</ele><time>2026-04-18T12:35:18.897Z</time></trkpt><trkpt lat="42.1273805" lon="11.9796233"><ele>204.66666666666669</ele><time>2026-04-18T12:35:20.897Z</time></trkpt><trkpt lat="42.127414" lon="11.979536"><ele>203.0</ele><time>2026-04-18T12:35:22.897Z</time></trkpt><trkpt lat="42.1274472" lon="11.9794443"><ele>203.00000000000003</ele><time>2026-04-18T12:35:24.896Z</time></trkpt><trkpt lat="42.1274975" lon="11.9793651"><ele>203.0</ele><time>2026-04-18T12:35:27.896Z</time></trkpt><trkpt lat="42.1275567" lon="11.9792896"><ele>203.0</ele><time>2026-04-18T12:35:30.896Z</time></trkpt><trkpt lat="42.1276134" lon="11.9792087"><ele>203.0</ele><time>2026-04-18T12:35:32.896Z</time></trkpt><trkpt lat="42.1276711" lon="11.9791308"><ele>203.00000000000003</ele><time>2026-04-18T12:35:34.897Z</time></trkpt><trkpt lat="42.1277418" lon="11.9790591"><ele>203.0</ele><time>2026-04-18T12:35:36.898Z</time></trkpt><trkpt lat="42.1278047" lon="11.9789941"><ele>200.8</ele><time>2026-04-18T12:35:38.897Z</time></trkpt><trkpt lat="42.1278912" lon="11.9789278"><ele>198.60000000000002</ele><time>2026-04-18T12:35:40.897Z</time></trkpt><trkpt lat="42.127979" lon="11.9788378"><ele>196.39999999999998</ele><time>2026-04-18T12:35:42.896Z</time></trkpt><trkpt lat="42.1280569" lon="11.9787702"><ele>194.2</ele><time>2026-04-18T12:35:44.897Z</time></trkpt><trkpt lat="42.1281199" lon="11.978716"><ele>192.0</ele><time>2026-04-18T12:35:46.898Z</time></trkpt><trkpt lat="42.128176" lon="11.9786515"><ele>192.0</ele><time>2026-04-18T12:35:48.897Z</time></trkpt><trkpt lat="42.1282256" lon="11.9785809"><ele>192.0</ele><time>2026-04-18T12:35:50.896Z</time></trkpt><trkpt lat="42.1282547" lon="11.9784957"><ele>192.0</ele><time>2026-04-18T12:35:52.897Z</time></trkpt><trkpt lat="42.1283195" lon="11.9784103"><ele>192.0</ele><time>2026-04-18T12:35:54.896Z</time></trkpt><trkpt lat="42.1283792" lon="11.9783152"><ele>192.0</ele><time>2026-04-18T12:35:56.898Z</time></trkpt><trkpt lat="42.1284332" lon="11.9782334"><ele>192.0</ele><time>2026-04-18T12:35:58.896Z</time></trkpt><trkpt lat="42.1285158" lon="11.97816"><ele>189.8</ele><time>2026-04-18T12:36:00.896Z</time></trkpt><trkpt lat="42.1285969" lon="11.9781337"><ele>187.6</ele><time>2026-04-18T12:36:02.896Z</time></trkpt><trkpt lat="42.1286822" lon="11.9780695"><ele>185.4</ele><time>2026-04-18T12:36:05.897Z</time></trkpt><trkpt lat="42.1287418" lon="11.97792"><ele>183.20000000000002</ele><time>2026-04-18T12:36:07.896Z</time></trkpt><trkpt lat="42.1287685" lon="11.977836"><ele>181.0</ele><time>2026-04-18T12:36:08.897Z</time></trkpt><trkpt lat="42.1288255" lon="11.9776941"><ele>181.0</ele><time>2026-04-18T12:36:10.896Z</time></trkpt><trkpt lat="42.1288722" lon="11.9776281"><ele>181.0</ele><time>2026-04-18T12:36:11.895Z</time></trkpt><trkpt lat="42.1289239" lon="11.9775758"><ele>181.0</ele><time>2026-04-18T12:36:12.896Z</time></trkpt><trkpt lat="42.1290142" lon="11.9774806"><ele>181.0</ele><time>2026-04-18T12:36:14.896Z</time></trkpt><trkpt lat="42.1290603" lon="11.9774201"><ele>181.0</ele><time>2026-04-18T12:36:15.896Z</time></trkpt><trkpt lat="42.1290995" lon="11.9773482"><ele>181.0</ele><time>2026-04-18T12:36:16.897Z</time></trkpt><trkpt lat="42.1291593" lon="11.9772317"><ele>180.4</ele><time>2026-04-18T12:36:18.896Z</time></trkpt><trkpt lat="42.1292111" lon="11.9771785"><ele>179.8</ele><time>2026-04-18T12:36:20.896Z</time></trkpt><trkpt lat="42.1292966" lon="11.977122"><ele>179.20000000000002</ele><time>2026-04-18T12:36:22.897Z</time></trkpt><trkpt lat="42.1294021" lon="11.9770624"><ele>178.60000000000002</ele><time>2026-04-18T12:36:24.895Z</time></trkpt><trkpt lat="42.1295162" lon="11.9770055"><ele>178.0</ele><time>2026-04-18T12:36:26.896Z</time></trkpt><trkpt lat="42.1295749" lon="11.9769704"><ele>178.0</ele><time>2026-04-18T12:36:27.896Z</time></trkpt><trkpt lat="42.1296681" lon="11.9768998"><ele>178.0</ele><time>2026-04-18T12:36:29.896Z</time></trkpt><trkpt lat="42.1297602" lon="11.9768381"><ele>178.0</ele><time>2026-04-18T12:36:31.896Z</time></trkpt><trkpt lat="42.1298538" lon="11.9768013"><ele>178.0</ele><time>2026-04-18T12:36:33.896Z</time></trkpt><trkpt lat="42.1299166" lon="11.9767906"><ele>178.0</ele><time>2026-04-18T12:36:34.895Z</time></trkpt><trkpt lat="42.1300519" lon="11.9767269"><ele>179.33333333333334</ele><time>2026-04-18T12:36:36.895Z</time></trkpt><trkpt lat="42.1301243" lon="11.9766875"><ele>180.66666666666669</ele><time>2026-04-18T12:36:37.896Z</time></trkpt><trkpt lat="42.1301943" lon="11.9766388"><ele>182.0</ele><time>2026-04-18T12:36:38.896Z</time></trkpt><trkpt lat="42.1302668" lon="11.9765815"><ele>183.33333333333334</ele><time>2026-04-18T12:36:39.895Z</time></trkpt><trkpt lat="42.1303321" lon="11.9765264"><ele>184.66666666666666</ele><time>2026-04-18T12:36:40.896Z</time></trkpt><trkpt lat="42.1303891" lon="11.9764637"><ele>186.0</ele><time>2026-04-18T12:36:41.896Z</time></trkpt><trkpt lat="42.1304516" lon="11.9763985"><ele>183.0</ele><time>2026-04-18T12:36:42.895Z</time></trkpt><trkpt lat="42.1305069" lon="11.9763331"><ele>180.0</ele><time>2026-04-18T12:36:43.895Z</time></trkpt><trkpt lat="42.130558" lon="11.9762656"><ele>177.0</ele><time>2026-04-18T12:36:44.896Z</time></trkpt><trkpt lat="42.1306008" lon="11.9762023"><ele>174.0</ele><time>2026-04-18T12:36:45.895Z</time></trkpt><trkpt lat="42.1306744" lon="11.9760932"><ele>171.0</ele><time>2026-04-18T12:36:47.895Z</time></trkpt><trkpt lat="42.1307424" lon="11.975977"><ele>168.0</ele><time>2026-04-18T12:36:49.896Z</time></trkpt><trkpt lat="42.1308008" lon="11.9758551"><ele>167.16666666666666</ele><time>2026-04-18T12:36:51.896Z</time></trkpt><trkpt lat="42.1308367" lon="11.9757759"><ele>166.33333333333334</ele><time>2026-04-18T12:36:52.896Z</time></trkpt><trkpt lat="42.1308755" lon="11.9757027"><ele>165.5</ele><time>2026-04-18T12:36:53.896Z</time></trkpt><trkpt lat="42.1309403" lon="11.9755845"><ele>164.66666666666669</ele><time>2026-04-18T12:36:55.895Z</time></trkpt><trkpt lat="42.130984" lon="11.9754805"><ele>163.83333333333334</ele><time>2026-04-18T12:36:57.896Z</time></trkpt><trkpt lat="42.1310339" lon="11.9754237"><ele>163.0</ele><time>2026-04-18T12:36:59.895Z</time></trkpt><trkpt lat="42.1311108" lon="11.9753727"><ele>163.0</ele><time>2026-04-18T12:37:01.896Z</time></trkpt><trkpt lat="42.1312007" lon="11.9753336"><ele>163.0</ele><time>2026-04-18T12:37:03.895Z</time></trkpt><trkpt lat="42.1312893" lon="11.9752962"><ele>163.0</ele><time>2026-04-18T12:37:05.895Z</time></trkpt><trkpt lat="42.1313933" lon="11.9752595"><ele>163.0</ele><time>2026-04-18T12:37:07.895Z</time></trkpt><trkpt lat="42.131523" lon="11.9752569"><ele>163.0</ele><time>2026-04-18T12:37:09.895Z</time></trkpt><trkpt lat="42.1316485" lon="11.9752225"><ele>162.83333333333334</ele><time>2026-04-18T12:37:11.896Z</time></trkpt><trkpt lat="42.1317148" lon="11.9751784"><ele>162.66666666666669</ele><time>2026-04-18T12:37:13.896Z</time></trkpt><trkpt lat="42.1317313" lon="11.9750658"><ele>162.5</ele><time>2026-04-18T12:37:16.895Z</time></trkpt><trkpt lat="42.1317755" lon="11.9749443"><ele>162.33333333333334</ele><time>2026-04-18T12:37:19.895Z</time></trkpt><trkpt lat="42.1318577" lon="11.9748798"><ele>162.16666666666666</ele><time>2026-04-18T12:37:21.897Z</time></trkpt><trkpt lat="42.1319076" lon="11.974819"><ele>162.0</ele><time>2026-04-18T12:37:22.895Z</time></trkpt><trkpt lat="42.1319604" lon="11.9747434"><ele>161.66666666666666</ele><time>2026-04-18T12:37:23.897Z</time></trkpt><trkpt lat="42.1320047" lon="11.9746583"><ele>161.33333333333334</ele><time>2026-04-18T12:37:24.895Z</time></trkpt><trkpt lat="42.1320451" lon="11.9745575"><ele>161.0</ele><time>2026-04-18T12:37:25.896Z</time></trkpt><trkpt lat="42.1320774" lon="11.9744681"><ele>160.66666666666669</ele><time>2026-04-18T12:37:26.895Z</time></trkpt><trkpt lat="42.1321076" lon="11.974362"><ele>160.33333333333334</ele><time>2026-04-18T12:37:27.895Z</time></trkpt><trkpt lat="42.1321332" lon="11.9742658"><ele>160.0</ele><time>2026-04-18T12:37:28.896Z</time></trkpt><trkpt lat="42.1321545" lon="11.9741788"><ele>159.8</ele><time>2026-04-18T12:37:29.896Z</time></trkpt><trkpt lat="42.1321909" lon="11.9740304"><ele>159.6</ele><time>2026-04-18T12:37:31.895Z</time></trkpt><trkpt lat="42.1322259" lon="11.9739031"><ele>159.4</ele><time>2026-04-18T12:37:33.895Z</time></trkpt><trkpt lat="42.1322595" lon="11.97376"><ele>159.2</ele><time>2026-04-18T12:37:35.896Z</time></trkpt><trkpt lat="42.1322762" lon="11.9736102"><ele>159.0</ele><time>2026-04-18T12:37:37.896Z</time></trkpt><trkpt lat="42.1322817" lon="11.973513"><ele>159.0</ele><time>2026-04-18T12:37:39.896Z</time></trkpt><trkpt lat="42.1321878" lon="11.9734568"><ele>159.0</ele><time>2026-04-18T12:37:44.895Z</time></trkpt><trkpt lat="42.1321178" lon="11.9734626"><ele>159.0</ele><time>2026-04-18T12:37:45.896Z</time></trkpt><trkpt lat="42.1320437" lon="11.9734535"><ele>159.0</ele><time>2026-04-18T12:37:46.897Z</time></trkpt><trkpt lat="42.1319515" lon="11.9734311"><ele>159.0</ele><time>2026-04-18T12:37:47.897Z</time></trkpt><trkpt lat="42.1318549" lon="11.9734075"><ele>159.0</ele><time>2026-04-18T12:37:48.896Z</time></trkpt><trkpt lat="42.1317358" lon="11.9733701"><ele>158.75</ele><time>2026-04-18T12:37:49.896Z</time></trkpt><trkpt lat="42.1315957" lon="11.973323"><ele>158.5</ele><time>2026-04-18T12:37:50.895Z</time></trkpt><trkpt lat="42.1314615" lon="11.973282"><ele>158.25</ele><time>2026-04-18T12:37:51.895Z</time></trkpt><trkpt lat="42.131343" lon="11.9732435"><ele>158.0</ele><time>2026-04-18T12:37:52.896Z</time></trkpt><trkpt lat="42.1312383" lon="11.9732105"><ele>159.8</ele><time>2026-04-18T12:37:53.896Z</time></trkpt><trkpt lat="42.1311343" lon="11.9731879"><ele>161.60000000000002</ele><time>2026-04-18T12:37:54.897Z</time></trkpt><trkpt lat="42.1310283" lon="11.9731626"><ele>163.39999999999998</ele><time>2026-04-18T12:37:55.896Z</time></trkpt><trkpt lat="42.1309317" lon="11.9731377"><ele>165.2</ele><time>2026-04-18T12:37:56.896Z</time></trkpt><trkpt lat="42.1308312" lon="11.9731092"><ele>167.0</ele><time>2026-04-18T12:37:57.896Z</time></trkpt><trkpt lat="42.1307339" lon="11.9730839"><ele>168.66666666666666</ele><time>2026-04-18T12:37:58.896Z</time></trkpt><trkpt lat="42.1306462" lon="11.9730615"><ele>170.33333333333331</ele><time>2026-04-18T12:37:59.895Z</time></trkpt><trkpt lat="42.1305596" lon="11.9730347"><ele>172.0</ele><time>2026-04-18T12:38:00.896Z</time></trkpt><trkpt lat="42.1304891" lon="11.9729922"><ele>173.66666666666666</ele><time>2026-04-18T12:38:01.895Z</time></trkpt><trkpt lat="42.1304229" lon="11.9729238"><ele>175.33333333333334</ele><time>2026-04-18T12:38:02.897Z</time></trkpt><trkpt lat="42.1303775" lon="11.9728363"><ele>177.0</ele><time>2026-04-18T12:38:03.896Z</time></trkpt><trkpt lat="42.1303321" lon="11.9727251"><ele>177.0</ele><time>2026-04-18T12:38:04.897Z</time></trkpt><trkpt lat="42.1302771" lon="11.9725856"><ele>177.0</ele><time>2026-04-18T12:38:05.895Z</time></trkpt><trkpt lat="42.1302214" lon="11.9724611"><ele>177.0</ele><time>2026-04-18T12:38:06.895Z</time></trkpt><trkpt lat="42.1301737" lon="11.9723869"><ele>177.0</ele><time>2026-04-18T12:38:07.895Z</time></trkpt><trkpt lat="42.1300635" lon="11.9723632"><ele>177.0</ele><time>2026-04-18T12:38:09.895Z</time></trkpt><trkpt lat="42.1300123" lon="11.972413"><ele>176.39999999999998</ele><time>2026-04-18T12:38:10.896Z</time></trkpt><trkpt lat="42.1299554" lon="11.9724936"><ele>175.79999999999998</ele><time>2026-04-18T12:38:11.896Z</time></trkpt><trkpt lat="42.1298872" lon="11.9725974"><ele>175.2</ele><time>2026-04-18T12:38:12.895Z</time></trkpt><trkpt lat="42.1298037" lon="11.9727099"><ele>174.6</ele><time>2026-04-18T12:38:13.897Z</time></trkpt><trkpt lat="42.1297212" lon="11.972804"><ele>174.0</ele><time>2026-04-18T12:38:14.896Z</time></trkpt><trkpt lat="42.129607" lon="11.9729091"><ele>177.5</ele><time>2026-04-18T12:38:15.896Z</time></trkpt><trkpt lat="42.1294879" lon="11.9730229"><ele>181.0</ele><time>2026-04-18T12:38:16.896Z</time></trkpt><trkpt lat="42.1293784" lon="11.9731332"><ele>184.5</ele><time>2026-04-18T12:38:17.896Z</time></trkpt><trkpt lat="42.1292818" lon="11.9732283"><ele>188.0</ele><time>2026-04-18T12:38:18.896Z</time></trkpt><trkpt lat="42.1291776" lon="11.9733252"><ele>187.8</ele><time>2026-04-18T12:38:19.895Z</time></trkpt><trkpt lat="42.1290826" lon="11.9734108"><ele>187.60000000000002</ele><time>2026-04-18T12:38:20.895Z</time></trkpt><trkpt lat="42.1289882" lon="11.9734922"><ele>187.39999999999998</ele><time>2026-04-18T12:38:21.895Z</time></trkpt><trkpt lat="42.128902" lon="11.9735741"><ele>187.2</ele><time>2026-04-18T12:38:22.896Z</time></trkpt><trkpt lat="42.1288208" lon="11.973658"><ele>187.0</ele><time>2026-04-18T12:38:23.897Z</time></trkpt><trkpt lat="42.1287468" lon="11.9737375"><ele>189.8</ele><time>2026-04-18T12:38:24.896Z</time></trkpt><trkpt lat="42.1286747" lon="11.9738032"><ele>192.6</ele><time>2026-04-18T12:38:25.896Z</time></trkpt><trkpt lat="42.1285828" lon="11.9738774"><ele>195.4</ele><time>2026-04-18T12:38:26.895Z</time></trkpt><trkpt lat="42.1284812" lon="11.9739711"><ele>198.20000000000002</ele><time>2026-04-18T12:38:27.895Z</time></trkpt><trkpt lat="42.1283781" lon="11.9740655"><ele>201.0</ele><time>2026-04-18T12:38:28.896Z</time></trkpt><trkpt lat="42.1282946" lon="11.9741446"><ele>203.60000000000002</ele><time>2026-04-18T12:38:29.896Z</time></trkpt><trkpt lat="42.128202" lon="11.9742302"><ele>206.2</ele><time>2026-04-18T12:38:30.897Z</time></trkpt><trkpt lat="42.12811" lon="11.9743018"><ele>208.79999999999998</ele><time>2026-04-18T12:38:31.896Z</time></trkpt><trkpt lat="42.1280204" lon="11.9743588"><ele>211.39999999999998</ele><time>2026-04-18T12:38:32.896Z</time></trkpt><trkpt lat="42.1279328" lon="11.9743975"><ele>214.0</ele><time>2026-04-18T12:38:33.896Z</time></trkpt><trkpt lat="42.127842" lon="11.974436"><ele>214.0</ele><time>2026-04-18T12:38:34.895Z</time></trkpt><trkpt lat="42.1277399" lon="11.9744694"><ele>213.99999999999997</ele><time>2026-04-18T12:38:35.895Z</time></trkpt><trkpt lat="42.127666" lon="11.974496"><ele>213.99999999999997</ele><time>2026-04-18T12:38:36.895Z</time></trkpt><trkpt lat="42.1275864" lon="11.9745681"><ele>214.0</ele><time>2026-04-18T12:38:38.896Z</time></trkpt><trkpt lat="42.1275765" lon="11.9746729"><ele>214.0</ele><time>2026-04-18T12:38:40.896Z</time></trkpt><trkpt lat="42.1276141" lon="11.9748672"><ele>213.99999999999997</ele><time>2026-04-18T12:38:42.896Z</time></trkpt><trkpt lat="42.1276433" lon="11.9750001"><ele>214.0</ele><time>2026-04-18T12:38:43.896Z</time></trkpt><trkpt lat="42.1276659" lon="11.9751201"><ele>214.0</ele><time>2026-04-18T12:38:44.895Z</time></trkpt><trkpt lat="42.1276749" lon="11.9752043"><ele>214.0</ele><time>2026-04-18T12:38:45.896Z</time></trkpt><trkpt lat="42.127645" lon="11.9752843"><ele>213.99999999999997</ele><time>2026-04-18T12:38:47.896Z</time></trkpt><trkpt lat="42.1275315" lon="11.9752793"><ele>214.0</ele><time>2026-04-18T12:38:50.897Z</time></trkpt><trkpt lat="42.1274547" lon="11.9752355"><ele>214.6</ele><time>2026-04-18T12:38:51.896Z</time></trkpt><trkpt lat="42.1273666" lon="11.9751778"><ele>215.2</ele><time>2026-04-18T12:38:52.896Z</time></trkpt><trkpt lat="42.1272712" lon="11.9751235"><ele>215.79999999999998</ele><time>2026-04-18T12:38:53.897Z</time></trkpt><trkpt lat="42.1271683" lon="11.9750709"><ele>216.39999999999998</ele><time>2026-04-18T12:38:54.896Z</time></trkpt><trkpt lat="42.1270792" lon="11.9750323"><ele>217.0</ele><time>2026-04-18T12:38:55.896Z</time></trkpt><trkpt lat="42.1269939" lon="11.9749907"><ele>218.39999999999998</ele><time>2026-04-18T12:38:56.895Z</time></trkpt><trkpt lat="42.126879" lon="11.9749358"><ele>219.79999999999998</ele><time>2026-04-18T12:38:57.896Z</time></trkpt><trkpt lat="42.1267758" lon="11.9748825"><ele>221.2</ele><time>2026-04-18T12:38:58.896Z</time></trkpt><trkpt lat="42.1266871" lon="11.9748407"><ele>222.6</ele><time>2026-04-18T12:38:59.896Z</time></trkpt><trkpt lat="42.1265992" lon="11.9748051"><ele>224.0</ele><time>2026-04-18T12:39:00.895Z</time></trkpt><trkpt lat="42.126494" lon="11.9747515"><ele>225.79999999999998</ele><time>2026-04-18T12:39:01.895Z</time></trkpt><trkpt lat="42.1263727" lon="11.9746883"><ele>227.59999999999997</ele><time>2026-04-18T12:39:02.896Z</time></trkpt><trkpt lat="42.1262684" lon="11.9746307"><ele>229.4</ele><time>2026-04-18T12:39:03.896Z</time></trkpt><trkpt lat="42.1261704" lon="11.974582"><ele>231.2</ele><time>2026-04-18T12:39:04.896Z</time></trkpt><trkpt lat="42.1260768" lon="11.9745358"><ele>233.0</ele><time>2026-04-18T12:39:05.897Z</time></trkpt><trkpt lat="42.1259909" lon="11.9745089"><ele>233.0</ele><time>2026-04-18T12:39:06.897Z</time></trkpt><trkpt lat="42.1258995" lon="11.9745038"><ele>233.0</ele><time>2026-04-18T12:39:07.895Z</time></trkpt><trkpt lat="42.1258087" lon="11.9745257"><ele>233.0</ele><time>2026-04-18T12:39:08.895Z</time></trkpt><trkpt lat="42.1257064" lon="11.9745573"><ele>233.0</ele><time>2026-04-18T12:39:09.896Z</time></trkpt><trkpt lat="42.1255829" lon="11.97459"><ele>233.0</ele><time>2026-04-18T12:39:10.896Z</time></trkpt><trkpt lat="42.1254529" lon="11.9746281"><ele>234.60000000000002</ele><time>2026-04-18T12:39:11.896Z</time></trkpt><trkpt lat="42.1253475" lon="11.9746593"><ele>236.20000000000002</ele><time>2026-04-18T12:39:12.896Z</time></trkpt><trkpt lat="42.1252479" lon="11.9746834"><ele>237.8</ele><time>2026-04-18T12:39:13.897Z</time></trkpt><trkpt lat="42.1251566" lon="11.9746981"><ele>239.4</ele><time>2026-04-18T12:39:14.896Z</time></trkpt><trkpt lat="42.1250686" lon="11.9747143"><ele>241.0</ele><time>2026-04-18T12:39:15.896Z</time></trkpt><trkpt lat="42.1249802" lon="11.9747498"><ele>241.0</ele><time>2026-04-18T12:39:16.896Z</time></trkpt><trkpt lat="42.1249034" lon="11.9748052"><ele>241.00000000000003</ele><time>2026-04-18T12:39:17.896Z</time></trkpt><trkpt lat="42.1248298" lon="11.9748948"><ele>241.00000000000003</ele><time>2026-04-18T12:39:18.896Z</time></trkpt><trkpt lat="42.1247476" lon="11.9750101"><ele>241.0</ele><time>2026-04-18T12:39:19.897Z</time></trkpt><trkpt lat="42.1246656" lon="11.9751196"><ele>241.0</ele><time>2026-04-18T12:39:20.897Z</time></trkpt><trkpt lat="42.1245931" lon="11.9752113"><ele>242.0</ele><time>2026-04-18T12:39:21.897Z</time></trkpt><trkpt lat="42.1245184" lon="11.9752748"><ele>243.00000000000003</ele><time>2026-04-18T12:39:22.896Z</time></trkpt><trkpt lat="42.1244369" lon="11.9753187"><ele>244.00000000000003</ele><time>2026-04-18T12:39:23.895Z</time></trkpt><trkpt lat="42.1243538" lon="11.9753415"><ele>245.0</ele><time>2026-04-18T12:39:24.897Z</time></trkpt><trkpt lat="42.1242424" lon="11.9753605"><ele>246.0</ele><time>2026-04-18T12:39:25.896Z</time></trkpt><trkpt lat="42.1241154" lon="11.9753698"><ele>247.5</ele><time>2026-04-18T12:39:26.897Z</time></trkpt><trkpt lat="42.1239869" lon="11.9753858"><ele>249.0</ele><time>2026-04-18T12:39:27.895Z</time></trkpt><trkpt lat="42.1238308" lon="11.9754108"><ele>250.5</ele><time>2026-04-18T12:39:28.896Z</time></trkpt><trkpt lat="42.1236979" lon="11.9754222"><ele>252.0</ele><time>2026-04-18T12:39:29.895Z</time></trkpt><trkpt lat="42.123561" lon="11.9754438"><ele>252.0</ele><time>2026-04-18T12:39:30.896Z</time></trkpt><trkpt lat="42.1234244" lon="11.9754813"><ele>252.0</ele><time>2026-04-18T12:39:31.896Z</time></trkpt><trkpt lat="42.1232947" lon="11.9755225"><ele>252.0</ele><time>2026-04-18T12:39:32.896Z</time></trkpt><trkpt lat="42.1231772" lon="11.9755566"><ele>252.0</ele><time>2026-04-18T12:39:33.897Z</time></trkpt><trkpt lat="42.1230613" lon="11.9755935"><ele>253.6</ele><time>2026-04-18T12:39:34.897Z</time></trkpt><trkpt lat="42.1229445" lon="11.9756325"><ele>255.2</ele><time>2026-04-18T12:39:35.896Z</time></trkpt><trkpt lat="42.122851" lon="11.975669"><ele>256.8</ele><time>2026-04-18T12:39:36.896Z</time></trkpt><trkpt lat="42.1227605" lon="11.9757007"><ele>258.4</ele><time>2026-04-18T12:39:37.896Z</time></trkpt><trkpt lat="42.1226714" lon="11.9757365"><ele>260.0</ele><time>2026-04-18T12:39:38.896Z</time></trkpt><trkpt lat="42.1225629" lon="11.9757812"><ele>260.0</ele><time>2026-04-18T12:39:39.896Z</time></trkpt><trkpt lat="42.122437" lon="11.9758276"><ele>260.0</ele><time>2026-04-18T12:39:40.896Z</time></trkpt><trkpt lat="42.1223172" lon="11.9758681"><ele>260.0</ele><time>2026-04-18T12:39:41.896Z</time></trkpt><trkpt lat="42.1221986" lon="11.9759206"><ele>260.0</ele><time>2026-04-18T12:39:42.895Z</time></trkpt><trkpt lat="42.1220802" lon="11.9759613"><ele>260.4</ele><time>2026-04-18T12:39:43.895Z</time></trkpt><trkpt lat="42.1219607" lon="11.9760082"><ele>260.8</ele><time>2026-04-18T12:39:44.895Z</time></trkpt><trkpt lat="42.1218578" lon="11.9760472"><ele>261.2</ele><time>2026-04-18T12:39:45.896Z</time></trkpt><trkpt lat="42.121759" lon="11.9760816"><ele>261.6</ele><time>2026-04-18T12:39:46.896Z</time></trkpt><trkpt lat="42.1216735" lon="11.9761066"><ele>262.0</ele><time>2026-04-18T12:39:47.895Z</time></trkpt><trkpt lat="42.1215901" lon="11.9761157"><ele>262.3333333333333</ele><time>2026-04-18T12:39:48.897Z</time></trkpt><trkpt lat="42.1215238" lon="11.9761081"><ele>262.66666666666663</ele><time>2026-04-18T12:39:49.896Z</time></trkpt><trkpt lat="42.1214436" lon="11.9760898"><ele>263.0</ele><time>2026-04-18T12:39:50.895Z</time></trkpt><trkpt lat="42.1213567" lon="11.9760651"><ele>263.3333333333333</ele><time>2026-04-18T12:39:51.895Z</time></trkpt><trkpt lat="42.1212824" lon="11.9760465"><ele>263.6666666666667</ele><time>2026-04-18T12:39:52.896Z</time></trkpt><trkpt lat="42.1211827" lon="11.976008"><ele>264.0</ele><time>2026-04-18T12:39:53.896Z</time></trkpt><trkpt lat="42.1210688" lon="11.9759629"><ele>264.0</ele><time>2026-04-18T12:39:54.897Z</time></trkpt><trkpt lat="42.1209352" lon="11.975902"><ele>264.0</ele><time>2026-04-18T12:39:55.896Z</time></trkpt><trkpt lat="42.1208273" lon="11.9758526"><ele>264.0</ele><time>2026-04-18T12:39:56.896Z</time></trkpt><trkpt lat="42.1207225" lon="11.9758176"><ele>264.0</ele><time>2026-04-18T12:39:57.896Z</time></trkpt><trkpt lat="42.1206148" lon="11.975807"><ele>267.2</ele><time>2026-04-18T12:39:58.896Z</time></trkpt><trkpt lat="42.1205067" lon="11.975817"><ele>270.4</ele><time>2026-04-18T12:39:59.897Z</time></trkpt><trkpt lat="42.1203999" lon="11.9758243"><ele>273.6</ele><time>2026-04-18T12:40:00.896Z</time></trkpt><trkpt lat="42.1202937" lon="11.9758241"><ele>276.8</ele><time>2026-04-18T12:40:01.896Z</time></trkpt><trkpt lat="42.1201868" lon="11.9758183"><ele>280.0</ele><time>2026-04-18T12:40:02.895Z</time></trkpt><trkpt lat="42.120082" lon="11.9758202"><ele>280.0</ele><time>2026-04-18T12:40:03.895Z</time></trkpt><trkpt lat="42.1199802" lon="11.9758307"><ele>280.0</ele><time>2026-04-18T12:40:04.896Z</time></trkpt><trkpt lat="42.119884" lon="11.97585"><ele>280.0</ele><time>2026-04-18T12:40:05.896Z</time></trkpt><trkpt lat="42.1197885" lon="11.9759001"><ele>280.0</ele><time>2026-04-18T12:40:06.896Z</time></trkpt><trkpt lat="42.1197122" lon="11.9759522"><ele>280.0</ele><time>2026-04-18T12:40:07.895Z</time></trkpt><trkpt lat="42.1196444" lon="11.9759876"><ele>280.8</ele><time>2026-04-18T12:40:08.896Z</time></trkpt><trkpt lat="42.1195864" lon="11.9760241"><ele>281.6</ele><time>2026-04-18T12:40:09.896Z</time></trkpt><trkpt lat="42.1194585" lon="11.9760944"><ele>282.4</ele><time>2026-04-18T12:40:11.895Z</time></trkpt><trkpt lat="42.1193567" lon="11.9761335"><ele>283.2</ele><time>2026-04-18T12:40:12.896Z</time></trkpt><trkpt lat="42.1192366" lon="11.9761875"><ele>284.0</ele><time>2026-04-18T12:40:13.897Z</time></trkpt><trkpt lat="42.1191401" lon="11.9762307"><ele>285.5</ele><time>2026-04-18T12:40:14.897Z</time></trkpt><trkpt lat="42.1190615" lon="11.9762857"><ele>287.0</ele><time>2026-04-18T12:40:15.895Z</time></trkpt><trkpt lat="42.1190085" lon="11.9763609"><ele>288.5</ele><time>2026-04-18T12:40:16.895Z</time></trkpt><trkpt lat="42.1189592" lon="11.9764643"><ele>290.0</ele><time>2026-04-18T12:40:17.895Z</time></trkpt><trkpt lat="42.118917" lon="11.976566"><ele>291.5</ele><time>2026-04-18T12:40:18.895Z</time></trkpt><trkpt lat="42.118881" lon="11.9766789"><ele>293.0</ele><time>2026-04-18T12:40:19.895Z</time></trkpt><trkpt lat="42.1188574" lon="11.9767923"><ele>293.0</ele><time>2026-04-18T12:40:20.896Z</time></trkpt><trkpt lat="42.1188463" lon="11.9769166"><ele>293.0</ele><time>2026-04-18T12:40:21.895Z</time></trkpt><trkpt lat="42.1188619" lon="11.9770787"><ele>293.0</ele><time>2026-04-18T12:40:22.896Z</time></trkpt><trkpt lat="42.1188587" lon="11.9772044"><ele>293.0</ele><time>2026-04-18T12:40:23.896Z</time></trkpt><trkpt lat="42.1188562" lon="11.9773398"><ele>293.0</ele><time>2026-04-18T12:40:24.896Z</time></trkpt><trkpt lat="42.1188211" lon="11.9774433"><ele>292.6</ele><time>2026-04-18T12:40:25.896Z</time></trkpt><trkpt lat="42.1187635" lon="11.9775307"><ele>292.20000000000005</ele><time>2026-04-18T12:40:26.895Z</time></trkpt><trkpt lat="42.1186823" lon="11.9776254"><ele>291.8</ele><time>2026-04-18T12:40:27.897Z</time></trkpt><trkpt lat="42.1185875" lon="11.9777204"><ele>291.40000000000003</ele><time>2026-04-18T12:40:28.897Z</time></trkpt><trkpt lat="42.1184905" lon="11.9778145"><ele>291.0</ele><time>2026-04-18T12:40:29.896Z</time></trkpt><trkpt lat="42.1183888" lon="11.9779205"><ele>291.0</ele><time>2026-04-18T12:40:30.897Z</time></trkpt><trkpt lat="42.1182972" lon="11.9780159"><ele>291.0</ele><time>2026-04-18T12:40:31.896Z</time></trkpt><trkpt lat="42.1182104" lon="11.9781006"><ele>291.0</ele><time>2026-04-18T12:40:32.895Z</time></trkpt><trkpt lat="42.1181275" lon="11.9781756"><ele>291.0</ele><time>2026-04-18T12:40:33.896Z</time></trkpt><trkpt lat="42.1180459" lon="11.9782291"><ele>291.0</ele><time>2026-04-18T12:40:34.896Z</time></trkpt><trkpt lat="42.1179599" lon="11.9782628"><ele>293.0</ele><time>2026-04-18T12:40:35.895Z</time></trkpt><trkpt lat="42.1178565" lon="11.9782834"><ele>295.0</ele><time>2026-04-18T12:40:36.895Z</time></trkpt><trkpt lat="42.1177552" lon="11.9782862"><ele>297.0</ele><time>2026-04-18T12:40:37.896Z</time></trkpt><trkpt lat="42.1176456" lon="11.9782857"><ele>299.0</ele><time>2026-04-18T12:40:38.896Z</time></trkpt><trkpt lat="42.117536" lon="11.9782893"><ele>301.0</ele><time>2026-04-18T12:40:39.896Z</time></trkpt><trkpt lat="42.1174288" lon="11.9783059"><ele>301.2</ele><time>2026-04-18T12:40:40.896Z</time></trkpt><trkpt lat="42.1173232" lon="11.9783417"><ele>301.40000000000003</ele><time>2026-04-18T12:40:41.896Z</time></trkpt><trkpt lat="42.1172141" lon="11.9784008"><ele>301.6</ele><time>2026-04-18T12:40:42.896Z</time></trkpt><trkpt lat="42.1171114" lon="11.978457"><ele>301.8</ele><time>2026-04-18T12:40:43.896Z</time></trkpt><trkpt lat="42.1170128" lon="11.9785093"><ele>302.0</ele><time>2026-04-18T12:40:44.896Z</time></trkpt><trkpt lat="42.1169039" lon="11.9785771"><ele>302.0</ele><time>2026-04-18T12:40:45.896Z</time></trkpt><trkpt lat="42.1167864" lon="11.9786464"><ele>302.0</ele><time>2026-04-18T12:40:46.895Z</time></trkpt><trkpt lat="42.116665" lon="11.9787155"><ele>302.0</ele><time>2026-04-18T12:40:47.896Z</time></trkpt><trkpt lat="42.1165485" lon="11.9787796"><ele>302.0</ele><time>2026-04-18T12:40:48.896Z</time></trkpt><trkpt lat="42.1164314" lon="11.9788422"><ele>304.25</ele><time>2026-04-18T12:40:49.895Z</time></trkpt><trkpt lat="42.116323" lon="11.9789027"><ele>306.5</ele><time>2026-04-18T12:40:50.897Z</time></trkpt><trkpt lat="42.1162142" lon="11.9789682"><ele>308.75</ele><time>2026-04-18T12:40:51.896Z</time></trkpt><trkpt lat="42.1161023" lon="11.9790431"><ele>311.0</ele><time>2026-04-18T12:40:52.895Z</time></trkpt><trkpt lat="42.1159959" lon="11.9791187"><ele>311.2</ele><time>2026-04-18T12:40:53.895Z</time></trkpt><trkpt lat="42.1158899" lon="11.9792"><ele>311.40000000000003</ele><time>2026-04-18T12:40:54.895Z</time></trkpt><trkpt lat="42.1157918" lon="11.9792772"><ele>311.6</ele><time>2026-04-18T12:40:55.897Z</time></trkpt><trkpt lat="42.1157004" lon="11.9793501"><ele>311.8</ele><time>2026-04-18T12:40:56.896Z</time></trkpt><trkpt lat="42.1156193" lon="11.9794074"><ele>312.0</ele><time>2026-04-18T12:40:57.896Z</time></trkpt><trkpt lat="42.115544" lon="11.9794498"><ele>312.0</ele><time>2026-04-18T12:40:58.897Z</time></trkpt><trkpt lat="42.1154764" lon="11.9794587"><ele>312.0</ele><time>2026-04-18T12:40:59.895Z</time></trkpt><trkpt lat="42.1154041" lon="11.9794479"><ele>312.0</ele><time>2026-04-18T12:41:00.895Z</time></trkpt><trkpt lat="42.1153257" lon="11.97941"><ele>312.0</ele><time>2026-04-18T12:41:01.896Z</time></trkpt><trkpt lat="42.1152245" lon="11.9793532"><ele>312.0</ele><time>2026-04-18T12:41:02.896Z</time></trkpt><trkpt lat="42.1151347" lon="11.9793128"><ele>312.0</ele><time>2026-04-18T12:41:03.895Z</time></trkpt><trkpt lat="42.1150518" lon="11.9792888"><ele>312.0</ele><time>2026-04-18T12:41:04.897Z</time></trkpt><trkpt lat="42.114963" lon="11.9792972"><ele>312.0</ele><time>2026-04-18T12:41:05.896Z</time></trkpt><trkpt lat="42.1148791" lon="11.9793315"><ele>312.0</ele><time>2026-04-18T12:41:06.896Z</time></trkpt><trkpt lat="42.1148034" lon="11.979372"><ele>312.0</ele><time>2026-04-18T12:41:07.895Z</time></trkpt><trkpt lat="42.1147371" lon="11.9794301"><ele>312.0</ele><time>2026-04-18T12:41:08.895Z</time></trkpt><trkpt lat="42.1146759" lon="11.9795076"><ele>312.0</ele><time>2026-04-18T12:41:09.896Z</time></trkpt><trkpt lat="42.1146263" lon="11.9795917"><ele>314.0</ele><time>2026-04-18T12:41:10.895Z</time></trkpt><trkpt lat="42.1145912" lon="11.9796881"><ele>316.0</ele><time>2026-04-18T12:41:11.895Z</time></trkpt><trkpt lat="42.1145707" lon="11.9798065"><ele>318.0</ele><time>2026-04-18T12:41:12.896Z</time></trkpt><trkpt lat="42.1145715" lon="11.9799386"><ele>320.0</ele><time>2026-04-18T12:41:13.897Z</time></trkpt><trkpt lat="42.1145713" lon="11.9800676"><ele>322.0</ele><time>2026-04-18T12:41:14.896Z</time></trkpt><trkpt lat="42.1145689" lon="11.9802274"><ele>321.8333333333333</ele><time>2026-04-18T12:41:15.895Z</time></trkpt><trkpt lat="42.1145755" lon="11.9803834"><ele>321.66666666666663</ele><time>2026-04-18T12:41:16.895Z</time></trkpt><trkpt lat="42.1145929" lon="11.9805138"><ele>321.5</ele><time>2026-04-18T12:41:17.895Z</time></trkpt><trkpt lat="42.1146151" lon="11.980622"><ele>321.3333333333333</ele><time>2026-04-18T12:41:18.895Z</time></trkpt><trkpt lat="42.1146211" lon="11.9807129"><ele>321.1666666666667</ele><time>2026-04-18T12:41:19.897Z</time></trkpt><trkpt lat="42.1146068" lon="11.9808022"><ele>321.0</ele><time>2026-04-18T12:41:20.896Z</time></trkpt><trkpt lat="42.114574" lon="11.980886"><ele>321.0</ele><time>2026-04-18T12:41:21.895Z</time></trkpt><trkpt lat="42.1145181" lon="11.980973"><ele>321.0</ele><time>2026-04-18T12:41:22.895Z</time></trkpt><trkpt lat="42.1144329" lon="11.981077"><ele>321.0</ele><time>2026-04-18T12:41:23.897Z</time></trkpt><trkpt lat="42.1143487" lon="11.9811861"><ele>321.0</ele><time>2026-04-18T12:41:24.895Z</time></trkpt><trkpt lat="42.1142737" lon="11.981278"><ele>321.0</ele><time>2026-04-18T12:41:25.896Z</time></trkpt><trkpt lat="42.1141916" lon="11.9813733"><ele>321.0</ele><time>2026-04-18T12:41:26.896Z</time></trkpt><trkpt lat="42.1141171" lon="11.9814561"><ele>321.0</ele><time>2026-04-18T12:41:27.896Z</time></trkpt><trkpt lat="42.1140532" lon="11.981515"><ele>321.0</ele><time>2026-04-18T12:41:28.896Z</time></trkpt><trkpt lat="42.1139874" lon="11.9815629"><ele>321.0</ele><time>2026-04-18T12:41:29.895Z</time></trkpt><trkpt lat="42.1138944" lon="11.9815614"><ele>321.0</ele><time>2026-04-18T12:41:31.896Z</time></trkpt><trkpt lat="42.1138712" lon="11.9814325"><ele>321.0</ele><time>2026-04-18T12:41:34.895Z</time></trkpt><trkpt lat="42.1139383" lon="11.9812566"><ele>323.8</ele><time>2026-04-18T12:41:36.895Z</time></trkpt><trkpt lat="42.1139852" lon="11.9811422"><ele>326.6</ele><time>2026-04-18T12:41:37.896Z</time></trkpt><trkpt lat="42.1140253" lon="11.9810176"><ele>329.4</ele><time>2026-04-18T12:41:38.895Z</time></trkpt><trkpt lat="42.1140481" lon="11.9808969"><ele>332.2</ele><time>2026-04-18T12:41:39.896Z</time></trkpt><trkpt lat="42.1140622" lon="11.980764"><ele>335.0</ele><time>2026-04-18T12:41:40.896Z</time></trkpt><trkpt lat="42.1140557" lon="11.9806282"><ele>335.83333333333337</ele><time>2026-04-18T12:41:41.895Z</time></trkpt><trkpt lat="42.1140373" lon="11.9804958"><ele>336.6666666666667</ele><time>2026-04-18T12:41:42.896Z</time></trkpt><trkpt lat="42.1140105" lon="11.9803772"><ele>337.5</ele><time>2026-04-18T12:41:43.896Z</time></trkpt><trkpt lat="42.113989" lon="11.9802686"><ele>338.3333333333333</ele><time>2026-04-18T12:41:44.896Z</time></trkpt><trkpt lat="42.1139721" lon="11.9801593"><ele>339.16666666666663</ele><time>2026-04-18T12:41:45.897Z</time></trkpt><trkpt lat="42.1139479" lon="11.9800454"><ele>340.0</ele><time>2026-04-18T12:41:46.895Z</time></trkpt><trkpt lat="42.1139269" lon="11.9799346"><ele>340.0</ele><time>2026-04-18T12:41:47.896Z</time></trkpt><trkpt lat="42.1139121" lon="11.979824"><ele>340.0</ele><time>2026-04-18T12:41:48.896Z</time></trkpt><trkpt lat="42.1139022" lon="11.979717"><ele>340.0</ele><time>2026-04-18T12:41:49.896Z</time></trkpt><trkpt lat="42.1139016" lon="11.9796195"><ele>340.0</ele><time>2026-04-18T12:41:50.897Z</time></trkpt><trkpt lat="42.1139059" lon="11.9795147"><ele>340.0</ele><time>2026-04-18T12:41:51.895Z</time></trkpt><trkpt lat="42.1139183" lon="11.9794036"><ele>340.0</ele><time>2026-04-18T12:41:52.895Z</time></trkpt><trkpt lat="42.1139468" lon="11.9792802"><ele>340.0</ele><time>2026-04-18T12:41:53.895Z</time></trkpt><trkpt lat="42.1139951" lon="11.979137"><ele>340.0</ele><time>2026-04-18T12:41:54.897Z</time></trkpt><trkpt lat="42.114066" lon="11.9789785"><ele>340.0</ele><time>2026-04-18T12:41:55.897Z</time></trkpt><trkpt lat="42.1141609" lon="11.9787935"><ele>340.0</ele><time>2026-04-18T12:41:56.895Z</time></trkpt><trkpt lat="42.1142709" lon="11.9785873"><ele>336.3333333333333</ele><time>2026-04-18T12:41:57.896Z</time></trkpt><trkpt lat="42.1143765" lon="11.9783924"><ele>332.6666666666667</ele><time>2026-04-18T12:41:58.896Z</time></trkpt><trkpt lat="42.1144747" lon="11.9782136"><ele>329.0</ele><time>2026-04-18T12:41:59.895Z</time></trkpt><trkpt lat="42.1145696" lon="11.9780429"><ele>329.0</ele><time>2026-04-18T12:42:00.895Z</time></trkpt><trkpt lat="42.1146529" lon="11.9778932"><ele>329.0</ele><time>2026-04-18T12:42:01.895Z</time></trkpt><trkpt lat="42.1147289" lon="11.9777459"><ele>329.0</ele><time>2026-04-18T12:42:02.894Z</time></trkpt><trkpt lat="42.1148132" lon="11.9775898"><ele>329.0</ele><time>2026-04-18T12:42:03.896Z</time></trkpt><trkpt lat="42.1148989" lon="11.9774271"><ele>330.0</ele><time>2026-04-18T12:42:04.895Z</time></trkpt><trkpt lat="42.1149858" lon="11.9772632"><ele>331.0</ele><time>2026-04-18T12:42:05.896Z</time></trkpt><trkpt lat="42.1150803" lon="11.9770926"><ele>332.0</ele><time>2026-04-18T12:42:06.895Z</time></trkpt><trkpt lat="42.1151712" lon="11.9769309"><ele>332.0</ele><time>2026-04-18T12:42:07.895Z</time></trkpt><trkpt lat="42.1152545" lon="11.9767851"><ele>332.0</ele><time>2026-04-18T12:42:08.894Z</time></trkpt><trkpt lat="42.1153352" lon="11.9766364"><ele>332.0</ele><time>2026-04-18T12:42:09.896Z</time></trkpt><trkpt lat="42.11541" lon="11.9764994"><ele>332.0</ele><time>2026-04-18T12:42:10.895Z</time></trkpt><trkpt lat="42.1154749" lon="11.9763719"><ele>333.20000000000005</ele><time>2026-04-18T12:42:11.894Z</time></trkpt><trkpt lat="42.1155306" lon="11.9762403"><ele>334.4</ele><time>2026-04-18T12:42:12.896Z</time></trkpt><trkpt lat="42.11557" lon="11.9761081"><ele>335.6</ele><time>2026-04-18T12:42:13.894Z</time></trkpt><trkpt lat="42.1155917" lon="11.9759699"><ele>336.79999999999995</ele><time>2026-04-18T12:42:14.894Z</time></trkpt><trkpt lat="42.1155917" lon="11.9758132"><ele>338.0</ele><time>2026-04-18T12:42:15.895Z</time></trkpt><trkpt lat="42.1155692" lon="11.9756553"><ele>340.0</ele><time>2026-04-18T12:42:16.895Z</time></trkpt><trkpt lat="42.1155336" lon="11.9755176"><ele>342.0</ele><time>2026-04-18T12:42:17.896Z</time></trkpt><trkpt lat="42.1155039" lon="11.9753731"><ele>344.0</ele><time>2026-04-18T12:42:18.894Z</time></trkpt><trkpt lat="42.1154824" lon="11.9752036"><ele>346.0</ele><time>2026-04-18T12:42:19.894Z</time></trkpt><trkpt lat="42.1154568" lon="11.9750511"><ele>346.5</ele><time>2026-04-18T12:42:20.895Z</time></trkpt><trkpt lat="42.1154405" lon="11.9749295"><ele>347.0</ele><time>2026-04-18T12:42:21.895Z</time></trkpt><trkpt lat="42.115433" lon="11.974832"><ele>347.5</ele><time>2026-04-18T12:42:22.894Z</time></trkpt><trkpt lat="42.1154565" lon="11.9746884"><ele>348.0</ele><time>2026-04-18T12:42:24.894Z</time></trkpt><trkpt lat="42.1154902" lon="11.9746147"><ele>348.5</ele><time>2026-04-18T12:42:25.895Z</time></trkpt><trkpt lat="42.1155388" lon="11.9745426"><ele>349.0</ele><time>2026-04-18T12:42:26.896Z</time></trkpt><trkpt lat="42.1155994" lon="11.9744666"><ele>349.0</ele><time>2026-04-18T12:42:27.895Z</time></trkpt><trkpt lat="42.115666" lon="11.9743765"><ele>349.0</ele><time>2026-04-18T12:42:28.896Z</time></trkpt><trkpt lat="42.1157392" lon="11.9742766"><ele>349.0</ele><time>2026-04-18T12:42:29.895Z</time></trkpt><trkpt lat="42.1158184" lon="11.9741735"><ele>349.0</ele><time>2026-04-18T12:42:30.894Z</time></trkpt><trkpt lat="42.1158953" lon="11.974073"><ele>349.0</ele><time>2026-04-18T12:42:31.895Z</time></trkpt><trkpt lat="42.1159704" lon="11.9739623"><ele>348.5</ele><time>2026-04-18T12:42:32.894Z</time></trkpt><trkpt lat="42.1160419" lon="11.9738361"><ele>348.0</ele><time>2026-04-18T12:42:33.895Z</time></trkpt><trkpt lat="42.1161152" lon="11.9736946"><ele>347.5</ele><time>2026-04-18T12:42:34.896Z</time></trkpt><trkpt lat="42.1161853" lon="11.9735331"><ele>347.0</ele><time>2026-04-18T12:42:35.896Z</time></trkpt><trkpt lat="42.1162528" lon="11.9733515"><ele>348.6666666666667</ele><time>2026-04-18T12:42:36.895Z</time></trkpt><trkpt lat="42.1163295" lon="11.9731801"><ele>350.3333333333333</ele><time>2026-04-18T12:42:37.894Z</time></trkpt><trkpt lat="42.1164286" lon="11.9730126"><ele>352.0</ele><time>2026-04-18T12:42:38.894Z</time></trkpt><trkpt lat="42.1165605" lon="11.972854"><ele>351.66666666666663</ele><time>2026-04-18T12:42:39.895Z</time></trkpt><trkpt lat="42.1167234" lon="11.9726992"><ele>351.3333333333333</ele><time>2026-04-18T12:42:40.896Z</time></trkpt><trkpt lat="42.1169077" lon="11.972549"><ele>351.0</ele><time>2026-04-18T12:42:41.895Z</time></trkpt><trkpt lat="42.1170797" lon="11.9724053"><ele>351.0</ele><time>2026-04-18T12:42:42.896Z</time></trkpt><trkpt lat="42.1172451" lon="11.972266"><ele>351.0</ele><time>2026-04-18T12:42:43.895Z</time></trkpt><trkpt lat="42.117398" lon="11.9721279"><ele>351.0</ele><time>2026-04-18T12:42:44.894Z</time></trkpt><trkpt lat="42.1175434" lon="11.9719824"><ele>352.0</ele><time>2026-04-18T12:42:45.895Z</time></trkpt><trkpt lat="42.1176791" lon="11.9718469"><ele>353.0</ele><time>2026-04-18T12:42:46.894Z</time></trkpt><trkpt lat="42.1178091" lon="11.9717244"><ele>354.0</ele><time>2026-04-18T12:42:47.894Z</time></trkpt><trkpt lat="42.1179296" lon="11.9716159"><ele>354.0</ele><time>2026-04-18T12:42:48.895Z</time></trkpt><trkpt lat="42.1180463" lon="11.9715221"><ele>354.0</ele><time>2026-04-18T12:42:49.895Z</time></trkpt><trkpt lat="42.1181643" lon="11.9714545"><ele>354.0</ele><time>2026-04-18T12:42:50.895Z</time></trkpt><trkpt lat="42.1182877" lon="11.9714079"><ele>354.0</ele><time>2026-04-18T12:42:51.896Z</time></trkpt><trkpt lat="42.1184192" lon="11.971372"><ele>350.25</ele><time>2026-04-18T12:42:52.895Z</time></trkpt><trkpt lat="42.1185569" lon="11.97133"><ele>346.5</ele><time>2026-04-18T12:42:53.894Z</time></trkpt><trkpt lat="42.1186982" lon="11.9712683"><ele>342.75</ele><time>2026-04-18T12:42:54.895Z</time></trkpt><trkpt lat="42.1188392" lon="11.9711856"><ele>339.0</ele><time>2026-04-18T12:42:55.895Z</time></trkpt><trkpt lat="42.1189756" lon="11.9710838"><ele>339.3333333333333</ele><time>2026-04-18T12:42:56.895Z</time></trkpt><trkpt lat="42.1190956" lon="11.9709543"><ele>339.66666666666663</ele><time>2026-04-18T12:42:57.894Z</time></trkpt><trkpt lat="42.1191965" lon="11.9708028"><ele>340.0</ele><time>2026-04-18T12:42:58.895Z</time></trkpt><trkpt lat="42.1192872" lon="11.9706156"><ele>340.0</ele><time>2026-04-18T12:42:59.895Z</time></trkpt><trkpt lat="42.1193745" lon="11.9703876"><ele>340.0</ele><time>2026-04-18T12:43:00.896Z</time></trkpt><trkpt lat="42.119454" lon="11.9701857"><ele>340.0</ele><time>2026-04-18T12:43:01.895Z</time></trkpt><trkpt lat="42.1195378" lon="11.9699944"><ele>342.66666666666663</ele><time>2026-04-18T12:43:02.895Z</time></trkpt><trkpt lat="42.119633" lon="11.9698116"><ele>345.3333333333333</ele><time>2026-04-18T12:43:03.895Z</time></trkpt><trkpt lat="42.1197392" lon="11.9696444"><ele>348.0</ele><time>2026-04-18T12:43:04.896Z</time></trkpt><trkpt lat="42.1198501" lon="11.9694984"><ele>348.6666666666667</ele><time>2026-04-18T12:43:05.895Z</time></trkpt><trkpt lat="42.119968" lon="11.9693643"><ele>349.33333333333337</ele><time>2026-04-18T12:43:06.895Z</time></trkpt><trkpt lat="42.1200929" lon="11.9692398"><ele>350.0</ele><time>2026-04-18T12:43:07.894Z</time></trkpt><trkpt lat="42.1202248" lon="11.969112"><ele>350.0</ele><time>2026-04-18T12:43:08.894Z</time></trkpt><trkpt lat="42.1203652" lon="11.9689738"><ele>350.0</ele><time>2026-04-18T12:43:09.895Z</time></trkpt><trkpt lat="42.1204998" lon="11.9688308"><ele>350.0</ele><time>2026-04-18T12:43:10.894Z</time></trkpt><trkpt lat="42.120616" lon="11.9686972"><ele>350.0</ele><time>2026-04-18T12:43:11.895Z</time></trkpt><trkpt lat="42.1207099" lon="11.968581"><ele>350.0</ele><time>2026-04-18T12:43:12.895Z</time></trkpt><trkpt lat="42.1207813" lon="11.9684578"><ele>350.0</ele><time>2026-04-18T12:43:13.896Z</time></trkpt><trkpt lat="42.1208234" lon="11.9683007"><ele>350.0</ele><time>2026-04-18T12:43:14.894Z</time></trkpt><trkpt lat="42.120838" lon="11.968109"><ele>349.33333333333337</ele><time>2026-04-18T12:43:15.895Z</time></trkpt><trkpt lat="42.1208389" lon="11.967877"><ele>348.6666666666667</ele><time>2026-04-18T12:43:16.895Z</time></trkpt><trkpt lat="42.1208336" lon="11.9676499"><ele>348.0</ele><time>2026-04-18T12:43:17.895Z</time></trkpt><trkpt lat="42.1208322" lon="11.9674408"><ele>348.0</ele><time>2026-04-18T12:43:18.894Z</time></trkpt><trkpt lat="42.120824" lon="11.967257"><ele>348.0</ele><time>2026-04-18T12:43:19.894Z</time></trkpt><trkpt lat="42.1208034" lon="11.9670965"><ele>348.0</ele><time>2026-04-18T12:43:20.896Z</time></trkpt><trkpt lat="42.1207608" lon="11.9669386"><ele>348.0</ele><time>2026-04-18T12:43:21.895Z</time></trkpt><trkpt lat="42.1206984" lon="11.9667798"><ele>352.75</ele><time>2026-04-18T12:43:22.895Z</time></trkpt><trkpt lat="42.1206233" lon="11.9666198"><ele>357.5</ele><time>2026-04-18T12:43:23.895Z</time></trkpt><trkpt lat="42.1205462" lon="11.9664638"><ele>362.25</ele><time>2026-04-18T12:43:24.895Z</time></trkpt><trkpt lat="42.1204688" lon="11.9663246"><ele>367.0</ele><time>2026-04-18T12:43:25.895Z</time></trkpt><trkpt lat="42.1203878" lon="11.9662005"><ele>367.0</ele><time>2026-04-18T12:43:26.894Z</time></trkpt><trkpt lat="42.1203133" lon="11.9660834"><ele>367.0</ele><time>2026-04-18T12:43:27.894Z</time></trkpt><trkpt lat="42.120251" lon="11.965964"><ele>367.0</ele><time>2026-04-18T12:43:28.895Z</time></trkpt><trkpt lat="42.1202045" lon="11.9658304"><ele>367.0</ele><time>2026-04-18T12:43:29.894Z</time></trkpt><trkpt lat="42.1201876" lon="11.9656745"><ele>367.0</ele><time>2026-04-18T12:43:30.894Z</time></trkpt><trkpt lat="42.120196" lon="11.9655058"><ele>364.0</ele><time>2026-04-18T12:43:31.894Z</time></trkpt><trkpt lat="42.1202071" lon="11.9653439"><ele>361.0</ele><time>2026-04-18T12:43:32.895Z</time></trkpt><trkpt lat="42.1201908" lon="11.9651777"><ele>358.0</ele><time>2026-04-18T12:43:33.895Z</time></trkpt><trkpt lat="42.1201381" lon="11.9650046"><ele>355.0</ele><time>2026-04-18T12:43:34.895Z</time></trkpt><trkpt lat="42.120048" lon="11.9648207"><ele>358.3333333333333</ele><time>2026-04-18T12:43:35.894Z</time></trkpt><trkpt lat="42.119946" lon="11.9646555"><ele>361.6666666666667</ele><time>2026-04-18T12:43:36.894Z</time></trkpt><trkpt lat="42.1198566" lon="11.9644708"><ele>365.0</ele><time>2026-04-18T12:43:37.895Z</time></trkpt><trkpt lat="42.1197726" lon="11.9642545"><ele>359.33333333333337</ele><time>2026-04-18T12:43:38.895Z</time></trkpt><trkpt lat="42.1197019" lon="11.964039"><ele>353.6666666666667</ele><time>2026-04-18T12:43:39.895Z</time></trkpt><trkpt lat="42.1196395" lon="11.963834"><ele>348.0</ele><time>2026-04-18T12:43:40.894Z</time></trkpt><trkpt lat="42.119588" lon="11.9636334"><ele>348.0</ele><time>2026-04-18T12:43:41.894Z</time></trkpt><trkpt lat="42.1195479" lon="11.9634371"><ele>348.0</ele><time>2026-04-18T12:43:42.894Z</time></trkpt><trkpt lat="42.1195286" lon="11.9632497"><ele>348.0</ele><time>2026-04-18T12:43:43.894Z</time></trkpt><trkpt lat="42.1195382" lon="11.9630705"><ele>348.0</ele><time>2026-04-18T12:43:44.894Z</time></trkpt><trkpt lat="42.1195826" lon="11.9628889"><ele>346.25</ele><time>2026-04-18T12:43:45.894Z</time></trkpt><trkpt lat="42.1196644" lon="11.9627366"><ele>344.5</ele><time>2026-04-18T12:43:46.894Z</time></trkpt><trkpt lat="42.11978" lon="11.9626063"><ele>342.75</ele><time>2026-04-18T12:43:47.895Z</time></trkpt><trkpt lat="42.1198985" lon="11.9625103"><ele>341.0</ele><time>2026-04-18T12:43:48.894Z</time></trkpt><trkpt lat="42.1199937" lon="11.9624051"><ele>337.6</ele><time>2026-04-18T12:43:49.895Z</time></trkpt><trkpt lat="42.1200634" lon="11.9622858"><ele>334.20000000000005</ele><time>2026-04-18T12:43:50.895Z</time></trkpt><trkpt lat="42.1201032" lon="11.9621474"><ele>330.79999999999995</ele><time>2026-04-18T12:43:51.894Z</time></trkpt><trkpt lat="42.1201" lon="11.9619927"><ele>327.4</ele><time>2026-04-18T12:43:52.894Z</time></trkpt><trkpt lat="42.1200643" lon="11.961852"><ele>324.0</ele><time>2026-04-18T12:43:53.894Z</time></trkpt><trkpt lat="42.1200283" lon="11.9617334"><ele>324.6</ele><time>2026-04-18T12:43:54.895Z</time></trkpt><trkpt lat="42.1200068" lon="11.9616251"><ele>325.2</ele><time>2026-04-18T12:43:55.894Z</time></trkpt><trkpt lat="42.1199946" lon="11.9615115"><ele>325.8</ele><time>2026-04-18T12:43:56.895Z</time></trkpt><trkpt lat="42.120018" lon="11.9614052"><ele>326.40000000000003</ele><time>2026-04-18T12:43:57.896Z</time></trkpt><trkpt lat="42.1200791" lon="11.9613068"><ele>327.0</ele><time>2026-04-18T12:43:58.895Z</time></trkpt><trkpt lat="42.1201729" lon="11.9612287"><ele>327.0</ele><time>2026-04-18T12:43:59.894Z</time></trkpt><trkpt lat="42.120291" lon="11.961174"><ele>327.0</ele><time>2026-04-18T12:44:00.894Z</time></trkpt><trkpt lat="42.1204121" lon="11.9611241"><ele>327.0</ele><time>2026-04-18T12:44:01.894Z</time></trkpt><trkpt lat="42.1205086" lon="11.9610595"><ele>327.0</ele><time>2026-04-18T12:44:02.895Z</time></trkpt><trkpt lat="42.1205893" lon="11.9609519"><ele>328.75</ele><time>2026-04-18T12:44:03.894Z</time></trkpt><trkpt lat="42.1206246" lon="11.960819"><ele>330.5</ele><time>2026-04-18T12:44:04.895Z</time></trkpt><trkpt lat="42.1206227" lon="11.9606559"><ele>332.25</ele><time>2026-04-18T12:44:05.894Z</time></trkpt><trkpt lat="42.1205829" lon="11.960489"><ele>334.0</ele><time>2026-04-18T12:44:06.895Z</time></trkpt><trkpt lat="42.1205308" lon="11.9603513"><ele>334.0</ele><time>2026-04-18T12:44:07.895Z</time></trkpt><trkpt lat="42.120502" lon="11.9602022"><ele>334.0</ele><time>2026-04-18T12:44:08.895Z</time></trkpt><trkpt lat="42.1205161" lon="11.9600416"><ele>334.0</ele><time>2026-04-18T12:44:09.894Z</time></trkpt><trkpt lat="42.1205665" lon="11.9598583"><ele>334.0</ele><time>2026-04-18T12:44:10.894Z</time></trkpt><trkpt lat="42.120631" lon="11.9597089"><ele>335.75</ele><time>2026-04-18T12:44:11.894Z</time></trkpt><trkpt lat="42.1206767" lon="11.9595638"><ele>337.5</ele><time>2026-04-18T12:44:12.894Z</time></trkpt><trkpt lat="42.1207062" lon="11.9594107"><ele>339.25</ele><time>2026-04-18T12:44:13.895Z</time></trkpt><trkpt lat="42.1206978" lon="11.9592506"><ele>341.0</ele><time>2026-04-18T12:44:14.895Z</time></trkpt><trkpt lat="42.1206513" lon="11.9590925"><ele>341.0</ele><time>2026-04-18T12:44:15.894Z</time></trkpt><trkpt lat="42.1205844" lon="11.9589602"><ele>341.0</ele><time>2026-04-18T12:44:16.896Z</time></trkpt><trkpt lat="42.1205259" lon="11.9588414"><ele>341.0</ele><time>2026-04-18T12:44:17.895Z</time></trkpt><trkpt lat="42.1204781" lon="11.9587181"><ele>341.0</ele><time>2026-04-18T12:44:18.894Z</time></trkpt><trkpt lat="42.1204359" lon="11.958581"><ele>341.0</ele><time>2026-04-18T12:44:19.895Z</time></trkpt><trkpt lat="42.1204151" lon="11.9584442"><ele>339.5</ele><time>2026-04-18T12:44:20.896Z</time></trkpt><trkpt lat="42.1204132" lon="11.9582974"><ele>338.0</ele><time>2026-04-18T12:44:21.895Z</time></trkpt><trkpt lat="42.1204215" lon="11.9581416"><ele>336.5</ele><time>2026-04-18T12:44:22.895Z</time></trkpt><trkpt lat="42.1204314" lon="11.9579754"><ele>335.0</ele><time>2026-04-18T12:44:23.895Z</time></trkpt><trkpt lat="42.1204413" lon="11.9578224"><ele>335.0</ele><time>2026-04-18T12:44:24.894Z</time></trkpt><trkpt lat="42.1204503" lon="11.957698"><ele>335.0</ele><time>2026-04-18T12:44:25.894Z</time></trkpt><trkpt lat="42.1204599" lon="11.9575936"><ele>335.0</ele><time>2026-04-18T12:44:26.895Z</time></trkpt><trkpt lat="42.1204817" lon="11.9574521"><ele>335.0</ele><time>2026-04-18T12:44:28.894Z</time></trkpt><trkpt lat="42.1204911" lon="11.9573164"><ele>335.0</ele><time>2026-04-18T12:44:30.895Z</time></trkpt><trkpt lat="42.1204901" lon="11.9572304"><ele>335.0</ele><time>2026-04-18T12:44:31.895Z</time></trkpt><trkpt lat="42.1205002" lon="11.9570757"><ele>335.0</ele><time>2026-04-18T12:44:33.894Z</time></trkpt><trkpt lat="42.1205492" lon="11.9569213"><ele>335.0</ele><time>2026-04-18T12:44:35.895Z</time></trkpt><trkpt lat="42.1205725" lon="11.9568264"><ele>335.0</ele><time>2026-04-18T12:44:36.895Z</time></trkpt><trkpt lat="42.1206013" lon="11.9566715"><ele>335.0</ele><time>2026-04-18T12:44:38.894Z</time></trkpt><trkpt lat="42.120613" lon="11.9565787"><ele>335.0</ele><time>2026-04-18T12:44:39.896Z</time></trkpt><trkpt lat="42.1206246" lon="11.9564752"><ele>335.4</ele><time>2026-04-18T12:44:40.894Z</time></trkpt><trkpt lat="42.1206687" lon="11.9563376"><ele>335.8</ele><time>2026-04-18T12:44:42.896Z</time></trkpt><trkpt lat="42.1207139" lon="11.9562134"><ele>336.20000000000005</ele><time>2026-04-18T12:44:44.896Z</time></trkpt><trkpt lat="42.1207561" lon="11.9560829"><ele>336.6</ele><time>2026-04-18T12:44:46.895Z</time></trkpt><trkpt lat="42.1208251" lon="11.955955"><ele>337.0</ele><time>2026-04-18T12:44:48.894Z</time></trkpt><trkpt lat="42.1208845" lon="11.9558452"><ele>337.0</ele><time>2026-04-18T12:44:50.894Z</time></trkpt><trkpt lat="42.1209215" lon="11.9557118"><ele>337.0</ele><time>2026-04-18T12:44:52.895Z</time></trkpt><trkpt lat="42.1209424" lon="11.9556183"><ele>337.0</ele><time>2026-04-18T12:44:53.894Z</time></trkpt><trkpt lat="42.1209707" lon="11.9555031"><ele>337.0</ele><time>2026-04-18T12:44:54.894Z</time></trkpt><trkpt lat="42.1210076" lon="11.9553892"><ele>337.0</ele><time>2026-04-18T12:44:55.895Z</time></trkpt><trkpt lat="42.1210469" lon="11.9552746"><ele>337.0</ele><time>2026-04-18T12:44:56.894Z</time></trkpt><trkpt lat="42.1210894" lon="11.9551745"><ele>337.0</ele><time>2026-04-18T12:44:57.894Z</time></trkpt><trkpt lat="42.1211363" lon="11.9550819"><ele>337.0</ele><time>2026-04-18T12:44:58.895Z</time></trkpt><trkpt lat="42.1211754" lon="11.9550048"><ele>337.0</ele><time>2026-04-18T12:44:59.894Z</time></trkpt><trkpt lat="42.1212127" lon="11.9549327"><ele>337.0</ele><time>2026-04-18T12:45:00.894Z</time></trkpt><trkpt lat="42.1212621" lon="11.9548586"><ele>337.0</ele><time>2026-04-18T12:45:01.894Z</time></trkpt><trkpt lat="42.1213123" lon="11.9547826"><ele>337.40000000000003</ele><time>2026-04-18T12:45:02.894Z</time></trkpt><trkpt lat="42.1213657" lon="11.9547232"><ele>337.8</ele><time>2026-04-18T12:45:03.894Z</time></trkpt><trkpt lat="42.1214738" lon="11.954634"><ele>338.2</ele><time>2026-04-18T12:45:05.895Z</time></trkpt><trkpt lat="42.1215895" lon="11.9546024"><ele>338.6</ele><time>2026-04-18T12:45:07.894Z</time></trkpt><trkpt lat="42.1217061" lon="11.9546155"><ele>339.0</ele><time>2026-04-18T12:45:09.894Z</time></trkpt><trkpt lat="42.1218102" lon="11.9546094"><ele>339.0</ele><time>2026-04-18T12:45:11.896Z</time></trkpt><trkpt lat="42.1218884" lon="11.9546153"><ele>339.0</ele><time>2026-04-18T12:45:12.895Z</time></trkpt><trkpt lat="42.1219576" lon="11.9546296"><ele>339.0</ele><time>2026-04-18T12:45:13.895Z</time></trkpt><trkpt lat="42.1220689" lon="11.954656"><ele>339.0</ele><time>2026-04-18T12:45:15.894Z</time></trkpt><trkpt lat="42.1221802" lon="11.9546838"><ele>339.0</ele><time>2026-04-18T12:45:17.895Z</time></trkpt><trkpt lat="42.1222624" lon="11.9546944"><ele>339.0</ele><time>2026-04-18T12:45:19.895Z</time></trkpt><trkpt lat="42.122367" lon="11.9546847"><ele>339.0</ele><time>2026-04-18T12:45:21.895Z</time></trkpt><trkpt lat="42.1224747" lon="11.9546914"><ele>339.0</ele><time>2026-04-18T12:45:23.894Z</time></trkpt><trkpt lat="42.1225986" lon="11.954723"><ele>339.0</ele><time>2026-04-18T12:45:25.895Z</time></trkpt><trkpt lat="42.1227108" lon="11.9547787"><ele>340.0</ele><time>2026-04-18T12:45:27.894Z</time></trkpt><trkpt lat="42.1227955" lon="11.9548484"><ele>341.0</ele><time>2026-04-18T12:45:29.896Z</time></trkpt><trkpt lat="42.122872" lon="11.9549333"><ele>342.0</ele><time>2026-04-18T12:45:31.894Z</time></trkpt><trkpt lat="42.122948" lon="11.955016"><ele>343.0</ele><time>2026-04-18T12:45:33.895Z</time></trkpt><trkpt lat="42.1230495" lon="11.955071"><ele>344.0</ele><time>2026-04-18T12:45:35.894Z</time></trkpt><trkpt lat="42.1231731" lon="11.95511"><ele>343.2</ele><time>2026-04-18T12:45:37.894Z</time></trkpt><trkpt lat="42.1232403" lon="11.9550998"><ele>342.4</ele><time>2026-04-18T12:45:38.894Z</time></trkpt><trkpt lat="42.1233056" lon="11.9550785"><ele>341.6</ele><time>2026-04-18T12:45:39.894Z</time></trkpt><trkpt lat="42.123408" lon="11.9549961"><ele>340.8</ele><time>2026-04-18T12:45:41.895Z</time></trkpt><trkpt lat="42.123484" lon="11.9548598"><ele>340.0</ele><time>2026-04-18T12:45:43.895Z</time></trkpt><trkpt lat="42.1235475" lon="11.9547123"><ele>342.4</ele><time>2026-04-18T12:45:45.894Z</time></trkpt><trkpt lat="42.1235783" lon="11.9545641"><ele>344.8</ele><time>2026-04-18T12:45:47.895Z</time></trkpt><trkpt lat="42.1235706" lon="11.9543691"><ele>347.20000000000005</ele><time>2026-04-18T12:45:49.894Z</time></trkpt><trkpt lat="42.1235597" lon="11.9542357"><ele>349.6</ele><time>2026-04-18T12:45:50.895Z</time></trkpt><trkpt lat="42.1235556" lon="11.9541378"><ele>352.0</ele><time>2026-04-18T12:45:51.895Z</time></trkpt><trkpt lat="42.1235494" lon="11.9540378"><ele>353.42857142857144</ele><time>2026-04-18T12:45:52.895Z</time></trkpt><trkpt lat="42.1235552" lon="11.9539347"><ele>354.85714285714283</ele><time>2026-04-18T12:45:53.895Z</time></trkpt><trkpt lat="42.1235633" lon="11.9538266"><ele>356.2857142857143</ele><time>2026-04-18T12:45:54.895Z</time></trkpt><trkpt lat="42.1235705" lon="11.953737"><ele>357.7142857142857</ele><time>2026-04-18T12:45:55.894Z</time></trkpt><trkpt lat="42.1235789" lon="11.9536331"><ele>359.1428571428571</ele><time>2026-04-18T12:45:56.894Z</time></trkpt><trkpt lat="42.1235818" lon="11.9535339"><ele>360.57142857142856</ele><time>2026-04-18T12:45:57.894Z</time></trkpt><trkpt lat="42.123589" lon="11.9534371"><ele>362.0</ele><time>2026-04-18T12:45:58.895Z</time></trkpt><trkpt lat="42.1236055" lon="11.9533394"><ele>363.1666666666667</ele><time>2026-04-18T12:45:59.895Z</time></trkpt><trkpt lat="42.1236437" lon="11.9532498"><ele>364.33333333333337</ele><time>2026-04-18T12:46:00.895Z</time></trkpt><trkpt lat="42.1236696" lon="11.9531605"><ele>365.5</ele><time>2026-04-18T12:46:01.894Z</time></trkpt><trkpt lat="42.1237115" lon="11.953072"><ele>366.6666666666667</ele><time>2026-04-18T12:46:02.894Z</time></trkpt><trkpt lat="42.1237469" lon="11.9529777"><ele>367.8333333333333</ele><time>2026-04-18T12:46:03.895Z</time></trkpt><trkpt lat="42.123776" lon="11.9528772"><ele>369.0</ele><time>2026-04-18T12:46:04.894Z</time></trkpt><trkpt lat="42.1237987" lon="11.9527929"><ele>369.0</ele><time>2026-04-18T12:46:05.894Z</time></trkpt><trkpt lat="42.1238215" lon="11.9526919"><ele>369.0</ele><time>2026-04-18T12:46:06.895Z</time></trkpt><trkpt lat="42.123842" lon="11.9525959"><ele>369.0</ele><time>2026-04-18T12:46:07.896Z</time></trkpt><trkpt lat="42.1238663" lon="11.9524722"><ele>369.0</ele><time>2026-04-18T12:46:08.896Z</time></trkpt><trkpt lat="42.1238896" lon="11.9523641"><ele>369.0</ele><time>2026-04-18T12:46:09.895Z</time></trkpt><trkpt lat="42.1239076" lon="11.952272"><ele>369.0</ele><time>2026-04-18T12:46:10.894Z</time></trkpt><trkpt lat="42.1239299" lon="11.9521764"><ele>370.6</ele><time>2026-04-18T12:46:11.895Z</time></trkpt><trkpt lat="42.1239426" lon="11.9520669"><ele>372.2</ele><time>2026-04-18T12:46:12.895Z</time></trkpt><trkpt lat="42.1239516" lon="11.9519465"><ele>373.8</ele><time>2026-04-18T12:46:13.894Z</time></trkpt><trkpt lat="42.1239611" lon="11.9518328"><ele>375.40000000000003</ele><time>2026-04-18T12:46:14.894Z</time></trkpt><trkpt lat="42.1239632" lon="11.951732"><ele>377.0</ele><time>2026-04-18T12:46:15.895Z</time></trkpt><trkpt lat="42.1239024" lon="11.9515645"><ele>377.0</ele><time>2026-04-18T12:46:17.896Z</time></trkpt><trkpt lat="42.1238504" lon="11.9514813"><ele>377.0</ele><time>2026-04-18T12:46:18.894Z</time></trkpt><trkpt lat="42.1237889" lon="11.9513954"><ele>377.0</ele><time>2026-04-18T12:46:19.896Z</time></trkpt><trkpt lat="42.1237381" lon="11.9513361"><ele>377.0</ele><time>2026-04-18T12:46:20.895Z</time></trkpt><trkpt lat="42.1236776" lon="11.9512802"><ele>377.0</ele><time>2026-04-18T12:46:21.895Z</time></trkpt><trkpt lat="42.1235631" lon="11.9512298"><ele>377.0</ele><time>2026-04-18T12:46:23.896Z</time></trkpt><trkpt lat="42.1234545" lon="11.9512384"><ele>377.0</ele><time>2026-04-18T12:46:25.895Z</time></trkpt><trkpt lat="42.1233558" lon="11.9511781"><ele>377.0</ele><time>2026-04-18T12:46:27.895Z</time></trkpt><trkpt lat="42.1233126" lon="11.9510596"><ele>377.0</ele><time>2026-04-18T12:46:29.895Z</time></trkpt><trkpt lat="42.1233017" lon="11.950954"><ele>377.0</ele><time>2026-04-18T12:46:30.896Z</time></trkpt><trkpt lat="42.1232895" lon="11.9508132"><ele>377.0</ele><time>2026-04-18T12:46:31.894Z</time></trkpt><trkpt lat="42.1232717" lon="11.9506493"><ele>376.5</ele><time>2026-04-18T12:46:32.894Z</time></trkpt><trkpt lat="42.1232615" lon="11.9505274"><ele>376.0</ele><time>2026-04-18T12:46:33.894Z</time></trkpt><trkpt lat="42.1232532" lon="11.9504134"><ele>375.5</ele><time>2026-04-18T12:46:34.894Z</time></trkpt><trkpt lat="42.1232396" lon="11.9503117"><ele>375.0</ele><time>2026-04-18T12:46:35.895Z</time></trkpt><trkpt lat="42.1232105" lon="11.9502358"><ele>374.5</ele><time>2026-04-18T12:46:36.895Z</time></trkpt><trkpt lat="42.1231217" lon="11.950145"><ele>374.0</ele><time>2026-04-18T12:46:38.895Z</time></trkpt><trkpt lat="42.1230449" lon="11.9501402"><ele>375.5</ele><time>2026-04-18T12:46:40.894Z</time></trkpt><trkpt lat="42.1229832" lon="11.9501117"><ele>377.0</ele><time>2026-04-18T12:46:42.895Z</time></trkpt><trkpt lat="42.122911" lon="11.950015"><ele>378.5</ele><time>2026-04-18T12:46:44.894Z</time></trkpt><trkpt lat="42.1228892" lon="11.9498719"><ele>380.0</ele><time>2026-04-18T12:46:46.894Z</time></trkpt><trkpt lat="42.1228754" lon="11.9497672"><ele>381.5</ele><time>2026-04-18T12:46:47.894Z</time></trkpt><trkpt lat="42.1228462" lon="11.9496656"><ele>383.0</ele><time>2026-04-18T12:46:48.894Z</time></trkpt><trkpt lat="42.1228095" lon="11.9495851"><ele>383.0</ele><time>2026-04-18T12:46:49.895Z</time></trkpt><trkpt lat="42.1227072" lon="11.9494929"><ele>383.0</ele><time>2026-04-18T12:46:51.896Z</time></trkpt><trkpt lat="42.1226019" lon="11.9494365"><ele>383.0</ele><time>2026-04-18T12:46:53.896Z</time></trkpt><trkpt lat="42.1224988" lon="11.9493818"><ele>383.0</ele><time>2026-04-18T12:46:55.895Z</time></trkpt><trkpt lat="42.1224468" lon="11.9493315"><ele>383.0</ele><time>2026-04-18T12:46:56.894Z</time></trkpt><trkpt lat="42.1223885" lon="11.9492246"><ele>386.4</ele><time>2026-04-18T12:46:58.895Z</time></trkpt><trkpt lat="42.1223397" lon="11.9490623"><ele>389.79999999999995</ele><time>2026-04-18T12:47:00.894Z</time></trkpt><trkpt lat="42.1223163" lon="11.9489652"><ele>393.2</ele><time>2026-04-18T12:47:01.894Z</time></trkpt><trkpt lat="42.1222572" lon="11.948839"><ele>396.6</ele><time>2026-04-18T12:47:02.895Z</time></trkpt><trkpt lat="42.1222275" lon="11.9487457"><ele>400.0</ele><time>2026-04-18T12:47:03.894Z</time></trkpt><trkpt lat="42.1221981" lon="11.9486653"><ele>400.0</ele><time>2026-04-18T12:47:04.895Z</time></trkpt><trkpt lat="42.1221629" lon="11.9485889"><ele>400.0</ele><time>2026-04-18T12:47:05.894Z</time></trkpt><trkpt lat="42.1221164" lon="11.9484296"><ele>400.0</ele><time>2026-04-18T12:47:07.895Z</time></trkpt><trkpt lat="42.1220794" lon="11.9483183"><ele>400.0</ele><time>2026-04-18T12:47:08.894Z</time></trkpt><trkpt lat="42.122053" lon="11.9482323"><ele>400.0</ele><time>2026-04-18T12:47:09.895Z</time></trkpt><trkpt lat="42.1219965" lon="11.9481268"><ele>398.6666666666667</ele><time>2026-04-18T12:47:10.896Z</time></trkpt><trkpt lat="42.121953" lon="11.948052"><ele>397.33333333333337</ele><time>2026-04-18T12:47:11.896Z</time></trkpt><trkpt lat="42.1219225" lon="11.947965"><ele>396.0</ele><time>2026-04-18T12:47:12.895Z</time></trkpt><trkpt lat="42.1218946" lon="11.9478742"><ele>394.66666666666663</ele><time>2026-04-18T12:47:13.894Z</time></trkpt><trkpt lat="42.121885" lon="11.9476993"><ele>393.3333333333333</ele><time>2026-04-18T12:47:15.894Z</time></trkpt><trkpt lat="42.1218912" lon="11.9475982"><ele>392.0</ele><time>2026-04-18T12:47:16.894Z</time></trkpt><trkpt lat="42.1218923" lon="11.9474941"><ele>391.99999999999994</ele><time>2026-04-18T12:47:17.895Z</time></trkpt><trkpt lat="42.1219032" lon="11.9474101"><ele>392.0</ele><time>2026-04-18T12:47:18.894Z</time></trkpt><trkpt lat="42.1219704" lon="11.947267"><ele>392.0</ele><time>2026-04-18T12:47:20.895Z</time></trkpt><trkpt lat="42.1220205" lon="11.9471905"><ele>392.0</ele><time>2026-04-18T12:47:21.895Z</time></trkpt><trkpt lat="42.1220667" lon="11.9471159"><ele>391.99999999999994</ele><time>2026-04-18T12:47:22.895Z</time></trkpt><trkpt lat="42.1221407" lon="11.9470112"><ele>392.0</ele><time>2026-04-18T12:47:24.895Z</time></trkpt><trkpt lat="42.1222201" lon="11.9469043"><ele>392.0</ele><time>2026-04-18T12:47:26.894Z</time></trkpt><trkpt lat="42.1222975" lon="11.946787"><ele>392.0</ele><time>2026-04-18T12:47:28.895Z</time></trkpt><trkpt lat="42.1223477" lon="11.9467143"><ele>392.0</ele><time>2026-04-18T12:47:29.894Z</time></trkpt><trkpt lat="42.1224115" lon="11.9466285"><ele>392.0</ele><time>2026-04-18T12:47:30.895Z</time></trkpt><trkpt lat="42.1224631" lon="11.9465654"><ele>392.0</ele><time>2026-04-18T12:47:31.896Z</time></trkpt><trkpt lat="42.1225385" lon="11.9464513"><ele>393.20000000000005</ele><time>2026-04-18T12:47:33.894Z</time></trkpt><trkpt lat="42.1225591" lon="11.9462869"><ele>394.4</ele><time>2026-04-18T12:47:35.894Z</time></trkpt><trkpt lat="42.1225572" lon="11.9461648"><ele>395.6</ele><time>2026-04-18T12:47:36.895Z</time></trkpt><trkpt lat="42.1225611" lon="11.9460518"><ele>396.79999999999995</ele><time>2026-04-18T12:47:37.896Z</time></trkpt><trkpt lat="42.122567" lon="11.9459246"><ele>398.0</ele><time>2026-04-18T12:47:38.894Z</time></trkpt><trkpt lat="42.1225837" lon="11.9458144"><ele>398.0</ele><time>2026-04-18T12:47:39.895Z</time></trkpt><trkpt lat="42.1226214" lon="11.9456905"><ele>398.0</ele><time>2026-04-18T12:47:40.895Z</time></trkpt><trkpt lat="42.1226547" lon="11.9455452"><ele>398.0</ele><time>2026-04-18T12:47:41.895Z</time></trkpt><trkpt lat="42.1226931" lon="11.9454222"><ele>398.0</ele><time>2026-04-18T12:47:42.895Z</time></trkpt><trkpt lat="42.1227438" lon="11.9453171"><ele>398.0</ele><time>2026-04-18T12:47:43.894Z</time></trkpt><trkpt lat="42.1227614" lon="11.945233"><ele>398.0</ele><time>2026-04-18T12:47:44.894Z</time></trkpt><trkpt lat="42.1227968" lon="11.9451615"><ele>398.0</ele><time>2026-04-18T12:47:45.894Z</time></trkpt><trkpt lat="42.1228849" lon="11.945078"><ele>398.0</ele><time>2026-04-18T12:47:47.895Z</time></trkpt><trkpt lat="42.1229968" lon="11.945044"><ele>398.0</ele><time>2026-04-18T12:47:49.895Z</time></trkpt><trkpt lat="42.1231158" lon="11.9450156"><ele>398.0</ele><time>2026-04-18T12:47:51.895Z</time></trkpt><trkpt lat="42.1232312" lon="11.9450055"><ele>396.3333333333333</ele><time>2026-04-18T12:47:53.894Z</time></trkpt><trkpt lat="42.1233074" lon="11.9449763"><ele>394.66666666666663</ele><time>2026-04-18T12:47:55.896Z</time></trkpt><trkpt lat="42.1233458" lon="11.9448676"><ele>393.0</ele><time>2026-04-18T12:47:57.895Z</time></trkpt><trkpt lat="42.1233226" lon="11.9447595"><ele>391.33333333333337</ele><time>2026-04-18T12:47:59.894Z</time></trkpt><trkpt lat="42.1232812" lon="11.9446367"><ele>389.6666666666667</ele><time>2026-04-18T12:48:01.894Z</time></trkpt><trkpt lat="42.1232571" lon="11.9445248"><ele>388.0</ele><time>2026-04-18T12:48:02.896Z</time></trkpt><trkpt lat="42.1232427" lon="11.9444198"><ele>392.50000000000006</ele><time>2026-04-18T12:48:03.895Z</time></trkpt><trkpt lat="42.123225" lon="11.9443"><ele>397.0</ele><time>2026-04-18T12:48:04.894Z</time></trkpt><trkpt lat="42.1232131" lon="11.9441804"><ele>401.5</ele><time>2026-04-18T12:48:05.895Z</time></trkpt><trkpt lat="42.1232036" lon="11.9440841"><ele>406.0</ele><time>2026-04-18T12:48:06.895Z</time></trkpt><trkpt lat="42.1231911" lon="11.9439853"><ele>410.50000000000006</ele><time>2026-04-18T12:48:07.895Z</time></trkpt><trkpt lat="42.1231737" lon="11.9438783"><ele>415.0</ele><time>2026-04-18T12:48:08.895Z</time></trkpt><trkpt lat="42.1231376" lon="11.9437832"><ele>416.50000000000006</ele><time>2026-04-18T12:48:09.895Z</time></trkpt><trkpt lat="42.1231321" lon="11.9436594"><ele>418.0</ele><time>2026-04-18T12:48:11.895Z</time></trkpt><trkpt lat="42.1231486" lon="11.943536"><ele>419.5</ele><time>2026-04-18T12:48:13.895Z</time></trkpt><trkpt lat="42.123178" lon="11.9434502"><ele>421.0</ele><time>2026-04-18T12:48:15.895Z</time></trkpt><trkpt lat="42.1232477" lon="11.9433832"><ele>422.50000000000006</ele><time>2026-04-18T12:48:17.895Z</time></trkpt><trkpt lat="42.1233413" lon="11.9433146"><ele>424.0</ele><time>2026-04-18T12:48:19.895Z</time></trkpt><trkpt lat="42.1233988" lon="11.9432757"><ele>420.83333333333337</ele><time>2026-04-18T12:48:20.895Z</time></trkpt><trkpt lat="42.1234571" lon="11.943225"><ele>417.6666666666667</ele><time>2026-04-18T12:48:21.895Z</time></trkpt><trkpt lat="42.1235276" lon="11.943165"><ele>414.5</ele><time>2026-04-18T12:48:22.895Z</time></trkpt><trkpt lat="42.1235965" lon="11.9431123"><ele>411.33333333333337</ele><time>2026-04-18T12:48:23.894Z</time></trkpt><trkpt lat="42.1236716" lon="11.94307"><ele>408.1666666666667</ele><time>2026-04-18T12:48:24.895Z</time></trkpt><trkpt lat="42.1237415" lon="11.9430281"><ele>405.0</ele><time>2026-04-18T12:48:25.895Z</time></trkpt><trkpt lat="42.1238261" lon="11.9429572"><ele>405.0</ele><time>2026-04-18T12:48:27.895Z</time></trkpt><trkpt lat="42.1239053" lon="11.942832"><ele>405.0</ele><time>2026-04-18T12:48:29.894Z</time></trkpt><trkpt lat="42.1239315" lon="11.9427059"><ele>405.0</ele><time>2026-04-18T12:48:31.895Z</time></trkpt><trkpt lat="42.1239152" lon="11.9426235"><ele>405.0</ele><time>2026-04-18T12:48:33.895Z</time></trkpt><trkpt lat="42.1238781" lon="11.9425462"><ele>405.0</ele><time>2026-04-18T12:50:41.894Z</time></trkpt><trkpt lat="42.1238091" lon="11.9424442"><ele>408.2</ele><time>2026-04-18T12:50:43.894Z</time></trkpt><trkpt lat="42.1237614" lon="11.9423802"><ele>411.4</ele><time>2026-04-18T12:50:44.893Z</time></trkpt><trkpt lat="42.1236758" lon="11.9422842"><ele>414.6</ele><time>2026-04-18T12:50:46.893Z</time></trkpt><trkpt lat="42.1236386" lon="11.9421431"><ele>417.8</ele><time>2026-04-18T12:50:48.894Z</time></trkpt><trkpt lat="42.1236442" lon="11.9420109"><ele>421.0</ele><time>2026-04-18T12:50:50.893Z</time></trkpt><trkpt lat="42.1237309" lon="11.9418734"><ele>421.00000000000006</ele><time>2026-04-18T12:50:52.895Z</time></trkpt><trkpt lat="42.1238099" lon="11.9417822"><ele>421.0</ele><time>2026-04-18T12:50:54.894Z</time></trkpt><trkpt lat="42.1238909" lon="11.9417387"><ele>421.0</ele><time>2026-04-18T12:50:56.893Z</time></trkpt><trkpt lat="42.123959" lon="11.9416707"><ele>421.0</ele><time>2026-04-18T12:50:58.894Z</time></trkpt><trkpt lat="42.1239565" lon="11.9415609"><ele>421.00000000000006</ele><time>2026-04-18T12:50:59.894Z</time></trkpt><trkpt lat="42.1239484" lon="11.9414625"><ele>421.0</ele><time>2026-04-18T12:51:00.893Z</time></trkpt><trkpt lat="42.1239736" lon="11.941354"><ele>416.20000000000005</ele><time>2026-04-18T12:51:02.894Z</time></trkpt><trkpt lat="42.1240691" lon="11.941242"><ele>411.40000000000003</ele><time>2026-04-18T12:51:04.894Z</time></trkpt><trkpt lat="42.1241576" lon="11.9411519"><ele>406.6</ele><time>2026-04-18T12:51:06.894Z</time></trkpt><trkpt lat="42.1242309" lon="11.9411074"><ele>401.8</ele><time>2026-04-18T12:51:08.893Z</time></trkpt><trkpt lat="42.1243164" lon="11.9411118"><ele>397.0</ele><time>2026-04-18T12:51:10.894Z</time></trkpt><trkpt lat="42.1244359" lon="11.9411077"><ele>397.0</ele><time>2026-04-18T12:51:12.893Z</time></trkpt><trkpt lat="42.124525" lon="11.9411154"><ele>397.0</ele><time>2026-04-18T12:51:13.895Z</time></trkpt><trkpt lat="42.1245883" lon="11.9411334"><ele>397.0</ele><time>2026-04-18T12:51:14.895Z</time></trkpt><trkpt lat="42.1246621" lon="11.941157"><ele>397.0</ele><time>2026-04-18T12:51:15.895Z</time></trkpt><trkpt lat="42.1247843" lon="11.9412266"><ele>397.0</ele><time>2026-04-18T12:51:16.893Z</time></trkpt><trkpt lat="42.1248739" lon="11.941261"><ele>395.8</ele><time>2026-04-18T12:51:17.893Z</time></trkpt><trkpt lat="42.1249541" lon="11.9412789"><ele>394.6</ele><time>2026-04-18T12:51:18.893Z</time></trkpt><trkpt lat="42.1250195" lon="11.9412812"><ele>393.40000000000003</ele><time>2026-04-18T12:51:19.893Z</time></trkpt><trkpt lat="42.1251138" lon="11.9412049"><ele>392.20000000000005</ele><time>2026-04-18T12:51:21.893Z</time></trkpt><trkpt lat="42.1251408" lon="11.9410386"><ele>391.0</ele><time>2026-04-18T12:51:23.895Z</time></trkpt><trkpt lat="42.1251363" lon="11.9409323"><ele>392.83333333333337</ele><time>2026-04-18T12:51:24.893Z</time></trkpt><trkpt lat="42.1251291" lon="11.9408461"><ele>394.6666666666667</ele><time>2026-04-18T12:51:25.893Z</time></trkpt><trkpt lat="42.1251769" lon="11.9407209"><ele>396.5</ele><time>2026-04-18T12:51:27.893Z</time></trkpt><trkpt lat="42.1251571" lon="11.9406071"><ele>398.33333333333337</ele><time>2026-04-18T12:51:29.893Z</time></trkpt><trkpt lat="42.1251697" lon="11.9404794"><ele>400.1666666666667</ele><time>2026-04-18T12:51:31.893Z</time></trkpt><trkpt lat="42.125178" lon="11.9403877"><ele>402.0</ele><time>2026-04-18T12:51:32.893Z</time></trkpt><trkpt lat="42.125185" lon="11.9402791"><ele>402.0</ele><time>2026-04-18T12:51:33.894Z</time></trkpt><trkpt lat="42.1251956" lon="11.9401733"><ele>402.0</ele><time>2026-04-18T12:51:34.894Z</time></trkpt><trkpt lat="42.1252104" lon="11.9400895"><ele>402.0</ele><time>2026-04-18T12:51:35.894Z</time></trkpt><trkpt lat="42.1252789" lon="11.9399266"><ele>402.0</ele><time>2026-04-18T12:51:37.894Z</time></trkpt><trkpt lat="42.1253098" lon="11.9397691"><ele>402.0</ele><time>2026-04-18T12:51:39.893Z</time></trkpt><trkpt lat="42.1252777" lon="11.9396309"><ele>403.5</ele><time>2026-04-18T12:51:41.894Z</time></trkpt><trkpt lat="42.1252733" lon="11.9394847"><ele>405.0</ele><time>2026-04-18T12:51:43.894Z</time></trkpt><trkpt lat="42.1253032" lon="11.9394011"><ele>406.5</ele><time>2026-04-18T12:51:44.894Z</time></trkpt><trkpt lat="42.125348" lon="11.9393156"><ele>408.0</ele><time>2026-04-18T12:51:45.893Z</time></trkpt><trkpt lat="42.1254163" lon="11.9391824"><ele>409.5</ele><time>2026-04-18T12:51:47.894Z</time></trkpt><trkpt lat="42.1254548" lon="11.9391053"><ele>411.0</ele><time>2026-04-18T12:51:48.893Z</time></trkpt><trkpt lat="42.1254746" lon="11.9389838"><ele>411.1666666666667</ele><time>2026-04-18T12:51:50.894Z</time></trkpt><trkpt lat="42.125431" lon="11.9388484"><ele>411.33333333333337</ele><time>2026-04-18T12:51:52.895Z</time></trkpt><trkpt lat="42.1253709" lon="11.9387642"><ele>411.5</ele><time>2026-04-18T12:51:53.894Z</time></trkpt><trkpt lat="42.1253134" lon="11.9386815"><ele>411.6666666666667</ele><time>2026-04-18T12:51:54.893Z</time></trkpt><trkpt lat="42.125257" lon="11.9386087"><ele>411.83333333333337</ele><time>2026-04-18T12:51:55.893Z</time></trkpt><trkpt lat="42.1252004" lon="11.9385411"><ele>412.0</ele><time>2026-04-18T12:51:56.894Z</time></trkpt><trkpt lat="42.125121" lon="11.9384945"><ele>412.00000000000006</ele><time>2026-04-18T12:51:57.894Z</time></trkpt><trkpt lat="42.1250371" lon="11.9384037"><ele>412.0</ele><time>2026-04-18T12:51:59.894Z</time></trkpt><trkpt lat="42.1249663" lon="11.9382939"><ele>412.0</ele><time>2026-04-18T12:52:01.893Z</time></trkpt><trkpt lat="42.1249327" lon="11.938217"><ele>412.0</ele><time>2026-04-18T12:52:02.895Z</time></trkpt><trkpt lat="42.1249255" lon="11.938122"><ele>412.00000000000006</ele><time>2026-04-18T12:52:03.893Z</time></trkpt><trkpt lat="42.1249142" lon="11.9380316"><ele>412.0</ele><time>2026-04-18T12:52:04.893Z</time></trkpt><trkpt lat="42.1249256" lon="11.9379367"><ele>412.1666666666667</ele><time>2026-04-18T12:52:05.894Z</time></trkpt><trkpt lat="42.1249755" lon="11.9378689"><ele>412.33333333333337</ele><time>2026-04-18T12:52:06.893Z</time></trkpt><trkpt lat="42.1250478" lon="11.9378201"><ele>412.5</ele><time>2026-04-18T12:52:07.895Z</time></trkpt><trkpt lat="42.1251204" lon="11.9376993"><ele>412.66666666666663</ele><time>2026-04-18T12:52:09.894Z</time></trkpt><trkpt lat="42.1251477" lon="11.9375964"><ele>412.8333333333333</ele><time>2026-04-18T12:52:12.894Z</time></trkpt><trkpt lat="42.1251786" lon="11.9375185"><ele>413.0</ele><time>2026-04-18T12:52:14.893Z</time></trkpt><trkpt lat="42.1252045" lon="11.9374165"><ele>413.0</ele><time>2026-04-18T12:52:15.894Z</time></trkpt><trkpt lat="42.1252658" lon="11.9373141"><ele>413.0</ele><time>2026-04-18T12:52:16.893Z</time></trkpt><trkpt lat="42.1253034" lon="11.9372072"><ele>413.0</ele><time>2026-04-18T12:52:17.895Z</time></trkpt><trkpt lat="42.1253539" lon="11.9370678"><ele>413.0</ele><time>2026-04-18T12:52:18.895Z</time></trkpt><trkpt lat="42.1254025" lon="11.9369583"><ele>413.0</ele><time>2026-04-18T12:52:19.894Z</time></trkpt><trkpt lat="42.1254381" lon="11.9368798"><ele>412.99999999999994</ele><time>2026-04-18T12:52:20.893Z</time></trkpt><trkpt lat="42.125454" lon="11.9367847"><ele>413.0</ele><time>2026-04-18T12:52:21.893Z</time></trkpt><trkpt lat="42.1254701" lon="11.9366643"><ele>413.0</ele><time>2026-04-18T12:52:22.893Z</time></trkpt><trkpt lat="42.1254739" lon="11.9365222"><ele>413.0</ele><time>2026-04-18T12:52:23.894Z</time></trkpt><trkpt lat="42.125482" lon="11.9364102"><ele>412.99999999999994</ele><time>2026-04-18T12:52:24.893Z</time></trkpt><trkpt lat="42.1255032" lon="11.9363039"><ele>413.0</ele><time>2026-04-18T12:52:25.894Z</time></trkpt><trkpt lat="42.125548" lon="11.9361502"><ele>410.0</ele><time>2026-04-18T12:52:27.893Z</time></trkpt><trkpt lat="42.1256204" lon="11.9360547"><ele>407.0</ele><time>2026-04-18T12:52:29.893Z</time></trkpt><trkpt lat="42.125725" lon="11.9359527"><ele>404.0</ele><time>2026-04-18T12:52:31.894Z</time></trkpt><trkpt lat="42.1258042" lon="11.9357829"><ele>401.0</ele><time>2026-04-18T12:52:33.893Z</time></trkpt><trkpt lat="42.1258403" lon="11.935661"><ele>400.99999999999994</ele><time>2026-04-18T12:52:34.893Z</time></trkpt><trkpt lat="42.1258611" lon="11.9355573"><ele>401.0</ele><time>2026-04-18T12:52:35.893Z</time></trkpt><trkpt lat="42.1258585" lon="11.9354641"><ele>401.0</ele><time>2026-04-18T12:52:36.894Z</time></trkpt><trkpt lat="42.1258493" lon="11.9353648"><ele>401.0</ele><time>2026-04-18T12:52:37.895Z</time></trkpt><trkpt lat="42.1258166" lon="11.9352746"><ele>400.99999999999994</ele><time>2026-04-18T12:52:38.893Z</time></trkpt><trkpt lat="42.1257941" lon="11.935182"><ele>401.0</ele><time>2026-04-18T12:52:39.894Z</time></trkpt><trkpt lat="42.1257585" lon="11.9350566"><ele>405.3333333333333</ele><time>2026-04-18T12:52:40.893Z</time></trkpt><trkpt lat="42.1257272" lon="11.9349103"><ele>409.66666666666663</ele><time>2026-04-18T12:52:41.893Z</time></trkpt><trkpt lat="42.1256883" lon="11.9348004"><ele>414.0</ele><time>2026-04-18T12:52:42.893Z</time></trkpt><trkpt lat="42.1256544" lon="11.9347212"><ele>418.33333333333337</ele><time>2026-04-18T12:52:43.893Z</time></trkpt><trkpt lat="42.1256017" lon="11.9346446"><ele>422.6666666666667</ele><time>2026-04-18T12:52:44.893Z</time></trkpt><trkpt lat="42.1255371" lon="11.9345787"><ele>427.0</ele><time>2026-04-18T12:52:45.895Z</time></trkpt><trkpt lat="42.1254814" lon="11.9345241"><ele>427.0</ele><time>2026-04-18T12:52:46.893Z</time></trkpt><trkpt lat="42.1254422" lon="11.9344479"><ele>427.00000000000006</ele><time>2026-04-18T12:52:47.894Z</time></trkpt><trkpt lat="42.1254021" lon="11.9343392"><ele>427.00000000000006</ele><time>2026-04-18T12:52:49.893Z</time></trkpt><trkpt lat="42.1254347" lon="11.9342509"><ele>427.0</ele><time>2026-04-18T12:52:51.893Z</time></trkpt><trkpt lat="42.1255276" lon="11.9341022"><ele>427.0</ele><time>2026-04-18T12:52:53.894Z</time></trkpt><trkpt lat="42.125591" lon="11.9340099"><ele>424.8</ele><time>2026-04-18T12:52:54.893Z</time></trkpt><trkpt lat="42.1256364" lon="11.9339342"><ele>422.6</ele><time>2026-04-18T12:52:55.894Z</time></trkpt><trkpt lat="42.1256826" lon="11.9338544"><ele>420.40000000000003</ele><time>2026-04-18T12:52:56.893Z</time></trkpt><trkpt lat="42.1256406" lon="11.9336661"><ele>418.20000000000005</ele><time>2026-04-18T12:52:58.895Z</time></trkpt><trkpt lat="42.1256093" lon="11.9335292"><ele>416.0</ele><time>2026-04-18T12:53:00.894Z</time></trkpt><trkpt lat="42.1255762" lon="11.9334469"><ele>415.0</ele><time>2026-04-18T12:53:01.894Z</time></trkpt><trkpt lat="42.1255282" lon="11.9333336"><ele>414.0</ele><time>2026-04-18T12:53:02.894Z</time></trkpt><trkpt lat="42.1254593" lon="11.9331853"><ele>413.0</ele><time>2026-04-18T12:53:03.894Z</time></trkpt><trkpt lat="42.1253994" lon="11.933075"><ele>412.0</ele><time>2026-04-18T12:53:04.894Z</time></trkpt><trkpt lat="42.1253594" lon="11.9329898"><ele>411.0</ele><time>2026-04-18T12:53:05.893Z</time></trkpt><trkpt lat="42.1253141" lon="11.9328677"><ele>411.0</ele><time>2026-04-18T12:53:07.893Z</time></trkpt><trkpt lat="42.1252907" lon="11.9327436"><ele>411.0</ele><time>2026-04-18T12:53:09.894Z</time></trkpt><trkpt lat="42.1252727" lon="11.9326495"><ele>411.0</ele><time>2026-04-18T12:53:11.893Z</time></trkpt><trkpt lat="42.1252139" lon="11.9325714"><ele>411.0</ele><time>2026-04-18T12:53:13.894Z</time></trkpt><trkpt lat="42.1251507" lon="11.9324928"><ele>411.0</ele><time>2026-04-18T12:53:15.894Z</time></trkpt><trkpt lat="42.1251104" lon="11.932424"><ele>411.0</ele><time>2026-04-18T12:53:18.893Z</time></trkpt><trkpt lat="42.1250579" lon="11.932329"><ele>410.0</ele><time>2026-04-18T12:53:23.894Z</time></trkpt><trkpt lat="42.125067" lon="11.9322295"><ele>409.0</ele><time>2026-04-18T12:53:25.894Z</time></trkpt><trkpt lat="42.1251316" lon="11.9321252"><ele>408.0</ele><time>2026-04-18T12:53:27.893Z</time></trkpt><trkpt lat="42.1251907" lon="11.9320109"><ele>407.0</ele><time>2026-04-18T12:53:29.894Z</time></trkpt><trkpt lat="42.1252415" lon="11.9319056"><ele>406.0</ele><time>2026-04-18T12:53:31.893Z</time></trkpt><trkpt lat="42.1252902" lon="11.9317635"><ele>406.6666666666667</ele><time>2026-04-18T12:53:33.893Z</time></trkpt><trkpt lat="42.1252976" lon="11.9316128"><ele>407.33333333333337</ele><time>2026-04-18T12:53:34.894Z</time></trkpt><trkpt lat="42.1253236" lon="11.9315293"><ele>408.0</ele><time>2026-04-18T12:53:35.893Z</time></trkpt><trkpt lat="42.1253583" lon="11.9314364"><ele>408.66666666666663</ele><time>2026-04-18T12:53:36.894Z</time></trkpt><trkpt lat="42.1253955" lon="11.931348"><ele>409.3333333333333</ele><time>2026-04-18T12:53:37.894Z</time></trkpt><trkpt lat="42.1254159" lon="11.9312155"><ele>410.0</ele><time>2026-04-18T12:53:39.894Z</time></trkpt><trkpt lat="42.1253895" lon="11.9310595"><ele>410.0</ele><time>2026-04-18T12:53:41.894Z</time></trkpt><trkpt lat="42.1253864" lon="11.9309429"><ele>410.0</ele><time>2026-04-18T12:53:43.894Z</time></trkpt><trkpt lat="42.1254093" lon="11.9307702"><ele>410.0</ele><time>2026-04-18T12:53:45.893Z</time></trkpt><trkpt lat="42.1254395" lon="11.9306619"><ele>410.0</ele><time>2026-04-18T12:53:46.894Z</time></trkpt><trkpt lat="42.1254765" lon="11.9305438"><ele>410.0</ele><time>2026-04-18T12:53:47.893Z</time></trkpt><trkpt lat="42.1255143" lon="11.9304546"><ele>411.4</ele><time>2026-04-18T12:53:48.894Z</time></trkpt><trkpt lat="42.1255617" lon="11.930366"><ele>412.8</ele><time>2026-04-18T12:53:49.895Z</time></trkpt><trkpt lat="42.125612" lon="11.930289"><ele>414.20000000000005</ele><time>2026-04-18T12:53:50.894Z</time></trkpt><trkpt lat="42.1256579" lon="11.930212"><ele>415.6</ele><time>2026-04-18T12:53:51.894Z</time></trkpt><trkpt lat="42.1257037" lon="11.9300812"><ele>417.0</ele><time>2026-04-18T12:53:53.894Z</time></trkpt><trkpt lat="42.1257016" lon="11.9299217"><ele>419.0</ele><time>2026-04-18T12:53:55.894Z</time></trkpt><trkpt lat="42.1256963" lon="11.9298312"><ele>421.0</ele><time>2026-04-18T12:53:56.895Z</time></trkpt><trkpt lat="42.1257061" lon="11.9297422"><ele>423.0</ele><time>2026-04-18T12:53:57.893Z</time></trkpt><trkpt lat="42.1257354" lon="11.9296431"><ele>425.0</ele><time>2026-04-18T12:53:58.894Z</time></trkpt><trkpt lat="42.1257473" lon="11.9295341"><ele>427.0</ele><time>2026-04-18T12:53:59.894Z</time></trkpt><trkpt lat="42.1257478" lon="11.9294124"><ele>429.0</ele><time>2026-04-18T12:54:00.895Z</time></trkpt><trkpt lat="42.1257557" lon="11.9293086"><ele>430.5</ele><time>2026-04-18T12:54:01.894Z</time></trkpt><trkpt lat="42.1257369" lon="11.9291539"><ele>432.0</ele><time>2026-04-18T12:54:03.894Z</time></trkpt><trkpt lat="42.1256752" lon="11.9290159"><ele>433.5</ele><time>2026-04-18T12:54:05.893Z</time></trkpt><trkpt lat="42.1255702" lon="11.9289028"><ele>435.0</ele><time>2026-04-18T12:54:07.894Z</time></trkpt><trkpt lat="42.1254958" lon="11.9288291"><ele>435.0</ele><time>2026-04-18T12:54:09.894Z</time></trkpt><trkpt lat="42.1254523" lon="11.9287525"><ele>435.0</ele><time>2026-04-18T12:54:11.894Z</time></trkpt><trkpt lat="42.1254412" lon="11.9285964"><ele>435.0</ele><time>2026-04-18T12:54:13.893Z</time></trkpt><trkpt lat="42.1254302" lon="11.9284924"><ele>435.0</ele><time>2026-04-18T12:54:14.894Z</time></trkpt><trkpt lat="42.1254206" lon="11.9283223"><ele>435.0</ele><time>2026-04-18T12:54:16.894Z</time></trkpt><trkpt lat="42.1254091" lon="11.9282057"><ele>433.6</ele><time>2026-04-18T12:54:18.894Z</time></trkpt><trkpt lat="42.1253297" lon="11.9280859"><ele>432.2</ele><time>2026-04-18T12:54:20.895Z</time></trkpt><trkpt lat="42.1252634" lon="11.9280391"><ele>430.79999999999995</ele><time>2026-04-18T12:54:21.894Z</time></trkpt><trkpt lat="42.1251964" lon="11.9279939"><ele>429.4</ele><time>2026-04-18T12:54:22.893Z</time></trkpt><trkpt lat="42.1250847" lon="11.9279065"><ele>428.0</ele><time>2026-04-18T12:54:24.895Z</time></trkpt><trkpt lat="42.1250212" lon="11.9277901"><ele>428.0</ele><time>2026-04-18T12:54:26.893Z</time></trkpt><trkpt lat="42.1249827" lon="11.9276633"><ele>427.99999999999994</ele><time>2026-04-18T12:54:28.895Z</time></trkpt><trkpt lat="42.124955" lon="11.9275638"><ele>427.99999999999994</ele><time>2026-04-18T12:54:30.893Z</time></trkpt><trkpt lat="42.1249127" lon="11.9274497"><ele>428.0</ele><time>2026-04-18T12:54:33.895Z</time></trkpt><trkpt lat="42.1248225" lon="11.927403"><ele>428.0</ele><time>2026-04-18T12:54:35.894Z</time></trkpt><trkpt lat="42.1247099" lon="11.9274044"><ele>426.8333333333333</ele><time>2026-04-18T12:54:37.894Z</time></trkpt><trkpt lat="42.1246453" lon="11.9274235"><ele>425.66666666666663</ele><time>2026-04-18T12:54:38.894Z</time></trkpt><trkpt lat="42.1245839" lon="11.9274485"><ele>424.5</ele><time>2026-04-18T12:54:39.894Z</time></trkpt><trkpt lat="42.1245266" lon="11.9274873"><ele>423.33333333333337</ele><time>2026-04-18T12:54:40.893Z</time></trkpt><trkpt lat="42.1244358" lon="11.9275598"><ele>422.1666666666667</ele><time>2026-04-18T12:54:42.893Z</time></trkpt><trkpt lat="42.124354" lon="11.927603"><ele>421.0</ele><time>2026-04-18T12:54:44.895Z</time></trkpt><trkpt lat="42.1242406" lon="11.9276997"><ele>423.83333333333337</ele><time>2026-04-18T12:54:46.895Z</time></trkpt><trkpt lat="42.1241871" lon="11.9277493"><ele>426.6666666666667</ele><time>2026-04-18T12:54:47.893Z</time></trkpt><trkpt lat="42.1241052" lon="11.9278029"><ele>429.5</ele><time>2026-04-18T12:54:49.894Z</time></trkpt><trkpt lat="42.1240419" lon="11.9278172"><ele>432.33333333333337</ele><time>2026-04-18T12:54:51.893Z</time></trkpt><trkpt lat="42.1239782" lon="11.9277922"><ele>435.1666666666667</ele><time>2026-04-18T12:54:54.894Z</time></trkpt><trkpt lat="42.1238916" lon="11.9278033"><ele>438.0</ele><time>2026-04-18T12:55:07.894Z</time></trkpt><trkpt lat="42.1238169" lon="11.9277435"><ele>438.0</ele><time>2026-04-18T12:55:10.894Z</time></trkpt><trkpt lat="42.1237477" lon="11.9276745"><ele>438.0</ele><time>2026-04-18T12:55:12.894Z</time></trkpt><trkpt lat="42.1236875" lon="11.9276329"><ele>438.0</ele><time>2026-04-18T12:55:14.893Z</time></trkpt><trkpt lat="42.1236178" lon="11.9275736"><ele>438.0</ele><time>2026-04-18T12:55:16.893Z</time></trkpt><trkpt lat="42.1235392" lon="11.9275431"><ele>438.0</ele><time>2026-04-18T12:55:18.894Z</time></trkpt><trkpt lat="42.1234721" lon="11.9274819"><ele>438.0</ele><time>2026-04-18T12:55:20.893Z</time></trkpt><trkpt lat="42.1233976" lon="11.9273826"><ele>438.0</ele><time>2026-04-18T12:55:22.895Z</time></trkpt><trkpt lat="42.1233649" lon="11.9272533"><ele>437.99999999999994</ele><time>2026-04-18T12:55:24.893Z</time></trkpt><trkpt lat="42.1233642" lon="11.9270928"><ele>437.99999999999994</ele><time>2026-04-18T12:55:26.894Z</time></trkpt><trkpt lat="42.1233482" lon="11.9270076"><ele>438.0</ele><time>2026-04-18T12:55:27.893Z</time></trkpt><trkpt lat="42.123268" lon="11.9268764"><ele>438.0</ele><time>2026-04-18T12:55:29.895Z</time></trkpt><trkpt lat="42.1232162" lon="11.9268166"><ele>442.79999999999995</ele><time>2026-04-18T12:55:30.893Z</time></trkpt><trkpt lat="42.1231557" lon="11.9267747"><ele>447.59999999999997</ele><time>2026-04-18T12:55:31.893Z</time></trkpt><trkpt lat="42.1230939" lon="11.9267537"><ele>452.40000000000003</ele><time>2026-04-18T12:55:32.894Z</time></trkpt><trkpt lat="42.1229683" lon="11.9267475"><ele>457.20000000000005</ele><time>2026-04-18T12:55:34.895Z</time></trkpt><trkpt lat="42.1228339" lon="11.926756"><ele>462.0</ele><time>2026-04-18T12:55:36.894Z</time></trkpt><trkpt lat="42.122766" lon="11.9267653"><ele>462.0</ele><time>2026-04-18T12:55:37.893Z</time></trkpt><trkpt lat="42.1226426" lon="11.9267517"><ele>462.00000000000006</ele><time>2026-04-18T12:55:39.894Z</time></trkpt><trkpt lat="42.1225345" lon="11.926676"><ele>462.00000000000006</ele><time>2026-04-18T12:55:41.893Z</time></trkpt><trkpt lat="42.1224505" lon="11.9266293"><ele>462.0</ele><time>2026-04-18T12:55:43.894Z</time></trkpt><trkpt lat="42.1223559" lon="11.9266374"><ele>462.0</ele><time>2026-04-18T12:55:45.893Z</time></trkpt><trkpt lat="42.1222724" lon="11.9267191"><ele>459.25</ele><time>2026-04-18T12:55:47.893Z</time></trkpt><trkpt lat="42.1221674" lon="11.9267894"><ele>456.5</ele><time>2026-04-18T12:55:49.893Z</time></trkpt><trkpt lat="42.1220621" lon="11.9268213"><ele>453.75</ele><time>2026-04-18T12:55:51.893Z</time></trkpt><trkpt lat="42.1219609" lon="11.9268724"><ele>451.0</ele><time>2026-04-18T12:55:53.894Z</time></trkpt><trkpt lat="42.1218552" lon="11.9269539"><ele>451.00000000000006</ele><time>2026-04-18T12:55:55.894Z</time></trkpt><trkpt lat="42.1217852" lon="11.9269988"><ele>451.0</ele><time>2026-04-18T12:55:56.895Z</time></trkpt><trkpt lat="42.1217277" lon="11.9270511"><ele>451.0</ele><time>2026-04-18T12:55:57.894Z</time></trkpt><trkpt lat="42.1216644" lon="11.9271244"><ele>451.0</ele><time>2026-04-18T12:55:58.894Z</time></trkpt><trkpt lat="42.121593" lon="11.927222"><ele>451.00000000000006</ele><time>2026-04-18T12:55:59.893Z</time></trkpt><trkpt lat="42.121525" lon="11.9273081"><ele>451.0</ele><time>2026-04-18T12:56:00.895Z</time></trkpt><trkpt lat="42.1214516" lon="11.9274022"><ele>451.0</ele><time>2026-04-18T12:56:01.893Z</time></trkpt><trkpt lat="42.1213801" lon="11.9274834"><ele>451.0</ele><time>2026-04-18T12:56:02.893Z</time></trkpt><trkpt lat="42.1213234" lon="11.9275711"><ele>451.0</ele><time>2026-04-18T12:56:03.894Z</time></trkpt><trkpt lat="42.1212717" lon="11.927658"><ele>451.0</ele><time>2026-04-18T12:56:04.893Z</time></trkpt><trkpt lat="42.1212227" lon="11.9277342"><ele>451.0</ele><time>2026-04-18T12:56:05.895Z</time></trkpt><trkpt lat="42.1211274" lon="11.9278464"><ele>451.00000000000006</ele><time>2026-04-18T12:56:07.894Z</time></trkpt><trkpt lat="42.121064" lon="11.9278931"><ele>451.0</ele><time>2026-04-18T12:56:08.895Z</time></trkpt><trkpt lat="42.1209898" lon="11.9279449"><ele>451.0</ele><time>2026-04-18T12:56:09.895Z</time></trkpt><trkpt lat="42.1209055" lon="11.9279948"><ele>451.0</ele><time>2026-04-18T12:56:10.894Z</time></trkpt><trkpt lat="42.1208348" lon="11.9280277"><ele>451.00000000000006</ele><time>2026-04-18T12:56:11.893Z</time></trkpt><trkpt lat="42.1207708" lon="11.9280593"><ele>451.0</ele><time>2026-04-18T12:56:12.894Z</time></trkpt><trkpt lat="42.1207117" lon="11.928094"><ele>452.1666666666667</ele><time>2026-04-18T12:56:13.893Z</time></trkpt><trkpt lat="42.1206546" lon="11.9281365"><ele>453.33333333333337</ele><time>2026-04-18T12:56:14.893Z</time></trkpt><trkpt lat="42.1205555" lon="11.9281629"><ele>454.5</ele><time>2026-04-18T12:56:16.893Z</time></trkpt><trkpt lat="42.1205115" lon="11.9280992"><ele>455.66666666666663</ele><time>2026-04-18T12:56:18.894Z</time></trkpt><trkpt lat="42.1205199" lon="11.9279894"><ele>456.8333333333333</ele><time>2026-04-18T12:56:20.894Z</time></trkpt><trkpt lat="42.1205349" lon="11.9279025"><ele>458.0</ele><time>2026-04-18T12:56:21.895Z</time></trkpt><trkpt lat="42.120555" lon="11.9278076"><ele>457.99999999999994</ele><time>2026-04-18T12:56:22.893Z</time></trkpt><trkpt lat="42.1205784" lon="11.9277258"><ele>458.0</ele><time>2026-04-18T12:56:23.893Z</time></trkpt><trkpt lat="42.1206349" lon="11.9275856"><ele>458.0</ele><time>2026-04-18T12:56:25.894Z</time></trkpt><trkpt lat="42.1206563" lon="11.9275056"><ele>458.0</ele><time>2026-04-18T12:56:26.894Z</time></trkpt><trkpt lat="42.1206702" lon="11.9274143"><ele>457.99999999999994</ele><time>2026-04-18T12:56:27.893Z</time></trkpt><trkpt lat="42.1206733" lon="11.9272993"><ele>458.0</ele><time>2026-04-18T12:56:28.895Z</time></trkpt><trkpt lat="42.1206619" lon="11.9271839"><ele>457.8333333333333</ele><time>2026-04-18T12:56:29.893Z</time></trkpt><trkpt lat="42.1206422" lon="11.9270734"><ele>457.66666666666663</ele><time>2026-04-18T12:56:30.893Z</time></trkpt><trkpt lat="42.1206169" lon="11.9269919"><ele>457.5</ele><time>2026-04-18T12:56:31.895Z</time></trkpt><trkpt lat="42.1205944" lon="11.9268953"><ele>457.33333333333337</ele><time>2026-04-18T12:56:32.893Z</time></trkpt><trkpt lat="42.1205749" lon="11.9267983"><ele>457.1666666666667</ele><time>2026-04-18T12:56:33.893Z</time></trkpt><trkpt lat="42.1205373" lon="11.9266365"><ele>457.0</ele><time>2026-04-18T12:56:35.894Z</time></trkpt><trkpt lat="42.1205155" lon="11.9265549"><ele>457.00000000000006</ele><time>2026-04-18T12:56:36.893Z</time></trkpt><trkpt lat="42.1204921" lon="11.9264711"><ele>457.0</ele><time>2026-04-18T12:56:37.894Z</time></trkpt><trkpt lat="42.1204639" lon="11.9263723"><ele>457.0</ele><time>2026-04-18T12:56:38.894Z</time></trkpt><trkpt lat="42.1204307" lon="11.9262646"><ele>457.0</ele><time>2026-04-18T12:56:39.895Z</time></trkpt><trkpt lat="42.120397" lon="11.926156"><ele>457.00000000000006</ele><time>2026-04-18T12:56:40.894Z</time></trkpt><trkpt lat="42.1203616" lon="11.9260573"><ele>457.0</ele><time>2026-04-18T12:56:41.893Z</time></trkpt><trkpt lat="42.1203357" lon="11.9259701"><ele>456.00000000000006</ele><time>2026-04-18T12:56:42.893Z</time></trkpt><trkpt lat="42.1203019" lon="11.9258914"><ele>455.0</ele><time>2026-04-18T12:56:43.894Z</time></trkpt><trkpt lat="42.1202448" lon="11.925757"><ele>454.0</ele><time>2026-04-18T12:56:45.894Z</time></trkpt><trkpt lat="42.1201894" lon="11.9256323"><ele>453.0</ele><time>2026-04-18T12:56:47.894Z</time></trkpt><trkpt lat="42.1201594" lon="11.9255568"><ele>452.00000000000006</ele><time>2026-04-18T12:56:50.893Z</time></trkpt><trkpt lat="42.1201273" lon="11.9254662"><ele>451.0</ele><time>2026-04-18T12:57:03.893Z</time></trkpt><trkpt lat="42.1201044" lon="11.9253834"><ele>451.00000000000006</ele><time>2026-04-18T12:57:06.895Z</time></trkpt><trkpt lat="42.1200479" lon="11.9253176"><ele>451.0</ele><time>2026-04-18T12:59:18.892Z</time></trkpt><trkpt lat="42.1199787" lon="11.925302"><ele>451.0</ele><time>2026-04-18T12:59:22.893Z</time></trkpt><trkpt lat="42.1199351" lon="11.9253764"><ele>451.0</ele><time>2026-04-18T12:59:24.893Z</time></trkpt><trkpt lat="42.1198722" lon="11.9255164"><ele>451.00000000000006</ele><time>2026-04-18T12:59:26.892Z</time></trkpt><trkpt lat="42.11983" lon="11.9255837"><ele>451.0</ele><time>2026-04-18T12:59:27.892Z</time></trkpt><trkpt lat="42.1197799" lon="11.9256528"><ele>450.83333333333337</ele><time>2026-04-18T12:59:28.892Z</time></trkpt><trkpt lat="42.1197287" lon="11.9257274"><ele>450.6666666666667</ele><time>2026-04-18T12:59:29.892Z</time></trkpt><trkpt lat="42.1196782" lon="11.9258066"><ele>450.5</ele><time>2026-04-18T12:59:30.892Z</time></trkpt><trkpt lat="42.1196298" lon="11.9258858"><ele>450.33333333333337</ele><time>2026-04-18T12:59:31.893Z</time></trkpt><trkpt lat="42.1195839" lon="11.9259566"><ele>450.1666666666667</ele><time>2026-04-18T12:59:32.892Z</time></trkpt><trkpt lat="42.1195419" lon="11.9260232"><ele>450.0</ele><time>2026-04-18T12:59:33.893Z</time></trkpt><trkpt lat="42.1194697" lon="11.9261431"><ele>449.8</ele><time>2026-04-18T12:59:35.894Z</time></trkpt><trkpt lat="42.1193896" lon="11.9262823"><ele>449.6</ele><time>2026-04-18T12:59:37.893Z</time></trkpt><trkpt lat="42.1193381" lon="11.9263659"><ele>449.4</ele><time>2026-04-18T12:59:38.892Z</time></trkpt><trkpt lat="42.1192821" lon="11.9264571"><ele>449.2</ele><time>2026-04-18T12:59:39.892Z</time></trkpt><trkpt lat="42.1192203" lon="11.9265526"><ele>449.0</ele><time>2026-04-18T12:59:40.892Z</time></trkpt><trkpt lat="42.1191603" lon="11.9266329"><ele>448.99999999999994</ele><time>2026-04-18T12:59:41.892Z</time></trkpt><trkpt lat="42.1191018" lon="11.9267054"><ele>449.0</ele><time>2026-04-18T12:59:42.892Z</time></trkpt><trkpt lat="42.119034" lon="11.9267823"><ele>449.0</ele><time>2026-04-18T12:59:43.892Z</time></trkpt><trkpt lat="42.1189628" lon="11.926856"><ele>449.0</ele><time>2026-04-18T12:59:44.893Z</time></trkpt><trkpt lat="42.1188918" lon="11.9269239"><ele>448.99999999999994</ele><time>2026-04-18T12:59:45.894Z</time></trkpt><trkpt lat="42.1188256" lon="11.9269831"><ele>449.0</ele><time>2026-04-18T12:59:46.893Z</time></trkpt><trkpt lat="42.1187652" lon="11.9270305"><ele>448.2</ele><time>2026-04-18T12:59:47.892Z</time></trkpt><trkpt lat="42.1187094" lon="11.9270706"><ele>447.4</ele><time>2026-04-18T12:59:48.892Z</time></trkpt><trkpt lat="42.1186142" lon="11.9270878"><ele>446.6</ele><time>2026-04-18T12:59:50.893Z</time></trkpt><trkpt lat="42.1185034" lon="11.9270208"><ele>445.8</ele><time>2026-04-18T12:59:52.892Z</time></trkpt><trkpt lat="42.1184318" lon="11.9269488"><ele>445.0</ele><time>2026-04-18T12:59:53.894Z</time></trkpt><trkpt lat="42.1183355" lon="11.9268631"><ele>445.0</ele><time>2026-04-18T12:59:54.892Z</time></trkpt><trkpt lat="42.1182603" lon="11.9267883"><ele>445.0</ele><time>2026-04-18T12:59:55.893Z</time></trkpt><trkpt lat="42.1181864" lon="11.926699"><ele>445.0</ele><time>2026-04-18T12:59:56.893Z</time></trkpt><trkpt lat="42.1181118" lon="11.9265861"><ele>445.0</ele><time>2026-04-18T12:59:57.893Z</time></trkpt><trkpt lat="42.1180452" lon="11.9264855"><ele>445.0</ele><time>2026-04-18T12:59:58.892Z</time></trkpt><trkpt lat="42.1179978" lon="11.9264029"><ele>444.33333333333337</ele><time>2026-04-18T12:59:59.893Z</time></trkpt><trkpt lat="42.1179574" lon="11.9263147"><ele>443.6666666666667</ele><time>2026-04-18T13:00:00.892Z</time></trkpt><trkpt lat="42.1179216" lon="11.926234"><ele>443.0</ele><time>2026-04-18T13:00:01.893Z</time></trkpt><trkpt lat="42.117894" lon="11.9261563"><ele>442.33333333333337</ele><time>2026-04-18T13:00:02.894Z</time></trkpt><trkpt lat="42.1178534" lon="11.9260112"><ele>441.6666666666667</ele><time>2026-04-18T13:00:04.893Z</time></trkpt><trkpt lat="42.117825" lon="11.9258834"><ele>441.0</ele><time>2026-04-18T13:00:06.893Z</time></trkpt><trkpt lat="42.1178156" lon="11.9257447"><ele>439.6666666666667</ele><time>2026-04-18T13:00:08.892Z</time></trkpt><trkpt lat="42.117801" lon="11.9255976"><ele>438.33333333333337</ele><time>2026-04-18T13:00:10.892Z</time></trkpt><trkpt lat="42.1177666" lon="11.9254452"><ele>437.0</ele><time>2026-04-18T13:00:12.893Z</time></trkpt><trkpt lat="42.1177321" lon="11.9253596"><ele>435.6666666666667</ele><time>2026-04-18T13:00:13.893Z</time></trkpt><trkpt lat="42.1176892" lon="11.925283"><ele>434.33333333333337</ele><time>2026-04-18T13:00:14.893Z</time></trkpt><trkpt lat="42.1176366" lon="11.9252104"><ele>433.0</ele><time>2026-04-18T13:00:15.893Z</time></trkpt><trkpt lat="42.1175764" lon="11.9251477"><ele>432.99999999999994</ele><time>2026-04-18T13:00:16.894Z</time></trkpt><trkpt lat="42.1175146" lon="11.9250913"><ele>433.0</ele><time>2026-04-18T13:00:17.893Z</time></trkpt><trkpt lat="42.1174475" lon="11.9250562"><ele>433.0</ele><time>2026-04-18T13:00:18.893Z</time></trkpt><trkpt lat="42.1173844" lon="11.9250465"><ele>433.0</ele><time>2026-04-18T13:00:19.894Z</time></trkpt><trkpt lat="42.1173189" lon="11.9250596"><ele>433.0</ele><time>2026-04-18T13:00:20.894Z</time></trkpt><trkpt lat="42.117255" lon="11.9250925"><ele>432.99999999999994</ele><time>2026-04-18T13:00:21.894Z</time></trkpt><trkpt lat="42.1171806" lon="11.9251337"><ele>433.0</ele><time>2026-04-18T13:00:22.892Z</time></trkpt><trkpt lat="42.1171172" lon="11.9251545"><ele>432.79999999999995</ele><time>2026-04-18T13:00:23.893Z</time></trkpt><trkpt lat="42.1170006" lon="11.9251184"><ele>432.59999999999997</ele><time>2026-04-18T13:00:25.893Z</time></trkpt><trkpt lat="42.1169361" lon="11.9250522"><ele>432.40000000000003</ele><time>2026-04-18T13:00:26.893Z</time></trkpt><trkpt lat="42.1168515" lon="11.9249458"><ele>432.20000000000005</ele><time>2026-04-18T13:00:27.893Z</time></trkpt><trkpt lat="42.1167651" lon="11.924834"><ele>432.0</ele><time>2026-04-18T13:00:28.893Z</time></trkpt><trkpt lat="42.1166835" lon="11.9247351"><ele>430.3333333333333</ele><time>2026-04-18T13:00:29.893Z</time></trkpt><trkpt lat="42.1166118" lon="11.9246484"><ele>428.66666666666663</ele><time>2026-04-18T13:00:30.892Z</time></trkpt><trkpt lat="42.1165458" lon="11.9245672"><ele>427.0</ele><time>2026-04-18T13:00:31.893Z</time></trkpt><trkpt lat="42.1164963" lon="11.9244881"><ele>425.3333333333333</ele><time>2026-04-18T13:00:32.892Z</time></trkpt><trkpt lat="42.1164576" lon="11.9243903"><ele>423.66666666666663</ele><time>2026-04-18T13:00:33.893Z</time></trkpt><trkpt lat="42.1164242" lon="11.9242651"><ele>422.0</ele><time>2026-04-18T13:00:34.893Z</time></trkpt><trkpt lat="42.1163829" lon="11.924117"><ele>421.0</ele><time>2026-04-18T13:00:35.893Z</time></trkpt><trkpt lat="42.1163682" lon="11.9239769"><ele>420.0</ele><time>2026-04-18T13:00:36.892Z</time></trkpt><trkpt lat="42.1163661" lon="11.9238313"><ele>419.0</ele><time>2026-04-18T13:00:37.894Z</time></trkpt><trkpt lat="42.116383" lon="11.9237045"><ele>418.0</ele><time>2026-04-18T13:00:38.894Z</time></trkpt><trkpt lat="42.1164183" lon="11.9235875"><ele>417.0</ele><time>2026-04-18T13:00:39.893Z</time></trkpt><trkpt lat="42.1164571" lon="11.9234706"><ele>417.6</ele><time>2026-04-18T13:00:40.892Z</time></trkpt><trkpt lat="42.1164986" lon="11.9233701"><ele>418.20000000000005</ele><time>2026-04-18T13:00:41.892Z</time></trkpt><trkpt lat="42.1165519" lon="11.9232608"><ele>418.8</ele><time>2026-04-18T13:00:42.892Z</time></trkpt><trkpt lat="42.1166049" lon="11.9231483"><ele>419.4</ele><time>2026-04-18T13:00:43.893Z</time></trkpt><trkpt lat="42.1166585" lon="11.9230435"><ele>420.0</ele><time>2026-04-18T13:00:44.893Z</time></trkpt><trkpt lat="42.1167072" lon="11.9229331"><ele>420.4</ele><time>2026-04-18T13:00:45.892Z</time></trkpt><trkpt lat="42.1167434" lon="11.9228093"><ele>420.8</ele><time>2026-04-18T13:00:46.892Z</time></trkpt><trkpt lat="42.1167755" lon="11.9226681"><ele>421.20000000000005</ele><time>2026-04-18T13:00:47.894Z</time></trkpt><trkpt lat="42.1168028" lon="11.9224972"><ele>421.6</ele><time>2026-04-18T13:00:48.893Z</time></trkpt><trkpt lat="42.1168381" lon="11.9223569"><ele>422.0</ele><time>2026-04-18T13:00:49.894Z</time></trkpt><trkpt lat="42.1168702" lon="11.9222282"><ele>423.99999999999994</ele><time>2026-04-18T13:00:50.892Z</time></trkpt><trkpt lat="42.1168919" lon="11.9221281"><ele>426.0</ele><time>2026-04-18T13:00:51.893Z</time></trkpt><trkpt lat="42.116889" lon="11.9219771"><ele>428.0</ele><time>2026-04-18T13:00:53.893Z</time></trkpt><trkpt lat="42.1168639" lon="11.9218936"><ele>430.0</ele><time>2026-04-18T13:00:54.893Z</time></trkpt><trkpt lat="42.1168233" lon="11.9218045"><ele>431.99999999999994</ele><time>2026-04-18T13:00:55.893Z</time></trkpt><trkpt lat="42.1167679" lon="11.9217021"><ele>434.0</ele><time>2026-04-18T13:00:56.892Z</time></trkpt><trkpt lat="42.1167033" lon="11.9215786"><ele>434.2</ele><time>2026-04-18T13:00:57.893Z</time></trkpt><trkpt lat="42.1166443" lon="11.9214383"><ele>434.4</ele><time>2026-04-18T13:00:58.892Z</time></trkpt><trkpt lat="42.1166049" lon="11.9213214"><ele>434.6</ele><time>2026-04-18T13:00:59.893Z</time></trkpt><trkpt lat="42.1165638" lon="11.9212087"><ele>434.8</ele><time>2026-04-18T13:01:00.893Z</time></trkpt><trkpt lat="42.1165406" lon="11.9210973"><ele>435.0</ele><time>2026-04-18T13:01:01.893Z</time></trkpt><trkpt lat="42.1165367" lon="11.920966"><ele>435.0</ele><time>2026-04-18T13:01:02.892Z</time></trkpt><trkpt lat="42.1165428" lon="11.9208149"><ele>435.0</ele><time>2026-04-18T13:01:03.893Z</time></trkpt><trkpt lat="42.1165526" lon="11.9206327"><ele>435.0</ele><time>2026-04-18T13:01:04.893Z</time></trkpt><trkpt lat="42.1165688" lon="11.920414"><ele>435.0</ele><time>2026-04-18T13:01:05.892Z</time></trkpt><trkpt lat="42.1165849" lon="11.920224"><ele>434.0</ele><time>2026-04-18T13:01:06.893Z</time></trkpt><trkpt lat="42.1166025" lon="11.9200553"><ele>433.0</ele><time>2026-04-18T13:01:07.893Z</time></trkpt><trkpt lat="42.116623" lon="11.9198952"><ele>432.0</ele><time>2026-04-18T13:01:08.893Z</time></trkpt><trkpt lat="42.1166415" lon="11.9197532"><ele>431.0</ele><time>2026-04-18T13:01:09.892Z</time></trkpt><trkpt lat="42.1166641" lon="11.9196179"><ele>431.0</ele><time>2026-04-18T13:01:10.892Z</time></trkpt><trkpt lat="42.116678" lon="11.9194839"><ele>431.0</ele><time>2026-04-18T13:01:11.892Z</time></trkpt><trkpt lat="42.1166825" lon="11.9193621"><ele>431.0</ele><time>2026-04-18T13:01:12.894Z</time></trkpt><trkpt lat="42.1166818" lon="11.9192437"><ele>431.0</ele><time>2026-04-18T13:01:13.893Z</time></trkpt><trkpt lat="42.1166661" lon="11.9191227"><ele>431.0</ele><time>2026-04-18T13:01:14.893Z</time></trkpt><trkpt lat="42.1166363" lon="11.9190218"><ele>430.4</ele><time>2026-04-18T13:01:15.894Z</time></trkpt><trkpt lat="42.1165873" lon="11.9189189"><ele>429.8</ele><time>2026-04-18T13:01:16.893Z</time></trkpt><trkpt lat="42.1165255" lon="11.9188218"><ele>429.19999999999993</ele><time>2026-04-18T13:01:17.892Z</time></trkpt><trkpt lat="42.1164657" lon="11.9187369"><ele>428.59999999999997</ele><time>2026-04-18T13:01:18.892Z</time></trkpt><trkpt lat="42.1164004" lon="11.9186514"><ele>428.0</ele><time>2026-04-18T13:01:19.892Z</time></trkpt><trkpt lat="42.1163322" lon="11.9185636"><ele>427.2</ele><time>2026-04-18T13:01:20.892Z</time></trkpt><trkpt lat="42.1162635" lon="11.9184729"><ele>426.4</ele><time>2026-04-18T13:01:21.893Z</time></trkpt><trkpt lat="42.1161883" lon="11.9183659"><ele>425.59999999999997</ele><time>2026-04-18T13:01:22.892Z</time></trkpt><trkpt lat="42.1161105" lon="11.9182629"><ele>424.79999999999995</ele><time>2026-04-18T13:01:23.894Z</time></trkpt><trkpt lat="42.1160386" lon="11.9181587"><ele>424.0</ele><time>2026-04-18T13:01:24.892Z</time></trkpt><trkpt lat="42.1159749" lon="11.9180486"><ele>423.4</ele><time>2026-04-18T13:01:25.892Z</time></trkpt><trkpt lat="42.1159194" lon="11.9179498"><ele>422.79999999999995</ele><time>2026-04-18T13:01:26.893Z</time></trkpt><trkpt lat="42.1158591" lon="11.9178489"><ele>422.20000000000005</ele><time>2026-04-18T13:01:27.892Z</time></trkpt><trkpt lat="42.1157954" lon="11.9177523"><ele>421.6</ele><time>2026-04-18T13:01:28.893Z</time></trkpt><trkpt lat="42.1157373" lon="11.9176599"><ele>421.0</ele><time>2026-04-18T13:01:29.893Z</time></trkpt><trkpt lat="42.1156817" lon="11.9175785"><ele>418.33333333333337</ele><time>2026-04-18T13:01:30.893Z</time></trkpt><trkpt lat="42.1156232" lon="11.9175049"><ele>415.6666666666667</ele><time>2026-04-18T13:01:31.892Z</time></trkpt><trkpt lat="42.1155653" lon="11.9174199"><ele>413.0</ele><time>2026-04-18T13:01:32.894Z</time></trkpt><trkpt lat="42.1155066" lon="11.9173342"><ele>410.33333333333337</ele><time>2026-04-18T13:01:33.894Z</time></trkpt><trkpt lat="42.1154449" lon="11.9172493"><ele>407.6666666666667</ele><time>2026-04-18T13:01:34.893Z</time></trkpt><trkpt lat="42.1153796" lon="11.9171631"><ele>405.0</ele><time>2026-04-18T13:01:35.893Z</time></trkpt><trkpt lat="42.1153188" lon="11.9170777"><ele>405.0</ele><time>2026-04-18T13:01:36.892Z</time></trkpt><trkpt lat="42.1152578" lon="11.9169989"><ele>405.0</ele><time>2026-04-18T13:01:37.893Z</time></trkpt><trkpt lat="42.1151979" lon="11.9169059"><ele>405.0</ele><time>2026-04-18T13:01:38.892Z</time></trkpt><trkpt lat="42.1151319" lon="11.9167961"><ele>405.0</ele><time>2026-04-18T13:01:39.893Z</time></trkpt><trkpt lat="42.1150798" lon="11.9166845"><ele>405.0</ele><time>2026-04-18T13:01:40.893Z</time></trkpt><trkpt lat="42.1150317" lon="11.9165587"><ele>404.6666666666667</ele><time>2026-04-18T13:01:41.892Z</time></trkpt><trkpt lat="42.114981" lon="11.9164372"><ele>404.33333333333337</ele><time>2026-04-18T13:01:42.892Z</time></trkpt><trkpt lat="42.1149347" lon="11.9163287"><ele>404.0</ele><time>2026-04-18T13:01:43.892Z</time></trkpt><trkpt lat="42.1148941" lon="11.9162265"><ele>403.6666666666667</ele><time>2026-04-18T13:01:44.893Z</time></trkpt><trkpt lat="42.114854" lon="11.9161362"><ele>403.33333333333337</ele><time>2026-04-18T13:01:45.893Z</time></trkpt><trkpt lat="42.1148104" lon="11.9160434"><ele>403.0</ele><time>2026-04-18T13:01:46.892Z</time></trkpt><trkpt lat="42.1147699" lon="11.9159464"><ele>402.50000000000006</ele><time>2026-04-18T13:01:47.894Z</time></trkpt><trkpt lat="42.114726" lon="11.9158527"><ele>402.0</ele><time>2026-04-18T13:01:48.892Z</time></trkpt><trkpt lat="42.1146879" lon="11.9157573"><ele>401.5</ele><time>2026-04-18T13:01:49.892Z</time></trkpt><trkpt lat="42.1146468" lon="11.9156473"><ele>401.0</ele><time>2026-04-18T13:01:50.893Z</time></trkpt><trkpt lat="42.1146132" lon="11.9155538"><ele>400.50000000000006</ele><time>2026-04-18T13:01:51.893Z</time></trkpt><trkpt lat="42.114588" lon="11.915458"><ele>400.0</ele><time>2026-04-18T13:01:52.892Z</time></trkpt><trkpt lat="42.1145669" lon="11.915366"><ele>400.00000000000006</ele><time>2026-04-18T13:01:53.893Z</time></trkpt><trkpt lat="42.1145474" lon="11.9152789"><ele>400.0</ele><time>2026-04-18T13:01:54.892Z</time></trkpt><trkpt lat="42.1145241" lon="11.9151357"><ele>400.0</ele><time>2026-04-18T13:01:56.893Z</time></trkpt><trkpt lat="42.1145195" lon="11.9150451"><ele>400.0</ele><time>2026-04-18T13:01:58.892Z</time></trkpt><trkpt lat="42.1145485" lon="11.914948"><ele>400.00000000000006</ele><time>2026-04-18T13:02:01.892Z</time></trkpt><trkpt lat="42.1145828" lon="11.914831"><ele>400.0</ele><time>2026-04-18T13:02:03.892Z</time></trkpt><trkpt lat="42.1145952" lon="11.9146746"><ele>399.2</ele><time>2026-04-18T13:02:05.893Z</time></trkpt><trkpt lat="42.1146103" lon="11.9145195"><ele>398.4</ele><time>2026-04-18T13:02:07.893Z</time></trkpt><trkpt lat="42.1146301" lon="11.9143521"><ele>397.6</ele><time>2026-04-18T13:02:09.893Z</time></trkpt><trkpt lat="42.1146461" lon="11.9142601"><ele>396.8</ele><time>2026-04-18T13:02:10.893Z</time></trkpt><trkpt lat="42.1146651" lon="11.9141488"><ele>396.0</ele><time>2026-04-18T13:02:11.893Z</time></trkpt><trkpt lat="42.11468" lon="11.9140424"><ele>393.5714285714286</ele><time>2026-04-18T13:02:12.892Z</time></trkpt><trkpt lat="42.1146931" lon="11.9139416"><ele>391.1428571428571</ele><time>2026-04-18T13:02:13.892Z</time></trkpt><trkpt lat="42.1147007" lon="11.9138388"><ele>388.7142857142857</ele><time>2026-04-18T13:02:14.892Z</time></trkpt><trkpt lat="42.1147135" lon="11.9137418"><ele>386.28571428571433</ele><time>2026-04-18T13:02:15.893Z</time></trkpt><trkpt lat="42.1147243" lon="11.9136507"><ele>383.8571428571429</ele><time>2026-04-18T13:02:16.893Z</time></trkpt><trkpt lat="42.1147378" lon="11.9135601"><ele>381.42857142857144</ele><time>2026-04-18T13:02:17.893Z</time></trkpt><trkpt lat="42.1147469" lon="11.9134692"><ele>379.0</ele><time>2026-04-18T13:02:18.892Z</time></trkpt><trkpt lat="42.1147539" lon="11.9133748"><ele>376.8333333333333</ele><time>2026-04-18T13:02:19.893Z</time></trkpt><trkpt lat="42.1147656" lon="11.9132768"><ele>374.66666666666663</ele><time>2026-04-18T13:02:20.893Z</time></trkpt><trkpt lat="42.1147741" lon="11.9131761"><ele>372.5</ele><time>2026-04-18T13:02:21.893Z</time></trkpt><trkpt lat="42.114781" lon="11.9130733"><ele>370.3333333333333</ele><time>2026-04-18T13:02:22.893Z</time></trkpt><trkpt lat="42.114785" lon="11.9129695"><ele>368.1666666666667</ele><time>2026-04-18T13:02:23.892Z</time></trkpt><trkpt lat="42.1147742" lon="11.9128687"><ele>366.0</ele><time>2026-04-18T13:02:24.892Z</time></trkpt><trkpt lat="42.1147487" lon="11.9127754"><ele>366.0</ele><time>2026-04-18T13:02:25.892Z</time></trkpt><trkpt lat="42.11472" lon="11.9126959"><ele>366.0</ele><time>2026-04-18T13:02:26.893Z</time></trkpt><trkpt lat="42.1146947" lon="11.912613"><ele>366.0</ele><time>2026-04-18T13:02:27.893Z</time></trkpt><trkpt lat="42.1146752" lon="11.9125313"><ele>366.0</ele><time>2026-04-18T13:02:28.893Z</time></trkpt><trkpt lat="42.1146622" lon="11.9124481"><ele>366.0</ele><time>2026-04-18T13:02:29.893Z</time></trkpt><trkpt lat="42.1146478" lon="11.9123492"><ele>366.0</ele><time>2026-04-18T13:02:30.893Z</time></trkpt><trkpt lat="42.1146324" lon="11.9122496"><ele>366.0</ele><time>2026-04-18T13:02:31.892Z</time></trkpt><trkpt lat="42.1146225" lon="11.9121467"><ele>364.8333333333333</ele><time>2026-04-18T13:02:32.892Z</time></trkpt><trkpt lat="42.114622" lon="11.9120515"><ele>363.6666666666667</ele><time>2026-04-18T13:02:33.893Z</time></trkpt><trkpt lat="42.1146215" lon="11.9119571"><ele>362.5</ele><time>2026-04-18T13:02:34.893Z</time></trkpt><trkpt lat="42.1146218" lon="11.9118715"><ele>361.33333333333337</ele><time>2026-04-18T13:02:35.892Z</time></trkpt><trkpt lat="42.1145809" lon="11.9117396"><ele>360.1666666666667</ele><time>2026-04-18T13:02:37.893Z</time></trkpt><trkpt lat="42.1145366" lon="11.9116686"><ele>359.0</ele><time>2026-04-18T13:02:38.892Z</time></trkpt><trkpt lat="42.1144562" lon="11.9115617"><ele>357.2</ele><time>2026-04-18T13:02:40.892Z</time></trkpt><trkpt lat="42.1143829" lon="11.911545"><ele>355.4</ele><time>2026-04-18T13:02:42.892Z</time></trkpt><trkpt lat="42.1142891" lon="11.9115774"><ele>353.6</ele><time>2026-04-18T13:02:44.892Z</time></trkpt><trkpt lat="42.1141648" lon="11.9115952"><ele>351.8</ele><time>2026-04-18T13:02:46.893Z</time></trkpt><trkpt lat="42.1140566" lon="11.9116082"><ele>350.0</ele><time>2026-04-18T13:02:48.892Z</time></trkpt><trkpt lat="42.1139608" lon="11.9116068"><ele>349.8</ele><time>2026-04-18T13:02:50.892Z</time></trkpt><trkpt lat="42.1138746" lon="11.911607"><ele>349.6</ele><time>2026-04-18T13:02:53.892Z</time></trkpt><trkpt lat="42.1137936" lon="11.9116296"><ele>349.4</ele><time>2026-04-18T13:02:55.893Z</time></trkpt><trkpt lat="42.1137269" lon="11.9116502"><ele>349.2</ele><time>2026-04-18T13:02:56.892Z</time></trkpt><trkpt lat="42.1135699" lon="11.9116984"><ele>349.0</ele><time>2026-04-18T13:02:58.892Z</time></trkpt><trkpt lat="42.1135035" lon="11.9117378"><ele>349.0</ele><time>2026-04-18T13:02:59.894Z</time></trkpt><trkpt lat="42.1134297" lon="11.9117394"><ele>349.0</ele><time>2026-04-18T13:03:00.893Z</time></trkpt><trkpt lat="42.1133573" lon="11.9117371"><ele>349.0</ele><time>2026-04-18T13:03:01.894Z</time></trkpt><trkpt lat="42.1132789" lon="11.9117257"><ele>349.0</ele><time>2026-04-18T13:03:02.893Z</time></trkpt><trkpt lat="42.1132101" lon="11.9117046"><ele>349.0</ele><time>2026-04-18T13:03:03.893Z</time></trkpt><trkpt lat="42.1131375" lon="11.9116821"><ele>349.0</ele><time>2026-04-18T13:03:04.893Z</time></trkpt><trkpt lat="42.1130538" lon="11.9116489"><ele>349.85714285714283</ele><time>2026-04-18T13:03:05.894Z</time></trkpt><trkpt lat="42.1129692" lon="11.9116063"><ele>350.7142857142857</ele><time>2026-04-18T13:03:06.893Z</time></trkpt><trkpt lat="42.1128981" lon="11.9115663"><ele>351.57142857142856</ele><time>2026-04-18T13:03:07.893Z</time></trkpt><trkpt lat="42.1128348" lon="11.9115226"><ele>352.42857142857144</ele><time>2026-04-18T13:03:08.892Z</time></trkpt><trkpt lat="42.1127853" lon="11.9114633"><ele>353.2857142857143</ele><time>2026-04-18T13:03:09.893Z</time></trkpt><trkpt lat="42.1127466" lon="11.9113947"><ele>354.1428571428571</ele><time>2026-04-18T13:03:10.894Z</time></trkpt><trkpt lat="42.1127212" lon="11.911301"><ele>355.0</ele><time>2026-04-18T13:03:11.892Z</time></trkpt><trkpt lat="42.1126923" lon="11.9111797"><ele>355.0</ele><time>2026-04-18T13:03:12.893Z</time></trkpt><trkpt lat="42.1126728" lon="11.9110922"><ele>355.0</ele><time>2026-04-18T13:03:13.893Z</time></trkpt><trkpt lat="42.1126159" lon="11.9109647"><ele>355.0</ele><time>2026-04-18T13:03:15.893Z</time></trkpt><trkpt lat="42.112545" lon="11.9108732"><ele>355.0</ele><time>2026-04-18T13:03:17.892Z</time></trkpt><trkpt lat="42.1124422" lon="11.9108201"><ele>355.0</ele><time>2026-04-18T13:03:19.894Z</time></trkpt><trkpt lat="42.1123634" lon="11.9108039"><ele>352.2</ele><time>2026-04-18T13:03:20.892Z</time></trkpt><trkpt lat="42.1122805" lon="11.9107951"><ele>349.4</ele><time>2026-04-18T13:03:21.893Z</time></trkpt><trkpt lat="42.1121845" lon="11.910779"><ele>346.6</ele><time>2026-04-18T13:03:22.892Z</time></trkpt><trkpt lat="42.1120694" lon="11.9107573"><ele>343.8</ele><time>2026-04-18T13:03:23.892Z</time></trkpt><trkpt lat="42.1119806" lon="11.9107339"><ele>341.0</ele><time>2026-04-18T13:03:24.894Z</time></trkpt><trkpt lat="42.1118984" lon="11.9107176"><ele>341.0</ele><time>2026-04-18T13:03:25.893Z</time></trkpt><trkpt lat="42.1118264" lon="11.9107218"><ele>341.0</ele><time>2026-04-18T13:03:26.892Z</time></trkpt><trkpt lat="42.1117551" lon="11.9107396"><ele>341.0</ele><time>2026-04-18T13:03:27.892Z</time></trkpt><trkpt lat="42.1116918" lon="11.9107691"><ele>341.0</ele><time>2026-04-18T13:03:28.892Z</time></trkpt><trkpt lat="42.1116135" lon="11.9108178"><ele>341.0</ele><time>2026-04-18T13:03:29.893Z</time></trkpt><trkpt lat="42.1115503" lon="11.9108547"><ele>341.0</ele><time>2026-04-18T13:03:30.892Z</time></trkpt><trkpt lat="42.1114892" lon="11.9108925"><ele>341.0</ele><time>2026-04-18T13:03:31.892Z</time></trkpt><trkpt lat="42.111428" lon="11.9109285"><ele>341.8</ele><time>2026-04-18T13:03:32.892Z</time></trkpt><trkpt lat="42.1113146" lon="11.9109865"><ele>342.6</ele><time>2026-04-18T13:03:34.892Z</time></trkpt><trkpt lat="42.111183" lon="11.9110606"><ele>343.4</ele><time>2026-04-18T13:03:36.893Z</time></trkpt><trkpt lat="42.1111107" lon="11.9110971"><ele>344.2</ele><time>2026-04-18T13:03:37.892Z</time></trkpt><trkpt lat="42.1110375" lon="11.9111439"><ele>345.0</ele><time>2026-04-18T13:03:38.893Z</time></trkpt><trkpt lat="42.1109566" lon="11.9111938"><ele>345.0</ele><time>2026-04-18T13:03:39.893Z</time></trkpt><trkpt lat="42.1108859" lon="11.9112242"><ele>345.0</ele><time>2026-04-18T13:03:40.894Z</time></trkpt><trkpt lat="42.1108193" lon="11.9112456"><ele>345.0</ele><time>2026-04-18T13:03:41.894Z</time></trkpt><trkpt lat="42.1107187" lon="11.9112352"><ele>345.0</ele><time>2026-04-18T13:03:43.892Z</time></trkpt><trkpt lat="42.1106474" lon="11.9111969"><ele>345.0</ele><time>2026-04-18T13:03:46.892Z</time></trkpt><trkpt lat="42.1106061" lon="11.911123"><ele>345.0</ele><time>2026-04-18T13:04:49.891Z</time></trkpt><trkpt lat="42.1105411" lon="11.9110574"><ele>342.3333333333333</ele><time>2026-04-18T13:04:52.891Z</time></trkpt><trkpt lat="42.1104973" lon="11.9109795"><ele>339.6666666666667</ele><time>2026-04-18T13:04:54.892Z</time></trkpt><trkpt lat="42.1104606" lon="11.9109015"><ele>337.0</ele><time>2026-04-18T13:04:56.892Z</time></trkpt><trkpt lat="42.1104238" lon="11.9108244"><ele>334.33333333333337</ele><time>2026-04-18T13:04:59.891Z</time></trkpt><trkpt lat="42.110368" lon="11.910699"><ele>331.6666666666667</ele><time>2026-04-18T13:05:10.891Z</time></trkpt><trkpt lat="42.1103101" lon="11.9105898"><ele>329.0</ele><time>2026-04-18T13:05:12.891Z</time></trkpt><trkpt lat="42.1102564" lon="11.9104945"><ele>328.4</ele><time>2026-04-18T13:05:14.891Z</time></trkpt><trkpt lat="42.1101919" lon="11.9104017"><ele>327.79999999999995</ele><time>2026-04-18T13:05:16.891Z</time></trkpt><trkpt lat="42.1101377" lon="11.9102934"><ele>327.20000000000005</ele><time>2026-04-18T13:05:18.891Z</time></trkpt><trkpt lat="42.1100671" lon="11.9101655"><ele>326.6</ele><time>2026-04-18T13:05:20.891Z</time></trkpt><trkpt lat="42.1099977" lon="11.9100283"><ele>326.0</ele><time>2026-04-18T13:05:22.891Z</time></trkpt><trkpt lat="42.1099623" lon="11.909957"><ele>324.83333333333337</ele><time>2026-04-18T13:05:23.891Z</time></trkpt><trkpt lat="42.1099276" lon="11.9098837"><ele>323.6666666666667</ele><time>2026-04-18T13:05:24.892Z</time></trkpt><trkpt lat="42.1098942" lon="11.9098117"><ele>322.5</ele><time>2026-04-18T13:05:25.892Z</time></trkpt><trkpt lat="42.1098568" lon="11.909737"><ele>321.3333333333333</ele><time>2026-04-18T13:05:26.892Z</time></trkpt><trkpt lat="42.1098229" lon="11.909665"><ele>320.16666666666663</ele><time>2026-04-18T13:05:27.891Z</time></trkpt><trkpt lat="42.1097594" lon="11.9095289"><ele>319.0</ele><time>2026-04-18T13:05:29.892Z</time></trkpt><trkpt lat="42.1096958" lon="11.9094093"><ele>317.5</ele><time>2026-04-18T13:05:31.892Z</time></trkpt><trkpt lat="42.1096529" lon="11.9092914"><ele>316.0</ele><time>2026-04-18T13:05:33.892Z</time></trkpt><trkpt lat="42.1096122" lon="11.9091778"><ele>314.5</ele><time>2026-04-18T13:05:35.892Z</time></trkpt><trkpt lat="42.1095914" lon="11.9090769"><ele>313.0</ele><time>2026-04-18T13:05:37.891Z</time></trkpt><trkpt lat="42.1096116" lon="11.9089899"><ele>311.5</ele><time>2026-04-18T13:05:40.891Z</time></trkpt><trkpt lat="42.1097052" lon="11.9090333"><ele>310.0</ele><time>2026-04-18T13:05:47.893Z</time></trkpt><trkpt lat="42.1097954" lon="11.9090304"><ele>309.2</ele><time>2026-04-18T13:05:49.892Z</time></trkpt><trkpt lat="42.1099014" lon="11.9090269"><ele>308.4</ele><time>2026-04-18T13:05:51.891Z</time></trkpt><trkpt lat="42.1099915" lon="11.9090142"><ele>307.6</ele><time>2026-04-18T13:05:53.893Z</time></trkpt><trkpt lat="42.1100668" lon="11.9089443"><ele>306.8</ele><time>2026-04-18T13:05:55.891Z</time></trkpt><trkpt lat="42.1101112" lon="11.9088103"><ele>306.0</ele><time>2026-04-18T13:05:57.891Z</time></trkpt><trkpt lat="42.1101865" lon="11.9086953"><ele>306.0</ele><time>2026-04-18T13:05:59.891Z</time></trkpt><trkpt lat="42.1102666" lon="11.9085916"><ele>306.0</ele><time>2026-04-18T13:06:01.892Z</time></trkpt><trkpt lat="42.1103245" lon="11.9085351"><ele>306.0</ele><time>2026-04-18T13:06:03.892Z</time></trkpt><trkpt lat="42.1104283" lon="11.9085126"><ele>306.0</ele><time>2026-04-18T13:06:06.891Z</time></trkpt><trkpt lat="42.1105204" lon="11.9084986"><ele>306.0</ele><time>2026-04-18T13:06:08.892Z</time></trkpt><trkpt lat="42.1105886" lon="11.9084345"><ele>303.6666666666667</ele><time>2026-04-18T13:06:10.891Z</time></trkpt><trkpt lat="42.1106393" lon="11.9083525"><ele>301.3333333333333</ele><time>2026-04-18T13:06:12.891Z</time></trkpt><trkpt lat="42.1106817" lon="11.9082696"><ele>299.0</ele><time>2026-04-18T13:06:14.892Z</time></trkpt><trkpt lat="42.1106966" lon="11.9081787"><ele>296.66666666666663</ele><time>2026-04-18T13:06:16.891Z</time></trkpt><trkpt lat="42.1106983" lon="11.9080694"><ele>294.3333333333333</ele><time>2026-04-18T13:06:18.891Z</time></trkpt><trkpt lat="42.1107388" lon="11.9079626"><ele>292.0</ele><time>2026-04-18T13:06:20.892Z</time></trkpt><trkpt lat="42.1107988" lon="11.9078394"><ele>291.0</ele><time>2026-04-18T13:06:22.893Z</time></trkpt><trkpt lat="42.1108336" lon="11.9076951"><ele>290.0</ele><time>2026-04-18T13:06:24.892Z</time></trkpt><trkpt lat="42.1108774" lon="11.9075667"><ele>289.0</ele><time>2026-04-18T13:06:26.892Z</time></trkpt><trkpt lat="42.1109017" lon="11.9074241"><ele>288.0</ele><time>2026-04-18T13:06:28.891Z</time></trkpt><trkpt lat="42.110934" lon="11.9072575"><ele>286.1666666666667</ele><time>2026-04-18T13:06:30.892Z</time></trkpt><trkpt lat="42.1109535" lon="11.9071724"><ele>284.3333333333333</ele><time>2026-04-18T13:06:31.893Z</time></trkpt><trkpt lat="42.1110023" lon="11.9070683"><ele>282.5</ele><time>2026-04-18T13:06:33.891Z</time></trkpt><trkpt lat="42.1110472" lon="11.9069653"><ele>280.66666666666663</ele><time>2026-04-18T13:06:35.891Z</time></trkpt><trkpt lat="42.111069" lon="11.9068664"><ele>278.8333333333333</ele><time>2026-04-18T13:06:37.892Z</time></trkpt><trkpt lat="42.1110878" lon="11.9067503"><ele>277.0</ele><time>2026-04-18T13:06:39.892Z</time></trkpt><trkpt lat="42.1110963" lon="11.906631"><ele>274.2</ele><time>2026-04-18T13:06:41.892Z</time></trkpt><trkpt lat="42.1110946" lon="11.9064912"><ele>271.4</ele><time>2026-04-18T13:06:43.892Z</time></trkpt><trkpt lat="42.111088" lon="11.9063681"><ele>268.6</ele><time>2026-04-18T13:06:45.893Z</time></trkpt><trkpt lat="42.1110807" lon="11.9062277"><ele>265.8</ele><time>2026-04-18T13:06:47.892Z</time></trkpt><trkpt lat="42.1110679" lon="11.9060849"><ele>263.0</ele><time>2026-04-18T13:06:49.892Z</time></trkpt><trkpt lat="42.1110573" lon="11.9059266"><ele>261.2</ele><time>2026-04-18T13:06:51.892Z</time></trkpt><trkpt lat="42.1110539" lon="11.9058355"><ele>259.4</ele><time>2026-04-18T13:06:52.892Z</time></trkpt><trkpt lat="42.1110462" lon="11.9056654"><ele>257.59999999999997</ele><time>2026-04-18T13:06:54.892Z</time></trkpt><trkpt lat="42.1110349" lon="11.9055128"><ele>255.79999999999998</ele><time>2026-04-18T13:06:56.892Z</time></trkpt><trkpt lat="42.1110042" lon="11.9053876"><ele>254.0</ele><time>2026-04-18T13:06:58.891Z</time></trkpt><trkpt lat="42.1109547" lon="11.9052499"><ele>254.0</ele><time>2026-04-18T13:07:00.891Z</time></trkpt><trkpt lat="42.1108955" lon="11.9051481"><ele>253.99999999999997</ele><time>2026-04-18T13:07:02.891Z</time></trkpt><trkpt lat="42.1108291" lon="11.9050826"><ele>253.99999999999997</ele><time>2026-04-18T13:07:04.893Z</time></trkpt><trkpt lat="42.1107525" lon="11.9050938"><ele>254.0</ele><time>2026-04-18T13:07:06.892Z</time></trkpt><trkpt lat="42.1106945" lon="11.9051386"><ele>254.0</ele><time>2026-04-18T13:07:08.892Z</time></trkpt><trkpt lat="42.110596" lon="11.9052608"><ele>252.50000000000003</ele><time>2026-04-18T13:07:10.891Z</time></trkpt><trkpt lat="42.1105477" lon="11.9053409"><ele>251.0</ele><time>2026-04-18T13:07:11.892Z</time></trkpt><trkpt lat="42.1104984" lon="11.905402"><ele>249.5</ele><time>2026-04-18T13:07:12.892Z</time></trkpt><trkpt lat="42.1104413" lon="11.9054588"><ele>248.0</ele><time>2026-04-18T13:07:13.892Z</time></trkpt><trkpt lat="42.1103812" lon="11.9055018"><ele>246.50000000000003</ele><time>2026-04-18T13:07:14.893Z</time></trkpt><trkpt lat="42.1103154" lon="11.9055334"><ele>245.0</ele><time>2026-04-18T13:07:15.891Z</time></trkpt><trkpt lat="42.1102216" lon="11.9055684"><ele>245.00000000000003</ele><time>2026-04-18T13:07:17.891Z</time></trkpt><trkpt lat="42.1101324" lon="11.9055923"><ele>245.0</ele><time>2026-04-18T13:07:19.891Z</time></trkpt><trkpt lat="42.1100553" lon="11.9055576"><ele>245.0</ele><time>2026-04-18T13:07:21.892Z</time></trkpt><trkpt lat="42.1099859" lon="11.9054915"><ele>245.0</ele><time>2026-04-18T13:07:23.891Z</time></trkpt><trkpt lat="42.109935" lon="11.9054146"><ele>245.00000000000003</ele><time>2026-04-18T13:07:25.893Z</time></trkpt><trkpt lat="42.109889" lon="11.9053387"><ele>245.0</ele><time>2026-04-18T13:07:27.892Z</time></trkpt><trkpt lat="42.1098225" lon="11.9052614"><ele>245.0</ele><time>2026-04-18T13:07:29.891Z</time></trkpt><trkpt lat="42.1097366" lon="11.9052019"><ele>245.0</ele><time>2026-04-18T13:07:31.893Z</time></trkpt><trkpt lat="42.1096239" lon="11.9051576"><ele>245.0</ele><time>2026-04-18T13:07:33.891Z</time></trkpt><trkpt lat="42.109519" lon="11.9050942"><ele>245.0</ele><time>2026-04-18T13:07:35.892Z</time></trkpt><trkpt lat="42.109437" lon="11.9050034"><ele>245.0</ele><time>2026-04-18T13:07:37.892Z</time></trkpt><trkpt lat="42.1093541" lon="11.9049201"><ele>243.0</ele><time>2026-04-18T13:07:39.892Z</time></trkpt><trkpt lat="42.1092578" lon="11.9048701"><ele>241.0</ele><time>2026-04-18T13:07:41.891Z</time></trkpt><trkpt lat="42.109155" lon="11.9048277"><ele>239.0</ele><time>2026-04-18T13:07:43.893Z</time></trkpt><trkpt lat="42.1090655" lon="11.9047713"><ele>237.0</ele><time>2026-04-18T13:07:45.891Z</time></trkpt><trkpt lat="42.1089924" lon="11.904689"><ele>235.0</ele><time>2026-04-18T13:07:47.891Z</time></trkpt><trkpt lat="42.108926" lon="11.9046053"><ele>235.0</ele><time>2026-04-18T13:07:49.892Z</time></trkpt><trkpt lat="42.1088598" lon="11.9045064"><ele>235.0</ele><time>2026-04-18T13:07:51.891Z</time></trkpt><trkpt lat="42.1087964" lon="11.9043955"><ele>235.0</ele><time>2026-04-18T13:07:53.893Z</time></trkpt><trkpt lat="42.1087324" lon="11.9042817"><ele>235.0</ele><time>2026-04-18T13:07:55.893Z</time></trkpt><trkpt lat="42.1086705" lon="11.9041808"><ele>235.0</ele><time>2026-04-18T13:07:57.892Z</time></trkpt><trkpt lat="42.108617" lon="11.9040913"><ele>232.0</ele><time>2026-04-18T13:07:59.891Z</time></trkpt><trkpt lat="42.1085587" lon="11.9040245"><ele>229.0</ele><time>2026-04-18T13:08:01.891Z</time></trkpt><trkpt lat="42.1084875" lon="11.903959"><ele>226.0</ele><time>2026-04-18T13:08:03.892Z</time></trkpt><trkpt lat="42.1084342" lon="11.903833"><ele>223.0</ele><time>2026-04-18T13:08:05.891Z</time></trkpt><trkpt lat="42.1083726" lon="11.903714"><ele>220.0</ele><time>2026-04-18T13:08:07.892Z</time></trkpt><trkpt lat="42.1082919" lon="11.9036365"><ele>220.16666666666666</ele><time>2026-04-18T13:08:09.893Z</time></trkpt><trkpt lat="42.1082012" lon="11.9036216"><ele>220.33333333333331</ele><time>2026-04-18T13:08:11.893Z</time></trkpt><trkpt lat="42.1080996" lon="11.9036179"><ele>220.5</ele><time>2026-04-18T13:08:13.892Z</time></trkpt><trkpt lat="42.1080349" lon="11.9036067"><ele>220.66666666666669</ele><time>2026-04-18T13:08:14.892Z</time></trkpt><trkpt lat="42.1079704" lon="11.903599"><ele>220.83333333333334</ele><time>2026-04-18T13:08:15.892Z</time></trkpt><trkpt lat="42.1079032" lon="11.9035805"><ele>221.0</ele><time>2026-04-18T13:08:16.891Z</time></trkpt><trkpt lat="42.107809" lon="11.9036019"><ele>221.00000000000003</ele><time>2026-04-18T13:08:18.892Z</time></trkpt><trkpt lat="42.1077197" lon="11.9036619"><ele>221.0</ele><time>2026-04-18T13:08:20.891Z</time></trkpt><trkpt lat="42.1076346" lon="11.9037198"><ele>221.0</ele><time>2026-04-18T13:08:22.892Z</time></trkpt><trkpt lat="42.1075583" lon="11.9037236"><ele>221.0</ele><time>2026-04-18T13:08:24.892Z</time></trkpt><trkpt lat="42.1074869" lon="11.9036503"><ele>221.00000000000003</ele><time>2026-04-18T13:08:26.892Z</time></trkpt><trkpt lat="42.1074354" lon="11.9035614"><ele>221.0</ele><time>2026-04-18T13:08:28.891Z</time></trkpt><trkpt lat="42.1073825" lon="11.9034547"><ele>217.60000000000002</ele><time>2026-04-18T13:08:30.893Z</time></trkpt><trkpt lat="42.1073103" lon="11.9033994"><ele>214.20000000000002</ele><time>2026-04-18T13:08:32.891Z</time></trkpt><trkpt lat="42.107257" lon="11.9033124"><ele>210.8</ele><time>2026-04-18T13:08:34.891Z</time></trkpt><trkpt lat="42.1072065" lon="11.9031548"><ele>207.39999999999998</ele><time>2026-04-18T13:08:36.893Z</time></trkpt><trkpt lat="42.1071553" lon="11.9030361"><ele>204.0</ele><time>2026-04-18T13:08:38.893Z</time></trkpt><trkpt lat="42.1070621" lon="11.9029201"><ele>204.0</ele><time>2026-04-18T13:08:40.891Z</time></trkpt><trkpt lat="42.1070173" lon="11.9028532"><ele>204.0</ele><time>2026-04-18T13:08:41.891Z</time></trkpt><trkpt lat="42.1069456" lon="11.9027338"><ele>204.0</ele><time>2026-04-18T13:08:43.891Z</time></trkpt><trkpt lat="42.1068704" lon="11.9026244"><ele>204.0</ele><time>2026-04-18T13:08:45.892Z</time></trkpt><trkpt lat="42.1067971" lon="11.9025097"><ele>204.0</ele><time>2026-04-18T13:08:47.892Z</time></trkpt><trkpt lat="42.1067462" lon="11.9023747"><ele>201.79999999999998</ele><time>2026-04-18T13:08:49.892Z</time></trkpt><trkpt lat="42.1066911" lon="11.9022775"><ele>199.6</ele><time>2026-04-18T13:08:51.892Z</time></trkpt><trkpt lat="42.1066101" lon="11.9022194"><ele>197.4</ele><time>2026-04-18T13:08:53.892Z</time></trkpt><trkpt lat="42.1065196" lon="11.9021973"><ele>195.2</ele><time>2026-04-18T13:08:55.892Z</time></trkpt><trkpt lat="42.1064128" lon="11.9022283"><ele>193.0</ele><time>2026-04-18T13:08:57.893Z</time></trkpt><trkpt lat="42.1063119" lon="11.9022852"><ele>191.8</ele><time>2026-04-18T13:08:59.893Z</time></trkpt><trkpt lat="42.1062237" lon="11.9023611"><ele>190.60000000000002</ele><time>2026-04-18T13:09:01.891Z</time></trkpt><trkpt lat="42.1061409" lon="11.9024541"><ele>189.39999999999998</ele><time>2026-04-18T13:09:03.891Z</time></trkpt><trkpt lat="42.106065" lon="11.9025395"><ele>188.2</ele><time>2026-04-18T13:09:05.891Z</time></trkpt><trkpt lat="42.1059719" lon="11.9025961"><ele>187.0</ele><time>2026-04-18T13:09:07.892Z</time></trkpt><trkpt lat="42.1058762" lon="11.902593"><ele>187.0</ele><time>2026-04-18T13:09:09.892Z</time></trkpt><trkpt lat="42.1057827" lon="11.9025368"><ele>187.0</ele><time>2026-04-18T13:09:11.891Z</time></trkpt><trkpt lat="42.1057054" lon="11.9024154"><ele>187.0</ele><time>2026-04-18T13:09:13.891Z</time></trkpt><trkpt lat="42.1056413" lon="11.9022709"><ele>187.0</ele><time>2026-04-18T13:09:15.892Z</time></trkpt><trkpt lat="42.1056035" lon="11.9021973"><ele>187.0</ele><time>2026-04-18T13:09:16.892Z</time></trkpt><trkpt lat="42.1055597" lon="11.9021252"><ele>188.2</ele><time>2026-04-18T13:09:17.892Z</time></trkpt><trkpt lat="42.1054989" lon="11.9020049"><ele>189.39999999999998</ele><time>2026-04-18T13:09:19.891Z</time></trkpt><trkpt lat="42.1054487" lon="11.9018928"><ele>190.60000000000002</ele><time>2026-04-18T13:09:21.892Z</time></trkpt><trkpt lat="42.1053681" lon="11.9017831"><ele>191.8</ele><time>2026-04-18T13:09:23.891Z</time></trkpt><trkpt lat="42.1053151" lon="11.9016902"><ele>193.0</ele><time>2026-04-18T13:09:25.892Z</time></trkpt><trkpt lat="42.1052709" lon="11.9016129"><ele>190.16666666666666</ele><time>2026-04-18T13:09:34.892Z</time></trkpt><trkpt lat="42.1052013" lon="11.901511"><ele>187.33333333333331</ele><time>2026-04-18T13:09:37.892Z</time></trkpt><trkpt lat="42.1051326" lon="11.9014393"><ele>184.5</ele><time>2026-04-18T13:09:40.892Z</time></trkpt><trkpt lat="42.1050788" lon="11.9013922"><ele>181.66666666666666</ele><time>2026-04-18T13:09:43.892Z</time></trkpt><trkpt lat="42.1050199" lon="11.9013356"><ele>178.83333333333331</ele><time>2026-04-18T13:09:51.893Z</time></trkpt><trkpt lat="42.1049724" lon="11.9012658"><ele>176.0</ele><time>2026-04-18T13:09:54.891Z</time></trkpt><trkpt lat="42.1048963" lon="11.901203"><ele>175.28571428571428</ele><time>2026-04-18T13:09:58.891Z</time></trkpt><trkpt lat="42.1048356" lon="11.901153"><ele>174.57142857142856</ele><time>2026-04-18T13:10:01.891Z</time></trkpt><trkpt lat="42.1047706" lon="11.9011027"><ele>173.85714285714283</ele><time>2026-04-18T13:10:04.891Z</time></trkpt><trkpt lat="42.1047107" lon="11.9010721"><ele>173.14285714285714</ele><time>2026-04-18T13:10:07.891Z</time></trkpt><trkpt lat="42.1046496" lon="11.9010348"><ele>172.42857142857142</ele><time>2026-04-18T13:10:09.891Z</time></trkpt><trkpt lat="42.1045935" lon="11.9009803"><ele>171.7142857142857</ele><time>2026-04-18T13:10:11.892Z</time></trkpt><trkpt lat="42.1045307" lon="11.9009031"><ele>171.0</ele><time>2026-04-18T13:10:13.893Z</time></trkpt><trkpt lat="42.1044803" lon="11.9008168"><ele>168.83333333333334</ele><time>2026-04-18T13:10:15.893Z</time></trkpt><trkpt lat="42.1043855" lon="11.9007821"><ele>166.66666666666666</ele><time>2026-04-18T13:10:17.892Z</time></trkpt><trkpt lat="42.1043176" lon="11.9007849"><ele>164.5</ele><time>2026-04-18T13:10:18.891Z</time></trkpt><trkpt lat="42.1042488" lon="11.9007956"><ele>162.33333333333331</ele><time>2026-04-18T13:10:19.892Z</time></trkpt><trkpt lat="42.1041702" lon="11.9008068"><ele>160.16666666666666</ele><time>2026-04-18T13:10:20.892Z</time></trkpt><trkpt lat="42.1040971" lon="11.9008189"><ele>158.0</ele><time>2026-04-18T13:10:21.893Z</time></trkpt><trkpt lat="42.1040215" lon="11.9008371"><ele>158.0</ele><time>2026-04-18T13:10:22.891Z</time></trkpt><trkpt lat="42.1039556" lon="11.9008509"><ele>158.0</ele><time>2026-04-18T13:10:23.892Z</time></trkpt><trkpt lat="42.1038724" lon="11.9008655"><ele>158.0</ele><time>2026-04-18T13:10:25.891Z</time></trkpt><trkpt lat="42.1038013" lon="11.9009061"><ele>158.0</ele><time>2026-04-18T13:10:29.891Z</time></trkpt><trkpt lat="42.1037329" lon="11.9009549"><ele>158.0</ele><time>2026-04-18T13:10:31.89Z</time></trkpt><trkpt lat="42.1036627" lon="11.9010108"><ele>158.0</ele><time>2026-04-18T13:10:33.89Z</time></trkpt><trkpt lat="42.1035595" lon="11.9010467"><ele>159.5</ele><time>2026-04-18T13:10:35.89Z</time></trkpt><trkpt lat="42.1034625" lon="11.9010208"><ele>161.0</ele><time>2026-04-18T13:10:37.891Z</time></trkpt><trkpt lat="42.1033725" lon="11.900975"><ele>162.5</ele><time>2026-04-18T13:10:39.891Z</time></trkpt><trkpt lat="42.1033117" lon="11.9009182"><ele>164.0</ele><time>2026-04-18T13:10:41.891Z</time></trkpt><trkpt lat="42.1032452" lon="11.9008545"><ele>165.5</ele><time>2026-04-18T13:10:43.891Z</time></trkpt><trkpt lat="42.1031732" lon="11.900792"><ele>167.0</ele><time>2026-04-18T13:10:45.89Z</time></trkpt><trkpt lat="42.1031278" lon="11.900695"><ele>168.0</ele><time>2026-04-18T13:10:47.89Z</time></trkpt><trkpt lat="42.1031006" lon="11.9006119"><ele>169.0</ele><time>2026-04-18T13:10:48.891Z</time></trkpt><trkpt lat="42.1030541" lon="11.9004792"><ele>170.0</ele><time>2026-04-18T13:10:50.89Z</time></trkpt><trkpt lat="42.1029808" lon="11.9003519"><ele>171.0</ele><time>2026-04-18T13:10:52.89Z</time></trkpt><trkpt lat="42.1029051" lon="11.9002513"><ele>172.0</ele><time>2026-04-18T13:10:54.891Z</time></trkpt><trkpt lat="42.1028371" lon="11.9001724"><ele>172.0</ele><time>2026-04-18T13:10:56.891Z</time></trkpt><trkpt lat="42.1027943" lon="11.9000997"><ele>172.0</ele><time>2026-04-18T13:10:58.892Z</time></trkpt><trkpt lat="42.102762" lon="11.9000012"><ele>172.0</ele><time>2026-04-18T13:11:00.891Z</time></trkpt><trkpt lat="42.10274" lon="11.8998734"><ele>172.0</ele><time>2026-04-18T13:11:02.891Z</time></trkpt><trkpt lat="42.1027282" lon="11.8997492"><ele>172.0</ele><time>2026-04-18T13:11:04.89Z</time></trkpt><trkpt lat="42.1027047" lon="11.899639"><ele>172.0</ele><time>2026-04-18T13:11:06.891Z</time></trkpt><trkpt lat="42.1026469" lon="11.899519"><ele>170.16666666666669</ele><time>2026-04-18T13:11:08.89Z</time></trkpt><trkpt lat="42.1026064" lon="11.8994506"><ele>168.33333333333334</ele><time>2026-04-18T13:11:09.89Z</time></trkpt><trkpt lat="42.1025562" lon="11.8993656"><ele>166.5</ele><time>2026-04-18T13:11:10.892Z</time></trkpt><trkpt lat="42.1025131" lon="11.8992786"><ele>164.66666666666666</ele><time>2026-04-18T13:11:11.89Z</time></trkpt><trkpt lat="42.1024397" lon="11.8991377"><ele>162.83333333333331</ele><time>2026-04-18T13:11:13.891Z</time></trkpt><trkpt lat="42.1023733" lon="11.8990449"><ele>161.0</ele><time>2026-04-18T13:11:15.891Z</time></trkpt><trkpt lat="42.1023161" lon="11.898972"><ele>161.0</ele><time>2026-04-18T13:11:17.891Z</time></trkpt><trkpt lat="42.1022373" lon="11.8989087"><ele>161.0</ele><time>2026-04-18T13:11:19.89Z</time></trkpt><trkpt lat="42.1021448" lon="11.8988742"><ele>161.0</ele><time>2026-04-18T13:11:21.892Z</time></trkpt><trkpt lat="42.1020208" lon="11.8988369"><ele>161.0</ele><time>2026-04-18T13:11:23.891Z</time></trkpt><trkpt lat="42.1019359" lon="11.8987655"><ele>161.0</ele><time>2026-04-18T13:11:25.891Z</time></trkpt><trkpt lat="42.1018553" lon="11.8986447"><ele>161.0</ele><time>2026-04-18T13:11:27.89Z</time></trkpt><trkpt lat="42.1017821" lon="11.8985311"><ele>161.0</ele><time>2026-04-18T13:11:29.891Z</time></trkpt><trkpt lat="42.1016984" lon="11.898428"><ele>161.0</ele><time>2026-04-18T13:11:31.89Z</time></trkpt><trkpt lat="42.1016016" lon="11.8983288"><ele>161.0</ele><time>2026-04-18T13:11:33.891Z</time></trkpt><trkpt lat="42.1015387" lon="11.8982802"><ele>161.0</ele><time>2026-04-18T13:11:34.891Z</time></trkpt><trkpt lat="42.1014816" lon="11.8982413"><ele>159.8</ele><time>2026-04-18T13:11:35.891Z</time></trkpt><trkpt lat="42.1014227" lon="11.8982046"><ele>158.60000000000002</ele><time>2026-04-18T13:11:36.89Z</time></trkpt><trkpt lat="42.1013635" lon="11.8981727"><ele>157.4</ele><time>2026-04-18T13:11:37.891Z</time></trkpt><trkpt lat="42.101255" lon="11.8981203"><ele>156.2</ele><time>2026-04-18T13:11:39.891Z</time></trkpt><trkpt lat="42.1011527" lon="11.8980407"><ele>155.0</ele><time>2026-04-18T13:11:41.89Z</time></trkpt><trkpt lat="42.1010664" lon="11.8979157"><ele>155.0</ele><time>2026-04-18T13:11:43.891Z</time></trkpt><trkpt lat="42.1010306" lon="11.8977893"><ele>155.0</ele><time>2026-04-18T13:11:45.891Z</time></trkpt><trkpt lat="42.1009913" lon="11.8976465"><ele>155.0</ele><time>2026-04-18T13:11:47.89Z</time></trkpt><trkpt lat="42.1009599" lon="11.8975691"><ele>155.0</ele><time>2026-04-18T13:11:48.89Z</time></trkpt><trkpt lat="42.1009174" lon="11.897482"><ele>155.0</ele><time>2026-04-18T13:11:49.892Z</time></trkpt><trkpt lat="42.1008678" lon="11.8974016"><ele>155.0</ele><time>2026-04-18T13:11:50.89Z</time></trkpt><trkpt lat="42.1007972" lon="11.8973204"><ele>154.8</ele><time>2026-04-18T13:11:51.891Z</time></trkpt><trkpt lat="42.100707" lon="11.8972366"><ele>154.6</ele><time>2026-04-18T13:11:52.891Z</time></trkpt><trkpt lat="42.1006112" lon="11.8971316"><ele>154.4</ele><time>2026-04-18T13:11:53.89Z</time></trkpt><trkpt lat="42.1005294" lon="11.8970461"><ele>154.2</ele><time>2026-04-18T13:11:54.89Z</time></trkpt><trkpt lat="42.1004464" lon="11.8969839"><ele>154.0</ele><time>2026-04-18T13:11:55.89Z</time></trkpt><trkpt lat="42.1003716" lon="11.8969239"><ele>154.0</ele><time>2026-04-18T13:11:56.891Z</time></trkpt><trkpt lat="42.1003024" lon="11.8968702"><ele>154.0</ele><time>2026-04-18T13:11:57.891Z</time></trkpt><trkpt lat="42.1002433" lon="11.8968206"><ele>154.0</ele><time>2026-04-18T13:11:58.891Z</time></trkpt><trkpt lat="42.1001899" lon="11.8967704"><ele>154.0</ele><time>2026-04-18T13:11:59.89Z</time></trkpt><trkpt lat="42.1000897" lon="11.8966873"><ele>154.0</ele><time>2026-04-18T13:12:01.891Z</time></trkpt><trkpt lat="42.0999979" lon="11.8966122"><ele>154.0</ele><time>2026-04-18T13:12:03.892Z</time></trkpt><trkpt lat="42.0998965" lon="11.8965155"><ele>153.33333333333334</ele><time>2026-04-18T13:12:05.89Z</time></trkpt><trkpt lat="42.0998266" lon="11.8964419"><ele>152.66666666666669</ele><time>2026-04-18T13:12:06.89Z</time></trkpt><trkpt lat="42.0997801" lon="11.8963806"><ele>152.0</ele><time>2026-04-18T13:12:07.89Z</time></trkpt><trkpt lat="42.0997366" lon="11.8963185"><ele>151.33333333333334</ele><time>2026-04-18T13:12:08.89Z</time></trkpt><trkpt lat="42.0996711" lon="11.8962086"><ele>150.66666666666666</ele><time>2026-04-18T13:12:10.891Z</time></trkpt><trkpt lat="42.0996034" lon="11.8960963"><ele>150.0</ele><time>2026-04-18T13:12:12.89Z</time></trkpt><trkpt lat="42.0995367" lon="11.8960096"><ele>150.0</ele><time>2026-04-18T13:12:14.89Z</time></trkpt><trkpt lat="42.0994275" lon="11.8959644"><ele>150.0</ele><time>2026-04-18T13:12:16.891Z</time></trkpt><trkpt lat="42.0993241" lon="11.895996"><ele>150.0</ele><time>2026-04-18T13:12:18.89Z</time></trkpt><trkpt lat="42.0992658" lon="11.8960282"><ele>150.0</ele><time>2026-04-18T13:12:19.891Z</time></trkpt><trkpt lat="42.0992051" lon="11.8960586"><ele>150.0</ele><time>2026-04-18T13:12:20.891Z</time></trkpt><trkpt lat="42.0990804" lon="11.8960542"><ele>150.0</ele><time>2026-04-18T13:12:22.892Z</time></trkpt><trkpt lat="42.0989998" lon="11.8960102"><ele>150.0</ele><time>2026-04-18T13:12:24.89Z</time></trkpt><trkpt lat="42.0989448" lon="11.8959236"><ele>150.0</ele><time>2026-04-18T13:12:26.89Z</time></trkpt><trkpt lat="42.0989018" lon="11.8957784"><ele>150.0</ele><time>2026-04-18T13:12:28.891Z</time></trkpt><trkpt lat="42.098845" lon="11.8956331"><ele>150.0</ele><time>2026-04-18T13:12:30.891Z</time></trkpt><trkpt lat="42.0987836" lon="11.8954797"><ele>148.0</ele><time>2026-04-18T13:12:32.89Z</time></trkpt><trkpt lat="42.0987426" lon="11.895399"><ele>146.0</ele><time>2026-04-18T13:12:33.89Z</time></trkpt><trkpt lat="42.0986842" lon="11.8953015"><ele>144.0</ele><time>2026-04-18T13:12:34.891Z</time></trkpt><trkpt lat="42.0986158" lon="11.8952046"><ele>142.0</ele><time>2026-04-18T13:12:35.891Z</time></trkpt><trkpt lat="42.0985591" lon="11.8951276"><ele>140.0</ele><time>2026-04-18T13:12:36.891Z</time></trkpt><trkpt lat="42.0985013" lon="11.895067"><ele>138.0</ele><time>2026-04-18T13:12:37.891Z</time></trkpt><trkpt lat="42.0984265" lon="11.8950248"><ele>137.5</ele><time>2026-04-18T13:12:38.89Z</time></trkpt><trkpt lat="42.0983489" lon="11.8949944"><ele>137.0</ele><time>2026-04-18T13:12:39.89Z</time></trkpt><trkpt lat="42.0982575" lon="11.8949626"><ele>136.5</ele><time>2026-04-18T13:12:40.89Z</time></trkpt><trkpt lat="42.0981845" lon="11.8949241"><ele>136.0</ele><time>2026-04-18T13:12:41.89Z</time></trkpt><trkpt lat="42.0981168" lon="11.8948859"><ele>135.5</ele><time>2026-04-18T13:12:42.891Z</time></trkpt><trkpt lat="42.0980594" lon="11.8948492"><ele>135.0</ele><time>2026-04-18T13:12:43.89Z</time></trkpt><trkpt lat="42.0979386" lon="11.8948035"><ele>135.0</ele><time>2026-04-18T13:12:45.891Z</time></trkpt><trkpt lat="42.0978702" lon="11.8947667"><ele>135.0</ele><time>2026-04-18T13:12:46.89Z</time></trkpt><trkpt lat="42.0977921" lon="11.8947206"><ele>135.0</ele><time>2026-04-18T13:12:47.891Z</time></trkpt><trkpt lat="42.0977224" lon="11.8946776"><ele>135.0</ele><time>2026-04-18T13:12:48.89Z</time></trkpt><trkpt lat="42.0976658" lon="11.8946359"><ele>135.0</ele><time>2026-04-18T13:12:49.89Z</time></trkpt><trkpt lat="42.0975716" lon="11.8945664"><ele>135.0</ele><time>2026-04-18T13:12:51.891Z</time></trkpt><trkpt lat="42.0974883" lon="11.8945083"><ele>134.4</ele><time>2026-04-18T13:12:53.891Z</time></trkpt><trkpt lat="42.0974029" lon="11.8944222"><ele>133.8</ele><time>2026-04-18T13:12:55.892Z</time></trkpt><trkpt lat="42.0973266" lon="11.8942818"><ele>133.2</ele><time>2026-04-18T13:12:57.892Z</time></trkpt><trkpt lat="42.0972782" lon="11.8942105"><ele>132.6</ele><time>2026-04-18T13:12:58.891Z</time></trkpt><trkpt lat="42.0972312" lon="11.8941498"><ele>132.0</ele><time>2026-04-18T13:12:59.891Z</time></trkpt><trkpt lat="42.0971564" lon="11.8940425"><ele>132.0</ele><time>2026-04-18T13:13:01.892Z</time></trkpt><trkpt lat="42.0970945" lon="11.8939759"><ele>132.0</ele><time>2026-04-18T13:13:03.891Z</time></trkpt><trkpt lat="42.0970314" lon="11.893919"><ele>132.0</ele><time>2026-04-18T13:13:05.892Z</time></trkpt><trkpt lat="42.0969572" lon="11.8938019"><ele>132.0</ele><time>2026-04-18T13:13:07.892Z</time></trkpt><trkpt lat="42.09692" lon="11.8937239"><ele>132.0</ele><time>2026-04-18T13:13:08.89Z</time></trkpt><trkpt lat="42.0968786" lon="11.8936513"><ele>132.0</ele><time>2026-04-18T13:13:09.891Z</time></trkpt><trkpt lat="42.096803" lon="11.8935439"><ele>132.0</ele><time>2026-04-18T13:13:11.891Z</time></trkpt><trkpt lat="42.0967298" lon="11.8934532"><ele>132.0</ele><time>2026-04-18T13:13:13.89Z</time></trkpt><trkpt lat="42.0966534" lon="11.8934174"><ele>132.0</ele><time>2026-04-18T13:13:16.891Z</time></trkpt><trkpt lat="42.0965785" lon="11.8933819"><ele>132.0</ele><time>2026-04-18T13:13:18.891Z</time></trkpt><trkpt lat="42.0964998" lon="11.8933325"><ele>132.0</ele><time>2026-04-18T13:13:20.891Z</time></trkpt><trkpt lat="42.0964325" lon="11.8932729"><ele>132.0</ele><time>2026-04-18T13:13:22.891Z</time></trkpt><trkpt lat="42.0963603" lon="11.893201"><ele>133.6</ele><time>2026-04-18T13:13:24.89Z</time></trkpt><trkpt lat="42.0962536" lon="11.89316"><ele>135.2</ele><time>2026-04-18T13:13:26.891Z</time></trkpt><trkpt lat="42.0961886" lon="11.8931364"><ele>136.8</ele><time>2026-04-18T13:13:27.89Z</time></trkpt><trkpt lat="42.096094" lon="11.8930735"><ele>138.4</ele><time>2026-04-18T13:13:29.891Z</time></trkpt><trkpt lat="42.0960415" lon="11.8929647"><ele>140.0</ele><time>2026-04-18T13:13:31.89Z</time></trkpt><trkpt lat="42.0960255" lon="11.8928457"><ele>140.0</ele><time>2026-04-18T13:13:33.891Z</time></trkpt><trkpt lat="42.0959842" lon="11.8927537"><ele>140.0</ele><time>2026-04-18T13:13:35.891Z</time></trkpt><trkpt lat="42.0959282" lon="11.8926765"><ele>140.0</ele><time>2026-04-18T13:14:07.89Z</time></trkpt><trkpt lat="42.095861" lon="11.8926184"><ele>140.0</ele><time>2026-04-18T13:16:25.89Z</time></trkpt><trkpt lat="42.095808" lon="11.8925707"><ele>140.0</ele><time>2026-04-18T13:16:49.889Z</time></trkpt><trkpt lat="42.0957556" lon="11.8925054"><ele>140.0</ele><time>2026-04-18T13:18:21.889Z</time></trkpt><trkpt lat="42.0956948" lon="11.8924486"><ele>140.0</ele><time>2026-04-18T13:20:10.89Z</time></trkpt><trkpt lat="42.095652" lon="11.8923856"><ele>142.16666666666666</ele><time>2026-04-18T13:20:21.89Z</time></trkpt><trkpt lat="42.095595" lon="11.8923295"><ele>144.33333333333331</ele><time>2026-04-18T13:20:25.891Z</time></trkpt><trkpt lat="42.0955432" lon="11.8922806"><ele>146.5</ele><time>2026-04-18T13:22:32.888Z</time></trkpt><trkpt lat="42.0954904" lon="11.8921689"><ele>148.66666666666666</ele><time>2026-04-18T13:22:34.888Z</time></trkpt><trkpt lat="42.0954236" lon="11.8920616"><ele>150.83333333333334</ele><time>2026-04-18T13:22:36.888Z</time></trkpt><trkpt lat="42.095344" lon="11.8919616"><ele>153.0</ele><time>2026-04-18T13:22:38.889Z</time></trkpt><trkpt lat="42.0952696" lon="11.8918606"><ele>153.0</ele><time>2026-04-18T13:22:40.888Z</time></trkpt><trkpt lat="42.0951844" lon="11.8917965"><ele>153.0</ele><time>2026-04-18T13:22:42.888Z</time></trkpt><trkpt lat="42.095101" lon="11.8917519"><ele>153.0</ele><time>2026-04-18T13:22:44.888Z</time></trkpt><trkpt lat="42.0949969" lon="11.8917105"><ele>153.0</ele><time>2026-04-18T13:22:46.89Z</time></trkpt><trkpt lat="42.0949346" lon="11.891683"><ele>153.0</ele><time>2026-04-18T13:22:47.889Z</time></trkpt><trkpt lat="42.0948618" lon="11.8916548"><ele>153.0</ele><time>2026-04-18T13:22:48.889Z</time></trkpt><trkpt lat="42.0947678" lon="11.8916285"><ele>152.6</ele><time>2026-04-18T13:22:50.889Z</time></trkpt><trkpt lat="42.0947032" lon="11.8915254"><ele>152.20000000000002</ele><time>2026-04-18T13:22:53.889Z</time></trkpt><trkpt lat="42.0946592" lon="11.8914098"><ele>151.8</ele><time>2026-04-18T13:22:55.888Z</time></trkpt><trkpt lat="42.0945894" lon="11.8912955"><ele>151.4</ele><time>2026-04-18T13:22:57.89Z</time></trkpt><trkpt lat="42.0945227" lon="11.8912082"><ele>151.0</ele><time>2026-04-18T13:22:59.888Z</time></trkpt><trkpt lat="42.0944145" lon="11.8911379"><ele>151.0</ele><time>2026-04-18T13:23:01.888Z</time></trkpt><trkpt lat="42.0943355" lon="11.8911072"><ele>151.0</ele><time>2026-04-18T13:23:02.889Z</time></trkpt><trkpt lat="42.094219" lon="11.8910605"><ele>151.0</ele><time>2026-04-18T13:23:04.888Z</time></trkpt><trkpt lat="42.0941174" lon="11.8909901"><ele>151.0</ele><time>2026-04-18T13:23:06.888Z</time></trkpt><trkpt lat="42.0940357" lon="11.8908827"><ele>151.0</ele><time>2026-04-18T13:23:08.888Z</time></trkpt><trkpt lat="42.0939505" lon="11.8907895"><ele>150.83333333333334</ele><time>2026-04-18T13:23:10.889Z</time></trkpt><trkpt lat="42.0938852" lon="11.890708"><ele>150.66666666666669</ele><time>2026-04-18T13:23:12.889Z</time></trkpt><trkpt lat="42.0938167" lon="11.8906472"><ele>150.5</ele><time>2026-04-18T13:23:14.888Z</time></trkpt><trkpt lat="42.0937431" lon="11.8905655"><ele>150.33333333333334</ele><time>2026-04-18T13:23:16.889Z</time></trkpt><trkpt lat="42.0936925" lon="11.8905124"><ele>150.16666666666666</ele><time>2026-04-18T13:23:17.889Z</time></trkpt><trkpt lat="42.093635" lon="11.89046"><ele>150.0</ele><time>2026-04-18T13:23:18.889Z</time></trkpt><trkpt lat="42.0935384" lon="11.8903902"><ele>150.0</ele><time>2026-04-18T13:23:20.889Z</time></trkpt><trkpt lat="42.0934459" lon="11.8903238"><ele>150.0</ele><time>2026-04-18T13:23:22.889Z</time></trkpt><trkpt lat="42.0933903" lon="11.8902594"><ele>150.0</ele><time>2026-04-18T13:23:24.888Z</time></trkpt><trkpt lat="42.0933196" lon="11.8902052"><ele>150.0</ele><time>2026-04-18T13:23:26.89Z</time></trkpt><trkpt lat="42.0931995" lon="11.8901266"><ele>150.0</ele><time>2026-04-18T13:23:28.888Z</time></trkpt><trkpt lat="42.0931312" lon="11.8900873"><ele>151.16666666666666</ele><time>2026-04-18T13:23:29.889Z</time></trkpt><trkpt lat="42.0930764" lon="11.8900442"><ele>152.33333333333334</ele><time>2026-04-18T13:23:30.889Z</time></trkpt><trkpt lat="42.0929893" lon="11.8899982"><ele>153.5</ele><time>2026-04-18T13:23:32.888Z</time></trkpt><trkpt lat="42.0928927" lon="11.8899905"><ele>154.66666666666669</ele><time>2026-04-18T13:23:34.889Z</time></trkpt><trkpt lat="42.0927936" lon="11.8900341"><ele>155.83333333333334</ele><time>2026-04-18T13:23:36.889Z</time></trkpt><trkpt lat="42.092713" lon="11.8900827"><ele>157.0</ele><time>2026-04-18T13:23:38.89Z</time></trkpt><trkpt lat="42.0926394" lon="11.8901265"><ele>157.0</ele><time>2026-04-18T13:23:40.889Z</time></trkpt><trkpt lat="42.0925598" lon="11.8901562"><ele>157.0</ele><time>2026-04-18T13:23:42.888Z</time></trkpt><trkpt lat="42.0924735" lon="11.8901596"><ele>157.0</ele><time>2026-04-18T13:23:44.888Z</time></trkpt><trkpt lat="42.0923662" lon="11.8901415"><ele>157.0</ele><time>2026-04-18T13:23:46.888Z</time></trkpt><trkpt lat="42.0922933" lon="11.8901317"><ele>157.0</ele><time>2026-04-18T13:23:47.89Z</time></trkpt><trkpt lat="42.0921834" lon="11.8900993"><ele>155.83333333333334</ele><time>2026-04-18T13:23:49.888Z</time></trkpt><trkpt lat="42.0920938" lon="11.8900628"><ele>154.66666666666669</ele><time>2026-04-18T13:23:51.889Z</time></trkpt><trkpt lat="42.0920103" lon="11.8900246"><ele>153.5</ele><time>2026-04-18T13:23:53.889Z</time></trkpt><trkpt lat="42.0919314" lon="11.8899964"><ele>152.33333333333334</ele><time>2026-04-18T13:23:55.889Z</time></trkpt><trkpt lat="42.09185" lon="11.889968"><ele>151.16666666666666</ele><time>2026-04-18T13:23:57.888Z</time></trkpt><trkpt lat="42.0917913" lon="11.8899251"><ele>150.0</ele><time>2026-04-18T13:23:59.89Z</time></trkpt><trkpt lat="42.0917974" lon="11.8898051"><ele>150.0</ele><time>2026-04-18T13:24:02.888Z</time></trkpt><trkpt lat="42.091823" lon="11.8897094"><ele>150.0</ele><time>2026-04-18T13:24:04.888Z</time></trkpt><trkpt lat="42.091813" lon="11.8895909"><ele>150.0</ele><time>2026-04-18T13:24:06.889Z</time></trkpt><trkpt lat="42.0917781" lon="11.889474"><ele>150.0</ele><time>2026-04-18T13:24:08.89Z</time></trkpt><trkpt lat="42.0917303" lon="11.8893282"><ele>150.0</ele><time>2026-04-18T13:24:10.89Z</time></trkpt><trkpt lat="42.0916999" lon="11.8892384"><ele>150.0</ele><time>2026-04-18T13:24:11.888Z</time></trkpt><trkpt lat="42.0916722" lon="11.8890808"><ele>148.8</ele><time>2026-04-18T13:24:13.888Z</time></trkpt><trkpt lat="42.0916434" lon="11.8889401"><ele>147.6</ele><time>2026-04-18T13:24:15.889Z</time></trkpt><trkpt lat="42.0916114" lon="11.8887892"><ele>146.4</ele><time>2026-04-18T13:24:17.889Z</time></trkpt><trkpt lat="42.0915812" lon="11.8886932"><ele>145.2</ele><time>2026-04-18T13:24:18.889Z</time></trkpt><trkpt lat="42.0915512" lon="11.888602"><ele>144.0</ele><time>2026-04-18T13:24:19.888Z</time></trkpt><trkpt lat="42.0914825" lon="11.888457"><ele>146.0</ele><time>2026-04-18T13:24:21.889Z</time></trkpt><trkpt lat="42.0914374" lon="11.8883782"><ele>148.0</ele><time>2026-04-18T13:24:22.889Z</time></trkpt><trkpt lat="42.0913522" lon="11.8882709"><ele>150.0</ele><time>2026-04-18T13:24:24.888Z</time></trkpt><trkpt lat="42.091297" lon="11.8882169"><ele>152.0</ele><time>2026-04-18T13:24:25.889Z</time></trkpt><trkpt lat="42.0912283" lon="11.8881567"><ele>154.0</ele><time>2026-04-18T13:24:26.89Z</time></trkpt><trkpt lat="42.0911703" lon="11.8881041"><ele>156.0</ele><time>2026-04-18T13:24:27.888Z</time></trkpt><trkpt lat="42.091106" lon="11.8880537"><ele>156.0</ele><time>2026-04-18T13:24:28.89Z</time></trkpt><trkpt lat="42.0910019" lon="11.8880037"><ele>156.0</ele><time>2026-04-18T13:24:30.889Z</time></trkpt><trkpt lat="42.090882" lon="11.8879991"><ele>156.0</ele><time>2026-04-18T13:24:32.89Z</time></trkpt><trkpt lat="42.0908121" lon="11.8880144"><ele>156.0</ele><time>2026-04-18T13:24:33.889Z</time></trkpt><trkpt lat="42.090742" lon="11.8880382"><ele>156.0</ele><time>2026-04-18T13:24:34.889Z</time></trkpt><trkpt lat="42.0906241" lon="11.8880589"><ele>156.6</ele><time>2026-04-18T13:24:36.888Z</time></trkpt><trkpt lat="42.0905048" lon="11.888071"><ele>157.2</ele><time>2026-04-18T13:24:38.89Z</time></trkpt><trkpt lat="42.0903897" lon="11.8880418"><ele>157.8</ele><time>2026-04-18T13:24:40.888Z</time></trkpt><trkpt lat="42.0902583" lon="11.8879789"><ele>158.4</ele><time>2026-04-18T13:24:42.89Z</time></trkpt><trkpt lat="42.0901963" lon="11.8879353"><ele>159.0</ele><time>2026-04-18T13:24:43.888Z</time></trkpt><trkpt lat="42.0900998" lon="11.8878866"><ele>159.0</ele><time>2026-04-18T13:24:45.89Z</time></trkpt><trkpt lat="42.0900048" lon="11.8878591"><ele>159.0</ele><time>2026-04-18T13:24:47.889Z</time></trkpt><trkpt lat="42.0899105" lon="11.8878537"><ele>159.0</ele><time>2026-04-18T13:24:49.889Z</time></trkpt><trkpt lat="42.0898123" lon="11.8878963"><ele>159.0</ele><time>2026-04-18T13:24:51.888Z</time></trkpt><trkpt lat="42.0897208" lon="11.8879419"><ele>159.0</ele><time>2026-04-18T13:24:53.888Z</time></trkpt><trkpt lat="42.0896344" lon="11.8880321"><ele>159.0</ele><time>2026-04-18T13:24:55.889Z</time></trkpt><trkpt lat="42.0895492" lon="11.8881663"><ele>159.0</ele><time>2026-04-18T13:24:57.888Z</time></trkpt><trkpt lat="42.0894924" lon="11.8882594"><ele>159.0</ele><time>2026-04-18T13:24:58.889Z</time></trkpt><trkpt lat="42.0894458" lon="11.8883323"><ele>159.0</ele><time>2026-04-18T13:24:59.888Z</time></trkpt><trkpt lat="42.0893821" lon="11.8884112"><ele>159.0</ele><time>2026-04-18T13:25:00.889Z</time></trkpt><trkpt lat="42.0893179" lon="11.8884781"><ele>160.0</ele><time>2026-04-18T13:25:01.889Z</time></trkpt><trkpt lat="42.0892643" lon="11.8885285"><ele>161.0</ele><time>2026-04-18T13:25:02.889Z</time></trkpt><trkpt lat="42.0891589" lon="11.888617"><ele>162.0</ele><time>2026-04-18T13:25:04.889Z</time></trkpt><trkpt lat="42.0890542" lon="11.8886867"><ele>163.0</ele><time>2026-04-18T13:25:06.889Z</time></trkpt><trkpt lat="42.08897" lon="11.8887405"><ele>164.0</ele><time>2026-04-18T13:25:08.888Z</time></trkpt><trkpt lat="42.0889132" lon="11.888782"><ele>164.0</ele><time>2026-04-18T13:25:10.888Z</time></trkpt><trkpt lat="42.0888122" lon="11.8888177"><ele>164.0</ele><time>2026-04-18T13:25:12.889Z</time></trkpt><trkpt lat="42.08875" lon="11.888844"><ele>164.0</ele><time>2026-04-18T13:25:13.889Z</time></trkpt><trkpt lat="42.0886474" lon="11.8889029"><ele>164.0</ele><time>2026-04-18T13:25:15.889Z</time></trkpt><trkpt lat="42.0885595" lon="11.8890025"><ele>164.0</ele><time>2026-04-18T13:25:17.889Z</time></trkpt><trkpt lat="42.0885028" lon="11.8891332"><ele>164.0</ele><time>2026-04-18T13:25:19.888Z</time></trkpt><trkpt lat="42.0884609" lon="11.8892204"><ele>164.0</ele><time>2026-04-18T13:25:20.89Z</time></trkpt><trkpt lat="42.0884177" lon="11.8893129"><ele>164.0</ele><time>2026-04-18T13:25:21.889Z</time></trkpt><trkpt lat="42.088373" lon="11.8893963"><ele>164.0</ele><time>2026-04-18T13:25:22.888Z</time></trkpt><trkpt lat="42.0883366" lon="11.8894698"><ele>164.0</ele><time>2026-04-18T13:25:23.889Z</time></trkpt><trkpt lat="42.0882836" lon="11.8896059"><ele>164.0</ele><time>2026-04-18T13:25:25.888Z</time></trkpt><trkpt lat="42.0882237" lon="11.8897289"><ele>164.6</ele><time>2026-04-18T13:25:27.888Z</time></trkpt><trkpt lat="42.0881611" lon="11.8898566"><ele>165.2</ele><time>2026-04-18T13:25:29.888Z</time></trkpt><trkpt lat="42.0881006" lon="11.8899858"><ele>165.79999999999998</ele><time>2026-04-18T13:25:31.89Z</time></trkpt><trkpt lat="42.088039" lon="11.8901471"><ele>166.39999999999998</ele><time>2026-04-18T13:25:33.889Z</time></trkpt><trkpt lat="42.0880166" lon="11.8902372"><ele>167.0</ele><time>2026-04-18T13:25:34.888Z</time></trkpt><trkpt lat="42.0880031" lon="11.8904069"><ele>168.8</ele><time>2026-04-18T13:25:36.888Z</time></trkpt><trkpt lat="42.087975" lon="11.8905285"><ele>170.6</ele><time>2026-04-18T13:25:38.89Z</time></trkpt><trkpt lat="42.0879121" lon="11.8906206"><ele>172.4</ele><time>2026-04-18T13:25:40.889Z</time></trkpt><trkpt lat="42.0878601" lon="11.8906788"><ele>174.20000000000002</ele><time>2026-04-18T13:25:41.89Z</time></trkpt><trkpt lat="42.0877996" lon="11.8907414"><ele>176.0</ele><time>2026-04-18T13:25:42.889Z</time></trkpt><trkpt lat="42.0876896" lon="11.8908113"><ele>176.0</ele><time>2026-04-18T13:25:44.888Z</time></trkpt><trkpt lat="42.0876267" lon="11.8908345"><ele>176.0</ele><time>2026-04-18T13:25:45.89Z</time></trkpt><trkpt lat="42.0875562" lon="11.8908636"><ele>176.0</ele><time>2026-04-18T13:25:46.889Z</time></trkpt><trkpt lat="42.0874855" lon="11.8909046"><ele>176.0</ele><time>2026-04-18T13:25:47.889Z</time></trkpt><trkpt lat="42.0874174" lon="11.8909553"><ele>176.0</ele><time>2026-04-18T13:25:48.888Z</time></trkpt><trkpt lat="42.0873283" lon="11.8910058"><ele>176.0</ele><time>2026-04-18T13:25:50.889Z</time></trkpt><trkpt lat="42.0872467" lon="11.8910768"><ele>176.60000000000002</ele><time>2026-04-18T13:25:52.89Z</time></trkpt><trkpt lat="42.0871691" lon="11.8911151"><ele>177.2</ele><time>2026-04-18T13:25:54.89Z</time></trkpt><trkpt lat="42.0871096" lon="11.8910075"><ele>177.8</ele><time>2026-04-18T13:25:57.89Z</time></trkpt><trkpt lat="42.0871029" lon="11.8908433"><ele>178.39999999999998</ele><time>2026-04-18T13:25:59.888Z</time></trkpt><trkpt lat="42.0871096" lon="11.8907014"><ele>179.0</ele><time>2026-04-18T13:26:01.888Z</time></trkpt><trkpt lat="42.0871256" lon="11.8905784"><ele>177.79999999999998</ele><time>2026-04-18T13:26:03.888Z</time></trkpt><trkpt lat="42.0871589" lon="11.8904623"><ele>176.6</ele><time>2026-04-18T13:26:05.889Z</time></trkpt><trkpt lat="42.0872113" lon="11.8903577"><ele>175.4</ele><time>2026-04-18T13:26:07.889Z</time></trkpt><trkpt lat="42.0872743" lon="11.890251"><ele>174.2</ele><time>2026-04-18T13:26:09.889Z</time></trkpt><trkpt lat="42.087295" lon="11.8901081"><ele>173.0</ele><time>2026-04-18T13:26:11.887Z</time></trkpt><trkpt lat="42.0872788" lon="11.8899527"><ele>171.4</ele><time>2026-04-18T13:26:13.888Z</time></trkpt><trkpt lat="42.087248" lon="11.8898311"><ele>169.8</ele><time>2026-04-18T13:26:15.887Z</time></trkpt><trkpt lat="42.0872025" lon="11.8897493"><ele>168.2</ele><time>2026-04-18T13:26:17.888Z</time></trkpt><trkpt lat="42.0871306" lon="11.8896797"><ele>166.6</ele><time>2026-04-18T13:26:19.887Z</time></trkpt><trkpt lat="42.0870305" lon="11.8895969"><ele>165.0</ele><time>2026-04-18T13:26:21.889Z</time></trkpt><trkpt lat="42.0869307" lon="11.8895075"><ele>165.0</ele><time>2026-04-18T13:26:23.888Z</time></trkpt><trkpt lat="42.0868324" lon="11.8894163"><ele>165.0</ele><time>2026-04-18T13:26:25.888Z</time></trkpt><trkpt lat="42.0867356" lon="11.8893317"><ele>165.0</ele><time>2026-04-18T13:26:27.888Z</time></trkpt><trkpt lat="42.0866191" lon="11.8892561"><ele>165.0</ele><time>2026-04-18T13:26:29.888Z</time></trkpt><trkpt lat="42.0865069" lon="11.8892008"><ele>161.6</ele><time>2026-04-18T13:26:31.889Z</time></trkpt><trkpt lat="42.0864051" lon="11.889149"><ele>158.2</ele><time>2026-04-18T13:26:33.887Z</time></trkpt><trkpt lat="42.0863268" lon="11.8890764"><ele>154.8</ele><time>2026-04-18T13:26:35.888Z</time></trkpt><trkpt lat="42.0862657" lon="11.8889729"><ele>151.4</ele><time>2026-04-18T13:26:37.889Z</time></trkpt><trkpt lat="42.0861957" lon="11.8888552"><ele>148.0</ele><time>2026-04-18T13:26:39.888Z</time></trkpt><trkpt lat="42.0861379" lon="11.888754"><ele>148.0</ele><time>2026-04-18T13:26:41.887Z</time></trkpt><trkpt lat="42.0860875" lon="11.8886328"><ele>148.0</ele><time>2026-04-18T13:26:43.888Z</time></trkpt><trkpt lat="42.0860394" lon="11.888499"><ele>148.0</ele><time>2026-04-18T13:26:45.888Z</time></trkpt><trkpt lat="42.0859954" lon="11.8883685"><ele>148.0</ele><time>2026-04-18T13:26:47.888Z</time></trkpt><trkpt lat="42.0859584" lon="11.8882682"><ele>148.0</ele><time>2026-04-18T13:26:49.888Z</time></trkpt><trkpt lat="42.0859162" lon="11.8881767"><ele>146.57142857142858</ele><time>2026-04-18T13:26:51.887Z</time></trkpt><trkpt lat="42.0858524" lon="11.8880872"><ele>145.14285714285714</ele><time>2026-04-18T13:26:53.889Z</time></trkpt><trkpt lat="42.0858" lon="11.8880266"><ele>143.71428571428572</ele><time>2026-04-18T13:26:54.887Z</time></trkpt><trkpt lat="42.0857484" lon="11.8879728"><ele>142.28571428571428</ele><time>2026-04-18T13:26:55.889Z</time></trkpt><trkpt lat="42.0856978" lon="11.887918"><ele>140.85714285714286</ele><time>2026-04-18T13:26:56.888Z</time></trkpt><trkpt lat="42.085651" lon="11.8878549"><ele>139.42857142857144</ele><time>2026-04-18T13:26:57.889Z</time></trkpt><trkpt lat="42.0856133" lon="11.8877857"><ele>138.0</ele><time>2026-04-18T13:26:58.887Z</time></trkpt><trkpt lat="42.0855684" lon="11.8876918"><ele>136.16666666666666</ele><time>2026-04-18T13:26:59.888Z</time></trkpt><trkpt lat="42.0855177" lon="11.8875805"><ele>134.33333333333334</ele><time>2026-04-18T13:27:00.888Z</time></trkpt><trkpt lat="42.0854811" lon="11.8874833"><ele>132.5</ele><time>2026-04-18T13:27:01.887Z</time></trkpt><trkpt lat="42.085446" lon="11.8873954"><ele>130.66666666666669</ele><time>2026-04-18T13:27:02.887Z</time></trkpt><trkpt lat="42.0854139" lon="11.8873121"><ele>128.83333333333334</ele><time>2026-04-18T13:27:03.888Z</time></trkpt><trkpt lat="42.0853829" lon="11.8872362"><ele>127.0</ele><time>2026-04-18T13:27:04.888Z</time></trkpt><trkpt lat="42.0853223" lon="11.8870776"><ele>127.0</ele><time>2026-04-18T13:27:06.888Z</time></trkpt><trkpt lat="42.0852928" lon="11.8869925"><ele>127.0</ele><time>2026-04-18T13:27:07.888Z</time></trkpt><trkpt lat="42.0852638" lon="11.8869084"><ele>127.0</ele><time>2026-04-18T13:27:08.887Z</time></trkpt><trkpt lat="42.0852424" lon="11.8868259"><ele>127.0</ele><time>2026-04-18T13:27:09.887Z</time></trkpt><trkpt lat="42.0852203" lon="11.8867328"><ele>127.0</ele><time>2026-04-18T13:27:10.888Z</time></trkpt><trkpt lat="42.0852024" lon="11.8866426"><ele>127.0</ele><time>2026-04-18T13:27:11.887Z</time></trkpt><trkpt lat="42.085183" lon="11.8865512"><ele>127.0</ele><time>2026-04-18T13:27:12.887Z</time></trkpt><trkpt lat="42.0851534" lon="11.886387"><ele>126.0</ele><time>2026-04-18T13:27:14.888Z</time></trkpt><trkpt lat="42.0851206" lon="11.8862322"><ele>125.0</ele><time>2026-04-18T13:27:16.888Z</time></trkpt><trkpt lat="42.0850977" lon="11.8860919"><ele>124.0</ele><time>2026-04-18T13:27:18.887Z</time></trkpt><trkpt lat="42.0850989" lon="11.885928"><ele>123.0</ele><time>2026-04-18T13:27:20.889Z</time></trkpt><trkpt lat="42.0851129" lon="11.8857553"><ele>122.33333333333333</ele><time>2026-04-18T13:27:22.887Z</time></trkpt><trkpt lat="42.0851269" lon="11.8856724"><ele>121.66666666666666</ele><time>2026-04-18T13:27:23.888Z</time></trkpt><trkpt lat="42.0851563" lon="11.8855129"><ele>121.0</ele><time>2026-04-18T13:27:25.888Z</time></trkpt><trkpt lat="42.0851747" lon="11.8853858"><ele>120.33333333333333</ele><time>2026-04-18T13:27:27.888Z</time></trkpt><trkpt lat="42.0851841" lon="11.8852784"><ele>119.66666666666666</ele><time>2026-04-18T13:27:29.887Z</time></trkpt><trkpt lat="42.0852018" lon="11.8851885"><ele>119.0</ele><time>2026-04-18T13:27:31.887Z</time></trkpt><trkpt lat="42.0852373" lon="11.8851077"><ele>117.0</ele><time>2026-04-18T13:27:33.888Z</time></trkpt><trkpt lat="42.0852441" lon="11.8850139"><ele>115.0</ele><time>2026-04-18T13:27:35.887Z</time></trkpt><trkpt lat="42.085239" lon="11.8849011"><ele>113.0</ele><time>2026-04-18T13:27:37.888Z</time></trkpt><trkpt lat="42.0852682" lon="11.8847859"><ele>111.0</ele><time>2026-04-18T13:27:39.888Z</time></trkpt><trkpt lat="42.0852767" lon="11.8846592"><ele>109.0</ele><time>2026-04-18T13:27:41.887Z</time></trkpt><trkpt lat="42.0852466" lon="11.8845132"><ele>109.0</ele><time>2026-04-18T13:27:43.889Z</time></trkpt><trkpt lat="42.0851746" lon="11.8843955"><ele>109.0</ele><time>2026-04-18T13:27:45.887Z</time></trkpt><trkpt lat="42.0851096" lon="11.8843008"><ele>109.0</ele><time>2026-04-18T13:27:47.887Z</time></trkpt><trkpt lat="42.085041" lon="11.8841924"><ele>109.0</ele><time>2026-04-18T13:27:49.888Z</time></trkpt><trkpt lat="42.0849449" lon="11.8840716"><ele>109.0</ele><time>2026-04-18T13:27:51.887Z</time></trkpt><trkpt lat="42.0848917" lon="11.8840175"><ele>106.85714285714286</ele><time>2026-04-18T13:27:52.888Z</time></trkpt><trkpt lat="42.0848361" lon="11.8839531"><ele>104.71428571428572</ele><time>2026-04-18T13:27:53.888Z</time></trkpt><trkpt lat="42.0847787" lon="11.8838848"><ele>102.57142857142857</ele><time>2026-04-18T13:27:54.888Z</time></trkpt><trkpt lat="42.0847251" lon="11.8838248"><ele>100.42857142857143</ele><time>2026-04-18T13:27:55.888Z</time></trkpt><trkpt lat="42.0846764" lon="11.8837673"><ele>98.28571428571428</ele><time>2026-04-18T13:27:56.888Z</time></trkpt><trkpt lat="42.084634" lon="11.8837013"><ele>96.14285714285714</ele><time>2026-04-18T13:27:57.889Z</time></trkpt><trkpt lat="42.08459" lon="11.8836268"><ele>94.0</ele><time>2026-04-18T13:27:58.888Z</time></trkpt><trkpt lat="42.0845193" lon="11.8835027"><ele>93.33333333333333</ele><time>2026-04-18T13:28:00.887Z</time></trkpt><trkpt lat="42.0844797" lon="11.8833794"><ele>92.66666666666666</ele><time>2026-04-18T13:28:02.889Z</time></trkpt><trkpt lat="42.0844574" lon="11.8832842"><ele>92.0</ele><time>2026-04-18T13:28:04.888Z</time></trkpt><trkpt lat="42.0844751" lon="11.8831988"><ele>91.33333333333333</ele><time>2026-04-18T13:28:10.888Z</time></trkpt><trkpt lat="42.0845299" lon="11.8831559"><ele>90.66666666666667</ele><time>2026-04-18T13:28:12.887Z</time></trkpt><trkpt lat="42.0845869" lon="11.8831153"><ele>90.0</ele><time>2026-04-18T13:28:15.888Z</time></trkpt><trkpt lat="42.0846745" lon="11.8831183"><ele>90.0</ele><time>2026-04-18T13:28:19.887Z</time></trkpt><trkpt lat="42.0847389" lon="11.8830854"><ele>90.0</ele><time>2026-04-18T13:28:23.887Z</time></trkpt><trkpt lat="42.0847849" lon="11.8830107"><ele>90.0</ele><time>2026-04-18T13:28:34.887Z</time></trkpt><trkpt lat="42.0848274" lon="11.8829481"><ele>90.0</ele><time>2026-04-18T13:28:40.889Z</time></trkpt><trkpt lat="42.0848412" lon="11.8828435"><ele>90.0</ele><time>2026-04-18T13:28:50.889Z</time></trkpt><trkpt lat="42.0848049" lon="11.8827183"><ele>90.0</ele><time>2026-04-18T13:28:52.887Z</time></trkpt><trkpt lat="42.0848038" lon="11.8826273"><ele>90.0</ele><time>2026-04-18T13:28:56.888Z</time></trkpt><trkpt lat="42.0848604" lon="11.8825461"><ele>90.0</ele><time>2026-04-18T13:29:34.888Z</time></trkpt><trkpt lat="42.0849396" lon="11.882415"><ele>90.0</ele><time>2026-04-18T13:29:36.887Z</time></trkpt><trkpt lat="42.0849716" lon="11.8823245"><ele>90.0</ele><time>2026-04-18T13:29:37.888Z</time></trkpt><trkpt lat="42.0850039" lon="11.8822239"><ele>90.0</ele><time>2026-04-18T13:29:38.887Z</time></trkpt><trkpt lat="42.0850392" lon="11.8821185"><ele>90.16666666666667</ele><time>2026-04-18T13:29:39.887Z</time></trkpt><trkpt lat="42.0850638" lon="11.8820242"><ele>90.33333333333333</ele><time>2026-04-18T13:29:40.888Z</time></trkpt><trkpt lat="42.0850814" lon="11.8819312"><ele>90.5</ele><time>2026-04-18T13:29:41.887Z</time></trkpt><trkpt lat="42.0851138" lon="11.88182"><ele>90.66666666666666</ele><time>2026-04-18T13:29:42.887Z</time></trkpt><trkpt lat="42.0851474" lon="11.8817117"><ele>90.83333333333333</ele><time>2026-04-18T13:29:43.887Z</time></trkpt><trkpt lat="42.0851733" lon="11.8816038"><ele>91.0</ele><time>2026-04-18T13:29:44.888Z</time></trkpt><trkpt lat="42.0851854" lon="11.8815003"><ele>91.16666666666666</ele><time>2026-04-18T13:29:45.887Z</time></trkpt><trkpt lat="42.0851924" lon="11.8813897"><ele>91.33333333333333</ele><time>2026-04-18T13:29:46.889Z</time></trkpt><trkpt lat="42.0851887" lon="11.8812872"><ele>91.5</ele><time>2026-04-18T13:29:47.888Z</time></trkpt><trkpt lat="42.0851886" lon="11.8812011"><ele>91.66666666666667</ele><time>2026-04-18T13:29:48.888Z</time></trkpt><trkpt lat="42.0852098" lon="11.8810696"><ele>91.83333333333334</ele><time>2026-04-18T13:29:50.887Z</time></trkpt><trkpt lat="42.0852428" lon="11.8809874"><ele>92.0</ele><time>2026-04-18T13:29:51.887Z</time></trkpt><trkpt lat="42.0852854" lon="11.8808925"><ele>93.39999999999999</ele><time>2026-04-18T13:29:52.888Z</time></trkpt><trkpt lat="42.0853338" lon="11.8807785"><ele>94.8</ele><time>2026-04-18T13:29:53.887Z</time></trkpt><trkpt lat="42.0853687" lon="11.8806709"><ele>96.2</ele><time>2026-04-18T13:29:54.887Z</time></trkpt><trkpt lat="42.0854019" lon="11.8805461"><ele>97.6</ele><time>2026-04-18T13:29:55.887Z</time></trkpt><trkpt lat="42.0854629" lon="11.8804332"><ele>99.0</ele><time>2026-04-18T13:29:57.887Z</time></trkpt><trkpt lat="42.0855073" lon="11.8803712"><ele>99.0</ele><time>2026-04-18T13:29:58.889Z</time></trkpt><trkpt lat="42.08559" lon="11.8802611"><ele>99.0</ele><time>2026-04-18T13:30:00.889Z</time></trkpt><trkpt lat="42.0856459" lon="11.8801969"><ele>99.0</ele><time>2026-04-18T13:30:01.888Z</time></trkpt><trkpt lat="42.0856948" lon="11.8801361"><ele>99.0</ele><time>2026-04-18T13:30:02.888Z</time></trkpt><trkpt lat="42.0857483" lon="11.8800539"><ele>99.0</ele><time>2026-04-18T13:30:03.889Z</time></trkpt><trkpt lat="42.0857995" lon="11.8799771"><ele>99.0</ele><time>2026-04-18T13:30:04.889Z</time></trkpt><trkpt lat="42.08584" lon="11.8799071"><ele>102.4</ele><time>2026-04-18T13:30:05.888Z</time></trkpt><trkpt lat="42.0858748" lon="11.8797407"><ele>105.80000000000001</ele><time>2026-04-18T13:30:07.887Z</time></trkpt><trkpt lat="42.0858739" lon="11.8796364"><ele>109.19999999999999</ele><time>2026-04-18T13:30:08.887Z</time></trkpt><trkpt lat="42.0858597" lon="11.8795409"><ele>112.6</ele><time>2026-04-18T13:30:09.888Z</time></trkpt><trkpt lat="42.0858462" lon="11.879457"><ele>116.0</ele><time>2026-04-18T13:30:10.888Z</time></trkpt><trkpt lat="42.0858304" lon="11.879306"><ele>117.57142857142858</ele><time>2026-04-18T13:30:12.888Z</time></trkpt><trkpt lat="42.0858294" lon="11.8792172"><ele>119.14285714285714</ele><time>2026-04-18T13:30:13.887Z</time></trkpt><trkpt lat="42.0858323" lon="11.8791249"><ele>120.71428571428572</ele><time>2026-04-18T13:30:14.887Z</time></trkpt><trkpt lat="42.0858471" lon="11.8790327"><ele>122.28571428571429</ele><time>2026-04-18T13:30:15.889Z</time></trkpt><trkpt lat="42.0858638" lon="11.8789395"><ele>123.85714285714286</ele><time>2026-04-18T13:30:16.888Z</time></trkpt><trkpt lat="42.0858895" lon="11.8788478"><ele>125.42857142857143</ele><time>2026-04-18T13:30:17.889Z</time></trkpt><trkpt lat="42.0859155" lon="11.8787578"><ele>127.0</ele><time>2026-04-18T13:30:18.887Z</time></trkpt><trkpt lat="42.0859645" lon="11.8786111"><ele>127.00000000000001</ele><time>2026-04-18T13:30:20.887Z</time></trkpt><trkpt lat="42.0859963" lon="11.8785341"><ele>127.0</ele><time>2026-04-18T13:30:21.888Z</time></trkpt><trkpt lat="42.0860311" lon="11.8784413"><ele>127.0</ele><time>2026-04-18T13:30:22.887Z</time></trkpt><trkpt lat="42.0860755" lon="11.8783441"><ele>127.0</ele><time>2026-04-18T13:30:23.888Z</time></trkpt><trkpt lat="42.0861205" lon="11.8782463"><ele>127.00000000000001</ele><time>2026-04-18T13:30:24.887Z</time></trkpt><trkpt lat="42.0861584" lon="11.8781697"><ele>127.0</ele><time>2026-04-18T13:30:25.887Z</time></trkpt><trkpt lat="42.0862037" lon="11.8780974"><ele>128.5</ele><time>2026-04-18T13:30:26.887Z</time></trkpt><trkpt lat="42.0862541" lon="11.8779988"><ele>130.0</ele><time>2026-04-18T13:30:27.887Z</time></trkpt><trkpt lat="42.0863071" lon="11.8779138"><ele>131.5</ele><time>2026-04-18T13:30:28.887Z</time></trkpt><trkpt lat="42.0863559" lon="11.8778413"><ele>133.0</ele><time>2026-04-18T13:30:29.887Z</time></trkpt><trkpt lat="42.0863998" lon="11.8777678"><ele>134.5</ele><time>2026-04-18T13:30:30.888Z</time></trkpt><trkpt lat="42.0864304" lon="11.8776911"><ele>136.0</ele><time>2026-04-18T13:30:31.888Z</time></trkpt><trkpt lat="42.0864733" lon="11.8775438"><ele>138.2</ele><time>2026-04-18T13:30:33.887Z</time></trkpt><trkpt lat="42.0865246" lon="11.8774183"><ele>140.39999999999998</ele><time>2026-04-18T13:30:35.887Z</time></trkpt><trkpt lat="42.0866021" lon="11.8773224"><ele>142.6</ele><time>2026-04-18T13:30:37.888Z</time></trkpt><trkpt lat="42.0866599" lon="11.8772799"><ele>144.79999999999998</ele><time>2026-04-18T13:30:38.888Z</time></trkpt><trkpt lat="42.0867216" lon="11.8772624"><ele>147.0</ele><time>2026-04-18T13:30:39.888Z</time></trkpt><trkpt lat="42.0868315" lon="11.8772495"><ele>147.66666666666666</ele><time>2026-04-18T13:30:41.889Z</time></trkpt><trkpt lat="42.0869223" lon="11.8771998"><ele>148.33333333333334</ele><time>2026-04-18T13:30:43.888Z</time></trkpt><trkpt lat="42.0869877" lon="11.8770894"><ele>149.0</ele><time>2026-04-18T13:30:45.887Z</time></trkpt><trkpt lat="42.0870242" lon="11.876997"><ele>149.66666666666669</ele><time>2026-04-18T13:30:46.887Z</time></trkpt><trkpt lat="42.0870624" lon="11.8768949"><ele>150.33333333333334</ele><time>2026-04-18T13:30:47.889Z</time></trkpt><trkpt lat="42.0870807" lon="11.8768069"><ele>151.0</ele><time>2026-04-18T13:30:48.888Z</time></trkpt><trkpt lat="42.0870931" lon="11.8766584"><ele>152.5</ele><time>2026-04-18T13:30:50.888Z</time></trkpt><trkpt lat="42.0871263" lon="11.8765599"><ele>154.0</ele><time>2026-04-18T13:30:51.888Z</time></trkpt><trkpt lat="42.0871647" lon="11.8764714"><ele>155.5</ele><time>2026-04-18T13:30:52.887Z</time></trkpt><trkpt lat="42.0872035" lon="11.8763839"><ele>157.0</ele><time>2026-04-18T13:30:53.888Z</time></trkpt><trkpt lat="42.0873003" lon="11.876276"><ele>158.5</ele><time>2026-04-18T13:30:55.888Z</time></trkpt><trkpt lat="42.0873438" lon="11.8762129"><ele>160.0</ele><time>2026-04-18T13:30:56.887Z</time></trkpt><trkpt lat="42.0874024" lon="11.8760414"><ele>160.5</ele><time>2026-04-18T13:30:58.887Z</time></trkpt><trkpt lat="42.0874535" lon="11.8759538"><ele>161.0</ele><time>2026-04-18T13:30:59.888Z</time></trkpt><trkpt lat="42.0875055" lon="11.8758747"><ele>161.5</ele><time>2026-04-18T13:31:00.888Z</time></trkpt><trkpt lat="42.0875513" lon="11.8757181"><ele>162.0</ele><time>2026-04-18T13:31:02.888Z</time></trkpt><trkpt lat="42.0875717" lon="11.8756145"><ele>162.5</ele><time>2026-04-18T13:31:03.889Z</time></trkpt><trkpt lat="42.0875943" lon="11.8755171"><ele>163.0</ele><time>2026-04-18T13:31:04.887Z</time></trkpt><trkpt lat="42.0876167" lon="11.8754327"><ele>164.60000000000002</ele><time>2026-04-18T13:31:05.887Z</time></trkpt><trkpt lat="42.0877074" lon="11.875306"><ele>166.20000000000002</ele><time>2026-04-18T13:31:07.888Z</time></trkpt><trkpt lat="42.0877793" lon="11.8752415"><ele>167.8</ele><time>2026-04-18T13:31:08.888Z</time></trkpt><trkpt lat="42.0878687" lon="11.875166"><ele>169.4</ele><time>2026-04-18T13:31:09.889Z</time></trkpt><trkpt lat="42.0879674" lon="11.8750738"><ele>171.0</ele><time>2026-04-18T13:31:10.887Z</time></trkpt><trkpt lat="42.0880714" lon="11.874987"><ele>172.0</ele><time>2026-04-18T13:31:11.888Z</time></trkpt><trkpt lat="42.0881667" lon="11.8749014"><ele>173.0</ele><time>2026-04-18T13:31:12.889Z</time></trkpt><trkpt lat="42.088256" lon="11.8748204"><ele>174.0</ele><time>2026-04-18T13:31:13.887Z</time></trkpt><trkpt lat="42.0883286" lon="11.8747443"><ele>175.0</ele><time>2026-04-18T13:31:14.887Z</time></trkpt><trkpt lat="42.088399" lon="11.8746581"><ele>176.0</ele><time>2026-04-18T13:31:15.888Z</time></trkpt><trkpt lat="42.0884679" lon="11.874566"><ele>176.0</ele><time>2026-04-18T13:31:16.887Z</time></trkpt><trkpt lat="42.0885306" lon="11.8744809"><ele>176.0</ele><time>2026-04-18T13:31:17.887Z</time></trkpt><trkpt lat="42.0885767" lon="11.8743985"><ele>176.0</ele><time>2026-04-18T13:31:18.889Z</time></trkpt><trkpt lat="42.0886246" lon="11.8743106"><ele>176.0</ele><time>2026-04-18T13:31:19.887Z</time></trkpt><trkpt lat="42.0886697" lon="11.8742422"><ele>176.0</ele><time>2026-04-18T13:31:20.888Z</time></trkpt><trkpt lat="42.0887833" lon="11.8741515"><ele>176.0</ele><time>2026-04-18T13:31:22.888Z</time></trkpt><trkpt lat="42.0888577" lon="11.8740997"><ele>178.60000000000002</ele><time>2026-04-18T13:31:23.887Z</time></trkpt><trkpt lat="42.0889565" lon="11.8740055"><ele>181.2</ele><time>2026-04-18T13:31:25.887Z</time></trkpt><trkpt lat="42.0889997" lon="11.8739243"><ele>183.8</ele><time>2026-04-18T13:31:26.888Z</time></trkpt><trkpt lat="42.0890554" lon="11.8738167"><ele>186.39999999999998</ele><time>2026-04-18T13:31:27.887Z</time></trkpt><trkpt lat="42.0891155" lon="11.8736922"><ele>189.0</ele><time>2026-04-18T13:31:28.887Z</time></trkpt><trkpt lat="42.0891798" lon="11.8735656"><ele>191.79999999999998</ele><time>2026-04-18T13:31:29.886Z</time></trkpt><trkpt lat="42.0892451" lon="11.8734386"><ele>194.6</ele><time>2026-04-18T13:31:30.887Z</time></trkpt><trkpt lat="42.0893106" lon="11.8733227"><ele>197.4</ele><time>2026-04-18T13:31:31.887Z</time></trkpt><trkpt lat="42.0893745" lon="11.8732015"><ele>200.2</ele><time>2026-04-18T13:31:32.888Z</time></trkpt><trkpt lat="42.0894369" lon="11.8730869"><ele>203.0</ele><time>2026-04-18T13:31:33.886Z</time></trkpt><trkpt lat="42.089484" lon="11.872992"><ele>203.00000000000003</ele><time>2026-04-18T13:31:34.887Z</time></trkpt><trkpt lat="42.0895246" lon="11.8728963"><ele>203.0</ele><time>2026-04-18T13:31:35.887Z</time></trkpt><trkpt lat="42.0895636" lon="11.8727917"><ele>203.0</ele><time>2026-04-18T13:31:36.887Z</time></trkpt><trkpt lat="42.0896117" lon="11.8726773"><ele>203.0</ele><time>2026-04-18T13:31:37.887Z</time></trkpt><trkpt lat="42.089672" lon="11.8725773"><ele>203.00000000000003</ele><time>2026-04-18T13:31:38.886Z</time></trkpt><trkpt lat="42.0897278" lon="11.8724935"><ele>203.0</ele><time>2026-04-18T13:31:39.887Z</time></trkpt><trkpt lat="42.0897847" lon="11.8724209"><ele>205.28571428571428</ele><time>2026-04-18T13:31:40.888Z</time></trkpt><trkpt lat="42.0898268" lon="11.8723554"><ele>207.57142857142856</ele><time>2026-04-18T13:31:41.887Z</time></trkpt><trkpt lat="42.0898652" lon="11.8722825"><ele>209.85714285714286</ele><time>2026-04-18T13:31:45.887Z</time></trkpt><trkpt lat="42.089852" lon="11.8721947"><ele>212.14285714285714</ele><time>2026-04-18T13:31:47.888Z</time></trkpt><trkpt lat="42.0897881" lon="11.8721074"><ele>214.42857142857142</ele><time>2026-04-18T13:31:49.888Z</time></trkpt><trkpt lat="42.0897283" lon="11.8720674"><ele>216.71428571428572</ele><time>2026-04-18T13:31:50.886Z</time></trkpt><trkpt lat="42.0896572" lon="11.8720215"><ele>219.0</ele><time>2026-04-18T13:31:51.887Z</time></trkpt><trkpt lat="42.0895747" lon="11.8719852"><ele>219.0</ele><time>2026-04-18T13:31:52.886Z</time></trkpt><trkpt lat="42.0894869" lon="11.871959"><ele>219.0</ele><time>2026-04-18T13:31:53.886Z</time></trkpt><trkpt lat="42.0894061" lon="11.8719466"><ele>219.0</ele><time>2026-04-18T13:31:54.886Z</time></trkpt><trkpt lat="42.0893351" lon="11.8719456"><ele>219.0</ele><time>2026-04-18T13:31:55.887Z</time></trkpt><trkpt lat="42.0892172" lon="11.8719409"><ele>219.0</ele><time>2026-04-18T13:31:57.887Z</time></trkpt><trkpt lat="42.0891449" lon="11.8719417"><ele>219.0</ele><time>2026-04-18T13:31:58.887Z</time></trkpt><trkpt lat="42.089073" lon="11.8719361"><ele>219.33333333333334</ele><time>2026-04-18T13:31:59.887Z</time></trkpt><trkpt lat="42.0889992" lon="11.8719127"><ele>219.66666666666669</ele><time>2026-04-18T13:32:00.887Z</time></trkpt><trkpt lat="42.0889194" lon="11.8718802"><ele>220.0</ele><time>2026-04-18T13:32:01.886Z</time></trkpt><trkpt lat="42.0888515" lon="11.8718342"><ele>220.33333333333334</ele><time>2026-04-18T13:32:02.887Z</time></trkpt><trkpt lat="42.0887718" lon="11.8717751"><ele>220.66666666666669</ele><time>2026-04-18T13:32:03.886Z</time></trkpt><trkpt lat="42.0886814" lon="11.8717076"><ele>221.0</ele><time>2026-04-18T13:32:04.887Z</time></trkpt><trkpt lat="42.0885827" lon="11.8716457"><ele>222.60000000000002</ele><time>2026-04-18T13:32:05.887Z</time></trkpt><trkpt lat="42.0884856" lon="11.871594"><ele>224.20000000000002</ele><time>2026-04-18T13:32:06.886Z</time></trkpt><trkpt lat="42.0883929" lon="11.8715545"><ele>225.79999999999998</ele><time>2026-04-18T13:32:07.886Z</time></trkpt><trkpt lat="42.0882969" lon="11.8715278"><ele>227.39999999999998</ele><time>2026-04-18T13:32:08.887Z</time></trkpt><trkpt lat="42.0881951" lon="11.8715085"><ele>229.0</ele><time>2026-04-18T13:32:09.886Z</time></trkpt><trkpt lat="42.0880884" lon="11.8714968"><ele>229.33333333333331</ele><time>2026-04-18T13:32:10.887Z</time></trkpt><trkpt lat="42.0879838" lon="11.8714931"><ele>229.66666666666666</ele><time>2026-04-18T13:32:11.887Z</time></trkpt><trkpt lat="42.0878943" lon="11.8714918"><ele>230.0</ele><time>2026-04-18T13:32:12.887Z</time></trkpt><trkpt lat="42.0878213" lon="11.8714902"><ele>230.33333333333331</ele><time>2026-04-18T13:32:13.888Z</time></trkpt><trkpt lat="42.0877274" lon="11.8714977"><ele>230.66666666666666</ele><time>2026-04-18T13:32:15.887Z</time></trkpt><trkpt lat="42.0876595" lon="11.8715085"><ele>231.0</ele><time>2026-04-18T13:32:17.886Z</time></trkpt><trkpt lat="42.0875408" lon="11.8715305"><ele>231.0</ele><time>2026-04-18T13:32:19.887Z</time></trkpt><trkpt lat="42.0874422" lon="11.8715458"><ele>231.00000000000003</ele><time>2026-04-18T13:32:20.886Z</time></trkpt><trkpt lat="42.0873225" lon="11.8715693"><ele>231.00000000000003</ele><time>2026-04-18T13:32:21.887Z</time></trkpt><trkpt lat="42.0872163" lon="11.8715874"><ele>231.0</ele><time>2026-04-18T13:32:22.887Z</time></trkpt><trkpt lat="42.0871166" lon="11.8716078"><ele>231.0</ele><time>2026-04-18T13:32:23.887Z</time></trkpt><trkpt lat="42.0870184" lon="11.8716223"><ele>231.66666666666666</ele><time>2026-04-18T13:32:24.887Z</time></trkpt><trkpt lat="42.086918" lon="11.8716237"><ele>232.33333333333331</ele><time>2026-04-18T13:32:25.886Z</time></trkpt><trkpt lat="42.0868298" lon="11.8716206"><ele>233.0</ele><time>2026-04-18T13:32:26.887Z</time></trkpt><trkpt lat="42.0867535" lon="11.871594"><ele>233.66666666666666</ele><time>2026-04-18T13:32:27.888Z</time></trkpt><trkpt lat="42.0866692" lon="11.8715691"><ele>234.33333333333331</ele><time>2026-04-18T13:32:28.886Z</time></trkpt><trkpt lat="42.0865771" lon="11.8715435"><ele>235.0</ele><time>2026-04-18T13:32:29.886Z</time></trkpt><trkpt lat="42.0864934" lon="11.8715123"><ele>234.99999999999997</ele><time>2026-04-18T13:32:30.887Z</time></trkpt><trkpt lat="42.0864155" lon="11.8714722"><ele>235.0</ele><time>2026-04-18T13:32:31.887Z</time></trkpt><trkpt lat="42.0863532" lon="11.8714483"><ele>235.0</ele><time>2026-04-18T13:32:32.887Z</time></trkpt><trkpt lat="42.0862796" lon="11.8714487"><ele>235.0</ele><time>2026-04-18T13:32:33.886Z</time></trkpt><trkpt lat="42.0862147" lon="11.8714718"><ele>234.99999999999997</ele><time>2026-04-18T13:32:34.886Z</time></trkpt><trkpt lat="42.0861195" lon="11.8715593"><ele>235.0</ele><time>2026-04-18T13:32:36.888Z</time></trkpt><trkpt lat="42.0860687" lon="11.8716184"><ele>235.0</ele><time>2026-04-18T13:32:37.886Z</time></trkpt><trkpt lat="42.0859644" lon="11.8717494"><ele>235.0</ele><time>2026-04-18T13:32:39.888Z</time></trkpt><trkpt lat="42.0858868" lon="11.8718326"><ele>235.0</ele><time>2026-04-18T13:32:40.888Z</time></trkpt><trkpt lat="42.0858074" lon="11.871894"><ele>235.0</ele><time>2026-04-18T13:32:41.887Z</time></trkpt><trkpt lat="42.0857396" lon="11.8719498"><ele>235.0</ele><time>2026-04-18T13:32:42.887Z</time></trkpt><trkpt lat="42.0856764" lon="11.8719988"><ele>234.8</ele><time>2026-04-18T13:32:43.887Z</time></trkpt><trkpt lat="42.085552" lon="11.872098"><ele>234.6</ele><time>2026-04-18T13:32:45.887Z</time></trkpt><trkpt lat="42.0854664" lon="11.8721636"><ele>234.39999999999998</ele><time>2026-04-18T13:32:46.886Z</time></trkpt><trkpt lat="42.085396" lon="11.872213"><ele>234.2</ele><time>2026-04-18T13:32:47.886Z</time></trkpt><trkpt lat="42.0853251" lon="11.8722588"><ele>234.0</ele><time>2026-04-18T13:32:48.887Z</time></trkpt><trkpt lat="42.0852638" lon="11.8722875"><ele>234.0</ele><time>2026-04-18T13:32:49.887Z</time></trkpt><trkpt lat="42.0851536" lon="11.8723451"><ele>233.99999999999997</ele><time>2026-04-18T13:32:51.886Z</time></trkpt><trkpt lat="42.0850301" lon="11.872411"><ele>233.99999999999997</ele><time>2026-04-18T13:32:53.887Z</time></trkpt><trkpt lat="42.0849616" lon="11.8724586"><ele>234.0</ele><time>2026-04-18T13:32:54.887Z</time></trkpt><trkpt lat="42.0848955" lon="11.8725148"><ele>234.0</ele><time>2026-04-18T13:32:55.887Z</time></trkpt><trkpt lat="42.0848342" lon="11.8725775"><ele>235.6</ele><time>2026-04-18T13:32:56.888Z</time></trkpt><trkpt lat="42.0847698" lon="11.872646"><ele>237.2</ele><time>2026-04-18T13:32:57.886Z</time></trkpt><trkpt lat="42.0847051" lon="11.8726989"><ele>238.79999999999998</ele><time>2026-04-18T13:32:58.886Z</time></trkpt><trkpt lat="42.0846463" lon="11.8727295"><ele>240.39999999999998</ele><time>2026-04-18T13:32:59.887Z</time></trkpt><trkpt lat="42.0845458" lon="11.8727639"><ele>242.0</ele><time>2026-04-18T13:33:01.887Z</time></trkpt><trkpt lat="42.0844164" lon="11.8727796"><ele>242.0</ele><time>2026-04-18T13:33:03.887Z</time></trkpt><trkpt lat="42.0843241" lon="11.8727928"><ele>242.0</ele><time>2026-04-18T13:33:04.887Z</time></trkpt><trkpt lat="42.0842203" lon="11.8728029"><ele>242.0</ele><time>2026-04-18T13:33:06.886Z</time></trkpt><trkpt lat="42.084302" lon="11.87281"><ele>242.0</ele><time>2026-04-18T13:33:18.887Z</time></trkpt><trkpt lat="42.0844194" lon="11.8727855"><ele>242.0</ele><time>2026-04-18T13:33:20.886Z</time></trkpt><trkpt lat="42.0844829" lon="11.8727819"><ele>242.00000000000003</ele><time>2026-04-18T13:33:21.887Z</time></trkpt><trkpt lat="42.0845803" lon="11.8727657"><ele>242.0</ele><time>2026-04-18T13:33:23.888Z</time></trkpt><trkpt lat="42.0845569" lon="11.8726849"><ele>242.0</ele><time>2026-04-18T13:33:27.886Z</time></trkpt><trkpt lat="42.0844962" lon="11.8726146"><ele>242.0</ele><time>2026-04-18T13:33:29.887Z</time></trkpt><trkpt lat="42.0844356" lon="11.8725514"><ele>242.00000000000003</ele><time>2026-04-18T13:33:31.886Z</time></trkpt><trkpt lat="42.084378" lon="11.8724788"><ele>242.0</ele><time>2026-04-18T13:33:33.886Z</time></trkpt><trkpt lat="42.0843113" lon="11.8724165"><ele>240.50000000000003</ele><time>2026-04-18T13:33:35.887Z</time></trkpt><trkpt lat="42.0842327" lon="11.8723602"><ele>239.0</ele><time>2026-04-18T13:33:38.886Z</time></trkpt><trkpt lat="42.0841885" lon="11.872298"><ele>237.5</ele><time>2026-04-18T13:33:40.887Z</time></trkpt><trkpt lat="42.0841489" lon="11.8722243"><ele>236.0</ele><time>2026-04-18T13:33:42.886Z</time></trkpt><trkpt lat="42.0840983" lon="11.8721587"><ele>234.50000000000003</ele><time>2026-04-18T13:33:44.888Z</time></trkpt><trkpt lat="42.0840197" lon="11.8721076"><ele>233.0</ele><time>2026-04-18T13:33:46.887Z</time></trkpt><trkpt lat="42.0839588" lon="11.8720527"><ele>233.0</ele><time>2026-04-18T13:33:48.886Z</time></trkpt><trkpt lat="42.0838912" lon="11.8720071"><ele>233.0</ele><time>2026-04-18T13:33:50.888Z</time></trkpt><trkpt lat="42.0838132" lon="11.8719211"><ele>233.0</ele><time>2026-04-18T13:33:52.887Z</time></trkpt><trkpt lat="42.0837365" lon="11.8718192"><ele>233.0</ele><time>2026-04-18T13:33:54.887Z</time></trkpt><trkpt lat="42.0836594" lon="11.8717333"><ele>233.0</ele><time>2026-04-18T13:33:56.887Z</time></trkpt><trkpt lat="42.0835694" lon="11.8716453"><ele>230.0</ele><time>2026-04-18T13:33:58.887Z</time></trkpt><trkpt lat="42.0834716" lon="11.8715504"><ele>227.0</ele><time>2026-04-18T13:34:00.887Z</time></trkpt><trkpt lat="42.0833825" lon="11.8714472"><ele>224.0</ele><time>2026-04-18T13:34:02.886Z</time></trkpt><trkpt lat="42.0832948" lon="11.8713749"><ele>221.0</ele><time>2026-04-18T13:34:04.887Z</time></trkpt><trkpt lat="42.0832213" lon="11.8713171"><ele>218.0</ele><time>2026-04-18T13:34:06.887Z</time></trkpt><trkpt lat="42.083167" lon="11.8712645"><ele>218.00000000000003</ele><time>2026-04-18T13:34:08.887Z</time></trkpt><trkpt lat="42.0831078" lon="11.871216"><ele>218.0</ele><time>2026-04-18T13:34:10.886Z</time></trkpt><trkpt lat="42.0830524" lon="11.8711741"><ele>218.0</ele><time>2026-04-18T13:34:12.887Z</time></trkpt><trkpt lat="42.0829777" lon="11.8711039"><ele>218.0</ele><time>2026-04-18T13:34:15.886Z</time></trkpt><trkpt lat="42.0829102" lon="11.8710597"><ele>218.00000000000003</ele><time>2026-04-18T13:34:17.886Z</time></trkpt><trkpt lat="42.0828239" lon="11.8710464"><ele>218.0</ele><time>2026-04-18T13:34:19.886Z</time></trkpt><trkpt lat="42.0827538" lon="11.8710352"><ele>218.0</ele><time>2026-04-18T13:34:21.888Z</time></trkpt><trkpt lat="42.0826609" lon="11.8709996"><ele>218.0</ele><time>2026-04-18T13:34:23.888Z</time></trkpt><trkpt lat="42.0825561" lon="11.8709525"><ele>218.0</ele><time>2026-04-18T13:34:25.886Z</time></trkpt><trkpt lat="42.0824532" lon="11.8709018"><ele>218.0</ele><time>2026-04-18T13:34:27.887Z</time></trkpt><trkpt lat="42.0823429" lon="11.8708282"><ele>218.0</ele><time>2026-04-18T13:34:29.887Z</time></trkpt><trkpt lat="42.0822751" lon="11.8707842"><ele>216.00000000000003</ele><time>2026-04-18T13:34:30.887Z</time></trkpt><trkpt lat="42.0822166" lon="11.8707494"><ele>214.0</ele><time>2026-04-18T13:34:31.886Z</time></trkpt><trkpt lat="42.082147" lon="11.8707197"><ele>212.0</ele><time>2026-04-18T13:34:32.887Z</time></trkpt><trkpt lat="42.0820747" lon="11.8706898"><ele>210.0</ele><time>2026-04-18T13:34:33.887Z</time></trkpt><trkpt lat="42.0820064" lon="11.8706592"><ele>208.00000000000003</ele><time>2026-04-18T13:34:34.887Z</time></trkpt><trkpt lat="42.0819182" lon="11.8706151"><ele>206.0</ele><time>2026-04-18T13:34:35.888Z</time></trkpt><trkpt lat="42.0818463" lon="11.8705787"><ele>206.00000000000003</ele><time>2026-04-18T13:34:36.886Z</time></trkpt><trkpt lat="42.08178" lon="11.8705438"><ele>206.0</ele><time>2026-04-18T13:34:37.887Z</time></trkpt><trkpt lat="42.0816744" lon="11.870488"><ele>206.0</ele><time>2026-04-18T13:34:39.886Z</time></trkpt><trkpt lat="42.0815942" lon="11.8704601"><ele>206.0</ele><time>2026-04-18T13:34:41.887Z</time></trkpt><trkpt lat="42.0814978" lon="11.8704425"><ele>206.00000000000003</ele><time>2026-04-18T13:34:43.886Z</time></trkpt><trkpt lat="42.0814347" lon="11.8704513"><ele>206.0</ele><time>2026-04-18T13:34:44.887Z</time></trkpt><trkpt lat="42.0813572" lon="11.8704639"><ele>204.50000000000003</ele><time>2026-04-18T13:34:45.886Z</time></trkpt><trkpt lat="42.0812903" lon="11.8704798"><ele>203.0</ele><time>2026-04-18T13:34:46.886Z</time></trkpt><trkpt lat="42.081199" lon="11.8705113"><ele>201.5</ele><time>2026-04-18T13:34:48.887Z</time></trkpt><trkpt lat="42.0811181" lon="11.870576"><ele>200.0</ele><time>2026-04-18T13:34:50.887Z</time></trkpt><trkpt lat="42.0810223" lon="11.8706719"><ele>198.50000000000003</ele><time>2026-04-18T13:34:52.887Z</time></trkpt><trkpt lat="42.0809688" lon="11.8707363"><ele>197.0</ele><time>2026-04-18T13:34:54.886Z</time></trkpt><trkpt lat="42.0809013" lon="11.8708133"><ele>197.00000000000003</ele><time>2026-04-18T13:34:56.888Z</time></trkpt><trkpt lat="42.0808319" lon="11.8709121"><ele>197.0</ele><time>2026-04-18T13:34:58.887Z</time></trkpt><trkpt lat="42.0807757" lon="11.8710028"><ele>197.0</ele><time>2026-04-18T13:35:00.887Z</time></trkpt><trkpt lat="42.0806805" lon="11.8709637"><ele>197.0</ele><time>2026-04-18T13:35:03.886Z</time></trkpt><trkpt lat="42.0806305" lon="11.8708595"><ele>197.00000000000003</ele><time>2026-04-18T13:35:05.888Z</time></trkpt><trkpt lat="42.0805927" lon="11.8707817"><ele>197.0</ele><time>2026-04-18T13:35:06.887Z</time></trkpt><trkpt lat="42.0805496" lon="11.8707161"><ele>196.39999999999998</ele><time>2026-04-18T13:35:07.887Z</time></trkpt><trkpt lat="42.0804753" lon="11.8706229"><ele>195.79999999999998</ele><time>2026-04-18T13:35:09.887Z</time></trkpt><trkpt lat="42.0804058" lon="11.870572"><ele>195.2</ele><time>2026-04-18T13:35:11.888Z</time></trkpt><trkpt lat="42.0803184" lon="11.8705508"><ele>194.6</ele><time>2026-04-18T13:35:13.886Z</time></trkpt><trkpt lat="42.0802284" lon="11.8705205"><ele>194.0</ele><time>2026-04-18T13:35:15.886Z</time></trkpt><trkpt lat="42.0801387" lon="11.8705016"><ele>194.00000000000003</ele><time>2026-04-18T13:35:17.887Z</time></trkpt><trkpt lat="42.0800532" lon="11.8705111"><ele>194.0</ele><time>2026-04-18T13:35:19.888Z</time></trkpt><trkpt lat="42.0799807" lon="11.8704968"><ele>194.0</ele><time>2026-04-18T13:35:21.886Z</time></trkpt><trkpt lat="42.0799078" lon="11.8704337"><ele>194.0</ele><time>2026-04-18T13:35:23.887Z</time></trkpt><trkpt lat="42.0798189" lon="11.8703724"><ele>194.00000000000003</ele><time>2026-04-18T13:35:25.887Z</time></trkpt><trkpt lat="42.0797274" lon="11.8703155"><ele>194.0</ele><time>2026-04-18T13:35:27.887Z</time></trkpt><trkpt lat="42.0796299" lon="11.870253"><ele>194.66666666666669</ele><time>2026-04-18T13:35:29.888Z</time></trkpt><trkpt lat="42.0795347" lon="11.8701917"><ele>195.33333333333334</ele><time>2026-04-18T13:35:31.886Z</time></trkpt><trkpt lat="42.0794491" lon="11.8701345"><ele>196.0</ele><time>2026-04-18T13:35:33.886Z</time></trkpt><trkpt lat="42.0794029" lon="11.8700727"><ele>196.66666666666669</ele><time>2026-04-18T13:35:35.886Z</time></trkpt><trkpt lat="42.0793808" lon="11.8699852"><ele>197.33333333333334</ele><time>2026-04-18T13:35:41.887Z</time></trkpt><trkpt lat="42.0794055" lon="11.8699056"><ele>198.0</ele><time>2026-04-18T13:35:52.886Z</time></trkpt><trkpt lat="42.0794381" lon="11.869833"><ele>194.66666666666666</ele><time>2026-04-18T13:39:09.886Z</time></trkpt><trkpt lat="42.0794903" lon="11.8697435"><ele>191.33333333333334</ele><time>2026-04-18T13:40:09.886Z</time></trkpt><trkpt lat="42.0795297" lon="11.8696514"><ele>188.0</ele><time>2026-04-18T13:40:12.886Z</time></trkpt><trkpt lat="42.0795574" lon="11.8695661"><ele>184.66666666666669</ele><time>2026-04-18T13:40:15.886Z</time></trkpt><trkpt lat="42.0796053" lon="11.8694625"><ele>181.33333333333334</ele><time>2026-04-18T13:40:18.887Z</time></trkpt><trkpt lat="42.0796392" lon="11.8693859"><ele>178.0</ele><time>2026-04-18T13:40:21.887Z</time></trkpt><trkpt lat="42.0796739" lon="11.8692927"><ele>176.0</ele><time>2026-04-18T13:42:54.886Z</time></trkpt><trkpt lat="42.0797216" lon="11.8691859"><ele>174.0</ele><time>2026-04-18T13:42:57.885Z</time></trkpt><trkpt lat="42.0797669" lon="11.8690584"><ele>172.0</ele><time>2026-04-18T13:42:59.884Z</time></trkpt><trkpt lat="42.0798046" lon="11.8689415"><ele>170.0</ele><time>2026-04-18T13:43:01.884Z</time></trkpt><trkpt lat="42.0798408" lon="11.8688278"><ele>168.0</ele><time>2026-04-18T13:43:03.884Z</time></trkpt><trkpt lat="42.0798841" lon="11.8687087"><ele>168.0</ele><time>2026-04-18T13:43:05.885Z</time></trkpt><trkpt lat="42.0799199" lon="11.8686073"><ele>168.0</ele><time>2026-04-18T13:43:07.885Z</time></trkpt><trkpt lat="42.0799524" lon="11.8684993"><ele>168.0</ele><time>2026-04-18T13:43:09.884Z</time></trkpt><trkpt lat="42.0799901" lon="11.8684175"><ele>168.0</ele><time>2026-04-18T13:43:11.886Z</time></trkpt><trkpt lat="42.0800313" lon="11.8683272"><ele>168.0</ele><time>2026-04-18T13:43:17.886Z</time></trkpt><trkpt lat="42.0800773" lon="11.868192"><ele>168.0</ele><time>2026-04-18T13:43:19.885Z</time></trkpt><trkpt lat="42.0801035" lon="11.8681136"><ele>166.20000000000002</ele><time>2026-04-18T13:43:20.885Z</time></trkpt><trkpt lat="42.0801498" lon="11.8679918"><ele>164.4</ele><time>2026-04-18T13:43:22.884Z</time></trkpt><trkpt lat="42.0801843" lon="11.8678907"><ele>162.60000000000002</ele><time>2026-04-18T13:43:24.885Z</time></trkpt><trkpt lat="42.080188" lon="11.8677632"><ele>160.8</ele><time>2026-04-18T13:43:26.884Z</time></trkpt><trkpt lat="42.0801852" lon="11.8676432"><ele>159.0</ele><time>2026-04-18T13:43:28.884Z</time></trkpt><trkpt lat="42.0801844" lon="11.8675209"><ele>158.0</ele><time>2026-04-18T13:43:30.884Z</time></trkpt><trkpt lat="42.0801844" lon="11.8673996"><ele>157.0</ele><time>2026-04-18T13:43:32.885Z</time></trkpt><trkpt lat="42.0801874" lon="11.8672927"><ele>156.0</ele><time>2026-04-18T13:43:34.884Z</time></trkpt><trkpt lat="42.0801918" lon="11.8671838"><ele>155.0</ele><time>2026-04-18T13:43:36.884Z</time></trkpt><trkpt lat="42.0802053" lon="11.8670758"><ele>154.0</ele><time>2026-04-18T13:43:38.884Z</time></trkpt><trkpt lat="42.0802196" lon="11.8669681"><ele>153.0</ele><time>2026-04-18T13:43:40.886Z</time></trkpt><trkpt lat="42.0802275" lon="11.8668724"><ele>153.0</ele><time>2026-04-18T13:43:42.885Z</time></trkpt><trkpt lat="42.0802098" lon="11.8667789"><ele>153.0</ele><time>2026-04-18T13:43:44.884Z</time></trkpt><trkpt lat="42.0801725" lon="11.8666528"><ele>153.0</ele><time>2026-04-18T13:43:46.886Z</time></trkpt><trkpt lat="42.0801141" lon="11.8665358"><ele>153.0</ele><time>2026-04-18T13:43:48.885Z</time></trkpt><trkpt lat="42.0800109" lon="11.8664811"><ele>153.0</ele><time>2026-04-18T13:43:50.884Z</time></trkpt><trkpt lat="42.0799082" lon="11.8664772"><ele>151.0</ele><time>2026-04-18T13:43:52.885Z</time></trkpt><trkpt lat="42.0798195" lon="11.8664715"><ele>149.0</ele><time>2026-04-18T13:43:54.885Z</time></trkpt><trkpt lat="42.0797518" lon="11.8664298"><ele>147.0</ele><time>2026-04-18T13:43:56.884Z</time></trkpt><trkpt lat="42.0797185" lon="11.8663218"><ele>145.0</ele><time>2026-04-18T13:43:59.884Z</time></trkpt><trkpt lat="42.0797349" lon="11.8661977"><ele>143.0</ele><time>2026-04-18T13:44:02.884Z</time></trkpt><trkpt lat="42.0797645" lon="11.8660933"><ele>141.0</ele><time>2026-04-18T13:44:04.885Z</time></trkpt><trkpt lat="42.0797985" lon="11.8659762"><ele>140.0</ele><time>2026-04-18T13:44:06.885Z</time></trkpt><trkpt lat="42.0798416" lon="11.8658712"><ele>139.0</ele><time>2026-04-18T13:44:08.884Z</time></trkpt><trkpt lat="42.0799005" lon="11.8658264"><ele>138.0</ele><time>2026-04-18T13:44:10.886Z</time></trkpt><trkpt lat="42.0799689" lon="11.8658141"><ele>137.0</ele><time>2026-04-18T13:44:12.885Z</time></trkpt><trkpt lat="42.0800528" lon="11.8658209"><ele>136.0</ele><time>2026-04-18T13:44:15.884Z</time></trkpt><trkpt lat="42.0801236" lon="11.8658203"><ele>135.0</ele><time>2026-04-18T13:44:17.884Z</time></trkpt><trkpt lat="42.0801983" lon="11.8658007"><ele>135.0</ele><time>2026-04-18T13:44:19.884Z</time></trkpt><trkpt lat="42.0802779" lon="11.8657814"><ele>135.0</ele><time>2026-04-18T13:44:21.886Z</time></trkpt><trkpt lat="42.0803617" lon="11.8657591"><ele>135.0</ele><time>2026-04-18T13:44:23.884Z</time></trkpt><trkpt lat="42.080462" lon="11.8657506"><ele>135.0</ele><time>2026-04-18T13:44:25.885Z</time></trkpt><trkpt lat="42.0805642" lon="11.8657328"><ele>135.0</ele><time>2026-04-18T13:44:27.884Z</time></trkpt><trkpt lat="42.0806729" lon="11.8656812"><ele>135.0</ele><time>2026-04-18T13:44:29.885Z</time></trkpt><trkpt lat="42.0807542" lon="11.865644"><ele>135.0</ele><time>2026-04-18T13:44:31.884Z</time></trkpt><trkpt lat="42.0808268" lon="11.8656425"><ele>135.0</ele><time>2026-04-18T13:44:33.886Z</time></trkpt><trkpt lat="42.0808905" lon="11.8656474"><ele>135.0</ele><time>2026-04-18T13:44:35.885Z</time></trkpt><trkpt lat="42.0809611" lon="11.8656565"><ele>135.0</ele><time>2026-04-18T13:44:37.885Z</time></trkpt><trkpt lat="42.081039" lon="11.8656227"><ele>135.0</ele><time>2026-04-18T13:44:39.886Z</time></trkpt><trkpt lat="42.0811226" lon="11.8656284"><ele>134.0</ele><time>2026-04-18T13:44:41.886Z</time></trkpt><trkpt lat="42.081232" lon="11.8656298"><ele>133.0</ele><time>2026-04-18T13:44:43.885Z</time></trkpt><trkpt lat="42.0813303" lon="11.8656241"><ele>132.0</ele><time>2026-04-18T13:44:45.885Z</time></trkpt><trkpt lat="42.081407" lon="11.8655959"><ele>131.0</ele><time>2026-04-18T13:44:47.885Z</time></trkpt><trkpt lat="42.0814728" lon="11.8655372"><ele>130.0</ele><time>2026-04-18T13:44:50.885Z</time></trkpt><trkpt lat="42.0815413" lon="11.8654682"><ele>129.0</ele><time>2026-04-18T13:44:53.884Z</time></trkpt><trkpt lat="42.0816125" lon="11.8654461"><ele>128.0</ele><time>2026-04-18T13:44:56.886Z</time></trkpt><trkpt lat="42.0816941" lon="11.8655078"><ele>127.0</ele><time>2026-04-18T13:44:59.886Z</time></trkpt><trkpt lat="42.08175" lon="11.8655589"><ele>126.0</ele><time>2026-04-18T13:45:01.884Z</time></trkpt><trkpt lat="42.0818139" lon="11.8655999"><ele>125.00000000000001</ele><time>2026-04-18T13:45:03.884Z</time></trkpt><trkpt lat="42.0818997" lon="11.8655974"><ele>124.0</ele><time>2026-04-18T13:45:06.886Z</time></trkpt><trkpt lat="42.0819666" lon="11.8655512"><ele>124.00000000000001</ele><time>2026-04-18T13:45:09.884Z</time></trkpt><trkpt lat="42.0820494" lon="11.865534"><ele>124.0</ele><time>2026-04-18T13:45:12.884Z</time></trkpt><trkpt lat="42.082117" lon="11.865588"><ele>124.0</ele><time>2026-04-18T13:45:15.886Z</time></trkpt><trkpt lat="42.0821602" lon="11.8656601"><ele>124.0</ele><time>2026-04-18T13:45:22.884Z</time></trkpt><trkpt lat="42.0821839" lon="11.865743"><ele>124.00000000000001</ele><time>2026-04-18T13:45:24.886Z</time></trkpt><trkpt lat="42.0821811" lon="11.8658539"><ele>124.0</ele><time>2026-04-18T13:45:26.884Z</time></trkpt><trkpt lat="42.0821813" lon="11.865968"><ele>123.66666666666667</ele><time>2026-04-18T13:45:29.885Z</time></trkpt><trkpt lat="42.0822192" lon="11.8660472"><ele>123.33333333333334</ele><time>2026-04-18T13:45:31.884Z</time></trkpt><trkpt lat="42.0822535" lon="11.8661474"><ele>123.0</ele><time>2026-04-18T13:45:34.886Z</time></trkpt><trkpt lat="42.08229" lon="11.8662355"><ele>122.66666666666666</ele><time>2026-04-18T13:45:37.885Z</time></trkpt><trkpt lat="42.0823744" lon="11.8663049"><ele>122.33333333333333</ele><time>2026-04-18T13:45:40.885Z</time></trkpt><trkpt lat="42.0824365" lon="11.8663314"><ele>122.0</ele><time>2026-04-18T13:45:42.886Z</time></trkpt><trkpt lat="42.0825121" lon="11.8663464"><ele>121.99999999999999</ele><time>2026-04-18T13:45:45.885Z</time></trkpt><trkpt lat="42.0825904" lon="11.8663569"><ele>122.0</ele><time>2026-04-18T13:45:49.885Z</time></trkpt><trkpt lat="42.0826651" lon="11.8663912"><ele>122.0</ele><time>2026-04-18T13:45:54.884Z</time></trkpt><trkpt lat="42.0827382" lon="11.8664684"><ele>122.0</ele><time>2026-04-18T13:45:57.885Z</time></trkpt><trkpt lat="42.0827967" lon="11.8665434"><ele>121.99999999999999</ele><time>2026-04-18T13:45:59.885Z</time></trkpt><trkpt lat="42.0828694" lon="11.8665076"><ele>122.0</ele><time>2026-04-18T13:46:02.885Z</time></trkpt><trkpt lat="42.0829276" lon="11.8664423"><ele>121.99999999999999</ele><time>2026-04-18T13:46:05.885Z</time></trkpt><trkpt lat="42.0829566" lon="11.8663602"><ele>122.0</ele><time>2026-04-18T13:46:08.885Z</time></trkpt><trkpt lat="42.0829983" lon="11.8662948"><ele>121.99999999999999</ele><time>2026-04-18T13:46:36.885Z</time></trkpt><trkpt lat="42.0830712" lon="11.866259"><ele>121.99999999999999</ele><time>2026-04-18T13:46:39.885Z</time></trkpt><trkpt lat="42.083134" lon="11.8662199"><ele>122.0</ele><time>2026-04-18T13:46:41.883Z</time></trkpt><trkpt lat="42.0831826" lon="11.8661153"><ele>121.99999999999999</ele><time>2026-04-18T13:46:44.885Z</time></trkpt><trkpt lat="42.083204" lon="11.8660245"><ele>121.99999999999999</ele><time>2026-04-18T13:46:46.885Z</time></trkpt><trkpt lat="42.0832395" lon="11.865923"><ele>118.33333333333333</ele><time>2026-04-18T13:46:48.884Z</time></trkpt><trkpt lat="42.0832859" lon="11.8657985"><ele>114.66666666666666</ele><time>2026-04-18T13:46:50.884Z</time></trkpt><trkpt lat="42.0833273" lon="11.8657187"><ele>111.0</ele><time>2026-04-18T13:46:52.883Z</time></trkpt><trkpt lat="42.083414" lon="11.8657064"><ele>107.33333333333334</ele><time>2026-04-18T13:46:55.883Z</time></trkpt><trkpt lat="42.0834878" lon="11.8657474"><ele>103.66666666666667</ele><time>2026-04-18T13:46:57.883Z</time></trkpt><trkpt lat="42.0835532" lon="11.8657469"><ele>100.0</ele><time>2026-04-18T13:47:00.884Z</time></trkpt><trkpt lat="42.0835871" lon="11.8656623"><ele>100.00000000000001</ele><time>2026-04-18T13:47:03.883Z</time></trkpt><trkpt lat="42.083599" lon="11.8655474"><ele>100.0</ele><time>2026-04-18T13:47:06.883Z</time></trkpt><trkpt lat="42.0835945" lon="11.8654517"><ele>100.0</ele><time>2026-04-18T13:47:08.884Z</time></trkpt><trkpt lat="42.083583" lon="11.8653622"><ele>100.0</ele><time>2026-04-18T13:47:10.884Z</time></trkpt><trkpt lat="42.0835336" lon="11.8652776"><ele>100.00000000000001</ele><time>2026-04-18T13:47:13.885Z</time></trkpt><trkpt lat="42.0834814" lon="11.8652221"><ele>100.0</ele><time>2026-04-18T13:47:28.884Z</time></trkpt><trkpt lat="42.0834014" lon="11.8651681"><ele>100.00000000000001</ele><time>2026-04-18T13:47:44.883Z</time></trkpt><trkpt lat="42.083342" lon="11.8651199"><ele>100.0</ele><time>2026-04-18T13:47:53.884Z</time></trkpt><trkpt lat="42.0832826" lon="11.8650742"><ele>100.0</ele><time>2026-04-18T13:48:02.883Z</time></trkpt><trkpt lat="42.0832049" lon="11.8650399"><ele>100.0</ele><time>2026-04-18T13:48:05.883Z</time></trkpt><trkpt lat="42.0831426" lon="11.8650045"><ele>100.0</ele><time>2026-04-18T13:48:09.883Z</time></trkpt><trkpt lat="42.0830833" lon="11.8649652"><ele>100.00000000000001</ele><time>2026-04-18T13:48:12.884Z</time></trkpt><trkpt lat="42.0830982" lon="11.8648825"><ele>100.0</ele><time>2026-04-18T13:48:29.884Z</time></trkpt><trkpt lat="42.0831118" lon="11.8647877"><ele>99.4</ele><time>2026-04-18T13:48:45.884Z</time></trkpt><trkpt lat="42.0831297" lon="11.8646641"><ele>98.8</ele><time>2026-04-18T13:48:48.883Z</time></trkpt><trkpt lat="42.0831011" lon="11.8645846"><ele>98.19999999999999</ele><time>2026-04-18T13:48:50.883Z</time></trkpt><trkpt lat="42.0830722" lon="11.8644874"><ele>97.6</ele><time>2026-04-18T13:49:09.883Z</time></trkpt><trkpt lat="42.0831681" lon="11.8644516"><ele>97.0</ele><time>2026-04-18T13:49:12.885Z</time></trkpt><trkpt lat="42.0832837" lon="11.8644515"><ele>97.50000000000001</ele><time>2026-04-18T13:49:14.883Z</time></trkpt><trkpt lat="42.0833589" lon="11.8644184"><ele>98.0</ele><time>2026-04-18T13:49:16.884Z</time></trkpt><trkpt lat="42.0833828" lon="11.8643213"><ele>98.5</ele><time>2026-04-18T13:49:18.884Z</time></trkpt><trkpt lat="42.0833592" lon="11.8642295"><ele>99.0</ele><time>2026-04-18T13:49:20.885Z</time></trkpt><trkpt lat="42.0833464" lon="11.8641433"><ele>99.50000000000001</ele><time>2026-04-18T13:50:30.884Z</time></trkpt><trkpt lat="42.0833161" lon="11.8640099"><ele>100.0</ele><time>2026-04-18T13:50:32.884Z</time></trkpt><trkpt lat="42.0832846" lon="11.8638443"><ele>98.83333333333334</ele><time>2026-04-18T13:50:34.883Z</time></trkpt><trkpt lat="42.0832579" lon="11.8637038"><ele>97.66666666666667</ele><time>2026-04-18T13:50:36.885Z</time></trkpt><trkpt lat="42.0832597" lon="11.8636015"><ele>96.5</ele><time>2026-04-18T13:50:38.885Z</time></trkpt><trkpt lat="42.0832595" lon="11.8635113"><ele>95.33333333333334</ele><time>2026-04-18T13:50:41.884Z</time></trkpt><trkpt lat="42.0832287" lon="11.863428"><ele>94.16666666666667</ele><time>2026-04-18T13:50:46.884Z</time></trkpt><trkpt lat="42.0831963" lon="11.8633414"><ele>93.0</ele><time>2026-04-18T13:50:48.884Z</time></trkpt><trkpt lat="42.0832011" lon="11.8632364"><ele>93.0</ele><time>2026-04-18T13:50:50.885Z</time></trkpt><trkpt lat="42.0831853" lon="11.8631108"><ele>93.0</ele><time>2026-04-18T13:50:52.885Z</time></trkpt><trkpt lat="42.0831844" lon="11.8630242"><ele>93.0</ele><time>2026-04-18T13:50:54.884Z</time></trkpt><trkpt lat="42.0832045" lon="11.862914"><ele>93.0</ele><time>2026-04-18T13:50:56.884Z</time></trkpt><trkpt lat="42.0831976" lon="11.8628285"><ele>93.0</ele><time>2026-04-18T13:50:58.885Z</time></trkpt><trkpt lat="42.0831928" lon="11.8627117"><ele>93.0</ele><time>2026-04-18T13:51:01.884Z</time></trkpt><trkpt lat="42.0832199" lon="11.862615"><ele>97.2</ele><time>2026-04-18T13:51:11.883Z</time></trkpt><trkpt lat="42.0832876" lon="11.862565"><ele>101.4</ele><time>2026-04-18T13:51:14.884Z</time></trkpt><trkpt lat="42.0833901" lon="11.8625052"><ele>105.60000000000001</ele><time>2026-04-18T13:51:17.884Z</time></trkpt><trkpt lat="42.0834825" lon="11.8624773"><ele>109.80000000000001</ele><time>2026-04-18T13:51:19.883Z</time></trkpt><trkpt lat="42.0835815" lon="11.8624309"><ele>114.0</ele><time>2026-04-18T13:51:21.884Z</time></trkpt><trkpt lat="42.083652" lon="11.8623409"><ele>114.0</ele><time>2026-04-18T13:51:23.883Z</time></trkpt><trkpt lat="42.0837072" lon="11.8622781"><ele>114.0</ele><time>2026-04-18T13:51:25.883Z</time></trkpt><trkpt lat="42.0837648" lon="11.8622343"><ele>114.0</ele><time>2026-04-18T13:51:28.885Z</time></trkpt><trkpt lat="42.0838294" lon="11.8622302"><ele>114.0</ele><time>2026-04-18T13:51:30.884Z</time></trkpt><trkpt lat="42.0839461" lon="11.8621726"><ele>114.0</ele><time>2026-04-18T13:51:32.884Z</time></trkpt><trkpt lat="42.0840017" lon="11.8621133"><ele>114.0</ele><time>2026-04-18T13:51:33.883Z</time></trkpt><trkpt lat="42.0840695" lon="11.8620461"><ele>115.80000000000001</ele><time>2026-04-18T13:51:35.882Z</time></trkpt><trkpt lat="42.0841475" lon="11.8620195"><ele>117.60000000000001</ele><time>2026-04-18T13:51:38.882Z</time></trkpt><trkpt lat="42.0842242" lon="11.8620547"><ele>119.4</ele><time>2026-04-18T13:51:40.882Z</time></trkpt><trkpt lat="42.0843023" lon="11.8620938"><ele>121.2</ele><time>2026-04-18T13:51:42.882Z</time></trkpt><trkpt lat="42.0844044" lon="11.8621355"><ele>123.0</ele><time>2026-04-18T13:51:44.882Z</time></trkpt><trkpt lat="42.0845132" lon="11.8621679"><ele>123.0</ele><time>2026-04-18T13:51:46.882Z</time></trkpt><trkpt lat="42.0846168" lon="11.8622328"><ele>123.0</ele><time>2026-04-18T13:51:48.882Z</time></trkpt><trkpt lat="42.0847247" lon="11.8623234"><ele>123.0</ele><time>2026-04-18T13:51:50.884Z</time></trkpt><trkpt lat="42.084822" lon="11.8624002"><ele>123.0</ele><time>2026-04-18T13:51:52.884Z</time></trkpt><trkpt lat="42.0849412" lon="11.8624007"><ele>124.5</ele><time>2026-04-18T13:51:54.882Z</time></trkpt><trkpt lat="42.0850144" lon="11.8623969"><ele>126.0</ele><time>2026-04-18T13:51:55.883Z</time></trkpt><trkpt lat="42.0850782" lon="11.8624123"><ele>127.5</ele><time>2026-04-18T13:51:56.883Z</time></trkpt><trkpt lat="42.0851856" lon="11.8624564"><ele>129.0</ele><time>2026-04-18T13:51:58.883Z</time></trkpt><trkpt lat="42.0853039" lon="11.8624939"><ele>130.5</ele><time>2026-04-18T13:52:00.882Z</time></trkpt><trkpt lat="42.0853596" lon="11.8625381"><ele>132.0</ele><time>2026-04-18T13:52:01.883Z</time></trkpt><trkpt lat="42.0854115" lon="11.8625994"><ele>131.4</ele><time>2026-04-18T13:52:02.884Z</time></trkpt><trkpt lat="42.0854586" lon="11.8626709"><ele>130.79999999999998</ele><time>2026-04-18T13:52:03.884Z</time></trkpt><trkpt lat="42.0855525" lon="11.8627609"><ele>130.2</ele><time>2026-04-18T13:52:05.882Z</time></trkpt><trkpt lat="42.0856783" lon="11.8627724"><ele>129.6</ele><time>2026-04-18T13:52:07.882Z</time></trkpt><trkpt lat="42.0857701" lon="11.862766"><ele>129.0</ele><time>2026-04-18T13:52:08.883Z</time></trkpt><trkpt lat="42.085839" lon="11.8627609"><ele>130.5</ele><time>2026-04-18T13:52:09.883Z</time></trkpt><trkpt lat="42.0859052" lon="11.8627594"><ele>132.0</ele><time>2026-04-18T13:52:10.882Z</time></trkpt><trkpt lat="42.0859686" lon="11.8627628"><ele>133.5</ele><time>2026-04-18T13:52:11.883Z</time></trkpt><trkpt lat="42.0860567" lon="11.8627467"><ele>135.0</ele><time>2026-04-18T13:52:13.884Z</time></trkpt><trkpt lat="42.0861439" lon="11.8626791"><ele>136.5</ele><time>2026-04-18T13:52:15.884Z</time></trkpt><trkpt lat="42.0862063" lon="11.8625362"><ele>138.0</ele><time>2026-04-18T13:52:17.882Z</time></trkpt><trkpt lat="42.0862464" lon="11.8623918"><ele>138.66666666666666</ele><time>2026-04-18T13:52:19.882Z</time></trkpt><trkpt lat="42.0862642" lon="11.8622526"><ele>139.33333333333334</ele><time>2026-04-18T13:52:21.883Z</time></trkpt><trkpt lat="42.0862774" lon="11.8620928"><ele>140.0</ele><time>2026-04-18T13:52:23.883Z</time></trkpt><trkpt lat="42.0862831" lon="11.8619869"><ele>140.66666666666669</ele><time>2026-04-18T13:52:24.882Z</time></trkpt><trkpt lat="42.0862827" lon="11.8618995"><ele>141.33333333333334</ele><time>2026-04-18T13:52:25.883Z</time></trkpt><trkpt lat="42.0862724" lon="11.8618099"><ele>142.0</ele><time>2026-04-18T13:52:26.883Z</time></trkpt><trkpt lat="42.0862506" lon="11.8617158"><ele>143.79999999999998</ele><time>2026-04-18T13:52:27.884Z</time></trkpt><trkpt lat="42.0862151" lon="11.8616285"><ele>145.6</ele><time>2026-04-18T13:52:28.883Z</time></trkpt><trkpt lat="42.086171" lon="11.8615505"><ele>147.39999999999998</ele><time>2026-04-18T13:52:29.884Z</time></trkpt><trkpt lat="42.0860889" lon="11.8614425"><ele>149.2</ele><time>2026-04-18T13:52:31.883Z</time></trkpt><trkpt lat="42.086002" lon="11.8612924"><ele>151.0</ele><time>2026-04-18T13:52:33.883Z</time></trkpt><trkpt lat="42.0859425" lon="11.8611916"><ele>151.0</ele><time>2026-04-18T13:52:34.882Z</time></trkpt><trkpt lat="42.0858852" lon="11.8610965"><ele>151.0</ele><time>2026-04-18T13:52:35.882Z</time></trkpt><trkpt lat="42.0858272" lon="11.8609973"><ele>151.0</ele><time>2026-04-18T13:52:36.882Z</time></trkpt><trkpt lat="42.0857608" lon="11.8608955"><ele>151.0</ele><time>2026-04-18T13:52:37.883Z</time></trkpt><trkpt lat="42.0856995" lon="11.860794"><ele>151.0</ele><time>2026-04-18T13:52:38.883Z</time></trkpt><trkpt lat="42.0856559" lon="11.8606988"><ele>151.83333333333334</ele><time>2026-04-18T13:52:39.884Z</time></trkpt><trkpt lat="42.0856206" lon="11.8606167"><ele>152.66666666666669</ele><time>2026-04-18T13:52:40.882Z</time></trkpt><trkpt lat="42.0855674" lon="11.8605281"><ele>153.5</ele><time>2026-04-18T13:52:41.882Z</time></trkpt><trkpt lat="42.0855054" lon="11.8604399"><ele>154.33333333333334</ele><time>2026-04-18T13:52:42.883Z</time></trkpt><trkpt lat="42.0854334" lon="11.8603603"><ele>155.16666666666666</ele><time>2026-04-18T13:52:43.883Z</time></trkpt><trkpt lat="42.0853748" lon="11.8603134"><ele>156.0</ele><time>2026-04-18T13:52:44.883Z</time></trkpt><trkpt lat="42.0853029" lon="11.8602704"><ele>156.0</ele><time>2026-04-18T13:52:45.882Z</time></trkpt><trkpt lat="42.0852124" lon="11.8602456"><ele>156.0</ele><time>2026-04-18T13:52:46.883Z</time></trkpt><trkpt lat="42.0851038" lon="11.860225"><ele>156.0</ele><time>2026-04-18T13:52:47.883Z</time></trkpt><trkpt lat="42.085007" lon="11.8602058"><ele>156.0</ele><time>2026-04-18T13:52:48.883Z</time></trkpt><trkpt lat="42.0849209" lon="11.8601912"><ele>156.0</ele><time>2026-04-18T13:52:49.883Z</time></trkpt><trkpt lat="42.0848407" lon="11.8601703"><ele>154.0</ele><time>2026-04-18T13:52:50.882Z</time></trkpt><trkpt lat="42.084767" lon="11.8601436"><ele>152.0</ele><time>2026-04-18T13:52:51.882Z</time></trkpt><trkpt lat="42.0846821" lon="11.8601161"><ele>150.0</ele><time>2026-04-18T13:52:52.882Z</time></trkpt><trkpt lat="42.0846047" lon="11.860093"><ele>148.0</ele><time>2026-04-18T13:52:53.882Z</time></trkpt><trkpt lat="42.0845031" lon="11.8600455"><ele>146.0</ele><time>2026-04-18T13:52:55.883Z</time></trkpt><trkpt lat="42.0844458" lon="11.859954"><ele>144.0</ele><time>2026-04-18T13:52:57.883Z</time></trkpt><trkpt lat="42.0844305" lon="11.8598528"><ele>148.8</ele><time>2026-04-18T13:52:59.882Z</time></trkpt><trkpt lat="42.0844117" lon="11.8596725"><ele>153.60000000000002</ele><time>2026-04-18T13:53:01.883Z</time></trkpt><trkpt lat="42.0843915" lon="11.859546"><ele>158.4</ele><time>2026-04-18T13:53:02.883Z</time></trkpt><trkpt lat="42.0843681" lon="11.8594341"><ele>163.20000000000002</ele><time>2026-04-18T13:53:03.884Z</time></trkpt><trkpt lat="42.0843397" lon="11.859332"><ele>168.0</ele><time>2026-04-18T13:53:04.882Z</time></trkpt><trkpt lat="42.0842956" lon="11.8592347"><ele>167.16666666666666</ele><time>2026-04-18T13:53:05.883Z</time></trkpt><trkpt lat="42.084239" lon="11.8591431"><ele>166.33333333333334</ele><time>2026-04-18T13:53:06.884Z</time></trkpt><trkpt lat="42.08418" lon="11.8590634"><ele>165.5</ele><time>2026-04-18T13:53:07.884Z</time></trkpt><trkpt lat="42.0841223" lon="11.8589942"><ele>164.66666666666669</ele><time>2026-04-18T13:53:08.882Z</time></trkpt><trkpt lat="42.0840655" lon="11.8589295"><ele>163.83333333333334</ele><time>2026-04-18T13:53:09.883Z</time></trkpt><trkpt lat="42.0840084" lon="11.858867"><ele>163.0</ele><time>2026-04-18T13:53:10.884Z</time></trkpt><trkpt lat="42.0839525" lon="11.8588148"><ele>163.0</ele><time>2026-04-18T13:53:11.883Z</time></trkpt><trkpt lat="42.0838817" lon="11.8587261"><ele>163.0</ele><time>2026-04-18T13:53:13.882Z</time></trkpt><trkpt lat="42.083876" lon="11.8586052"><ele>163.0</ele><time>2026-04-18T13:53:15.882Z</time></trkpt><trkpt lat="42.083913" lon="11.8584474"><ele>163.0</ele><time>2026-04-18T13:53:17.884Z</time></trkpt><trkpt lat="42.0839451" lon="11.8583681"><ele>163.0</ele><time>2026-04-18T13:53:18.882Z</time></trkpt><trkpt lat="42.0839825" lon="11.8582835"><ele>165.2</ele><time>2026-04-18T13:53:19.882Z</time></trkpt><trkpt lat="42.0840279" lon="11.8582071"><ele>167.4</ele><time>2026-04-18T13:53:20.882Z</time></trkpt><trkpt lat="42.0840846" lon="11.8581162"><ele>169.6</ele><time>2026-04-18T13:53:21.883Z</time></trkpt><trkpt lat="42.0841458" lon="11.8580255"><ele>171.79999999999998</ele><time>2026-04-18T13:53:22.883Z</time></trkpt><trkpt lat="42.084205" lon="11.857927"><ele>174.0</ele><time>2026-04-18T13:53:23.883Z</time></trkpt><trkpt lat="42.0842679" lon="11.857815"><ele>179.2</ele><time>2026-04-18T13:53:24.884Z</time></trkpt><trkpt lat="42.0843144" lon="11.8577325"><ele>184.39999999999998</ele><time>2026-04-18T13:53:25.882Z</time></trkpt><trkpt lat="42.0843644" lon="11.8576129"><ele>189.6</ele><time>2026-04-18T13:53:27.882Z</time></trkpt><trkpt lat="42.0843385" lon="11.8575047"><ele>194.8</ele><time>2026-04-18T13:53:29.884Z</time></trkpt><trkpt lat="42.084245" lon="11.8574384"><ele>200.0</ele><time>2026-04-18T13:53:31.883Z</time></trkpt><trkpt lat="42.0841276" lon="11.8574368"><ele>198.6</ele><time>2026-04-18T13:53:33.882Z</time></trkpt><trkpt lat="42.0840446" lon="11.8574217"><ele>197.2</ele><time>2026-04-18T13:53:34.882Z</time></trkpt><trkpt lat="42.083937" lon="11.8574058"><ele>195.8</ele><time>2026-04-18T13:53:35.882Z</time></trkpt><trkpt lat="42.0838437" lon="11.8573778"><ele>194.4</ele><time>2026-04-18T13:53:36.882Z</time></trkpt><trkpt lat="42.0837537" lon="11.8573447"><ele>193.0</ele><time>2026-04-18T13:53:37.882Z</time></trkpt><trkpt lat="42.083659" lon="11.8573297"><ele>193.0</ele><time>2026-04-18T13:53:38.882Z</time></trkpt><trkpt lat="42.0835722" lon="11.8573079"><ele>193.0</ele><time>2026-04-18T13:53:39.882Z</time></trkpt><trkpt lat="42.0834913" lon="11.857262"><ele>193.0</ele><time>2026-04-18T13:53:40.883Z</time></trkpt><trkpt lat="42.0834134" lon="11.8571963"><ele>193.0</ele><time>2026-04-18T13:53:41.883Z</time></trkpt><trkpt lat="42.0833215" lon="11.8571151"><ele>193.0</ele><time>2026-04-18T13:53:42.883Z</time></trkpt><trkpt lat="42.0832438" lon="11.8570505"><ele>193.0</ele><time>2026-04-18T13:53:43.882Z</time></trkpt><trkpt lat="42.0831409" lon="11.8569673"><ele>193.0</ele><time>2026-04-18T13:53:44.883Z</time></trkpt><trkpt lat="42.0830566" lon="11.856886"><ele>193.0</ele><time>2026-04-18T13:53:45.882Z</time></trkpt><trkpt lat="42.0829922" lon="11.8568095"><ele>193.0</ele><time>2026-04-18T13:53:46.883Z</time></trkpt><trkpt lat="42.0829406" lon="11.856723"><ele>193.0</ele><time>2026-04-18T13:53:47.883Z</time></trkpt><trkpt lat="42.0829015" lon="11.8566219"><ele>192.99999999999997</ele><time>2026-04-18T13:53:48.883Z</time></trkpt><trkpt lat="42.0828575" lon="11.8565024"><ele>193.0</ele><time>2026-04-18T13:53:49.883Z</time></trkpt><trkpt lat="42.0828277" lon="11.8564021"><ele>193.0</ele><time>2026-04-18T13:53:50.884Z</time></trkpt><trkpt lat="42.0828048" lon="11.8563078"><ele>193.0</ele><time>2026-04-18T13:53:51.883Z</time></trkpt><trkpt lat="42.0827849" lon="11.8562083"><ele>192.99999999999997</ele><time>2026-04-18T13:53:52.883Z</time></trkpt><trkpt lat="42.0827853" lon="11.8560623"><ele>193.0</ele><time>2026-04-18T13:53:54.884Z</time></trkpt><trkpt lat="42.0827938" lon="11.8559625"><ele>194.2</ele><time>2026-04-18T13:53:55.883Z</time></trkpt><trkpt lat="42.0828125" lon="11.8558735"><ele>195.4</ele><time>2026-04-18T13:53:56.882Z</time></trkpt><trkpt lat="42.0828804" lon="11.85572"><ele>196.6</ele><time>2026-04-18T13:53:58.882Z</time></trkpt><trkpt lat="42.0829245" lon="11.8556107"><ele>197.79999999999998</ele><time>2026-04-18T13:53:59.882Z</time></trkpt><trkpt lat="42.082977" lon="11.8554725"><ele>199.0</ele><time>2026-04-18T13:54:00.882Z</time></trkpt><trkpt lat="42.0830297" lon="11.8553172"><ele>199.0</ele><time>2026-04-18T13:54:01.882Z</time></trkpt><trkpt lat="42.0830696" lon="11.8551908"><ele>199.0</ele><time>2026-04-18T13:54:02.884Z</time></trkpt><trkpt lat="42.0831029" lon="11.8550865"><ele>199.0</ele><time>2026-04-18T13:54:03.884Z</time></trkpt><trkpt lat="42.0831238" lon="11.8549876"><ele>199.0</ele><time>2026-04-18T13:54:04.882Z</time></trkpt><trkpt lat="42.0831336" lon="11.8548879"><ele>199.0</ele><time>2026-04-18T13:54:05.883Z</time></trkpt><trkpt lat="42.0831271" lon="11.8547198"><ele>199.83333333333331</ele><time>2026-04-18T13:54:07.883Z</time></trkpt><trkpt lat="42.0831313" lon="11.8546244"><ele>200.66666666666666</ele><time>2026-04-18T13:54:08.883Z</time></trkpt><trkpt lat="42.083136" lon="11.8545271"><ele>201.5</ele><time>2026-04-18T13:54:09.883Z</time></trkpt><trkpt lat="42.0831419" lon="11.8544249"><ele>202.33333333333331</ele><time>2026-04-18T13:54:10.883Z</time></trkpt><trkpt lat="42.0831505" lon="11.8543099"><ele>203.16666666666666</ele><time>2026-04-18T13:54:11.883Z</time></trkpt><trkpt lat="42.0831605" lon="11.8542006"><ele>204.0</ele><time>2026-04-18T13:54:12.883Z</time></trkpt><trkpt lat="42.0831841" lon="11.8540375"><ele>206.2</ele><time>2026-04-18T13:54:14.883Z</time></trkpt><trkpt lat="42.0832103" lon="11.8539029"><ele>208.39999999999998</ele><time>2026-04-18T13:54:16.884Z</time></trkpt><trkpt lat="42.0832413" lon="11.8537731"><ele>210.6</ele><time>2026-04-18T13:54:18.882Z</time></trkpt><trkpt lat="42.0832737" lon="11.8536302"><ele>212.8</ele><time>2026-04-18T13:54:20.884Z</time></trkpt><trkpt lat="42.0832926" lon="11.8535487"><ele>215.0</ele><time>2026-04-18T13:54:22.883Z</time></trkpt><trkpt lat="42.0832841" lon="11.8534481"><ele>216.4</ele><time>2026-04-18T13:55:04.882Z</time></trkpt><trkpt lat="42.0832633" lon="11.8533566"><ele>217.8</ele><time>2026-04-18T13:55:08.883Z</time></trkpt><trkpt lat="42.0832689" lon="11.8532192"><ele>219.2</ele><time>2026-04-18T13:55:22.883Z</time></trkpt><trkpt lat="42.0832477" lon="11.8530444"><ele>220.6</ele><time>2026-04-18T13:55:24.884Z</time></trkpt><trkpt lat="42.0832145" lon="11.8529537"><ele>222.0</ele><time>2026-04-18T13:55:25.883Z</time></trkpt><trkpt lat="42.0831623" lon="11.8528459"><ele>222.0</ele><time>2026-04-18T13:55:26.882Z</time></trkpt><trkpt lat="42.0831031" lon="11.852721"><ele>222.0</ele><time>2026-04-18T13:55:27.882Z</time></trkpt><trkpt lat="42.0830468" lon="11.8525964"><ele>222.0</ele><time>2026-04-18T13:55:28.882Z</time></trkpt><trkpt lat="42.082993" lon="11.8524824"><ele>222.0</ele><time>2026-04-18T13:55:29.882Z</time></trkpt><trkpt lat="42.0829379" lon="11.8523729"><ele>222.0</ele><time>2026-04-18T13:55:30.882Z</time></trkpt><trkpt lat="42.0828824" lon="11.8522747"><ele>222.6</ele><time>2026-04-18T13:55:31.882Z</time></trkpt><trkpt lat="42.0828278" lon="11.8521791"><ele>223.2</ele><time>2026-04-18T13:55:32.882Z</time></trkpt><trkpt lat="42.082775" lon="11.852082"><ele>223.8</ele><time>2026-04-18T13:55:33.883Z</time></trkpt><trkpt lat="42.0827217" lon="11.8519797"><ele>224.4</ele><time>2026-04-18T13:55:34.883Z</time></trkpt><trkpt lat="42.0826652" lon="11.8518663"><ele>225.0</ele><time>2026-04-18T13:55:35.882Z</time></trkpt><trkpt lat="42.0825901" lon="11.8517287"><ele>225.0</ele><time>2026-04-18T13:55:36.882Z</time></trkpt><trkpt lat="42.0825016" lon="11.8515991"><ele>225.0</ele><time>2026-04-18T13:55:37.883Z</time></trkpt><trkpt lat="42.0824109" lon="11.8514806"><ele>225.0</ele><time>2026-04-18T13:55:38.882Z</time></trkpt><trkpt lat="42.0823218" lon="11.8513824"><ele>225.0</ele><time>2026-04-18T13:55:39.883Z</time></trkpt><trkpt lat="42.0822231" lon="11.8512932"><ele>223.33333333333334</ele><time>2026-04-18T13:55:40.882Z</time></trkpt><trkpt lat="42.0821384" lon="11.8512183"><ele>221.66666666666669</ele><time>2026-04-18T13:55:41.883Z</time></trkpt><trkpt lat="42.0820727" lon="11.8511591"><ele>220.0</ele><time>2026-04-18T13:55:42.883Z</time></trkpt><trkpt lat="42.0820039" lon="11.8510946"><ele>218.33333333333334</ele><time>2026-04-18T13:55:44.883Z</time></trkpt><trkpt lat="42.0820536" lon="11.8510222"><ele>216.66666666666669</ele><time>2026-04-18T13:55:49.884Z</time></trkpt><trkpt lat="42.0821367" lon="11.8510486"><ele>215.0</ele><time>2026-04-18T13:55:51.884Z</time></trkpt><trkpt lat="42.0822666" lon="11.8510855"><ele>215.0</ele><time>2026-04-18T13:55:53.883Z</time></trkpt><trkpt lat="42.0823544" lon="11.8511088"><ele>215.0</ele><time>2026-04-18T13:55:54.883Z</time></trkpt><trkpt lat="42.0824503" lon="11.8511414"><ele>215.0</ele><time>2026-04-18T13:55:55.883Z</time></trkpt><trkpt lat="42.0825524" lon="11.8511733"><ele>215.0</ele><time>2026-04-18T13:55:56.883Z</time></trkpt><trkpt lat="42.0826643" lon="11.8512104"><ele>215.0</ele><time>2026-04-18T13:55:57.882Z</time></trkpt><trkpt lat="42.0828005" lon="11.8512549"><ele>217.5</ele><time>2026-04-18T13:55:58.883Z</time></trkpt><trkpt lat="42.0829361" lon="11.8513038"><ele>220.0</ele><time>2026-04-18T13:55:59.883Z</time></trkpt><trkpt lat="42.0830644" lon="11.85136"><ele>222.5</ele><time>2026-04-18T13:56:00.884Z</time></trkpt><trkpt lat="42.0831919" lon="11.8514255"><ele>225.0</ele><time>2026-04-18T13:56:01.884Z</time></trkpt><trkpt lat="42.0833153" lon="11.851499"><ele>225.75</ele><time>2026-04-18T13:56:02.883Z</time></trkpt><trkpt lat="42.0834349" lon="11.8515864"><ele>226.5</ele><time>2026-04-18T13:56:03.884Z</time></trkpt><trkpt lat="42.0835529" lon="11.8516811"><ele>227.25</ele><time>2026-04-18T13:56:04.883Z</time></trkpt><trkpt lat="42.0836697" lon="11.8517775"><ele>228.0</ele><time>2026-04-18T13:56:05.883Z</time></trkpt><trkpt lat="42.0837843" lon="11.8518814"><ele>228.0</ele><time>2026-04-18T13:56:06.882Z</time></trkpt><trkpt lat="42.0839078" lon="11.8519913"><ele>228.0</ele><time>2026-04-18T13:56:07.882Z</time></trkpt><trkpt lat="42.0840242" lon="11.8520884"><ele>228.0</ele><time>2026-04-18T13:56:08.882Z</time></trkpt><trkpt lat="42.0841337" lon="11.8521697"><ele>228.0</ele><time>2026-04-18T13:56:09.882Z</time></trkpt><trkpt lat="42.084252" lon="11.8522376"><ele>230.5</ele><time>2026-04-18T13:56:10.882Z</time></trkpt><trkpt lat="42.0843643" lon="11.8523019"><ele>233.0</ele><time>2026-04-18T13:56:11.882Z</time></trkpt><trkpt lat="42.0844792" lon="11.8523786"><ele>235.5</ele><time>2026-04-18T13:56:12.882Z</time></trkpt><trkpt lat="42.0846007" lon="11.8524624"><ele>238.0</ele><time>2026-04-18T13:56:13.882Z</time></trkpt><trkpt lat="42.0847018" lon="11.8525324"><ele>238.0</ele><time>2026-04-18T13:56:14.883Z</time></trkpt><trkpt lat="42.0847998" lon="11.8525939"><ele>238.0</ele><time>2026-04-18T13:56:15.882Z</time></trkpt><trkpt lat="42.0848921" lon="11.8526433"><ele>238.0</ele><time>2026-04-18T13:56:16.883Z</time></trkpt><trkpt lat="42.0849905" lon="11.8526911"><ele>238.0</ele><time>2026-04-18T13:56:17.882Z</time></trkpt><trkpt lat="42.0850894" lon="11.8527262"><ele>238.0</ele><time>2026-04-18T13:56:18.884Z</time></trkpt><trkpt lat="42.0851857" lon="11.8527395"><ele>239.75</ele><time>2026-04-18T13:56:19.884Z</time></trkpt><trkpt lat="42.085285" lon="11.8527269"><ele>241.5</ele><time>2026-04-18T13:56:20.884Z</time></trkpt><trkpt lat="42.0853865" lon="11.8526826"><ele>243.25</ele><time>2026-04-18T13:56:21.883Z</time></trkpt><trkpt lat="42.0854992" lon="11.8526064"><ele>245.0</ele><time>2026-04-18T13:56:22.883Z</time></trkpt><trkpt lat="42.0856275" lon="11.8525087"><ele>246.25</ele><time>2026-04-18T13:56:23.883Z</time></trkpt><trkpt lat="42.0857459" lon="11.8524354"><ele>247.5</ele><time>2026-04-18T13:56:24.882Z</time></trkpt><trkpt lat="42.085871" lon="11.8523647"><ele>248.75</ele><time>2026-04-18T13:56:25.882Z</time></trkpt><trkpt lat="42.0860078" lon="11.8522923"><ele>250.0</ele><time>2026-04-18T13:56:26.882Z</time></trkpt><trkpt lat="42.0861373" lon="11.852229"><ele>251.0</ele><time>2026-04-18T13:56:27.882Z</time></trkpt><trkpt lat="42.0862466" lon="11.8521736"><ele>252.0</ele><time>2026-04-18T13:56:28.883Z</time></trkpt><trkpt lat="42.0863594" lon="11.8521188"><ele>253.0</ele><time>2026-04-18T13:56:29.883Z</time></trkpt><trkpt lat="42.0864744" lon="11.8520651"><ele>254.0</ele><time>2026-04-18T13:56:30.883Z</time></trkpt><trkpt lat="42.0865906" lon="11.8520112"><ele>256.5</ele><time>2026-04-18T13:56:31.884Z</time></trkpt><trkpt lat="42.0867107" lon="11.8519606"><ele>259.0</ele><time>2026-04-18T13:56:32.883Z</time></trkpt><trkpt lat="42.0868323" lon="11.8519031"><ele>261.5</ele><time>2026-04-18T13:56:33.883Z</time></trkpt><trkpt lat="42.0869668" lon="11.8518406"><ele>264.0</ele><time>2026-04-18T13:56:34.882Z</time></trkpt><trkpt lat="42.0870992" lon="11.851775"><ele>265.75</ele><time>2026-04-18T13:56:35.882Z</time></trkpt><trkpt lat="42.0872211" lon="11.8517163"><ele>267.5</ele><time>2026-04-18T13:56:36.882Z</time></trkpt><trkpt lat="42.08734" lon="11.8516582"><ele>269.25</ele><time>2026-04-18T13:56:37.883Z</time></trkpt><trkpt lat="42.0874498" lon="11.8516076"><ele>271.0</ele><time>2026-04-18T13:56:38.882Z</time></trkpt><trkpt lat="42.0875589" lon="11.8515624"><ele>272.6</ele><time>2026-04-18T13:56:39.882Z</time></trkpt><trkpt lat="42.0876553" lon="11.8515266"><ele>274.20000000000005</ele><time>2026-04-18T13:56:40.882Z</time></trkpt><trkpt lat="42.0877466" lon="11.8515051"><ele>275.79999999999995</ele><time>2026-04-18T13:56:41.883Z</time></trkpt><trkpt lat="42.0878406" lon="11.8514942"><ele>277.4</ele><time>2026-04-18T13:56:42.883Z</time></trkpt><trkpt lat="42.0879303" lon="11.8514912"><ele>279.0</ele><time>2026-04-18T13:56:43.883Z</time></trkpt><trkpt lat="42.0880282" lon="11.8514958"><ele>279.0</ele><time>2026-04-18T13:56:44.883Z</time></trkpt><trkpt lat="42.0881295" lon="11.8515166"><ele>279.0</ele><time>2026-04-18T13:56:45.883Z</time></trkpt><trkpt lat="42.0882241" lon="11.8515467"><ele>279.0</ele><time>2026-04-18T13:56:46.883Z</time></trkpt><trkpt lat="42.088306" lon="11.8515783"><ele>279.0</ele><time>2026-04-18T13:56:47.884Z</time></trkpt><trkpt lat="42.0883826" lon="11.8516252"><ele>279.0</ele><time>2026-04-18T13:56:48.883Z</time></trkpt><trkpt lat="42.0884533" lon="11.8516884"><ele>280.2</ele><time>2026-04-18T13:56:49.883Z</time></trkpt><trkpt lat="42.0885216" lon="11.8517616"><ele>281.4</ele><time>2026-04-18T13:56:50.882Z</time></trkpt><trkpt lat="42.0885869" lon="11.8518447"><ele>282.6</ele><time>2026-04-18T13:56:51.883Z</time></trkpt><trkpt lat="42.0886514" lon="11.8519364"><ele>283.8</ele><time>2026-04-18T13:56:52.883Z</time></trkpt><trkpt lat="42.088723" lon="11.8520225"><ele>285.0</ele><time>2026-04-18T13:56:53.883Z</time></trkpt><trkpt lat="42.0888146" lon="11.8521135"><ele>285.0</ele><time>2026-04-18T13:56:54.882Z</time></trkpt><trkpt lat="42.0889212" lon="11.852216"><ele>285.0</ele><time>2026-04-18T13:56:55.883Z</time></trkpt><trkpt lat="42.0890048" lon="11.8522958"><ele>285.0</ele><time>2026-04-18T13:56:56.881Z</time></trkpt><trkpt lat="42.0890718" lon="11.8523637"><ele>285.0</ele><time>2026-04-18T13:56:57.882Z</time></trkpt><trkpt lat="42.0891382" lon="11.852417"><ele>285.0</ele><time>2026-04-18T13:56:58.882Z</time></trkpt><trkpt lat="42.0891965" lon="11.8524584"><ele>288.0</ele><time>2026-04-18T13:56:59.881Z</time></trkpt><trkpt lat="42.089264" lon="11.8524951"><ele>291.0</ele><time>2026-04-18T13:57:00.881Z</time></trkpt><trkpt lat="42.0893889" lon="11.852481"><ele>294.0</ele><time>2026-04-18T13:57:02.881Z</time></trkpt><trkpt lat="42.0894703" lon="11.8524619"><ele>297.0</ele><time>2026-04-18T13:57:03.882Z</time></trkpt><trkpt lat="42.0895697" lon="11.85246"><ele>300.0</ele><time>2026-04-18T13:57:04.882Z</time></trkpt><trkpt lat="42.089688" lon="11.8524779"><ele>300.0</ele><time>2026-04-18T13:57:05.883Z</time></trkpt><trkpt lat="42.0898135" lon="11.8524966"><ele>300.0</ele><time>2026-04-18T13:57:06.883Z</time></trkpt><trkpt lat="42.0899231" lon="11.8525079"><ele>300.0</ele><time>2026-04-18T13:57:07.883Z</time></trkpt><trkpt lat="42.0900237" lon="11.8525145"><ele>300.0</ele><time>2026-04-18T13:57:08.883Z</time></trkpt><trkpt lat="42.0901212" lon="11.8525131"><ele>300.0</ele><time>2026-04-18T13:57:09.882Z</time></trkpt><trkpt lat="42.0902165" lon="11.8524999"><ele>301.0</ele><time>2026-04-18T13:57:10.882Z</time></trkpt><trkpt lat="42.0903115" lon="11.8524729"><ele>302.0</ele><time>2026-04-18T13:57:11.882Z</time></trkpt><trkpt lat="42.0904114" lon="11.8524365"><ele>303.0</ele><time>2026-04-18T13:57:12.883Z</time></trkpt><trkpt lat="42.0905021" lon="11.8523967"><ele>304.0</ele><time>2026-04-18T13:57:13.883Z</time></trkpt><trkpt lat="42.0905858" lon="11.8523512"><ele>305.0</ele><time>2026-04-18T13:57:14.881Z</time></trkpt><trkpt lat="42.0906648" lon="11.8522962"><ele>305.0</ele><time>2026-04-18T13:57:15.881Z</time></trkpt><trkpt lat="42.0907319" lon="11.8522339"><ele>305.0</ele><time>2026-04-18T13:57:16.881Z</time></trkpt><trkpt lat="42.0907915" lon="11.8521662"><ele>305.0</ele><time>2026-04-18T13:57:17.882Z</time></trkpt><trkpt lat="42.0908612" lon="11.8520958"><ele>305.0</ele><time>2026-04-18T13:57:18.882Z</time></trkpt><trkpt lat="42.0909406" lon="11.8520358"><ele>305.0</ele><time>2026-04-18T13:57:19.881Z</time></trkpt><trkpt lat="42.0910313" lon="11.8519803"><ele>305.0</ele><time>2026-04-18T13:57:20.881Z</time></trkpt><trkpt lat="42.0911437" lon="11.8519124"><ele>305.2</ele><time>2026-04-18T13:57:21.881Z</time></trkpt><trkpt lat="42.0912601" lon="11.8518455"><ele>305.4</ele><time>2026-04-18T13:57:22.881Z</time></trkpt><trkpt lat="42.0913614" lon="11.8517871"><ele>305.6</ele><time>2026-04-18T13:57:23.882Z</time></trkpt><trkpt lat="42.0914579" lon="11.8517354"><ele>305.8</ele><time>2026-04-18T13:57:24.881Z</time></trkpt><trkpt lat="42.0915486" lon="11.8516874"><ele>306.0</ele><time>2026-04-18T13:57:25.881Z</time></trkpt><trkpt lat="42.0916315" lon="11.8516348"><ele>304.0</ele><time>2026-04-18T13:57:26.881Z</time></trkpt><trkpt lat="42.091714" lon="11.8515681"><ele>302.0</ele><time>2026-04-18T13:57:27.883Z</time></trkpt><trkpt lat="42.0917922" lon="11.8514766"><ele>300.0</ele><time>2026-04-18T13:57:28.881Z</time></trkpt><trkpt lat="42.0918603" lon="11.8513751"><ele>298.0</ele><time>2026-04-18T13:57:29.882Z</time></trkpt><trkpt lat="42.0919186" lon="11.8512817"><ele>296.0</ele><time>2026-04-18T13:57:30.883Z</time></trkpt><trkpt lat="42.0919668" lon="11.8511933"><ele>296.0</ele><time>2026-04-18T13:57:31.882Z</time></trkpt><trkpt lat="42.0920049" lon="11.851118"><ele>296.0</ele><time>2026-04-18T13:57:32.881Z</time></trkpt><trkpt lat="42.0920355" lon="11.8510418"><ele>296.0</ele><time>2026-04-18T13:57:33.883Z</time></trkpt><trkpt lat="42.0920532" lon="11.8509456"><ele>296.0</ele><time>2026-04-18T13:57:34.883Z</time></trkpt><trkpt lat="42.0920585" lon="11.8508477"><ele>296.0</ele><time>2026-04-18T13:57:35.883Z</time></trkpt><trkpt lat="42.0920682" lon="11.8507536"><ele>296.0</ele><time>2026-04-18T13:57:36.882Z</time></trkpt><trkpt lat="42.0920928" lon="11.8506673"><ele>296.0</ele><time>2026-04-18T13:57:37.882Z</time></trkpt><trkpt lat="42.0921272" lon="11.8505921"><ele>294.83333333333337</ele><time>2026-04-18T13:57:38.881Z</time></trkpt><trkpt lat="42.0921739" lon="11.8505231"><ele>293.6666666666667</ele><time>2026-04-18T13:57:39.881Z</time></trkpt><trkpt lat="42.0922366" lon="11.8504504"><ele>292.5</ele><time>2026-04-18T13:57:40.883Z</time></trkpt><trkpt lat="42.0923068" lon="11.8503856"><ele>291.3333333333333</ele><time>2026-04-18T13:57:41.883Z</time></trkpt><trkpt lat="42.092373" lon="11.8503308"><ele>290.16666666666663</ele><time>2026-04-18T13:57:42.882Z</time></trkpt><trkpt lat="42.0924347" lon="11.850286"><ele>289.0</ele><time>2026-04-18T13:57:43.881Z</time></trkpt><trkpt lat="42.092496" lon="11.8502556"><ele>289.0</ele><time>2026-04-18T13:57:44.881Z</time></trkpt><trkpt lat="42.0925703" lon="11.8502212"><ele>289.0</ele><time>2026-04-18T13:57:45.883Z</time></trkpt><trkpt lat="42.0926438" lon="11.8501892"><ele>289.0</ele><time>2026-04-18T13:57:46.883Z</time></trkpt><trkpt lat="42.0927231" lon="11.8501612"><ele>289.0</ele><time>2026-04-18T13:57:47.882Z</time></trkpt><trkpt lat="42.0928027" lon="11.8501337"><ele>289.0</ele><time>2026-04-18T13:57:48.882Z</time></trkpt><trkpt lat="42.0928776" lon="11.8501039"><ele>289.0</ele><time>2026-04-18T13:57:49.881Z</time></trkpt><trkpt lat="42.0929553" lon="11.8500786"><ele>289.16666666666663</ele><time>2026-04-18T13:57:50.883Z</time></trkpt><trkpt lat="42.0930307" lon="11.8500639"><ele>289.3333333333333</ele><time>2026-04-18T13:57:51.881Z</time></trkpt><trkpt lat="42.093106" lon="11.8500473"><ele>289.5</ele><time>2026-04-18T13:57:52.882Z</time></trkpt><trkpt lat="42.0931811" lon="11.850031"><ele>289.6666666666667</ele><time>2026-04-18T13:57:53.883Z</time></trkpt><trkpt lat="42.093254" lon="11.8500207"><ele>289.83333333333337</ele><time>2026-04-18T13:57:54.882Z</time></trkpt><trkpt lat="42.0933296" lon="11.8500157"><ele>290.0</ele><time>2026-04-18T13:57:55.881Z</time></trkpt><trkpt lat="42.0934036" lon="11.8500101"><ele>288.57142857142856</ele><time>2026-04-18T13:57:56.881Z</time></trkpt><trkpt lat="42.0934735" lon="11.8500039"><ele>287.14285714285717</ele><time>2026-04-18T13:57:57.882Z</time></trkpt><trkpt lat="42.0935443" lon="11.8500027"><ele>285.7142857142857</ele><time>2026-04-18T13:57:58.881Z</time></trkpt><trkpt lat="42.0936253" lon="11.8499972"><ele>284.2857142857143</ele><time>2026-04-18T13:57:59.881Z</time></trkpt><trkpt lat="42.0937" lon="11.8499934"><ele>282.8571428571429</ele><time>2026-04-18T13:58:00.882Z</time></trkpt><trkpt lat="42.0937724" lon="11.8499955"><ele>281.42857142857144</ele><time>2026-04-18T13:58:01.882Z</time></trkpt><trkpt lat="42.0938413" lon="11.8499947"><ele>280.0</ele><time>2026-04-18T13:58:02.881Z</time></trkpt><trkpt lat="42.093905" lon="11.8499873"><ele>280.0</ele><time>2026-04-18T13:58:03.881Z</time></trkpt><trkpt lat="42.0940189" lon="11.8499528"><ele>280.0</ele><time>2026-04-18T13:58:05.883Z</time></trkpt><trkpt lat="42.0941098" lon="11.8498657"><ele>280.0</ele><time>2026-04-18T13:58:07.882Z</time></trkpt><trkpt lat="42.0941511" lon="11.8497875"><ele>280.0</ele><time>2026-04-18T13:58:08.882Z</time></trkpt><trkpt lat="42.0941926" lon="11.849692"><ele>280.0</ele><time>2026-04-18T13:58:09.882Z</time></trkpt><trkpt lat="42.0942328" lon="11.8496065"><ele>278.3333333333333</ele><time>2026-04-18T13:58:10.882Z</time></trkpt><trkpt lat="42.0942689" lon="11.8495353"><ele>276.66666666666663</ele><time>2026-04-18T13:58:11.883Z</time></trkpt><trkpt lat="42.0943295" lon="11.8494122"><ele>275.0</ele><time>2026-04-18T13:58:13.881Z</time></trkpt><trkpt lat="42.0943512" lon="11.8493134"><ele>273.3333333333333</ele><time>2026-04-18T13:58:15.882Z</time></trkpt><trkpt lat="42.0943193" lon="11.8492052"><ele>271.6666666666667</ele><time>2026-04-18T13:58:17.882Z</time></trkpt><trkpt lat="42.0942662" lon="11.8491516"><ele>270.0</ele><time>2026-04-18T13:58:18.881Z</time></trkpt><trkpt lat="42.0942056" lon="11.8490743"><ele>270.0</ele><time>2026-04-18T13:58:19.881Z</time></trkpt><trkpt lat="42.0941458" lon="11.8489928"><ele>270.0</ele><time>2026-04-18T13:58:20.882Z</time></trkpt><trkpt lat="42.0940938" lon="11.8489142"><ele>270.0</ele><time>2026-04-18T13:58:21.882Z</time></trkpt><trkpt lat="42.0940522" lon="11.8488367"><ele>270.0</ele><time>2026-04-18T13:58:22.882Z</time></trkpt><trkpt lat="42.0940157" lon="11.8487572"><ele>270.0</ele><time>2026-04-18T13:58:23.883Z</time></trkpt><trkpt lat="42.0939826" lon="11.8486811"><ele>270.0</ele><time>2026-04-18T13:58:24.882Z</time></trkpt><trkpt lat="42.0939525" lon="11.8485995"><ele>270.0</ele><time>2026-04-18T13:58:25.881Z</time></trkpt><trkpt lat="42.0939151" lon="11.8485155"><ele>270.0</ele><time>2026-04-18T13:58:26.881Z</time></trkpt><trkpt lat="42.0938797" lon="11.8484269"><ele>270.0</ele><time>2026-04-18T13:58:27.881Z</time></trkpt><trkpt lat="42.0938477" lon="11.8483406"><ele>270.0</ele><time>2026-04-18T13:58:28.882Z</time></trkpt><trkpt lat="42.0938166" lon="11.8482517"><ele>270.0</ele><time>2026-04-18T13:58:29.881Z</time></trkpt><trkpt lat="42.0937867" lon="11.848155"><ele>270.0</ele><time>2026-04-18T13:58:30.881Z</time></trkpt><trkpt lat="42.0937581" lon="11.8480628"><ele>270.0</ele><time>2026-04-18T13:58:31.881Z</time></trkpt><trkpt lat="42.0937267" lon="11.8479765"><ele>270.0</ele><time>2026-04-18T13:58:32.881Z</time></trkpt><trkpt lat="42.093699" lon="11.8478909"><ele>270.0</ele><time>2026-04-18T13:58:33.882Z</time></trkpt><trkpt lat="42.0936728" lon="11.8478016"><ele>270.0</ele><time>2026-04-18T13:58:34.882Z</time></trkpt><trkpt lat="42.0936435" lon="11.8477158"><ele>270.0</ele><time>2026-04-18T13:58:35.882Z</time></trkpt><trkpt lat="42.0936088" lon="11.8476312"><ele>270.0</ele><time>2026-04-18T13:58:36.881Z</time></trkpt><trkpt lat="42.0935691" lon="11.8475374"><ele>270.0</ele><time>2026-04-18T13:58:37.882Z</time></trkpt><trkpt lat="42.0935246" lon="11.84744"><ele>270.0</ele><time>2026-04-18T13:58:38.881Z</time></trkpt><trkpt lat="42.0934823" lon="11.8473477"><ele>267.5</ele><time>2026-04-18T13:58:39.882Z</time></trkpt><trkpt lat="42.0934406" lon="11.8472571"><ele>265.0</ele><time>2026-04-18T13:58:40.881Z</time></trkpt><trkpt lat="42.0933983" lon="11.8471685"><ele>262.5</ele><time>2026-04-18T13:58:41.882Z</time></trkpt><trkpt lat="42.0933526" lon="11.8470808"><ele>260.0</ele><time>2026-04-18T13:58:42.881Z</time></trkpt><trkpt lat="42.093301" lon="11.8469926"><ele>257.5</ele><time>2026-04-18T13:58:43.881Z</time></trkpt><trkpt lat="42.0932504" lon="11.8469142"><ele>255.0</ele><time>2026-04-18T13:58:44.882Z</time></trkpt><trkpt lat="42.0931964" lon="11.8468462"><ele>252.42857142857144</ele><time>2026-04-18T13:58:45.882Z</time></trkpt><trkpt lat="42.09314" lon="11.8467929"><ele>249.8571428571429</ele><time>2026-04-18T13:58:46.883Z</time></trkpt><trkpt lat="42.0930771" lon="11.8467507"><ele>247.28571428571428</ele><time>2026-04-18T13:58:47.881Z</time></trkpt><trkpt lat="42.0930073" lon="11.8467266"><ele>244.71428571428572</ele><time>2026-04-18T13:58:48.882Z</time></trkpt><trkpt lat="42.0929314" lon="11.8467133"><ele>242.14285714285714</ele><time>2026-04-18T13:58:49.882Z</time></trkpt><trkpt lat="42.0928618" lon="11.8467117"><ele>239.57142857142856</ele><time>2026-04-18T13:58:50.881Z</time></trkpt><trkpt lat="42.0927899" lon="11.8467278"><ele>236.99999999999997</ele><time>2026-04-18T13:58:51.881Z</time></trkpt><trkpt lat="42.0927179" lon="11.8467523"><ele>237.0</ele><time>2026-04-18T13:58:52.882Z</time></trkpt><trkpt lat="42.0926497" lon="11.8467792"><ele>237.0</ele><time>2026-04-18T13:58:53.882Z</time></trkpt><trkpt lat="42.0925817" lon="11.846813"><ele>237.0</ele><time>2026-04-18T13:58:54.881Z</time></trkpt><trkpt lat="42.0925142" lon="11.8468488"><ele>237.0</ele><time>2026-04-18T13:58:55.882Z</time></trkpt><trkpt lat="42.0924407" lon="11.8468896"><ele>237.0</ele><time>2026-04-18T13:58:56.882Z</time></trkpt><trkpt lat="42.0923623" lon="11.8469176"><ele>237.0</ele><time>2026-04-18T13:58:57.881Z</time></trkpt><trkpt lat="42.0922824" lon="11.8469281"><ele>239.39999999999998</ele><time>2026-04-18T13:58:58.881Z</time></trkpt><trkpt lat="42.0922034" lon="11.8469486"><ele>241.79999999999998</ele><time>2026-04-18T13:58:59.881Z</time></trkpt><trkpt lat="42.0921352" lon="11.8469687"><ele>244.2</ele><time>2026-04-18T13:59:00.882Z</time></trkpt><trkpt lat="42.0920262" lon="11.8469837"><ele>246.6</ele><time>2026-04-18T13:59:02.882Z</time></trkpt><trkpt lat="42.0919179" lon="11.8468876"><ele>249.0</ele><time>2026-04-18T13:59:04.881Z</time></trkpt><trkpt lat="42.0918565" lon="11.846818"><ele>247.33333333333334</ele><time>2026-04-18T13:59:05.881Z</time></trkpt><trkpt lat="42.0917936" lon="11.8467423"><ele>245.66666666666669</ele><time>2026-04-18T13:59:06.882Z</time></trkpt><trkpt lat="42.0917345" lon="11.8466625"><ele>244.0</ele><time>2026-04-18T13:59:07.882Z</time></trkpt><trkpt lat="42.0916748" lon="11.8465794"><ele>242.33333333333334</ele><time>2026-04-18T13:59:08.882Z</time></trkpt><trkpt lat="42.0916216" lon="11.8465044"><ele>240.66666666666669</ele><time>2026-04-18T13:59:09.881Z</time></trkpt><trkpt lat="42.0915614" lon="11.8464221"><ele>239.0</ele><time>2026-04-18T13:59:10.881Z</time></trkpt><trkpt lat="42.0915069" lon="11.8463445"><ele>239.00000000000003</ele><time>2026-04-18T13:59:11.882Z</time></trkpt><trkpt lat="42.0914484" lon="11.8462673"><ele>239.0</ele><time>2026-04-18T13:59:12.882Z</time></trkpt><trkpt lat="42.091386" lon="11.8461938"><ele>239.0</ele><time>2026-04-18T13:59:13.881Z</time></trkpt><trkpt lat="42.0913306" lon="11.8461273"><ele>239.0</ele><time>2026-04-18T13:59:14.882Z</time></trkpt><trkpt lat="42.0912708" lon="11.8460612"><ele>239.00000000000003</ele><time>2026-04-18T13:59:15.882Z</time></trkpt><trkpt lat="42.0912131" lon="11.8460002"><ele>239.0</ele><time>2026-04-18T13:59:16.881Z</time></trkpt><trkpt lat="42.0911585" lon="11.8459373"><ele>237.42857142857144</ele><time>2026-04-18T13:59:17.881Z</time></trkpt><trkpt lat="42.0911108" lon="11.845875"><ele>235.85714285714286</ele><time>2026-04-18T13:59:18.881Z</time></trkpt><trkpt lat="42.0910682" lon="11.8458025"><ele>234.28571428571428</ele><time>2026-04-18T13:59:19.882Z</time></trkpt><trkpt lat="42.0910371" lon="11.8457165"><ele>232.71428571428572</ele><time>2026-04-18T13:59:20.881Z</time></trkpt><trkpt lat="42.0910114" lon="11.8456105"><ele>231.1428571428571</ele><time>2026-04-18T13:59:21.882Z</time></trkpt><trkpt lat="42.0909916" lon="11.845509"><ele>229.57142857142856</ele><time>2026-04-18T13:59:22.881Z</time></trkpt><trkpt lat="42.0909671" lon="11.8454174"><ele>228.0</ele><time>2026-04-18T13:59:23.882Z</time></trkpt><trkpt lat="42.0909326" lon="11.8453163"><ele>228.0</ele><time>2026-04-18T13:59:24.882Z</time></trkpt><trkpt lat="42.0908919" lon="11.8452184"><ele>228.0</ele><time>2026-04-18T13:59:25.882Z</time></trkpt><trkpt lat="42.0908545" lon="11.8451246"><ele>228.0</ele><time>2026-04-18T13:59:26.882Z</time></trkpt><trkpt lat="42.0908234" lon="11.8450317"><ele>228.0</ele><time>2026-04-18T13:59:27.881Z</time></trkpt><trkpt lat="42.0907977" lon="11.8449397"><ele>228.0</ele><time>2026-04-18T13:59:28.881Z</time></trkpt><trkpt lat="42.0907629" lon="11.84485"><ele>228.0</ele><time>2026-04-18T13:59:29.882Z</time></trkpt><trkpt lat="42.0907195" lon="11.8447595"><ele>225.83333333333334</ele><time>2026-04-18T13:59:30.881Z</time></trkpt><trkpt lat="42.0906579" lon="11.8446682"><ele>223.66666666666669</ele><time>2026-04-18T13:59:31.881Z</time></trkpt><trkpt lat="42.0905956" lon="11.8445813"><ele>221.5</ele><time>2026-04-18T13:59:32.881Z</time></trkpt><trkpt lat="42.0905518" lon="11.8444972"><ele>219.33333333333334</ele><time>2026-04-18T13:59:33.881Z</time></trkpt><trkpt lat="42.0905092" lon="11.844416"><ele>217.16666666666669</ele><time>2026-04-18T13:59:34.881Z</time></trkpt><trkpt lat="42.0904649" lon="11.8443251"><ele>215.0</ele><time>2026-04-18T13:59:35.881Z</time></trkpt><trkpt lat="42.0904263" lon="11.8442298"><ele>213.7142857142857</ele><time>2026-04-18T13:59:36.881Z</time></trkpt><trkpt lat="42.0903951" lon="11.8441407"><ele>212.42857142857144</ele><time>2026-04-18T13:59:37.882Z</time></trkpt><trkpt lat="42.0903626" lon="11.8440525"><ele>211.14285714285714</ele><time>2026-04-18T13:59:38.881Z</time></trkpt><trkpt lat="42.0903297" lon="11.8439696"><ele>209.85714285714283</ele><time>2026-04-18T13:59:39.881Z</time></trkpt><trkpt lat="42.0902946" lon="11.8438908"><ele>208.57142857142856</ele><time>2026-04-18T13:59:40.881Z</time></trkpt><trkpt lat="42.0902508" lon="11.8438062"><ele>207.28571428571428</ele><time>2026-04-18T13:59:41.883Z</time></trkpt><trkpt lat="42.0902007" lon="11.8437331"><ele>206.0</ele><time>2026-04-18T13:59:42.883Z</time></trkpt><trkpt lat="42.0901507" lon="11.8436737"><ele>206.00000000000003</ele><time>2026-04-18T13:59:43.882Z</time></trkpt><trkpt lat="42.0900963" lon="11.8436149"><ele>206.0</ele><time>2026-04-18T13:59:44.882Z</time></trkpt><trkpt lat="42.0900301" lon="11.8435717"><ele>206.0</ele><time>2026-04-18T13:59:45.882Z</time></trkpt><trkpt lat="42.0899525" lon="11.8435253"><ele>206.0</ele><time>2026-04-18T13:59:46.881Z</time></trkpt><trkpt lat="42.0898834" lon="11.8434877"><ele>206.00000000000003</ele><time>2026-04-18T13:59:47.882Z</time></trkpt><trkpt lat="42.0898106" lon="11.8434658"><ele>206.0</ele><time>2026-04-18T13:59:48.881Z</time></trkpt><trkpt lat="42.0897348" lon="11.843461"><ele>203.83333333333334</ele><time>2026-04-18T13:59:49.881Z</time></trkpt><trkpt lat="42.0896685" lon="11.8434627"><ele>201.66666666666669</ele><time>2026-04-18T13:59:50.881Z</time></trkpt><trkpt lat="42.0895564" lon="11.8434305"><ele>199.5</ele><time>2026-04-18T13:59:52.881Z</time></trkpt><trkpt lat="42.0894734" lon="11.8433224"><ele>197.33333333333331</ele><time>2026-04-18T13:59:54.883Z</time></trkpt><trkpt lat="42.089437" lon="11.8432457"><ele>195.16666666666666</ele><time>2026-04-18T13:59:55.881Z</time></trkpt><trkpt lat="42.0894023" lon="11.8431609"><ele>193.0</ele><time>2026-04-18T13:59:56.881Z</time></trkpt><trkpt lat="42.0893661" lon="11.8430668"><ele>193.00000000000003</ele><time>2026-04-18T13:59:57.882Z</time></trkpt><trkpt lat="42.0893217" lon="11.8429814"><ele>193.0</ele><time>2026-04-18T13:59:58.882Z</time></trkpt><trkpt lat="42.089279" lon="11.8428972"><ele>193.0</ele><time>2026-04-18T13:59:59.881Z</time></trkpt><trkpt lat="42.0892452" lon="11.8428141"><ele>193.0</ele><time>2026-04-18T14:00:00.882Z</time></trkpt><trkpt lat="42.0892133" lon="11.8427342"><ele>193.0</ele><time>2026-04-18T14:00:01.881Z</time></trkpt><trkpt lat="42.0891861" lon="11.8426573"><ele>193.00000000000003</ele><time>2026-04-18T14:00:02.881Z</time></trkpt><trkpt lat="42.0891613" lon="11.8425763"><ele>193.0</ele><time>2026-04-18T14:00:03.882Z</time></trkpt><trkpt lat="42.0891295" lon="11.8424239"><ele>192.16666666666666</ele><time>2026-04-18T14:00:05.881Z</time></trkpt><trkpt lat="42.0891167" lon="11.8423081"><ele>191.33333333333331</ele><time>2026-04-18T14:00:06.882Z</time></trkpt><trkpt lat="42.0891046" lon="11.8421786"><ele>190.5</ele><time>2026-04-18T14:00:07.882Z</time></trkpt><trkpt lat="42.0890908" lon="11.8420571"><ele>189.66666666666666</ele><time>2026-04-18T14:00:08.883Z</time></trkpt><trkpt lat="42.0890774" lon="11.8419531"><ele>188.83333333333331</ele><time>2026-04-18T14:00:09.881Z</time></trkpt><trkpt lat="42.089067" lon="11.8418573"><ele>188.0</ele><time>2026-04-18T14:00:10.883Z</time></trkpt><trkpt lat="42.0890545" lon="11.8417692"><ele>187.2</ele><time>2026-04-18T14:00:11.882Z</time></trkpt><trkpt lat="42.0890277" lon="11.8416273"><ele>186.4</ele><time>2026-04-18T14:00:13.882Z</time></trkpt><trkpt lat="42.0890452" lon="11.8414554"><ele>185.6</ele><time>2026-04-18T14:00:15.882Z</time></trkpt><trkpt lat="42.0890694" lon="11.8413407"><ele>184.79999999999998</ele><time>2026-04-18T14:00:16.882Z</time></trkpt><trkpt lat="42.0890907" lon="11.841244"><ele>184.0</ele><time>2026-04-18T14:00:17.881Z</time></trkpt><trkpt lat="42.0891149" lon="11.8411467"><ele>184.0</ele><time>2026-04-18T14:00:18.882Z</time></trkpt><trkpt lat="42.0891306" lon="11.8410535"><ele>184.0</ele><time>2026-04-18T14:00:19.882Z</time></trkpt><trkpt lat="42.0891407" lon="11.840948"><ele>184.0</ele><time>2026-04-18T14:00:20.881Z</time></trkpt><trkpt lat="42.0891373" lon="11.8408391"><ele>184.0</ele><time>2026-04-18T14:00:21.881Z</time></trkpt><trkpt lat="42.0891277" lon="11.840742"><ele>184.0</ele><time>2026-04-18T14:00:22.881Z</time></trkpt><trkpt lat="42.0891273" lon="11.8406437"><ele>184.0</ele><time>2026-04-18T14:00:23.882Z</time></trkpt><trkpt lat="42.0891297" lon="11.8405199"><ele>183.16666666666669</ele><time>2026-04-18T14:00:24.881Z</time></trkpt><trkpt lat="42.0891406" lon="11.8403958"><ele>182.33333333333334</ele><time>2026-04-18T14:00:25.881Z</time></trkpt><trkpt lat="42.08915" lon="11.8402898"><ele>181.5</ele><time>2026-04-18T14:00:26.882Z</time></trkpt><trkpt lat="42.0891593" lon="11.8401856"><ele>180.66666666666666</ele><time>2026-04-18T14:00:27.882Z</time></trkpt><trkpt lat="42.0891746" lon="11.84009"><ele>179.83333333333331</ele><time>2026-04-18T14:00:28.882Z</time></trkpt><trkpt lat="42.0891958" lon="11.8399848"><ele>179.0</ele><time>2026-04-18T14:00:29.881Z</time></trkpt><trkpt lat="42.0892122" lon="11.8398859"><ele>178.33333333333331</ele><time>2026-04-18T14:00:30.881Z</time></trkpt><trkpt lat="42.089222" lon="11.8397857"><ele>177.66666666666666</ele><time>2026-04-18T14:00:31.882Z</time></trkpt><trkpt lat="42.0892269" lon="11.8396876"><ele>177.0</ele><time>2026-04-18T14:00:32.882Z</time></trkpt><trkpt lat="42.0892236" lon="11.8395967"><ele>176.33333333333334</ele><time>2026-04-18T14:00:33.882Z</time></trkpt><trkpt lat="42.0892036" lon="11.83948"><ele>175.66666666666669</ele><time>2026-04-18T14:00:34.883Z</time></trkpt><trkpt lat="42.0891845" lon="11.839344"><ele>175.0</ele><time>2026-04-18T14:00:35.882Z</time></trkpt><trkpt lat="42.0891682" lon="11.8392076"><ele>174.0</ele><time>2026-04-18T14:00:36.883Z</time></trkpt><trkpt lat="42.0891558" lon="11.8390765"><ele>173.0</ele><time>2026-04-18T14:00:37.883Z</time></trkpt><trkpt lat="42.0891446" lon="11.8389376"><ele>172.0</ele><time>2026-04-18T14:00:38.882Z</time></trkpt><trkpt lat="42.0891404" lon="11.8388205"><ele>171.0</ele><time>2026-04-18T14:00:39.882Z</time></trkpt><trkpt lat="42.0891406" lon="11.8387083"><ele>170.0</ele><time>2026-04-18T14:00:40.883Z</time></trkpt><trkpt lat="42.0891436" lon="11.8385994"><ele>170.0</ele><time>2026-04-18T14:00:41.882Z</time></trkpt><trkpt lat="42.0891496" lon="11.8384952"><ele>170.0</ele><time>2026-04-18T14:00:42.881Z</time></trkpt><trkpt lat="42.0891542" lon="11.838384"><ele>170.0</ele><time>2026-04-18T14:00:43.883Z</time></trkpt><trkpt lat="42.0891632" lon="11.8382723"><ele>170.0</ele><time>2026-04-18T14:00:44.882Z</time></trkpt><trkpt lat="42.08918" lon="11.8381573"><ele>170.0</ele><time>2026-04-18T14:00:45.881Z</time></trkpt><trkpt lat="42.0891868" lon="11.8380402"><ele>170.0</ele><time>2026-04-18T14:00:46.881Z</time></trkpt><trkpt lat="42.0891838" lon="11.8378938"><ele>169.75</ele><time>2026-04-18T14:00:47.883Z</time></trkpt><trkpt lat="42.089168" lon="11.8377206"><ele>169.5</ele><time>2026-04-18T14:00:48.883Z</time></trkpt><trkpt lat="42.0891399" lon="11.8375531"><ele>169.25</ele><time>2026-04-18T14:00:49.883Z</time></trkpt><trkpt lat="42.0891097" lon="11.83741"><ele>169.0</ele><time>2026-04-18T14:00:50.881Z</time></trkpt><trkpt lat="42.0890849" lon="11.8372635"><ele>166.79999999999998</ele><time>2026-04-18T14:00:51.883Z</time></trkpt><trkpt lat="42.089065" lon="11.8371239"><ele>164.6</ele><time>2026-04-18T14:00:52.881Z</time></trkpt><trkpt lat="42.0890458" lon="11.8370005"><ele>162.4</ele><time>2026-04-18T14:00:53.882Z</time></trkpt><trkpt lat="42.0890277" lon="11.8368751"><ele>160.2</ele><time>2026-04-18T14:00:54.881Z</time></trkpt><trkpt lat="42.0890128" lon="11.8367437"><ele>158.0</ele><time>2026-04-18T14:00:55.881Z</time></trkpt><trkpt lat="42.0890007" lon="11.8366413"><ele>158.00000000000003</ele><time>2026-04-18T14:00:56.881Z</time></trkpt><trkpt lat="42.088988" lon="11.8365555"><ele>158.0</ele><time>2026-04-18T14:00:57.881Z</time></trkpt><trkpt lat="42.088965" lon="11.8364649"><ele>158.0</ele><time>2026-04-18T14:00:58.881Z</time></trkpt><trkpt lat="42.0889214" lon="11.8363626"><ele>158.0</ele><time>2026-04-18T14:00:59.881Z</time></trkpt><trkpt lat="42.0888781" lon="11.8362693"><ele>158.0</ele><time>2026-04-18T14:01:00.882Z</time></trkpt><trkpt lat="42.0888418" lon="11.8361839"><ele>158.00000000000003</ele><time>2026-04-18T14:01:01.881Z</time></trkpt><trkpt lat="42.0888085" lon="11.8361034"><ele>158.0</ele><time>2026-04-18T14:01:02.882Z</time></trkpt><trkpt lat="42.0887655" lon="11.8359458"><ele>158.5</ele><time>2026-04-18T14:01:04.882Z</time></trkpt><trkpt lat="42.0887467" lon="11.8358409"><ele>159.0</ele><time>2026-04-18T14:01:05.882Z</time></trkpt><trkpt lat="42.0887385" lon="11.8357419"><ele>159.5</ele><time>2026-04-18T14:01:06.882Z</time></trkpt><trkpt lat="42.0887367" lon="11.8356506"><ele>160.0</ele><time>2026-04-18T14:01:07.881Z</time></trkpt><trkpt lat="42.0887276" lon="11.8355597"><ele>160.5</ele><time>2026-04-18T14:01:08.883Z</time></trkpt><trkpt lat="42.0887055" lon="11.835461"><ele>161.0</ele><time>2026-04-18T14:01:09.883Z</time></trkpt><trkpt lat="42.0886616" lon="11.8353473"><ele>161.0</ele><time>2026-04-18T14:01:10.882Z</time></trkpt><trkpt lat="42.0886126" lon="11.8352373"><ele>161.0</ele><time>2026-04-18T14:01:11.882Z</time></trkpt><trkpt lat="42.0885646" lon="11.835127"><ele>161.0</ele><time>2026-04-18T14:01:12.882Z</time></trkpt><trkpt lat="42.0885184" lon="11.8350085"><ele>161.0</ele><time>2026-04-18T14:01:13.883Z</time></trkpt><trkpt lat="42.0884777" lon="11.8348948"><ele>161.0</ele><time>2026-04-18T14:01:14.883Z</time></trkpt><trkpt lat="42.0884381" lon="11.8347749"><ele>160.8</ele><time>2026-04-18T14:01:15.882Z</time></trkpt><trkpt lat="42.0884028" lon="11.8346529"><ele>160.60000000000002</ele><time>2026-04-18T14:01:16.882Z</time></trkpt><trkpt lat="42.0883742" lon="11.8345192"><ele>160.4</ele><time>2026-04-18T14:01:17.882Z</time></trkpt><trkpt lat="42.088347" lon="11.8343765"><ele>160.2</ele><time>2026-04-18T14:01:18.883Z</time></trkpt><trkpt lat="42.088319" lon="11.8342437"><ele>160.0</ele><time>2026-04-18T14:01:19.882Z</time></trkpt><trkpt lat="42.0882873" lon="11.8341133"><ele>157.6</ele><time>2026-04-18T14:01:20.882Z</time></trkpt><trkpt lat="42.0882516" lon="11.8339881"><ele>155.2</ele><time>2026-04-18T14:01:21.882Z</time></trkpt><trkpt lat="42.0882105" lon="11.833862"><ele>152.8</ele><time>2026-04-18T14:01:22.881Z</time></trkpt><trkpt lat="42.0881614" lon="11.8337198"><ele>150.4</ele><time>2026-04-18T14:01:23.882Z</time></trkpt><trkpt lat="42.0881079" lon="11.833577"><ele>148.0</ele><time>2026-04-18T14:01:24.882Z</time></trkpt><trkpt lat="42.0880486" lon="11.8334328"><ele>148.0</ele><time>2026-04-18T14:01:25.883Z</time></trkpt><trkpt lat="42.0879918" lon="11.8333018"><ele>148.0</ele><time>2026-04-18T14:01:26.882Z</time></trkpt><trkpt lat="42.0879379" lon="11.8331751"><ele>148.0</ele><time>2026-04-18T14:01:27.883Z</time></trkpt><trkpt lat="42.0878788" lon="11.833045"><ele>148.0</ele><time>2026-04-18T14:01:28.881Z</time></trkpt><trkpt lat="42.0878177" lon="11.8329177"><ele>148.0</ele><time>2026-04-18T14:01:29.882Z</time></trkpt><trkpt lat="42.0877596" lon="11.8327948"><ele>148.0</ele><time>2026-04-18T14:01:30.883Z</time></trkpt><trkpt lat="42.0876924" lon="11.8326461"><ele>148.0</ele><time>2026-04-18T14:01:31.883Z</time></trkpt><trkpt lat="42.0876279" lon="11.832495"><ele>148.0</ele><time>2026-04-18T14:01:32.882Z</time></trkpt><trkpt lat="42.0875713" lon="11.8323541"><ele>148.0</ele><time>2026-04-18T14:01:33.882Z</time></trkpt><trkpt lat="42.0875209" lon="11.832217"><ele>147.25</ele><time>2026-04-18T14:01:34.882Z</time></trkpt><trkpt lat="42.0874758" lon="11.8320725"><ele>146.5</ele><time>2026-04-18T14:01:35.882Z</time></trkpt><trkpt lat="42.0874337" lon="11.8319079"><ele>145.75</ele><time>2026-04-18T14:01:36.881Z</time></trkpt><trkpt lat="42.087399" lon="11.8317643"><ele>145.0</ele><time>2026-04-18T14:01:37.881Z</time></trkpt><trkpt lat="42.0873691" lon="11.8316246"><ele>142.6</ele><time>2026-04-18T14:01:38.881Z</time></trkpt><trkpt lat="42.0873452" lon="11.8314955"><ele>140.2</ele><time>2026-04-18T14:01:39.882Z</time></trkpt><trkpt lat="42.0873259" lon="11.8313608"><ele>137.8</ele><time>2026-04-18T14:01:40.883Z</time></trkpt><trkpt lat="42.0873153" lon="11.831225"><ele>135.4</ele><time>2026-04-18T14:01:41.882Z</time></trkpt><trkpt lat="42.0873081" lon="11.8310767"><ele>133.0</ele><time>2026-04-18T14:01:42.881Z</time></trkpt><trkpt lat="42.0873042" lon="11.8309291"><ele>133.0</ele><time>2026-04-18T14:01:43.881Z</time></trkpt><trkpt lat="42.0872925" lon="11.8307863"><ele>133.0</ele><time>2026-04-18T14:01:44.882Z</time></trkpt><trkpt lat="42.0872668" lon="11.8306339"><ele>133.0</ele><time>2026-04-18T14:01:45.882Z</time></trkpt><trkpt lat="42.0872337" lon="11.8305014"><ele>133.0</ele><time>2026-04-18T14:01:46.881Z</time></trkpt><trkpt lat="42.0872002" lon="11.8303735"><ele>133.0</ele><time>2026-04-18T14:01:47.881Z</time></trkpt><trkpt lat="42.0871759" lon="11.8302453"><ele>132.83333333333334</ele><time>2026-04-18T14:01:48.881Z</time></trkpt><trkpt lat="42.0871511" lon="11.8301144"><ele>132.66666666666669</ele><time>2026-04-18T14:01:49.882Z</time></trkpt><trkpt lat="42.0871326" lon="11.8299944"><ele>132.5</ele><time>2026-04-18T14:01:50.881Z</time></trkpt><trkpt lat="42.0871201" lon="11.829879"><ele>132.33333333333334</ele><time>2026-04-18T14:01:51.882Z</time></trkpt><trkpt lat="42.0871154" lon="11.8297645"><ele>132.16666666666666</ele><time>2026-04-18T14:01:52.881Z</time></trkpt><trkpt lat="42.0871216" lon="11.8296528"><ele>132.0</ele><time>2026-04-18T14:01:53.882Z</time></trkpt><trkpt lat="42.0871496" lon="11.829535"><ele>132.0</ele><time>2026-04-18T14:01:54.883Z</time></trkpt><trkpt lat="42.0871865" lon="11.8294177"><ele>132.0</ele><time>2026-04-18T14:01:55.882Z</time></trkpt><trkpt lat="42.0872201" lon="11.8292967"><ele>132.0</ele><time>2026-04-18T14:01:56.882Z</time></trkpt><trkpt lat="42.0872371" lon="11.829156"><ele>132.0</ele><time>2026-04-18T14:01:57.881Z</time></trkpt><trkpt lat="42.0872426" lon="11.8290206"><ele>132.0</ele><time>2026-04-18T14:01:58.881Z</time></trkpt><trkpt lat="42.0872455" lon="11.8288971"><ele>131.33333333333334</ele><time>2026-04-18T14:01:59.881Z</time></trkpt><trkpt lat="42.0872509" lon="11.8287829"><ele>130.66666666666666</ele><time>2026-04-18T14:02:00.881Z</time></trkpt><trkpt lat="42.0872649" lon="11.8286672"><ele>130.0</ele><time>2026-04-18T14:02:01.881Z</time></trkpt><trkpt lat="42.087281" lon="11.8285523"><ele>129.33333333333331</ele><time>2026-04-18T14:02:02.881Z</time></trkpt><trkpt lat="42.0872969" lon="11.828442"><ele>128.66666666666666</ele><time>2026-04-18T14:02:03.882Z</time></trkpt><trkpt lat="42.0873125" lon="11.8283392"><ele>128.0</ele><time>2026-04-18T14:02:04.881Z</time></trkpt><trkpt lat="42.0873288" lon="11.8282308"><ele>126.83333333333333</ele><time>2026-04-18T14:02:05.882Z</time></trkpt><trkpt lat="42.0873459" lon="11.8281201"><ele>125.66666666666666</ele><time>2026-04-18T14:02:06.883Z</time></trkpt><trkpt lat="42.0873607" lon="11.8280236"><ele>124.5</ele><time>2026-04-18T14:02:07.883Z</time></trkpt><trkpt lat="42.0873846" lon="11.8279312"><ele>123.33333333333334</ele><time>2026-04-18T14:02:08.881Z</time></trkpt><trkpt lat="42.0873933" lon="11.827832"><ele>122.16666666666667</ele><time>2026-04-18T14:02:09.882Z</time></trkpt><trkpt lat="42.087373" lon="11.827741"><ele>121.0</ele><time>2026-04-18T14:02:10.883Z</time></trkpt><trkpt lat="42.0873173" lon="11.8276646"><ele>120.16666666666667</ele><time>2026-04-18T14:02:11.882Z</time></trkpt><trkpt lat="42.0872285" lon="11.8276148"><ele>119.33333333333334</ele><time>2026-04-18T14:02:12.881Z</time></trkpt><trkpt lat="42.0871273" lon="11.8275889"><ele>118.5</ele><time>2026-04-18T14:02:13.882Z</time></trkpt><trkpt lat="42.0870356" lon="11.8275719"><ele>117.66666666666666</ele><time>2026-04-18T14:02:14.883Z</time></trkpt><trkpt lat="42.0869608" lon="11.8275347"><ele>116.83333333333333</ele><time>2026-04-18T14:02:15.883Z</time></trkpt><trkpt lat="42.0868979" lon="11.8274847"><ele>116.0</ele><time>2026-04-18T14:02:16.882Z</time></trkpt><trkpt lat="42.0868342" lon="11.8274128"><ele>116.0</ele><time>2026-04-18T14:02:17.881Z</time></trkpt><trkpt lat="42.0867735" lon="11.8273184"><ele>116.0</ele><time>2026-04-18T14:02:18.882Z</time></trkpt><trkpt lat="42.0867156" lon="11.8271913"><ele>116.0</ele><time>2026-04-18T14:02:19.881Z</time></trkpt><trkpt lat="42.0866654" lon="11.8270324"><ele>116.0</ele><time>2026-04-18T14:02:20.882Z</time></trkpt><trkpt lat="42.0866346" lon="11.8268526"><ele>115.25</ele><time>2026-04-18T14:02:21.883Z</time></trkpt><trkpt lat="42.0866052" lon="11.8266838"><ele>114.5</ele><time>2026-04-18T14:02:22.882Z</time></trkpt><trkpt lat="42.0865518" lon="11.8265079"><ele>113.75</ele><time>2026-04-18T14:02:23.881Z</time></trkpt><trkpt lat="42.086486" lon="11.8263503"><ele>113.0</ele><time>2026-04-18T14:02:24.882Z</time></trkpt><trkpt lat="42.086416" lon="11.8262113"><ele>111.75</ele><time>2026-04-18T14:02:25.881Z</time></trkpt><trkpt lat="42.0863498" lon="11.8260712"><ele>110.5</ele><time>2026-04-18T14:02:26.881Z</time></trkpt><trkpt lat="42.0862987" lon="11.825921"><ele>109.25</ele><time>2026-04-18T14:02:27.882Z</time></trkpt><trkpt lat="42.0862562" lon="11.8257589"><ele>108.0</ele><time>2026-04-18T14:02:28.881Z</time></trkpt><trkpt lat="42.0862175" lon="11.8255825"><ele>106.75</ele><time>2026-04-18T14:02:29.883Z</time></trkpt><trkpt lat="42.0861891" lon="11.8254015"><ele>105.5</ele><time>2026-04-18T14:02:30.883Z</time></trkpt><trkpt lat="42.0861675" lon="11.8252267"><ele>104.25</ele><time>2026-04-18T14:02:31.882Z</time></trkpt><trkpt lat="42.086145" lon="11.8250601"><ele>103.0</ele><time>2026-04-18T14:02:32.883Z</time></trkpt><trkpt lat="42.0861237" lon="11.8249003"><ele>101.25</ele><time>2026-04-18T14:02:33.881Z</time></trkpt><trkpt lat="42.0860985" lon="11.8247392"><ele>99.5</ele><time>2026-04-18T14:02:34.881Z</time></trkpt><trkpt lat="42.0860702" lon="11.8245746"><ele>97.75</ele><time>2026-04-18T14:02:35.881Z</time></trkpt><trkpt lat="42.0860333" lon="11.8244074"><ele>96.0</ele><time>2026-04-18T14:02:36.882Z</time></trkpt><trkpt lat="42.0859924" lon="11.8242411"><ele>94.0</ele><time>2026-04-18T14:02:37.883Z</time></trkpt><trkpt lat="42.0859402" lon="11.8240793"><ele>92.0</ele><time>2026-04-18T14:02:38.883Z</time></trkpt><trkpt lat="42.0858901" lon="11.8239284"><ele>90.0</ele><time>2026-04-18T14:02:39.881Z</time></trkpt><trkpt lat="42.0858563" lon="11.8237641"><ele>88.0</ele><time>2026-04-18T14:02:40.88Z</time></trkpt><trkpt lat="42.085836" lon="11.8235893"><ele>87.0</ele><time>2026-04-18T14:02:41.881Z</time></trkpt><trkpt lat="42.0858235" lon="11.8234053"><ele>86.0</ele><time>2026-04-18T14:02:42.88Z</time></trkpt><trkpt lat="42.0858113" lon="11.8232167"><ele>85.0</ele><time>2026-04-18T14:02:43.881Z</time></trkpt><trkpt lat="42.0857965" lon="11.8230236"><ele>84.0</ele><time>2026-04-18T14:02:44.881Z</time></trkpt><trkpt lat="42.0857779" lon="11.8228102"><ele>81.33333333333333</ele><time>2026-04-18T14:02:45.88Z</time></trkpt><trkpt lat="42.085756" lon="11.8225998"><ele>78.66666666666666</ele><time>2026-04-18T14:02:46.881Z</time></trkpt><trkpt lat="42.0857332" lon="11.8223964"><ele>76.0</ele><time>2026-04-18T14:02:47.881Z</time></trkpt><trkpt lat="42.0857109" lon="11.8222015"><ele>76.0</ele><time>2026-04-18T14:02:48.88Z</time></trkpt><trkpt lat="42.0856896" lon="11.8220137"><ele>76.0</ele><time>2026-04-18T14:02:49.881Z</time></trkpt><trkpt lat="42.0856736" lon="11.8218343"><ele>76.0</ele><time>2026-04-18T14:02:50.882Z</time></trkpt><trkpt lat="42.0856596" lon="11.8216592"><ele>76.0</ele><time>2026-04-18T14:02:51.88Z</time></trkpt><trkpt lat="42.0856461" lon="11.8214909"><ele>75.25</ele><time>2026-04-18T14:02:52.88Z</time></trkpt><trkpt lat="42.0856336" lon="11.8213195"><ele>74.5</ele><time>2026-04-18T14:02:53.881Z</time></trkpt><trkpt lat="42.0856188" lon="11.8211354"><ele>73.75</ele><time>2026-04-18T14:02:54.881Z</time></trkpt><trkpt lat="42.0855988" lon="11.8209445"><ele>73.0</ele><time>2026-04-18T14:02:55.88Z</time></trkpt><trkpt lat="42.0855707" lon="11.8207602"><ele>72.25</ele><time>2026-04-18T14:02:56.881Z</time></trkpt><trkpt lat="42.0855343" lon="11.8205812"><ele>71.5</ele><time>2026-04-18T14:02:57.882Z</time></trkpt><trkpt lat="42.0854813" lon="11.8204016"><ele>70.75</ele><time>2026-04-18T14:02:58.882Z</time></trkpt><trkpt lat="42.0854112" lon="11.8202224"><ele>70.0</ele><time>2026-04-18T14:02:59.881Z</time></trkpt><trkpt lat="42.0853367" lon="11.8200412"><ele>68.33333333333333</ele><time>2026-04-18T14:03:00.881Z</time></trkpt><trkpt lat="42.0852693" lon="11.8198508"><ele>66.66666666666667</ele><time>2026-04-18T14:03:01.882Z</time></trkpt><trkpt lat="42.0852106" lon="11.8196396"><ele>65.0</ele><time>2026-04-18T14:03:02.881Z</time></trkpt><trkpt lat="42.0851621" lon="11.8194273"><ele>63.333333333333336</ele><time>2026-04-18T14:03:03.881Z</time></trkpt><trkpt lat="42.0851177" lon="11.8192236"><ele>61.66666666666667</ele><time>2026-04-18T14:03:04.88Z</time></trkpt><trkpt lat="42.0850696" lon="11.8190288"><ele>60.0</ele><time>2026-04-18T14:03:05.882Z</time></trkpt><trkpt lat="42.0850192" lon="11.8188436"><ele>60.0</ele><time>2026-04-18T14:03:06.88Z</time></trkpt><trkpt lat="42.0849716" lon="11.8186662"><ele>60.0</ele><time>2026-04-18T14:03:07.881Z</time></trkpt><trkpt lat="42.0849245" lon="11.8184934"><ele>60.0</ele><time>2026-04-18T14:03:08.88Z</time></trkpt><trkpt lat="42.0848807" lon="11.8183203"><ele>60.0</ele><time>2026-04-18T14:03:09.882Z</time></trkpt><trkpt lat="42.0848463" lon="11.8181523"><ele>58.25</ele><time>2026-04-18T14:03:10.881Z</time></trkpt><trkpt lat="42.0848152" lon="11.8179892"><ele>56.5</ele><time>2026-04-18T14:03:11.881Z</time></trkpt><trkpt lat="42.0847824" lon="11.8178339"><ele>54.75</ele><time>2026-04-18T14:03:12.88Z</time></trkpt><trkpt lat="42.0847518" lon="11.8176814"><ele>53.0</ele><time>2026-04-18T14:03:13.881Z</time></trkpt><trkpt lat="42.0847169" lon="11.8175284"><ele>51.25</ele><time>2026-04-18T14:03:14.881Z</time></trkpt><trkpt lat="42.0846612" lon="11.8173761"><ele>49.5</ele><time>2026-04-18T14:03:15.88Z</time></trkpt><trkpt lat="42.0846" lon="11.817233"><ele>47.75</ele><time>2026-04-18T14:03:16.881Z</time></trkpt><trkpt lat="42.0845332" lon="11.8170968"><ele>46.0</ele><time>2026-04-18T14:03:17.88Z</time></trkpt><trkpt lat="42.0844688" lon="11.8169608"><ele>46.0</ele><time>2026-04-18T14:03:18.88Z</time></trkpt><trkpt lat="42.084407" lon="11.8168256"><ele>46.0</ele><time>2026-04-18T14:03:19.882Z</time></trkpt><trkpt lat="42.0843503" lon="11.8166872"><ele>46.0</ele><time>2026-04-18T14:03:20.881Z</time></trkpt><trkpt lat="42.0842936" lon="11.8165372"><ele>46.0</ele><time>2026-04-18T14:03:21.88Z</time></trkpt><trkpt lat="42.0842491" lon="11.8163696"><ele>45.25</ele><time>2026-04-18T14:03:22.881Z</time></trkpt><trkpt lat="42.0842145" lon="11.8161824"><ele>44.5</ele><time>2026-04-18T14:03:23.881Z</time></trkpt><trkpt lat="42.0841735" lon="11.8159794"><ele>43.75</ele><time>2026-04-18T14:03:24.882Z</time></trkpt><trkpt lat="42.0841266" lon="11.81579"><ele>43.0</ele><time>2026-04-18T14:03:25.881Z</time></trkpt><trkpt lat="42.0840809" lon="11.8156181"><ele>41.75</ele><time>2026-04-18T14:03:26.882Z</time></trkpt><trkpt lat="42.0840423" lon="11.8154516"><ele>40.5</ele><time>2026-04-18T14:03:27.88Z</time></trkpt><trkpt lat="42.0840195" lon="11.8152924"><ele>39.25</ele><time>2026-04-18T14:03:28.881Z</time></trkpt><trkpt lat="42.0840123" lon="11.8151291"><ele>38.0</ele><time>2026-04-18T14:03:29.881Z</time></trkpt><trkpt lat="42.083987" lon="11.8149469"><ele>38.0</ele><time>2026-04-18T14:03:30.88Z</time></trkpt><trkpt lat="42.0839348" lon="11.8147604"><ele>38.0</ele><time>2026-04-18T14:03:31.88Z</time></trkpt><trkpt lat="42.0838728" lon="11.8145931"><ele>38.0</ele><time>2026-04-18T14:03:32.881Z</time></trkpt><trkpt lat="42.0838104" lon="11.8144399"><ele>38.0</ele><time>2026-04-18T14:03:33.881Z</time></trkpt><trkpt lat="42.0837526" lon="11.8142997"><ele>37.25</ele><time>2026-04-18T14:03:34.882Z</time></trkpt><trkpt lat="42.0836929" lon="11.8141634"><ele>36.5</ele><time>2026-04-18T14:03:35.881Z</time></trkpt><trkpt lat="42.083639" lon="11.8140374"><ele>35.75</ele><time>2026-04-18T14:03:36.88Z</time></trkpt><trkpt lat="42.0835825" lon="11.8139078"><ele>35.0</ele><time>2026-04-18T14:03:37.881Z</time></trkpt><trkpt lat="42.0835253" lon="11.8137722"><ele>35.0</ele><time>2026-04-18T14:03:38.882Z</time></trkpt><trkpt lat="42.0834601" lon="11.8136324"><ele>35.0</ele><time>2026-04-18T14:03:39.882Z</time></trkpt><trkpt lat="42.0833916" lon="11.8134932"><ele>35.0</ele><time>2026-04-18T14:03:40.881Z</time></trkpt><trkpt lat="42.0833263" lon="11.813362"><ele>35.0</ele><time>2026-04-18T14:03:41.881Z</time></trkpt><trkpt lat="42.0832718" lon="11.8132427"><ele>34.5</ele><time>2026-04-18T14:03:42.88Z</time></trkpt><trkpt lat="42.0832215" lon="11.8131397"><ele>34.0</ele><time>2026-04-18T14:03:43.882Z</time></trkpt><trkpt lat="42.0831777" lon="11.8130504"><ele>33.5</ele><time>2026-04-18T14:03:44.88Z</time></trkpt><trkpt lat="42.0831439" lon="11.8129769"><ele>33.0</ele><time>2026-04-18T14:03:45.88Z</time></trkpt><trkpt lat="42.0831023" lon="11.8128635"><ele>32.5</ele><time>2026-04-18T14:03:47.88Z</time></trkpt><trkpt lat="42.0830731" lon="11.8127426"><ele>32.0</ele><time>2026-04-18T14:03:49.881Z</time></trkpt><trkpt lat="42.0829824" lon="11.8127473"><ele>32.0</ele><time>2026-04-18T14:03:51.88Z</time></trkpt><trkpt lat="42.0828954" lon="11.8129068"><ele>32.0</ele><time>2026-04-18T14:03:53.882Z</time></trkpt><trkpt lat="42.0828025" lon="11.813006"><ele>32.0</ele><time>2026-04-18T14:03:54.88Z</time></trkpt><trkpt lat="42.0826896" lon="11.8131101"><ele>32.0</ele><time>2026-04-18T14:03:55.88Z</time></trkpt><trkpt lat="42.0825884" lon="11.8131937"><ele>32.0</ele><time>2026-04-18T14:03:56.881Z</time></trkpt><trkpt lat="42.0824759" lon="11.813282"><ele>32.0</ele><time>2026-04-18T14:03:57.88Z</time></trkpt><trkpt lat="42.0823629" lon="11.8133717"><ele>32.0</ele><time>2026-04-18T14:03:58.88Z</time></trkpt><trkpt lat="42.0822518" lon="11.8134577"><ele>32.0</ele><time>2026-04-18T14:03:59.881Z</time></trkpt><trkpt lat="42.0821489" lon="11.8135397"><ele>31.400000000000002</ele><time>2026-04-18T14:04:00.881Z</time></trkpt><trkpt lat="42.0820515" lon="11.8136242"><ele>30.800000000000004</ele><time>2026-04-18T14:04:01.881Z</time></trkpt><trkpt lat="42.0819505" lon="11.8137122"><ele>30.2</ele><time>2026-04-18T14:04:02.881Z</time></trkpt><trkpt lat="42.0818553" lon="11.8137895"><ele>29.6</ele><time>2026-04-18T14:04:03.882Z</time></trkpt><trkpt lat="42.081787" lon="11.8138479"><ele>29.0</ele><time>2026-04-18T14:04:04.881Z</time></trkpt><trkpt lat="42.0817106" lon="11.8139009"><ele>28.999999999999996</ele><time>2026-04-18T14:04:06.881Z</time></trkpt><trkpt lat="42.0816608" lon="11.813825"><ele>29.0</ele><time>2026-04-18T14:04:08.88Z</time></trkpt><trkpt lat="42.0817136" lon="11.8137073"><ele>29.0</ele><time>2026-04-18T14:04:10.881Z</time></trkpt><trkpt lat="42.0817819" lon="11.8136455"><ele>29.0</ele><time>2026-04-18T14:04:11.88Z</time></trkpt><trkpt lat="42.0818579" lon="11.8135997"><ele>28.999999999999996</ele><time>2026-04-18T14:04:12.88Z</time></trkpt><trkpt lat="42.0819265" lon="11.8135442"><ele>29.0</ele><time>2026-04-18T14:04:13.881Z</time></trkpt><trkpt lat="42.0819917" lon="11.8134786"><ele>28.833333333333332</ele><time>2026-04-18T14:04:14.88Z</time></trkpt><trkpt lat="42.0820477" lon="11.8134052"><ele>28.666666666666664</ele><time>2026-04-18T14:04:15.882Z</time></trkpt><trkpt lat="42.0820977" lon="11.8133257"><ele>28.5</ele><time>2026-04-18T14:04:16.88Z</time></trkpt><trkpt lat="42.08214" lon="11.813246"><ele>28.333333333333336</ele><time>2026-04-18T14:04:17.882Z</time></trkpt><trkpt lat="42.0821776" lon="11.8131457"><ele>28.166666666666668</ele><time>2026-04-18T14:04:18.881Z</time></trkpt><trkpt lat="42.0821962" lon="11.813023"><ele>28.0</ele><time>2026-04-18T14:04:19.88Z</time></trkpt><trkpt lat="42.0821779" lon="11.8128793"><ele>28.0</ele><time>2026-04-18T14:04:20.882Z</time></trkpt><trkpt lat="42.0821288" lon="11.8126996"><ele>28.0</ele><time>2026-04-18T14:04:21.88Z</time></trkpt><trkpt lat="42.0820763" lon="11.8125126"><ele>28.0</ele><time>2026-04-18T14:04:22.881Z</time></trkpt><trkpt lat="42.0820257" lon="11.8123403"><ele>28.0</ele><time>2026-04-18T14:04:23.88Z</time></trkpt><trkpt lat="42.0819682" lon="11.8121766"><ele>27.25</ele><time>2026-04-18T14:04:24.88Z</time></trkpt><trkpt lat="42.0819084" lon="11.8120143"><ele>26.5</ele><time>2026-04-18T14:04:25.881Z</time></trkpt><trkpt lat="42.0818497" lon="11.8118612"><ele>25.75</ele><time>2026-04-18T14:04:26.882Z</time></trkpt><trkpt lat="42.081783" lon="11.8117041"><ele>25.0</ele><time>2026-04-18T14:04:27.882Z</time></trkpt><trkpt lat="42.0817143" lon="11.8115449"><ele>25.0</ele><time>2026-04-18T14:04:28.88Z</time></trkpt><trkpt lat="42.0816519" lon="11.8113814"><ele>25.0</ele><time>2026-04-18T14:04:29.881Z</time></trkpt><trkpt lat="42.0815912" lon="11.8112313"><ele>25.0</ele><time>2026-04-18T14:04:30.881Z</time></trkpt><trkpt lat="42.0815308" lon="11.811086"><ele>25.0</ele><time>2026-04-18T14:04:31.881Z</time></trkpt><trkpt lat="42.0814716" lon="11.81095"><ele>24.25</ele><time>2026-04-18T14:04:32.88Z</time></trkpt><trkpt lat="42.081414" lon="11.8108119"><ele>23.5</ele><time>2026-04-18T14:04:33.882Z</time></trkpt><trkpt lat="42.0813622" lon="11.8106763"><ele>22.75</ele><time>2026-04-18T14:04:34.881Z</time></trkpt><trkpt lat="42.0813066" lon="11.8105314"><ele>22.0</ele><time>2026-04-18T14:04:35.881Z</time></trkpt><trkpt lat="42.0812502" lon="11.8103756"><ele>22.0</ele><time>2026-04-18T14:04:36.88Z</time></trkpt><trkpt lat="42.0811876" lon="11.8102178"><ele>22.0</ele><time>2026-04-18T14:04:37.881Z</time></trkpt><trkpt lat="42.0811307" lon="11.8100495"><ele>22.0</ele><time>2026-04-18T14:04:38.881Z</time></trkpt><trkpt lat="42.0811001" lon="11.809852"><ele>22.0</ele><time>2026-04-18T14:04:39.881Z</time></trkpt><trkpt lat="42.0810909" lon="11.8096409"><ele>21.0</ele><time>2026-04-18T14:04:40.88Z</time></trkpt><trkpt lat="42.0810813" lon="11.8094591"><ele>20.0</ele><time>2026-04-18T14:04:41.88Z</time></trkpt><trkpt lat="42.0810701" lon="11.8093019"><ele>19.0</ele><time>2026-04-18T14:04:42.88Z</time></trkpt><trkpt lat="42.0810632" lon="11.809174"><ele>18.0</ele><time>2026-04-18T14:04:43.88Z</time></trkpt><trkpt lat="42.0810599" lon="11.8090767"><ele>17.0</ele><time>2026-04-18T14:04:44.88Z</time></trkpt><trkpt lat="42.0810523" lon="11.808992"><ele>16.8</ele><time>2026-04-18T14:04:45.88Z</time></trkpt><trkpt lat="42.0810433" lon="11.8088658"><ele>16.6</ele><time>2026-04-18T14:04:47.88Z</time></trkpt><trkpt lat="42.0810543" lon="11.8087654"><ele>16.400000000000002</ele><time>2026-04-18T14:04:50.881Z</time></trkpt><trkpt lat="42.0810619" lon="11.808575"><ele>16.2</ele><time>2026-04-18T14:05:25.881Z</time></trkpt><trkpt lat="42.0810719" lon="11.8084215"><ele>16.0</ele><time>2026-04-18T14:05:26.88Z</time></trkpt><trkpt lat="42.0811007" lon="11.8082508"><ele>15.0</ele><time>2026-04-18T14:05:27.88Z</time></trkpt><trkpt lat="42.081139" lon="11.8080629"><ele>14.0</ele><time>2026-04-18T14:05:28.881Z</time></trkpt><trkpt lat="42.0811636" lon="11.8078803"><ele>13.0</ele><time>2026-04-18T14:05:29.88Z</time></trkpt><trkpt lat="42.0811769" lon="11.8076994"><ele>12.0</ele><time>2026-04-18T14:05:30.88Z</time></trkpt><trkpt lat="42.0811863" lon="11.8075305"><ele>11.2</ele><time>2026-04-18T14:05:31.88Z</time></trkpt><trkpt lat="42.0811844" lon="11.8073947"><ele>10.399999999999999</ele><time>2026-04-18T14:05:32.88Z</time></trkpt><trkpt lat="42.0811768" lon="11.8072751"><ele>9.600000000000001</ele><time>2026-04-18T14:05:33.881Z</time></trkpt><trkpt lat="42.0811778" lon="11.8071677"><ele>8.8</ele><time>2026-04-18T14:05:34.88Z</time></trkpt><trkpt lat="42.0811792" lon="11.8070791"><ele>8.0</ele><time>2026-04-18T14:05:36.881Z</time></trkpt><trkpt lat="42.0812881" lon="11.8069955"><ele>8.0</ele><time>2026-04-18T14:05:38.881Z</time></trkpt><trkpt lat="42.0813897" lon="11.806966"><ele>8.0</ele><time>2026-04-18T14:05:39.88Z</time></trkpt><trkpt lat="42.0814603" lon="11.8069152"><ele>8.0</ele><time>2026-04-18T14:05:40.881Z</time></trkpt><trkpt lat="42.0815115" lon="11.8068593"><ele>8.0</ele><time>2026-04-18T14:05:41.88Z</time></trkpt><trkpt lat="42.0816309" lon="11.8067554"><ele>8.0</ele><time>2026-04-18T14:05:43.88Z</time></trkpt><trkpt lat="42.0817144" lon="11.8066917"><ele>8.0</ele><time>2026-04-18T14:05:44.881Z</time></trkpt><trkpt lat="42.0818212" lon="11.8066378"><ele>8.0</ele><time>2026-04-18T14:05:45.881Z</time></trkpt><trkpt lat="42.0819324" lon="11.806576"><ele>8.0</ele><time>2026-04-18T14:05:46.88Z</time></trkpt><trkpt lat="42.0820653" lon="11.8064947"><ele>8.0</ele><time>2026-04-18T14:05:47.881Z</time></trkpt><trkpt lat="42.0822129" lon="11.8064089"><ele>8.0</ele><time>2026-04-18T14:05:48.881Z</time></trkpt><trkpt lat="42.0823538" lon="11.8063285"><ele>8.0</ele><time>2026-04-18T14:05:49.881Z</time></trkpt><trkpt lat="42.082479" lon="11.8062475"><ele>8.0</ele><time>2026-04-18T14:05:50.881Z</time></trkpt><trkpt lat="42.0825889" lon="11.806158"><ele>8.0</ele><time>2026-04-18T14:05:51.88Z</time></trkpt><trkpt lat="42.0826932" lon="11.8060642"><ele>8.600000000000001</ele><time>2026-04-18T14:05:52.881Z</time></trkpt><trkpt lat="42.0827929" lon="11.805982"><ele>9.200000000000001</ele><time>2026-04-18T14:05:53.881Z</time></trkpt><trkpt lat="42.0828824" lon="11.8058828"><ele>9.8</ele><time>2026-04-18T14:05:54.88Z</time></trkpt><trkpt lat="42.0829569" lon="11.8057725"><ele>10.4</ele><time>2026-04-18T14:05:55.882Z</time></trkpt><trkpt lat="42.0830298" lon="11.8056726"><ele>11.0</ele><time>2026-04-18T14:05:56.881Z</time></trkpt><trkpt lat="42.0831101" lon="11.8055529"><ele>11.0</ele><time>2026-04-18T14:05:57.881Z</time></trkpt><trkpt lat="42.0832042" lon="11.8053944"><ele>11.0</ele><time>2026-04-18T14:05:58.88Z</time></trkpt><trkpt lat="42.0833167" lon="11.8052488"><ele>11.0</ele><time>2026-04-18T14:05:59.881Z</time></trkpt><trkpt lat="42.0834203" lon="11.8051242"><ele>11.0</ele><time>2026-04-18T14:06:00.88Z</time></trkpt><trkpt lat="42.0835018" lon="11.8050143"><ele>11.200000000000001</ele><time>2026-04-18T14:06:01.88Z</time></trkpt><trkpt lat="42.0835767" lon="11.804917"><ele>11.4</ele><time>2026-04-18T14:06:02.88Z</time></trkpt><trkpt lat="42.0836517" lon="11.8048199"><ele>11.6</ele><time>2026-04-18T14:06:03.881Z</time></trkpt><trkpt lat="42.0837256" lon="11.804724"><ele>11.8</ele><time>2026-04-18T14:06:04.882Z</time></trkpt><trkpt lat="42.083796" lon="11.8046239"><ele>12.0</ele><time>2026-04-18T14:06:05.88Z</time></trkpt><trkpt lat="42.0838667" lon="11.804526"><ele>12.0</ele><time>2026-04-18T14:06:06.881Z</time></trkpt><trkpt lat="42.0839327" lon="11.8044385"><ele>12.0</ele><time>2026-04-18T14:06:07.881Z</time></trkpt><trkpt lat="42.0840022" lon="11.8043492"><ele>12.0</ele><time>2026-04-18T14:06:08.88Z</time></trkpt><trkpt lat="42.0840805" lon="11.804233"><ele>12.0</ele><time>2026-04-18T14:06:09.881Z</time></trkpt><trkpt lat="42.0841666" lon="11.8041012"><ele>12.0</ele><time>2026-04-18T14:06:10.881Z</time></trkpt><trkpt lat="42.0842634" lon="11.8039705"><ele>12.2</ele><time>2026-04-18T14:06:11.882Z</time></trkpt><trkpt lat="42.0843564" lon="11.803849"><ele>12.399999999999999</ele><time>2026-04-18T14:06:12.881Z</time></trkpt><trkpt lat="42.084442" lon="11.8037389"><ele>12.600000000000001</ele><time>2026-04-18T14:06:13.881Z</time></trkpt><trkpt lat="42.0845175" lon="11.8036338"><ele>12.8</ele><time>2026-04-18T14:06:14.881Z</time></trkpt><trkpt lat="42.0845828" lon="11.8035507"><ele>13.0</ele><time>2026-04-18T14:06:15.881Z</time></trkpt><trkpt lat="42.0846481" lon="11.8034743"><ele>12.999999999999998</ele><time>2026-04-18T14:06:16.88Z</time></trkpt><trkpt lat="42.0847058" lon="11.8033997"><ele>13.0</ele><time>2026-04-18T14:06:17.881Z</time></trkpt><trkpt lat="42.084761" lon="11.8033207"><ele>13.0</ele><time>2026-04-18T14:06:18.88Z</time></trkpt><trkpt lat="42.084817" lon="11.8032375"><ele>13.0</ele><time>2026-04-18T14:06:19.882Z</time></trkpt><trkpt lat="42.0848727" lon="11.8031614"><ele>12.999999999999998</ele><time>2026-04-18T14:06:20.881Z</time></trkpt><trkpt lat="42.0849254" lon="11.8030875"><ele>13.0</ele><time>2026-04-18T14:06:21.881Z</time></trkpt><trkpt lat="42.0849733" lon="11.8030221"><ele>13.0</ele><time>2026-04-18T14:06:22.88Z</time></trkpt><trkpt lat="42.0850187" lon="11.8029587"><ele>13.0</ele><time>2026-04-18T14:06:23.88Z</time></trkpt><trkpt lat="42.0850663" lon="11.8028929"><ele>13.0</ele><time>2026-04-18T14:06:24.881Z</time></trkpt><trkpt lat="42.0851132" lon="11.8028266"><ele>13.0</ele><time>2026-04-18T14:06:25.882Z</time></trkpt><trkpt lat="42.085163" lon="11.8027641"><ele>13.0</ele><time>2026-04-18T14:06:26.881Z</time></trkpt><trkpt lat="42.0852143" lon="11.8026977"><ele>13.0</ele><time>2026-04-18T14:06:27.882Z</time></trkpt><trkpt lat="42.0852626" lon="11.802635"><ele>13.0</ele><time>2026-04-18T14:06:28.882Z</time></trkpt><trkpt lat="42.0853148" lon="11.8025657"><ele>12.999999999999998</ele><time>2026-04-18T14:06:29.881Z</time></trkpt><trkpt lat="42.085369" lon="11.8024934"><ele>13.0</ele><time>2026-04-18T14:06:30.88Z</time></trkpt><trkpt lat="42.0854234" lon="11.8024103"><ele>13.0</ele><time>2026-04-18T14:06:31.881Z</time></trkpt><trkpt lat="42.0854824" lon="11.8023272"><ele>13.0</ele><time>2026-04-18T14:06:32.881Z</time></trkpt><trkpt lat="42.085545" lon="11.8022428"><ele>12.999999999999998</ele><time>2026-04-18T14:06:33.882Z</time></trkpt><trkpt lat="42.085613" lon="11.8021484"><ele>13.0</ele><time>2026-04-18T14:06:34.88Z</time></trkpt><trkpt lat="42.0856865" lon="11.8020506"><ele>12.8</ele><time>2026-04-18T14:06:35.881Z</time></trkpt><trkpt lat="42.0857652" lon="11.8019492"><ele>12.600000000000001</ele><time>2026-04-18T14:06:36.88Z</time></trkpt><trkpt lat="42.0858457" lon="11.8018422"><ele>12.399999999999999</ele><time>2026-04-18T14:06:37.882Z</time></trkpt><trkpt lat="42.0859205" lon="11.8017381"><ele>12.2</ele><time>2026-04-18T14:06:38.882Z</time></trkpt><trkpt lat="42.0859888" lon="11.8016413"><ele>12.0</ele><time>2026-04-18T14:06:39.881Z</time></trkpt><trkpt lat="42.0860624" lon="11.8015369"><ele>12.0</ele><time>2026-04-18T14:06:40.88Z</time></trkpt><trkpt lat="42.086134" lon="11.8014165"><ele>12.0</ele><time>2026-04-18T14:06:41.881Z</time></trkpt><trkpt lat="42.0862074" lon="11.8012898"><ele>12.0</ele><time>2026-04-18T14:06:42.881Z</time></trkpt><trkpt lat="42.0862768" lon="11.8011498"><ele>12.0</ele><time>2026-04-18T14:06:43.881Z</time></trkpt><trkpt lat="42.0863468" lon="11.8010005"><ele>11.0</ele><time>2026-04-18T14:06:44.88Z</time></trkpt><trkpt lat="42.0864066" lon="11.8008691"><ele>10.0</ele><time>2026-04-18T14:06:45.88Z</time></trkpt><trkpt lat="42.0864582" lon="11.8007551"><ele>9.0</ele><time>2026-04-18T14:06:46.88Z</time></trkpt><trkpt lat="42.086508" lon="11.800646"><ele>8.0</ele><time>2026-04-18T14:06:47.88Z</time></trkpt><trkpt lat="42.086552" lon="11.8005485"><ele>7.0</ele><time>2026-04-18T14:06:48.881Z</time></trkpt><trkpt lat="42.086599" lon="11.8004475"><ele>7.0</ele><time>2026-04-18T14:06:49.88Z</time></trkpt><trkpt lat="42.0866528" lon="11.8003374"><ele>6.999999999999999</ele><time>2026-04-18T14:06:50.88Z</time></trkpt><trkpt lat="42.0867071" lon="11.800219"><ele>6.999999999999999</ele><time>2026-04-18T14:06:51.882Z</time></trkpt><trkpt lat="42.086763" lon="11.8000927"><ele>7.0</ele><time>2026-04-18T14:06:52.882Z</time></trkpt><trkpt lat="42.0868255" lon="11.7999607"><ele>7.0</ele><time>2026-04-18T14:06:53.88Z</time></trkpt><trkpt lat="42.0868912" lon="11.7998203"><ele>7.0</ele><time>2026-04-18T14:06:54.881Z</time></trkpt><trkpt lat="42.0869546" lon="11.7996767"><ele>7.0</ele><time>2026-04-18T14:06:55.881Z</time></trkpt><trkpt lat="42.087025" lon="11.7995309"><ele>7.0</ele><time>2026-04-18T14:06:56.88Z</time></trkpt><trkpt lat="42.0870927" lon="11.7993811"><ele>7.0</ele><time>2026-04-18T14:06:57.88Z</time></trkpt><trkpt lat="42.0871615" lon="11.7992338"><ele>6.6</ele><time>2026-04-18T14:06:58.881Z</time></trkpt><trkpt lat="42.0872239" lon="11.7990974"><ele>6.199999999999999</ele><time>2026-04-18T14:06:59.881Z</time></trkpt><trkpt lat="42.0872792" lon="11.7989711"><ele>5.8</ele><time>2026-04-18T14:07:00.881Z</time></trkpt><trkpt lat="42.0873317" lon="11.7988566"><ele>5.4</ele><time>2026-04-18T14:07:01.881Z</time></trkpt><trkpt lat="42.087384" lon="11.7987472"><ele>5.0</ele><time>2026-04-18T14:07:02.882Z</time></trkpt><trkpt lat="42.0874395" lon="11.7986232"><ele>6.0</ele><time>2026-04-18T14:07:03.882Z</time></trkpt><trkpt lat="42.0874972" lon="11.798497"><ele>7.0</ele><time>2026-04-18T14:07:04.88Z</time></trkpt><trkpt lat="42.0875556" lon="11.7983675"><ele>8.0</ele><time>2026-04-18T14:07:05.88Z</time></trkpt><trkpt lat="42.0876101" lon="11.798247"><ele>9.0</ele><time>2026-04-18T14:07:06.881Z</time></trkpt><trkpt lat="42.0876649" lon="11.7981312"><ele>10.0</ele><time>2026-04-18T14:07:07.881Z</time></trkpt><trkpt lat="42.0877227" lon="11.7980102"><ele>10.0</ele><time>2026-04-18T14:07:08.881Z</time></trkpt><trkpt lat="42.0877777" lon="11.7978945"><ele>10.0</ele><time>2026-04-18T14:07:09.881Z</time></trkpt><trkpt lat="42.0878277" lon="11.7977874"><ele>10.0</ele><time>2026-04-18T14:07:10.882Z</time></trkpt><trkpt lat="42.0878777" lon="11.7976793"><ele>10.0</ele><time>2026-04-18T14:07:11.882Z</time></trkpt><trkpt lat="42.0879273" lon="11.7975821"><ele>10.0</ele><time>2026-04-18T14:07:12.881Z</time></trkpt><trkpt lat="42.0879722" lon="11.7974931"><ele>9.5</ele><time>2026-04-18T14:07:13.88Z</time></trkpt><trkpt lat="42.0880119" lon="11.7974126"><ele>9.0</ele><time>2026-04-18T14:07:14.88Z</time></trkpt><trkpt lat="42.0880596" lon="11.7973206"><ele>8.5</ele><time>2026-04-18T14:07:15.88Z</time></trkpt><trkpt lat="42.088102" lon="11.7972313"><ele>8.0</ele><time>2026-04-18T14:07:16.881Z</time></trkpt><trkpt lat="42.0881443" lon="11.7971546"><ele>7.500000000000001</ele><time>2026-04-18T14:07:17.881Z</time></trkpt><trkpt lat="42.0881868" lon="11.7970679"><ele>7.0</ele><time>2026-04-18T14:07:18.881Z</time></trkpt><trkpt lat="42.0882333" lon="11.7969754"><ele>6.8</ele><time>2026-04-18T14:07:19.882Z</time></trkpt><trkpt lat="42.0882773" lon="11.7968848"><ele>6.6</ele><time>2026-04-18T14:07:20.88Z</time></trkpt><trkpt lat="42.0883169" lon="11.7968054"><ele>6.3999999999999995</ele><time>2026-04-18T14:07:21.881Z</time></trkpt><trkpt lat="42.0883849" lon="11.7966735"><ele>6.199999999999999</ele><time>2026-04-18T14:07:23.88Z</time></trkpt><trkpt lat="42.0884588" lon="11.7965389"><ele>6.0</ele><time>2026-04-18T14:07:25.88Z</time></trkpt><trkpt lat="42.0884974" lon="11.7964538"><ele>5.833333333333333</ele><time>2026-04-18T14:07:26.881Z</time></trkpt><trkpt lat="42.0885469" lon="11.7963403"><ele>5.666666666666667</ele><time>2026-04-18T14:07:27.88Z</time></trkpt><trkpt lat="42.0886" lon="11.7962341"><ele>5.5</ele><time>2026-04-18T14:07:28.88Z</time></trkpt><trkpt lat="42.0886582" lon="11.7961344"><ele>5.333333333333334</ele><time>2026-04-18T14:07:29.88Z</time></trkpt><trkpt lat="42.0887009" lon="11.7960437"><ele>5.166666666666667</ele><time>2026-04-18T14:07:30.881Z</time></trkpt><trkpt lat="42.0887381" lon="11.795957"><ele>5.0</ele><time>2026-04-18T14:07:31.88Z</time></trkpt><trkpt lat="42.0887728" lon="11.7958731"><ele>4.6</ele><time>2026-04-18T14:07:32.881Z</time></trkpt><trkpt lat="42.0888059" lon="11.7957975"><ele>4.2</ele><time>2026-04-18T14:07:33.88Z</time></trkpt><trkpt lat="42.0888691" lon="11.7956697"><ele>3.8</ele><time>2026-04-18T14:07:35.88Z</time></trkpt><trkpt lat="42.0889748" lon="11.7956225"><ele>3.4</ele><time>2026-04-18T14:07:37.88Z</time></trkpt><trkpt lat="42.0889821" lon="11.795521"><ele>3.0</ele><time>2026-04-18T14:07:40.881Z</time></trkpt><trkpt lat="42.0888834" lon="11.7955524"><ele>3.0</ele><time>2026-04-18T14:07:43.881Z</time></trkpt><trkpt lat="42.0888401" lon="11.7956507"><ele>3.0</ele><time>2026-04-18T14:07:44.882Z</time></trkpt><trkpt lat="42.0887872" lon="11.7957695"><ele>3.0</ele><time>2026-04-18T14:07:45.881Z</time></trkpt><trkpt lat="42.0887182" lon="11.7959091"><ele>3.0</ele><time>2026-04-18T14:07:46.881Z</time></trkpt><trkpt lat="42.0886523" lon="11.7960449"><ele>3.0</ele><time>2026-04-18T14:07:47.88Z</time></trkpt><trkpt lat="42.0885945" lon="11.79617"><ele>3.3333333333333335</ele><time>2026-04-18T14:07:48.881Z</time></trkpt><trkpt lat="42.0885433" lon="11.7962814"><ele>3.666666666666667</ele><time>2026-04-18T14:07:49.88Z</time></trkpt><trkpt lat="42.0884954" lon="11.7963845"><ele>4.0</ele><time>2026-04-18T14:07:50.881Z</time></trkpt><trkpt lat="42.0884515" lon="11.7964788"><ele>4.333333333333334</ele><time>2026-04-18T14:07:51.882Z</time></trkpt><trkpt lat="42.0884092" lon="11.7965704"><ele>4.666666666666667</ele><time>2026-04-18T14:07:52.88Z</time></trkpt><trkpt lat="42.0883642" lon="11.7966621"><ele>5.0</ele><time>2026-04-18T14:07:53.88Z</time></trkpt><trkpt lat="42.0883169" lon="11.7967318"><ele>5.0</ele><time>2026-04-18T14:07:54.88Z</time></trkpt><trkpt lat="42.0882085" lon="11.79677"><ele>5.0</ele><time>2026-04-18T14:07:56.881Z</time></trkpt><trkpt lat="42.0881551" lon="11.7967224"><ele>5.0</ele><time>2026-04-18T14:07:58.88Z</time></trkpt><trkpt lat="42.0881647" lon="11.796619"><ele>5.0</ele><time>2026-04-18T14:08:00.881Z</time></trkpt><trkpt lat="42.0881948" lon="11.7965433"><ele>5.0</ele><time>2026-04-18T14:08:01.881Z</time></trkpt><trkpt lat="42.0882267" lon="11.7964547"><ele>5.0</ele><time>2026-04-18T14:08:02.882Z</time></trkpt><trkpt lat="42.0882619" lon="11.7963556"><ele>5.0</ele><time>2026-04-18T14:08:03.882Z</time></trkpt><trkpt lat="42.0882958" lon="11.7962536"><ele>5.0</ele><time>2026-04-18T14:08:04.88Z</time></trkpt><trkpt lat="42.0883266" lon="11.7961635"><ele>5.0</ele><time>2026-04-18T14:08:05.88Z</time></trkpt><trkpt lat="42.0883559" lon="11.7960815"><ele>5.0</ele><time>2026-04-18T14:08:06.881Z</time></trkpt><trkpt lat="42.0884085" lon="11.7959345"><ele>5.0</ele><time>2026-04-18T14:08:08.88Z</time></trkpt><trkpt lat="42.0884452" lon="11.7957733"><ele>4.6</ele><time>2026-04-18T14:08:10.881Z</time></trkpt><trkpt lat="42.0884611" lon="11.7956224"><ele>4.2</ele><time>2026-04-18T14:08:12.881Z</time></trkpt><trkpt lat="42.0885011" lon="11.7954646"><ele>3.8</ele><time>2026-04-18T14:08:14.88Z</time></trkpt><trkpt lat="42.0885195" lon="11.7953064"><ele>3.4</ele><time>2026-04-18T14:08:16.881Z</time></trkpt><trkpt lat="42.0885402" lon="11.795226"><ele>3.0</ele><time>2026-04-18T14:08:17.881Z</time></trkpt><trkpt lat="42.0885772" lon="11.7951456"><ele>2.6666666666666665</ele><time>2026-04-18T14:08:18.881Z</time></trkpt><trkpt lat="42.0886178" lon="11.7950604"><ele>2.3333333333333335</ele><time>2026-04-18T14:08:19.88Z</time></trkpt><trkpt lat="42.0886605" lon="11.7949682"><ele>2.0</ele><time>2026-04-18T14:08:20.88Z</time></trkpt><trkpt lat="42.0887032" lon="11.7948722"><ele>1.6666666666666665</ele><time>2026-04-18T14:08:21.88Z</time></trkpt><trkpt lat="42.0887433" lon="11.7947912"><ele>1.3333333333333333</ele><time>2026-04-18T14:08:22.88Z</time></trkpt><trkpt lat="42.088782" lon="11.7947114"><ele>1.0</ele><time>2026-04-18T14:08:23.88Z</time></trkpt><trkpt lat="42.0888199" lon="11.7946265"><ele>0.9999999999999999</ele><time>2026-04-18T14:08:24.882Z</time></trkpt><trkpt lat="42.0888596" lon="11.7945373"><ele>1.0</ele><time>2026-04-18T14:08:25.881Z</time></trkpt><trkpt lat="42.0889044" lon="11.7944501"><ele>1.0</ele><time>2026-04-18T14:08:26.882Z</time></trkpt><trkpt lat="42.0889497" lon="11.7943589"><ele>1.0</ele><time>2026-04-18T14:08:27.881Z</time></trkpt><trkpt lat="42.088992" lon="11.7942631"><ele>0.9999999999999999</ele><time>2026-04-18T14:08:28.881Z</time></trkpt><trkpt lat="42.0890309" lon="11.7941627"><ele>1.0</ele><time>2026-04-18T14:08:29.881Z</time></trkpt><trkpt lat="42.0890721" lon="11.7940636"><ele>1.1666666666666665</ele><time>2026-04-18T14:08:30.882Z</time></trkpt><trkpt lat="42.0891161" lon="11.7939669"><ele>1.3333333333333333</ele><time>2026-04-18T14:08:31.882Z</time></trkpt><trkpt lat="42.0891619" lon="11.7938689"><ele>1.5</ele><time>2026-04-18T14:08:32.88Z</time></trkpt><trkpt lat="42.0892135" lon="11.7937735"><ele>1.6666666666666665</ele><time>2026-04-18T14:08:33.881Z</time></trkpt><trkpt lat="42.0892695" lon="11.7936778"><ele>1.8333333333333333</ele><time>2026-04-18T14:08:34.882Z</time></trkpt><trkpt lat="42.0893207" lon="11.7935825"><ele>2.0</ele><time>2026-04-18T14:08:35.88Z</time></trkpt><trkpt lat="42.0893651" lon="11.7934912"><ele>1.9999999999999998</ele><time>2026-04-18T14:08:36.88Z</time></trkpt><trkpt lat="42.0894039" lon="11.7934082"><ele>2.0</ele><time>2026-04-18T14:08:37.88Z</time></trkpt><trkpt lat="42.0894396" lon="11.79333"><ele>2.0</ele><time>2026-04-18T14:08:38.88Z</time></trkpt><trkpt lat="42.0895029" lon="11.7931953"><ele>2.0</ele><time>2026-04-18T14:08:40.88Z</time></trkpt><trkpt lat="42.089552" lon="11.7930801"><ele>1.9999999999999998</ele><time>2026-04-18T14:08:42.881Z</time></trkpt><trkpt lat="42.0896036" lon="11.7929841"><ele>2.0</ele><time>2026-04-18T14:08:44.881Z</time></trkpt><trkpt lat="42.0895749" lon="11.7928872"><ele>2.0</ele><time>2026-04-18T14:08:46.881Z</time></trkpt><trkpt lat="42.0894777" lon="11.7929135"><ele>2.0</ele><time>2026-04-18T14:08:48.881Z</time></trkpt><trkpt lat="42.0894359" lon="11.7930085"><ele>2.0</ele><time>2026-04-18T14:08:50.881Z</time></trkpt><trkpt lat="42.0894562" lon="11.7931048"><ele>2.0</ele><time>2026-04-18T14:08:53.88Z</time></trkpt><trkpt lat="42.0894122" lon="11.7931709"><ele>2.0</ele><time>2026-04-18T14:08:57.881Z</time></trkpt><trkpt lat="42.0894496" lon="11.7930872"><ele>2.0</ele><time>2026-04-18T14:09:57.88Z</time></trkpt></trkseg></trk></gpx>